<?xml version="1.0" encoding="UTF-8" standalone="no" ?>
<gpx xmlns="http://www.topografix.com/GPX/1/1" xmlns:xsi="http://www.w3.org/2001/XMLSchema-instance" xsi:schemaLocation="http://www.topografix.com/GPX/1/1 http://www.topografix.com/GPX/1/1/gpx.xsd" version="1.1" creator="VisuGPX - https://www.visugpx.com">
  <metadata>
    <name>Pornichet 08/09/2022</name>
    <desc><![CDATA[Sortie jeudi 08 septembre 2022]]></desc>
  </metadata>
  <trk>
    <name><![CDATA[Pornichet Cyclisme]]></name>
    <trkseg>
      <trkpt lat="47.26384" lon="-2.31587">
        <ele>5.4000000953674</ele>
        <time>2022-09-08T06:52:56.000Z</time>
      </trkpt>
      <trkpt lat="47.26384" lon="-2.31605">
        <ele>5.4000000953674</ele>
        <time>2022-09-08T06:52:59.000Z</time>
      </trkpt>
      <trkpt lat="47.26384" lon="-2.31611">
        <ele>5.5999999046326</ele>
        <time>2022-09-08T06:53:00.000Z</time>
      </trkpt>
      <trkpt lat="47.26383" lon="-2.31629">
        <ele>5.5999999046326</ele>
        <time>2022-09-08T06:53:03.000Z</time>
      </trkpt>
      <trkpt lat="47.26386" lon="-2.31655">
        <ele>5.5999999046326</ele>
        <time>2022-09-08T06:53:07.000Z</time>
      </trkpt>
      <trkpt lat="47.26389" lon="-2.31666">
        <ele>5.5999999046326</ele>
        <time>2022-09-08T06:53:09.000Z</time>
      </trkpt>
      <trkpt lat="47.26385" lon="-2.31676">
        <ele>5.5999999046326</ele>
        <time>2022-09-08T06:53:12.000Z</time>
      </trkpt>
      <trkpt lat="47.26372" lon="-2.31682">
        <ele>5.5999999046326</ele>
        <time>2022-09-08T06:53:16.000Z</time>
      </trkpt>
      <trkpt lat="47.26367" lon="-2.31685">
        <ele>5.1999998092651</ele>
        <time>2022-09-08T06:53:17.000Z</time>
      </trkpt>
      <trkpt lat="47.26362" lon="-2.31688">
        <ele>4.8000001907349</ele>
        <time>2022-09-08T06:53:18.000Z</time>
      </trkpt>
      <trkpt lat="47.26358" lon="-2.31691">
        <ele>4.4000000953674</ele>
        <time>2022-09-08T06:53:19.000Z</time>
      </trkpt>
      <trkpt lat="47.26354" lon="-2.31693">
        <ele>4</ele>
        <time>2022-09-08T06:53:20.000Z</time>
      </trkpt>
      <trkpt lat="47.2635" lon="-2.31696">
        <ele>3.5999999046326</ele>
        <time>2022-09-08T06:53:21.000Z</time>
      </trkpt>
      <trkpt lat="47.26318" lon="-2.31712">
        <ele>3.5999999046326</ele>
        <time>2022-09-08T06:53:27.000Z</time>
      </trkpt>
      <trkpt lat="47.26303" lon="-2.31719">
        <ele>3.2000000476837</ele>
        <time>2022-09-08T06:53:30.000Z</time>
      </trkpt>
      <trkpt lat="47.26298" lon="-2.31722">
        <ele>2.5999999046326</ele>
        <time>2022-09-08T06:53:31.000Z</time>
      </trkpt>
      <trkpt lat="47.26294" lon="-2.31725">
        <ele>2.2000000476837</ele>
        <time>2022-09-08T06:53:32.000Z</time>
      </trkpt>
      <trkpt lat="47.26291" lon="-2.3173">
        <ele>1.6000000238419</ele>
        <time>2022-09-08T06:53:33.000Z</time>
      </trkpt>
      <trkpt lat="47.26292" lon="-2.31735">
        <ele>1.2000000476837</ele>
        <time>2022-09-08T06:53:34.000Z</time>
      </trkpt>
      <trkpt lat="47.26292" lon="-2.3174">
        <ele>1.2000000476837</ele>
        <time>2022-09-08T06:53:35.000Z</time>
      </trkpt>
      <trkpt lat="47.26293" lon="-2.31751">
        <ele>1.2000000476837</ele>
        <time>2022-09-08T06:53:37.000Z</time>
      </trkpt>
      <trkpt lat="47.26296" lon="-2.31762">
        <ele>1.2000000476837</ele>
        <time>2022-09-08T06:53:39.000Z</time>
      </trkpt>
      <trkpt lat="47.26297" lon="-2.31768">
        <ele>1.2000000476837</ele>
        <time>2022-09-08T06:53:40.000Z</time>
      </trkpt>
      <trkpt lat="47.263" lon="-2.31784">
        <ele>1.2000000476837</ele>
        <time>2022-09-08T06:53:43.000Z</time>
      </trkpt>
      <trkpt lat="47.26302" lon="-2.31791">
        <ele>1.2000000476837</ele>
        <time>2022-09-08T06:53:44.000Z</time>
      </trkpt>
      <trkpt lat="47.26306" lon="-2.31824">
        <ele>1.2000000476837</ele>
        <time>2022-09-08T06:53:49.000Z</time>
      </trkpt>
      <trkpt lat="47.26308" lon="-2.31852">
        <ele>1.2000000476837</ele>
        <time>2022-09-08T06:53:53.000Z</time>
      </trkpt>
      <trkpt lat="47.26307" lon="-2.31859">
        <ele>1.2000000476837</ele>
        <time>2022-09-08T06:53:54.000Z</time>
      </trkpt>
      <trkpt lat="47.26308" lon="-2.31867">
        <ele>1.2000000476837</ele>
        <time>2022-09-08T06:53:55.000Z</time>
      </trkpt>
      <trkpt lat="47.26305" lon="-2.31877">
        <ele>1.2000000476837</ele>
        <time>2022-09-08T06:53:57.000Z</time>
      </trkpt>
      <trkpt lat="47.263" lon="-2.31884">
        <ele>1.2000000476837</ele>
        <time>2022-09-08T06:53:59.000Z</time>
      </trkpt>
      <trkpt lat="47.2629" lon="-2.31896">
        <ele>1.2000000476837</ele>
        <time>2022-09-08T06:54:02.000Z</time>
      </trkpt>
      <trkpt lat="47.26281" lon="-2.31916">
        <ele>1.2000000476837</ele>
        <time>2022-09-08T06:54:06.000Z</time>
      </trkpt>
      <trkpt lat="47.26278" lon="-2.31921">
        <ele>0.80000001192093</ele>
        <time>2022-09-08T06:54:07.000Z</time>
      </trkpt>
      <trkpt lat="47.26276" lon="-2.31926">
        <ele>0.40000000596046</ele>
        <time>2022-09-08T06:54:08.000Z</time>
      </trkpt>
      <trkpt lat="47.26274" lon="-2.31931">
        <ele>3.4</ele>
        <time>2022-09-08T06:54:09.000Z</time>
      </trkpt>
      <trkpt lat="47.26272" lon="-2.31936">
        <ele>-0.40000000596046</ele>
        <time>2022-09-08T06:54:10.000Z</time>
      </trkpt>
      <trkpt lat="47.26269" lon="-2.31941">
        <ele>-0.80000001192093</ele>
        <time>2022-09-08T06:54:11.000Z</time>
      </trkpt>
      <trkpt lat="47.26252" lon="-2.31958">
        <ele>-0.80000001192093</ele>
        <time>2022-09-08T06:54:15.000Z</time>
      </trkpt>
      <trkpt lat="47.26235" lon="-2.31974">
        <ele>-0.80000001192093</ele>
        <time>2022-09-08T06:54:19.000Z</time>
      </trkpt>
      <trkpt lat="47.26231" lon="-2.31977">
        <ele>-0.80000001192093</ele>
        <time>2022-09-08T06:54:20.000Z</time>
      </trkpt>
      <trkpt lat="47.26213" lon="-2.3199">
        <ele>-0.80000001192093</ele>
        <time>2022-09-08T06:54:25.000Z</time>
      </trkpt>
      <trkpt lat="47.26211" lon="-2.31994">
        <ele>-0.80000001192093</ele>
        <time>2022-09-08T06:54:26.000Z</time>
      </trkpt>
      <trkpt lat="47.2621" lon="-2.32001">
        <ele>-0.80000001192093</ele>
        <time>2022-09-08T06:54:28.000Z</time>
      </trkpt>
      <trkpt lat="47.26205" lon="-2.3201">
        <ele>-0.80000001192093</ele>
        <time>2022-09-08T06:54:32.000Z</time>
      </trkpt>
      <trkpt lat="47.262" lon="-2.32009">
        <ele>-0.80000001192093</ele>
        <time>2022-09-08T06:54:34.000Z</time>
      </trkpt>
      <trkpt lat="47.26192" lon="-2.3201">
        <ele>-0.80000001192093</ele>
        <time>2022-09-08T06:54:37.000Z</time>
      </trkpt>
      <trkpt lat="47.26175" lon="-2.32017">
        <ele>-0.80000001192093</ele>
        <time>2022-09-08T06:54:42.000Z</time>
      </trkpt>
      <trkpt lat="47.26172" lon="-2.32021">
        <ele>-0.80000001192093</ele>
        <time>2022-09-08T06:54:43.000Z</time>
      </trkpt>
      <trkpt lat="47.26158" lon="-2.32049">
        <ele>-0.80000001192093</ele>
        <time>2022-09-08T06:54:48.000Z</time>
      </trkpt>
      <trkpt lat="47.26156" lon="-2.32056">
        <ele>-0.80000001192093</ele>
        <time>2022-09-08T06:54:49.000Z</time>
      </trkpt>
      <trkpt lat="47.26152" lon="-2.32069">
        <ele>-0.80000001192093</ele>
        <time>2022-09-08T06:54:51.000Z</time>
      </trkpt>
      <trkpt lat="47.26147" lon="-2.32082">
        <ele>-0.80000001192093</ele>
        <time>2022-09-08T06:54:53.000Z</time>
      </trkpt>
      <trkpt lat="47.26145" lon="-2.32088">
        <ele>-0.80000001192093</ele>
        <time>2022-09-08T06:54:54.000Z</time>
      </trkpt>
      <trkpt lat="47.2613" lon="-2.32134">
        <ele>-0.80000001192093</ele>
        <time>2022-09-08T06:55:01.000Z</time>
      </trkpt>
      <trkpt lat="47.26129" lon="-2.32141">
        <ele>-0.80000001192093</ele>
        <time>2022-09-08T06:55:02.000Z</time>
      </trkpt>
      <trkpt lat="47.26127" lon="-2.32147">
        <ele>-0.80000001192093</ele>
        <time>2022-09-08T06:55:03.000Z</time>
      </trkpt>
      <trkpt lat="47.26121" lon="-2.32167">
        <ele>-0.80000001192093</ele>
        <time>2022-09-08T06:55:06.000Z</time>
      </trkpt>
      <trkpt lat="47.26103" lon="-2.32203">
        <ele>-0.80000001192093</ele>
        <time>2022-09-08T06:55:12.000Z</time>
      </trkpt>
      <trkpt lat="47.26096" lon="-2.32213">
        <ele>-0.80000001192093</ele>
        <time>2022-09-08T06:55:14.000Z</time>
      </trkpt>
      <trkpt lat="47.26085" lon="-2.32228">
        <ele>-0.80000001192093</ele>
        <time>2022-09-08T06:55:17.000Z</time>
      </trkpt>
      <trkpt lat="47.26069" lon="-2.32247">
        <ele>-0.80000001192093</ele>
        <time>2022-09-08T06:55:21.000Z</time>
      </trkpt>
      <trkpt lat="47.26061" lon="-2.32255">
        <ele>-0.80000001192093</ele>
        <time>2022-09-08T06:55:23.000Z</time>
      </trkpt>
      <trkpt lat="47.26034" lon="-2.32287">
        <ele>-0.80000001192093</ele>
        <time>2022-09-08T06:55:30.000Z</time>
      </trkpt>
      <trkpt lat="47.2603" lon="-2.32291">
        <ele>-0.80000001192093</ele>
        <time>2022-09-08T06:55:31.000Z</time>
      </trkpt>
      <trkpt lat="47.26022" lon="-2.323">
        <ele>-0.80000001192093</ele>
        <time>2022-09-08T06:55:33.000Z</time>
      </trkpt>
      <trkpt lat="47.26013" lon="-2.32309">
        <ele>-0.80000001192093</ele>
        <time>2022-09-08T06:55:35.000Z</time>
      </trkpt>
      <trkpt lat="47.25986" lon="-2.3234">
        <ele>-0.80000001192093</ele>
        <time>2022-09-08T06:55:42.000Z</time>
      </trkpt>
      <trkpt lat="47.25957" lon="-2.32377">
        <ele>-0.80000001192093</ele>
        <time>2022-09-08T06:55:50.000Z</time>
      </trkpt>
      <trkpt lat="47.25937" lon="-2.32403">
        <ele>-0.80000001192093</ele>
        <time>2022-09-08T06:55:56.000Z</time>
      </trkpt>
      <trkpt lat="47.25927" lon="-2.32416">
        <ele>-0.80000001192093</ele>
        <time>2022-09-08T06:55:59.000Z</time>
      </trkpt>
      <trkpt lat="47.25918" lon="-2.32428">
        <ele>-0.80000001192093</ele>
        <time>2022-09-08T06:56:02.000Z</time>
      </trkpt>
      <trkpt lat="47.25914" lon="-2.32433">
        <ele>-0.80000001192093</ele>
        <time>2022-09-08T06:56:03.000Z</time>
      </trkpt>
      <trkpt lat="47.259" lon="-2.32455">
        <ele>-0.80000001192093</ele>
        <time>2022-09-08T06:56:08.000Z</time>
      </trkpt>
      <trkpt lat="47.25898" lon="-2.32463">
        <ele>-0.80000001192093</ele>
        <time>2022-09-08T06:56:10.000Z</time>
      </trkpt>
      <trkpt lat="47.259" lon="-2.32466">
        <ele>-0.80000001192093</ele>
        <time>2022-09-08T06:56:11.000Z</time>
      </trkpt>
      <trkpt lat="47.25911" lon="-2.32475">
        <ele>-0.80000001192093</ele>
        <time>2022-09-08T06:56:15.000Z</time>
      </trkpt>
      <trkpt lat="47.25913" lon="-2.3248">
        <ele>-0.80000001192093</ele>
        <time>2022-09-08T06:56:16.000Z</time>
      </trkpt>
      <trkpt lat="47.2592" lon="-2.32497">
        <ele>-0.80000001192093</ele>
        <time>2022-09-08T06:56:19.000Z</time>
      </trkpt>
      <trkpt lat="47.25922" lon="-2.32503">
        <ele>-0.80000001192093</ele>
        <time>2022-09-08T06:56:20.000Z</time>
      </trkpt>
      <trkpt lat="47.25925" lon="-2.32517">
        <ele>-0.80000001192093</ele>
        <time>2022-09-08T06:56:22.000Z</time>
      </trkpt>
      <trkpt lat="47.25928" lon="-2.3253">
        <ele>-0.80000001192093</ele>
        <time>2022-09-08T06:56:24.000Z</time>
      </trkpt>
      <trkpt lat="47.25935" lon="-2.32554">
        <ele>-0.80000001192093</ele>
        <time>2022-09-08T06:56:28.000Z</time>
      </trkpt>
      <trkpt lat="47.2594" lon="-2.32573">
        <ele>-0.80000001192093</ele>
        <time>2022-09-08T06:56:31.000Z</time>
      </trkpt>
      <trkpt lat="47.25946" lon="-2.32597">
        <ele>-0.80000001192093</ele>
        <time>2022-09-08T06:56:35.000Z</time>
      </trkpt>
      <trkpt lat="47.2595" lon="-2.32615">
        <ele>-0.80000001192093</ele>
        <time>2022-09-08T06:56:38.000Z</time>
      </trkpt>
      <trkpt lat="47.25951" lon="-2.32622">
        <ele>-0.80000001192093</ele>
        <time>2022-09-08T06:56:39.000Z</time>
      </trkpt>
      <trkpt lat="47.25951" lon="-2.32641">
        <ele>-0.80000001192093</ele>
        <time>2022-09-08T06:56:42.000Z</time>
      </trkpt>
      <trkpt lat="47.2595" lon="-2.32646">
        <ele>-1.2000000476837</ele>
        <time>2022-09-08T06:56:43.000Z</time>
      </trkpt>
      <trkpt lat="47.2595" lon="-2.32652">
        <ele>-1.6000000238419</ele>
        <time>2022-09-08T06:56:44.000Z</time>
      </trkpt>
      <trkpt lat="47.2595" lon="-2.32656">
        <ele>-2</ele>
        <time>2022-09-08T06:56:45.000Z</time>
      </trkpt>
      <trkpt lat="47.25953" lon="-2.32659">
        <ele>-2.4000000953674</ele>
        <time>2022-09-08T06:56:46.000Z</time>
      </trkpt>
      <trkpt lat="47.25956" lon="-2.32658">
        <ele>-2.7999999523163</ele>
        <time>2022-09-08T06:56:47.000Z</time>
      </trkpt>
      <trkpt lat="47.25973" lon="-2.32658">
        <ele>-2.7999999523163</ele>
        <time>2022-09-08T06:56:51.000Z</time>
      </trkpt>
      <trkpt lat="47.26001" lon="-2.32654">
        <ele>-2.7999999523163</ele>
        <time>2022-09-08T06:56:57.000Z</time>
      </trkpt>
      <trkpt lat="47.26039" lon="-2.32648">
        <ele>-2.7999999523163</ele>
        <time>2022-09-08T06:57:05.000Z</time>
      </trkpt>
      <trkpt lat="47.26079" lon="-2.3264">
        <ele>-2.7999999523163</ele>
        <time>2022-09-08T06:57:14.000Z</time>
      </trkpt>
      <trkpt lat="47.26114" lon="-2.32637">
        <ele>-2.7999999523163</ele>
        <time>2022-09-08T06:57:22.000Z</time>
      </trkpt>
      <trkpt lat="47.26144" lon="-2.32643">
        <ele>-2.7999999523163</ele>
        <time>2022-09-08T06:57:29.000Z</time>
      </trkpt>
      <trkpt lat="47.26156" lon="-2.3265">
        <ele>-2.7999999523163</ele>
        <time>2022-09-08T06:57:32.000Z</time>
      </trkpt>
      <trkpt lat="47.26164" lon="-2.32655">
        <ele>-2.7999999523163</ele>
        <time>2022-09-08T06:57:34.000Z</time>
      </trkpt>
      <trkpt lat="47.26179" lon="-2.32666">
        <ele>-2.7999999523163</ele>
        <time>2022-09-08T06:57:38.000Z</time>
      </trkpt>
      <trkpt lat="47.26183" lon="-2.3267">
        <ele>-2.7999999523163</ele>
        <time>2022-09-08T06:57:39.000Z</time>
      </trkpt>
      <trkpt lat="47.2621" lon="-2.327">
        <ele>-2.7999999523163</ele>
        <time>2022-09-08T06:57:46.000Z</time>
      </trkpt>
      <trkpt lat="47.26236" lon="-2.32738">
        <ele>-2.7999999523163</ele>
        <time>2022-09-08T06:57:53.000Z</time>
      </trkpt>
      <trkpt lat="47.26267" lon="-2.32787">
        <ele>-2.7999999523163</ele>
        <time>2022-09-08T06:58:01.000Z</time>
      </trkpt>
      <trkpt lat="47.26273" lon="-2.328">
        <ele>-2.7999999523163</ele>
        <time>2022-09-08T06:58:03.000Z</time>
      </trkpt>
      <trkpt lat="47.2628" lon="-2.32821">
        <ele>-2.7999999523163</ele>
        <time>2022-09-08T06:58:06.000Z</time>
      </trkpt>
      <trkpt lat="47.26282" lon="-2.32835">
        <ele>-2.7999999523163</ele>
        <time>2022-09-08T06:58:08.000Z</time>
      </trkpt>
      <trkpt lat="47.26285" lon="-2.32848">
        <ele>-2.7999999523163</ele>
        <time>2022-09-08T06:58:10.000Z</time>
      </trkpt>
      <trkpt lat="47.26287" lon="-2.32853">
        <ele>-2.7999999523163</ele>
        <time>2022-09-08T06:58:11.000Z</time>
      </trkpt>
      <trkpt lat="47.26301" lon="-2.32863">
        <ele>-2.7999999523163</ele>
        <time>2022-09-08T06:58:14.000Z</time>
      </trkpt>
      <trkpt lat="47.2631" lon="-2.32869">
        <ele>-2.7999999523163</ele>
        <time>2022-09-08T06:58:16.000Z</time>
      </trkpt>
      <trkpt lat="47.26315" lon="-2.3288">
        <ele>-2.7999999523163</ele>
        <time>2022-09-08T06:58:18.000Z</time>
      </trkpt>
      <trkpt lat="47.2632" lon="-2.32894">
        <ele>-3.2000000476837</ele>
        <time>2022-09-08T06:58:20.000Z</time>
      </trkpt>
      <trkpt lat="47.26322" lon="-2.329">
        <ele>-3.5999999046326</ele>
        <time>2022-09-08T06:58:21.000Z</time>
      </trkpt>
      <trkpt lat="47.26324" lon="-2.32907">
        <ele>-4</ele>
        <time>2022-09-08T06:58:22.000Z</time>
      </trkpt>
      <trkpt lat="47.26327" lon="-2.32913">
        <ele>-4.4000000953674</ele>
        <time>2022-09-08T06:58:23.000Z</time>
      </trkpt>
      <trkpt lat="47.26329" lon="-2.32919">
        <ele>-4.8000001907349</ele>
        <time>2022-09-08T06:58:24.000Z</time>
      </trkpt>
      <trkpt lat="47.26333" lon="-2.32932">
        <ele>-4.8000001907349</ele>
        <time>2022-09-08T06:58:26.000Z</time>
      </trkpt>
      <trkpt lat="47.2634" lon="-2.3295">
        <ele>-4.8000001907349</ele>
        <time>2022-09-08T06:58:29.000Z</time>
      </trkpt>
      <trkpt lat="47.2635" lon="-2.32973">
        <ele>-4.8000001907349</ele>
        <time>2022-09-08T06:58:33.000Z</time>
      </trkpt>
      <trkpt lat="47.26357" lon="-2.32981">
        <ele>-4.8000001907349</ele>
        <time>2022-09-08T06:58:35.000Z</time>
      </trkpt>
      <trkpt lat="47.26365" lon="-2.33003">
        <ele>-4.8000001907349</ele>
        <time>2022-09-08T06:58:39.000Z</time>
      </trkpt>
      <trkpt lat="47.26365" lon="-2.33016">
        <ele>-4.8000001907349</ele>
        <time>2022-09-08T06:58:41.000Z</time>
      </trkpt>
      <trkpt lat="47.26366" lon="-2.33049">
        <ele>-4.8000001907349</ele>
        <time>2022-09-08T06:58:46.000Z</time>
      </trkpt>
      <trkpt lat="47.26369" lon="-2.33101">
        <ele>-4.8000001907349</ele>
        <time>2022-09-08T06:58:54.000Z</time>
      </trkpt>
      <trkpt lat="47.2637" lon="-2.33113">
        <ele>-4.8000001907349</ele>
        <time>2022-09-08T06:58:56.000Z</time>
      </trkpt>
      <trkpt lat="47.26372" lon="-2.33139">
        <ele>-4.8000001907349</ele>
        <time>2022-09-08T06:59:00.000Z</time>
      </trkpt>
      <trkpt lat="47.26375" lon="-2.33191">
        <ele>-4.8000001907349</ele>
        <time>2022-09-08T06:59:08.000Z</time>
      </trkpt>
      <trkpt lat="47.26378" lon="-2.33243">
        <ele>-4.8000001907349</ele>
        <time>2022-09-08T06:59:16.000Z</time>
      </trkpt>
      <trkpt lat="47.2638" lon="-2.33249">
        <ele>-4.8000001907349</ele>
        <time>2022-09-08T06:59:17.000Z</time>
      </trkpt>
      <trkpt lat="47.26389" lon="-2.33263">
        <ele>-4.8000001907349</ele>
        <time>2022-09-08T06:59:20.000Z</time>
      </trkpt>
      <trkpt lat="47.26402" lon="-2.33267">
        <ele>-4.8000001907349</ele>
        <time>2022-09-08T06:59:23.000Z</time>
      </trkpt>
      <trkpt lat="47.26434" lon="-2.33271">
        <ele>-4.8000001907349</ele>
        <time>2022-09-08T06:59:30.000Z</time>
      </trkpt>
      <trkpt lat="47.26438" lon="-2.33272">
        <ele>-4.8000001907349</ele>
        <time>2022-09-08T06:59:31.000Z</time>
      </trkpt>
      <trkpt lat="47.26461" lon="-2.33276">
        <ele>-4.8000001907349</ele>
        <time>2022-09-08T06:59:36.000Z</time>
      </trkpt>
      <trkpt lat="47.2647" lon="-2.33278">
        <ele>-4.8000001907349</ele>
        <time>2022-09-08T06:59:38.000Z</time>
      </trkpt>
      <trkpt lat="47.2649" lon="-2.3328">
        <ele>-4.8000001907349</ele>
        <time>2022-09-08T06:59:43.000Z</time>
      </trkpt>
      <trkpt lat="47.26499" lon="-2.33282">
        <ele>-4.8000001907349</ele>
        <time>2022-09-08T06:59:45.000Z</time>
      </trkpt>
      <trkpt lat="47.26515" lon="-2.33295">
        <ele>-4.8000001907349</ele>
        <time>2022-09-08T06:59:49.000Z</time>
      </trkpt>
      <trkpt lat="47.26518" lon="-2.33299">
        <ele>-4.8000001907349</ele>
        <time>2022-09-08T06:59:50.000Z</time>
      </trkpt>
      <trkpt lat="47.26527" lon="-2.33323">
        <ele>-4.8000001907349</ele>
        <time>2022-09-08T06:59:54.000Z</time>
      </trkpt>
      <trkpt lat="47.26527" lon="-2.3335">
        <ele>-4.8000001907349</ele>
        <time>2022-09-08T06:59:58.000Z</time>
      </trkpt>
      <trkpt lat="47.26534" lon="-2.33377">
        <ele>-4.8000001907349</ele>
        <time>2022-09-08T07:00:02.000Z</time>
      </trkpt>
      <trkpt lat="47.26538" lon="-2.3339">
        <ele>-4.8000001907349</ele>
        <time>2022-09-08T07:00:04.000Z</time>
      </trkpt>
      <trkpt lat="47.26539" lon="-2.33397">
        <ele>-4.8000001907349</ele>
        <time>2022-09-08T07:00:05.000Z</time>
      </trkpt>
      <trkpt lat="47.26545" lon="-2.33424">
        <ele>-4.8000001907349</ele>
        <time>2022-09-08T07:00:09.000Z</time>
      </trkpt>
      <trkpt lat="47.26549" lon="-2.33453">
        <ele>-5.1999998092651</ele>
        <time>2022-09-08T07:00:13.000Z</time>
      </trkpt>
      <trkpt lat="47.2655" lon="-2.3346">
        <ele>-5.5999999046326</ele>
        <time>2022-09-08T07:00:14.000Z</time>
      </trkpt>
      <trkpt lat="47.26551" lon="-2.33467">
        <ele>-6.1999998092651</ele>
        <time>2022-09-08T07:00:15.000Z</time>
      </trkpt>
      <trkpt lat="47.26551" lon="-2.33474">
        <ele>-6.5999999046326</ele>
        <time>2022-09-08T07:00:16.000Z</time>
      </trkpt>
      <trkpt lat="47.26553" lon="-2.33481">
        <ele>-7</ele>
        <time>2022-09-08T07:00:17.000Z</time>
      </trkpt>
      <trkpt lat="47.26556" lon="-2.335">
        <ele>-7</ele>
        <time>2022-09-08T07:00:20.000Z</time>
      </trkpt>
      <trkpt lat="47.26561" lon="-2.3351">
        <ele>-7</ele>
        <time>2022-09-08T07:00:22.000Z</time>
      </trkpt>
      <trkpt lat="47.26565" lon="-2.33534">
        <ele>-7</ele>
        <time>2022-09-08T07:00:26.000Z</time>
      </trkpt>
      <trkpt lat="47.26569" lon="-2.33563">
        <ele>-7</ele>
        <time>2022-09-08T07:00:31.000Z</time>
      </trkpt>
      <trkpt lat="47.26574" lon="-2.33597">
        <ele>-7</ele>
        <time>2022-09-08T07:00:37.000Z</time>
      </trkpt>
      <trkpt lat="47.26578" lon="-2.33631">
        <ele>-6.5999999046326</ele>
        <time>2022-09-08T07:00:43.000Z</time>
      </trkpt>
      <trkpt lat="47.26578" lon="-2.33637">
        <ele>-6.1999998092651</ele>
        <time>2022-09-08T07:00:44.000Z</time>
      </trkpt>
      <trkpt lat="47.26578" lon="-2.33642">
        <ele>-5.8000001907349</ele>
        <time>2022-09-08T07:00:45.000Z</time>
      </trkpt>
      <trkpt lat="47.26578" lon="-2.33647">
        <ele>-5</ele>
        <time>2022-09-08T07:00:46.000Z</time>
      </trkpt>
      <trkpt lat="47.26583" lon="-2.33666">
        <ele>-5</ele>
        <time>2022-09-08T07:00:50.000Z</time>
      </trkpt>
      <trkpt lat="47.2659" lon="-2.33679">
        <ele>-5</ele>
        <time>2022-09-08T07:00:53.000Z</time>
      </trkpt>
      <trkpt lat="47.26593" lon="-2.33684">
        <ele>-5</ele>
        <time>2022-09-08T07:00:54.000Z</time>
      </trkpt>
      <trkpt lat="47.26601" lon="-2.33696">
        <ele>-5</ele>
        <time>2022-09-08T07:00:57.000Z</time>
      </trkpt>
      <trkpt lat="47.26609" lon="-2.33708">
        <ele>-5</ele>
        <time>2022-09-08T07:01:00.000Z</time>
      </trkpt>
      <trkpt lat="47.26612" lon="-2.33713">
        <ele>-5</ele>
        <time>2022-09-08T07:01:01.000Z</time>
      </trkpt>
      <trkpt lat="47.26626" lon="-2.33734">
        <ele>-5</ele>
        <time>2022-09-08T07:01:06.000Z</time>
      </trkpt>
      <trkpt lat="47.26637" lon="-2.33752">
        <ele>-4.5999999046326</ele>
        <time>2022-09-08T07:01:10.000Z</time>
      </trkpt>
      <trkpt lat="47.2664" lon="-2.33756">
        <ele>-3.5999999046326</ele>
        <time>2022-09-08T07:01:11.000Z</time>
      </trkpt>
      <trkpt lat="47.26643" lon="-2.33761">
        <ele>-3.2000000476837</ele>
        <time>2022-09-08T07:01:12.000Z</time>
      </trkpt>
      <trkpt lat="47.26645" lon="-2.33766">
        <ele>-2.7999999523163</ele>
        <time>2022-09-08T07:01:13.000Z</time>
      </trkpt>
      <trkpt lat="47.26654" lon="-2.3378">
        <ele>-2.7999999523163</ele>
        <time>2022-09-08T07:01:16.000Z</time>
      </trkpt>
      <trkpt lat="47.26657" lon="-2.33784">
        <ele>-2.7999999523163</ele>
        <time>2022-09-08T07:01:17.000Z</time>
      </trkpt>
      <trkpt lat="47.26664" lon="-2.33793">
        <ele>-2.7999999523163</ele>
        <time>2022-09-08T07:01:19.000Z</time>
      </trkpt>
      <trkpt lat="47.2667" lon="-2.33802">
        <ele>-2.7999999523163</ele>
        <time>2022-09-08T07:01:21.000Z</time>
      </trkpt>
      <trkpt lat="47.2669" lon="-2.33836">
        <ele>-2.7999999523163</ele>
        <time>2022-09-08T07:01:28.000Z</time>
      </trkpt>
      <trkpt lat="47.26693" lon="-2.33841">
        <ele>-2.7999999523163</ele>
        <time>2022-09-08T07:01:29.000Z</time>
      </trkpt>
      <trkpt lat="47.26701" lon="-2.33855">
        <ele>-2.7999999523163</ele>
        <time>2022-09-08T07:01:32.000Z</time>
      </trkpt>
      <trkpt lat="47.26717" lon="-2.33884">
        <ele>-2.7999999523163</ele>
        <time>2022-09-08T07:01:38.000Z</time>
      </trkpt>
      <trkpt lat="47.26727" lon="-2.339">
        <ele>-2.7999999523163</ele>
        <time>2022-09-08T07:01:41.000Z</time>
      </trkpt>
      <trkpt lat="47.26736" lon="-2.33916">
        <ele>-2.7999999523163</ele>
        <time>2022-09-08T07:01:44.000Z</time>
      </trkpt>
      <trkpt lat="47.2674" lon="-2.33922">
        <ele>-2.7999999523163</ele>
        <time>2022-09-08T07:01:45.000Z</time>
      </trkpt>
      <trkpt lat="47.26748" lon="-2.3394">
        <ele>-2.7999999523163</ele>
        <time>2022-09-08T07:01:48.000Z</time>
      </trkpt>
      <trkpt lat="47.26755" lon="-2.33951">
        <ele>-2.7999999523163</ele>
        <time>2022-09-08T07:01:50.000Z</time>
      </trkpt>
      <trkpt lat="47.26776" lon="-2.33981">
        <ele>-2.7999999523163</ele>
        <time>2022-09-08T07:01:56.000Z</time>
      </trkpt>
      <trkpt lat="47.26793" lon="-2.34006">
        <ele>-2.7999999523163</ele>
        <time>2022-09-08T07:02:01.000Z</time>
      </trkpt>
      <trkpt lat="47.26796" lon="-2.34011">
        <ele>-2.7999999523163</ele>
        <time>2022-09-08T07:02:02.000Z</time>
      </trkpt>
      <trkpt lat="47.26817" lon="-2.34046">
        <ele>-2.7999999523163</ele>
        <time>2022-09-08T07:02:09.000Z</time>
      </trkpt>
      <trkpt lat="47.2682" lon="-2.3405">
        <ele>-2.7999999523163</ele>
        <time>2022-09-08T07:02:10.000Z</time>
      </trkpt>
      <trkpt lat="47.26827" lon="-2.34059">
        <ele>-2.7999999523163</ele>
        <time>2022-09-08T07:02:12.000Z</time>
      </trkpt>
      <trkpt lat="47.26836" lon="-2.34075">
        <ele>-2.7999999523163</ele>
        <time>2022-09-08T07:02:15.000Z</time>
      </trkpt>
      <trkpt lat="47.26857" lon="-2.34111">
        <ele>-2.7999999523163</ele>
        <time>2022-09-08T07:02:22.000Z</time>
      </trkpt>
      <trkpt lat="47.26859" lon="-2.34117">
        <ele>-2.7999999523163</ele>
        <time>2022-09-08T07:02:23.000Z</time>
      </trkpt>
      <trkpt lat="47.26868" lon="-2.34133">
        <ele>-2.7999999523163</ele>
        <time>2022-09-08T07:02:26.000Z</time>
      </trkpt>
      <trkpt lat="47.26875" lon="-2.34142">
        <ele>-2.7999999523163</ele>
        <time>2022-09-08T07:02:28.000Z</time>
      </trkpt>
      <trkpt lat="47.26894" lon="-2.34168">
        <ele>-2.7999999523163</ele>
        <time>2022-09-08T07:02:33.000Z</time>
      </trkpt>
      <trkpt lat="47.26915" lon="-2.34202">
        <ele>-2.7999999523163</ele>
        <time>2022-09-08T07:02:39.000Z</time>
      </trkpt>
      <trkpt lat="47.26941" lon="-2.34241">
        <ele>-2.7999999523163</ele>
        <time>2022-09-08T07:02:46.000Z</time>
      </trkpt>
      <trkpt lat="47.26949" lon="-2.34251">
        <ele>-2.7999999523163</ele>
        <time>2022-09-08T07:02:48.000Z</time>
      </trkpt>
      <trkpt lat="47.26959" lon="-2.34266">
        <ele>-2.7999999523163</ele>
        <time>2022-09-08T07:02:51.000Z</time>
      </trkpt>
      <trkpt lat="47.26975" lon="-2.34292">
        <ele>-2.7999999523163</ele>
        <time>2022-09-08T07:02:56.000Z</time>
      </trkpt>
      <trkpt lat="47.26978" lon="-2.34298">
        <ele>-2.7999999523163</ele>
        <time>2022-09-08T07:02:57.000Z</time>
      </trkpt>
      <trkpt lat="47.26983" lon="-2.34308">
        <ele>-2.7999999523163</ele>
        <time>2022-09-08T07:02:59.000Z</time>
      </trkpt>
      <trkpt lat="47.26989" lon="-2.34316">
        <ele>-2.7999999523163</ele>
        <time>2022-09-08T07:03:01.000Z</time>
      </trkpt>
      <trkpt lat="47.27001" lon="-2.34318">
        <ele>-2.7999999523163</ele>
        <time>2022-09-08T07:03:04.000Z</time>
      </trkpt>
      <trkpt lat="47.27005" lon="-2.34319">
        <ele>-2.7999999523163</ele>
        <time>2022-09-08T07:03:05.000Z</time>
      </trkpt>
      <trkpt lat="47.2702" lon="-2.34322">
        <ele>-2.7999999523163</ele>
        <time>2022-09-08T07:03:09.000Z</time>
      </trkpt>
      <trkpt lat="47.27033" lon="-2.34329">
        <ele>-2.7999999523163</ele>
        <time>2022-09-08T07:03:13.000Z</time>
      </trkpt>
      <trkpt lat="47.27037" lon="-2.34348">
        <ele>-2.7999999523163</ele>
        <time>2022-09-08T07:03:16.000Z</time>
      </trkpt>
      <trkpt lat="47.27038" lon="-2.34354">
        <ele>-2.7999999523163</ele>
        <time>2022-09-08T07:03:17.000Z</time>
      </trkpt>
      <trkpt lat="47.27046" lon="-2.34387">
        <ele>-2.7999999523163</ele>
        <time>2022-09-08T07:03:22.000Z</time>
      </trkpt>
      <trkpt lat="47.27047" lon="-2.34394">
        <ele>-2.7999999523163</ele>
        <time>2022-09-08T07:03:23.000Z</time>
      </trkpt>
      <trkpt lat="47.27053" lon="-2.3442">
        <ele>-2.7999999523163</ele>
        <time>2022-09-08T07:03:27.000Z</time>
      </trkpt>
      <trkpt lat="47.2706" lon="-2.34451">
        <ele>-2.7999999523163</ele>
        <time>2022-09-08T07:03:32.000Z</time>
      </trkpt>
      <trkpt lat="47.27061" lon="-2.34458">
        <ele>-2.7999999523163</ele>
        <time>2022-09-08T07:03:33.000Z</time>
      </trkpt>
      <trkpt lat="47.27068" lon="-2.34489">
        <ele>-2.7999999523163</ele>
        <time>2022-09-08T07:03:38.000Z</time>
      </trkpt>
      <trkpt lat="47.27079" lon="-2.34547">
        <ele>-2.7999999523163</ele>
        <time>2022-09-08T07:03:47.000Z</time>
      </trkpt>
      <trkpt lat="47.27082" lon="-2.3456">
        <ele>-2.7999999523163</ele>
        <time>2022-09-08T07:03:49.000Z</time>
      </trkpt>
      <trkpt lat="47.27087" lon="-2.34585">
        <ele>-2.7999999523163</ele>
        <time>2022-09-08T07:03:53.000Z</time>
      </trkpt>
      <trkpt lat="47.27097" lon="-2.34631">
        <ele>-2.7999999523163</ele>
        <time>2022-09-08T07:04:00.000Z</time>
      </trkpt>
      <trkpt lat="47.27107" lon="-2.3468">
        <ele>-2.7999999523163</ele>
        <time>2022-09-08T07:04:07.000Z</time>
      </trkpt>
      <trkpt lat="47.27117" lon="-2.34725">
        <ele>-2.7999999523163</ele>
        <time>2022-09-08T07:04:14.000Z</time>
      </trkpt>
      <trkpt lat="47.2712" lon="-2.34738">
        <ele>-2.7999999523163</ele>
        <time>2022-09-08T07:04:16.000Z</time>
      </trkpt>
      <trkpt lat="47.27124" lon="-2.34757">
        <ele>-2.7999999523163</ele>
        <time>2022-09-08T07:04:19.000Z</time>
      </trkpt>
      <trkpt lat="47.27134" lon="-2.34803">
        <ele>-2.7999999523163</ele>
        <time>2022-09-08T07:04:26.000Z</time>
      </trkpt>
      <trkpt lat="47.27146" lon="-2.34855">
        <ele>-2.7999999523163</ele>
        <time>2022-09-08T07:04:34.000Z</time>
      </trkpt>
      <trkpt lat="47.27157" lon="-2.34898">
        <ele>-2.7999999523163</ele>
        <time>2022-09-08T07:04:41.000Z</time>
      </trkpt>
      <trkpt lat="47.27159" lon="-2.34903">
        <ele>-2.7999999523163</ele>
        <time>2022-09-08T07:04:42.000Z</time>
      </trkpt>
      <trkpt lat="47.27169" lon="-2.34933">
        <ele>-2.7999999523163</ele>
        <time>2022-09-08T07:04:47.000Z</time>
      </trkpt>
      <trkpt lat="47.27186" lon="-2.34981">
        <ele>-2.7999999523163</ele>
        <time>2022-09-08T07:04:55.000Z</time>
      </trkpt>
      <trkpt lat="47.27198" lon="-2.35013">
        <ele>-2.7999999523163</ele>
        <time>2022-09-08T07:05:01.000Z</time>
      </trkpt>
      <trkpt lat="47.272" lon="-2.35019">
        <ele>-2.7999999523163</ele>
        <time>2022-09-08T07:05:02.000Z</time>
      </trkpt>
      <trkpt lat="47.27207" lon="-2.35037">
        <ele>-2.4000000953674</ele>
        <time>2022-09-08T07:05:05.000Z</time>
      </trkpt>
      <trkpt lat="47.27209" lon="-2.35043">
        <ele>-2</ele>
        <time>2022-09-08T07:05:06.000Z</time>
      </trkpt>
      <trkpt lat="47.27212" lon="-2.35048">
        <ele>-1.3999999761581</ele>
        <time>2022-09-08T07:05:07.000Z</time>
      </trkpt>
      <trkpt lat="47.27215" lon="-2.35054">
        <ele>-1</ele>
        <time>2022-09-08T07:05:08.000Z</time>
      </trkpt>
      <trkpt lat="47.27217" lon="-2.3506">
        <ele>-0.60000002384186</ele>
        <time>2022-09-08T07:05:09.000Z</time>
      </trkpt>
      <trkpt lat="47.27222" lon="-2.35073">
        <ele>-0.60000002384186</ele>
        <time>2022-09-08T07:05:11.000Z</time>
      </trkpt>
      <trkpt lat="47.2724" lon="-2.35112">
        <ele>-0.60000002384186</ele>
        <time>2022-09-08T07:05:18.000Z</time>
      </trkpt>
      <trkpt lat="47.27252" lon="-2.35125">
        <ele>-0.60000002384186</ele>
        <time>2022-09-08T07:05:22.000Z</time>
      </trkpt>
      <trkpt lat="47.27255" lon="-2.35124">
        <ele>-0.60000002384186</ele>
        <time>2022-09-08T07:05:23.000Z</time>
      </trkpt>
      <trkpt lat="47.27279" lon="-2.35111">
        <ele>-0.60000002384186</ele>
        <time>2022-09-08T07:05:29.000Z</time>
      </trkpt>
      <trkpt lat="47.27293" lon="-2.35105">
        <ele>-0.60000002384186</ele>
        <time>2022-09-08T07:05:34.000Z</time>
      </trkpt>
      <trkpt lat="47.27302" lon="-2.35103">
        <ele>-0.60000002384186</ele>
        <time>2022-09-08T07:05:38.000Z</time>
      </trkpt>
      <trkpt lat="47.27305" lon="-2.351">
        <ele>-0.60000002384186</ele>
        <time>2022-09-08T07:05:39.000Z</time>
      </trkpt>
      <trkpt lat="47.2732" lon="-2.3509">
        <ele>-0.60000002384186</ele>
        <time>2022-09-08T07:05:44.000Z</time>
      </trkpt>
      <trkpt lat="47.27323" lon="-2.35088">
        <ele>-0.20000000298023</ele>
        <time>2022-09-08T07:05:45.000Z</time>
      </trkpt>
      <trkpt lat="47.27327" lon="-2.35086">
        <ele>0.40000000596046</ele>
        <time>2022-09-08T07:05:46.000Z</time>
      </trkpt>
      <trkpt lat="47.2733" lon="-2.35084">
        <ele>0.80000001192093</ele>
        <time>2022-09-08T07:05:47.000Z</time>
      </trkpt>
      <trkpt lat="47.27332" lon="-2.35082">
        <ele>1.2000000476837</ele>
        <time>2022-09-08T07:05:48.000Z</time>
      </trkpt>
      <trkpt lat="47.27335" lon="-2.35081">
        <ele>1.6000000238419</ele>
        <time>2022-09-08T07:05:49.000Z</time>
      </trkpt>
      <trkpt lat="47.27351" lon="-2.35073">
        <ele>1.6000000238419</ele>
        <time>2022-09-08T07:05:54.000Z</time>
      </trkpt>
      <trkpt lat="47.27362" lon="-2.35067">
        <ele>2</ele>
        <time>2022-09-08T07:05:57.000Z</time>
      </trkpt>
      <trkpt lat="47.27365" lon="-2.35065">
        <ele>2.4000000953674</ele>
        <time>2022-09-08T07:05:58.000Z</time>
      </trkpt>
      <trkpt lat="47.27368" lon="-2.35064">
        <ele>3</ele>
        <time>2022-09-08T07:05:59.000Z</time>
      </trkpt>
      <trkpt lat="47.27371" lon="-2.35062">
        <ele>3.4000000953674</ele>
        <time>2022-09-08T07:06:00.000Z</time>
      </trkpt>
      <trkpt lat="47.27374" lon="-2.3506">
        <ele>3.7999999523163</ele>
        <time>2022-09-08T07:06:01.000Z</time>
      </trkpt>
      <trkpt lat="47.27389" lon="-2.35055">
        <ele>3.7999999523163</ele>
        <time>2022-09-08T07:06:05.000Z</time>
      </trkpt>
      <trkpt lat="47.27393" lon="-2.35059">
        <ele>3.7999999523163</ele>
        <time>2022-09-08T07:06:07.000Z</time>
      </trkpt>
      <trkpt lat="47.27395" lon="-2.35062">
        <ele>3.7999999523163</ele>
        <time>2022-09-08T07:06:08.000Z</time>
      </trkpt>
      <trkpt lat="47.27402" lon="-2.35084">
        <ele>3.7999999523163</ele>
        <time>2022-09-08T07:06:13.000Z</time>
      </trkpt>
      <trkpt lat="47.27413" lon="-2.35119">
        <ele>3.7999999523163</ele>
        <time>2022-09-08T07:06:19.000Z</time>
      </trkpt>
      <trkpt lat="47.27423" lon="-2.35159">
        <ele>3.7999999523163</ele>
        <time>2022-09-08T07:06:26.000Z</time>
      </trkpt>
      <trkpt lat="47.27429" lon="-2.35169">
        <ele>3.7999999523163</ele>
        <time>2022-09-08T07:06:29.000Z</time>
      </trkpt>
      <trkpt lat="47.27431" lon="-2.35169">
        <ele>3.7999999523163</ele>
        <time>2022-09-08T07:06:30.000Z</time>
      </trkpt>
      <trkpt lat="47.27444" lon="-2.35161">
        <ele>3.7999999523163</ele>
        <time>2022-09-08T07:06:34.000Z</time>
      </trkpt>
      <trkpt lat="47.2745" lon="-2.35157">
        <ele>4.1999998092651</ele>
        <time>2022-09-08T07:06:36.000Z</time>
      </trkpt>
      <trkpt lat="47.27452" lon="-2.35155">
        <ele>4.5999999046326</ele>
        <time>2022-09-08T07:06:37.000Z</time>
      </trkpt>
      <trkpt lat="47.27456" lon="-2.35154">
        <ele>5.1999998092651</ele>
        <time>2022-09-08T07:06:38.000Z</time>
      </trkpt>
      <trkpt lat="47.27459" lon="-2.35153">
        <ele>5.5999999046326</ele>
        <time>2022-09-08T07:06:39.000Z</time>
      </trkpt>
      <trkpt lat="47.27462" lon="-2.3515">
        <ele>6</ele>
        <time>2022-09-08T07:06:40.000Z</time>
      </trkpt>
      <trkpt lat="47.27484" lon="-2.35141">
        <ele>6</ele>
        <time>2022-09-08T07:06:46.000Z</time>
      </trkpt>
      <trkpt lat="47.27494" lon="-2.35133">
        <ele>6</ele>
        <time>2022-09-08T07:06:50.000Z</time>
      </trkpt>
      <trkpt lat="47.27501" lon="-2.35126">
        <ele>6</ele>
        <time>2022-09-08T07:06:53.000Z</time>
      </trkpt>
      <trkpt lat="47.27505" lon="-2.35126">
        <ele>6</ele>
        <time>2022-09-08T07:06:54.000Z</time>
      </trkpt>
      <trkpt lat="47.27521" lon="-2.35132">
        <ele>6</ele>
        <time>2022-09-08T07:06:59.000Z</time>
      </trkpt>
      <trkpt lat="47.27524" lon="-2.35135">
        <ele>6</ele>
        <time>2022-09-08T07:07:00.000Z</time>
      </trkpt>
      <trkpt lat="47.27535" lon="-2.35135">
        <ele>6</ele>
        <time>2022-09-08T07:07:03.000Z</time>
      </trkpt>
      <trkpt lat="47.27558" lon="-2.35131">
        <ele>6</ele>
        <time>2022-09-08T07:07:09.000Z</time>
      </trkpt>
      <trkpt lat="47.27582" lon="-2.35127">
        <ele>6</ele>
        <time>2022-09-08T07:07:15.000Z</time>
      </trkpt>
      <trkpt lat="47.27591" lon="-2.3513">
        <ele>6</ele>
        <time>2022-09-08T07:07:17.000Z</time>
      </trkpt>
      <trkpt lat="47.27601" lon="-2.35136">
        <ele>6</ele>
        <time>2022-09-08T07:07:19.000Z</time>
      </trkpt>
      <trkpt lat="47.27603" lon="-2.35151">
        <ele>6</ele>
        <time>2022-09-08T07:07:21.000Z</time>
      </trkpt>
      <trkpt lat="47.27614" lon="-2.3517">
        <ele>6</ele>
        <time>2022-09-08T07:07:25.000Z</time>
      </trkpt>
      <trkpt lat="47.27629" lon="-2.3517">
        <ele>6</ele>
        <time>2022-09-08T07:07:28.000Z</time>
      </trkpt>
      <trkpt lat="47.27634" lon="-2.3517">
        <ele>6</ele>
        <time>2022-09-08T07:07:29.000Z</time>
      </trkpt>
      <trkpt lat="47.27638" lon="-2.35168">
        <ele>6</ele>
        <time>2022-09-08T07:07:30.000Z</time>
      </trkpt>
      <trkpt lat="47.27657" lon="-2.3517">
        <ele>6</ele>
        <time>2022-09-08T07:07:34.000Z</time>
      </trkpt>
      <trkpt lat="47.27665" lon="-2.35189">
        <ele>6</ele>
        <time>2022-09-08T07:07:37.000Z</time>
      </trkpt>
      <trkpt lat="47.27668" lon="-2.35217">
        <ele>5.5999999046326</ele>
        <time>2022-09-08T07:07:41.000Z</time>
      </trkpt>
      <trkpt lat="47.2767" lon="-2.3522">
        <ele>5.1999998092651</ele>
        <time>2022-09-08T07:07:42.000Z</time>
      </trkpt>
      <trkpt lat="47.27674" lon="-2.3522">
        <ele>4.5999999046326</ele>
        <time>2022-09-08T07:07:43.000Z</time>
      </trkpt>
      <trkpt lat="47.27678" lon="-2.35219">
        <ele>3.7999999523163</ele>
        <time>2022-09-08T07:07:44.000Z</time>
      </trkpt>
      <trkpt lat="47.27683" lon="-2.35217">
        <ele>3.7999999523163</ele>
        <time>2022-09-08T07:07:45.000Z</time>
      </trkpt>
      <trkpt lat="47.2771" lon="-2.3521">
        <ele>3.4000000953674</ele>
        <time>2022-09-08T07:07:50.000Z</time>
      </trkpt>
      <trkpt lat="47.27715" lon="-2.35208">
        <ele>3</ele>
        <time>2022-09-08T07:07:51.000Z</time>
      </trkpt>
      <trkpt lat="47.27721" lon="-2.35207">
        <ele>2.5999999046326</ele>
        <time>2022-09-08T07:07:52.000Z</time>
      </trkpt>
      <trkpt lat="47.27728" lon="-2.35206">
        <ele>2.2000000476837</ele>
        <time>2022-09-08T07:07:53.000Z</time>
      </trkpt>
      <trkpt lat="47.27733" lon="-2.35204">
        <ele>1.7999999523163</ele>
        <time>2022-09-08T07:07:54.000Z</time>
      </trkpt>
      <trkpt lat="47.27745" lon="-2.35201">
        <ele>1.7999999523163</ele>
        <time>2022-09-08T07:07:56.000Z</time>
      </trkpt>
      <trkpt lat="47.2776" lon="-2.35199">
        <ele>1.7999999523163</ele>
        <time>2022-09-08T07:07:59.000Z</time>
      </trkpt>
      <trkpt lat="47.27766" lon="-2.35204">
        <ele>1.7999999523163</ele>
        <time>2022-09-08T07:08:01.000Z</time>
      </trkpt>
      <trkpt lat="47.27772" lon="-2.35226">
        <ele>1.7999999523163</ele>
        <time>2022-09-08T07:08:05.000Z</time>
      </trkpt>
      <trkpt lat="47.27773" lon="-2.35233">
        <ele>1.3999999761581</ele>
        <time>2022-09-08T07:08:06.000Z</time>
      </trkpt>
      <trkpt lat="47.27774" lon="-2.3524">
        <ele>1</ele>
        <time>2022-09-08T07:08:07.000Z</time>
      </trkpt>
      <trkpt lat="47.27774" lon="-2.35246">
        <ele>0.20000000298023</ele>
        <time>2022-09-08T07:08:08.000Z</time>
      </trkpt>
      <trkpt lat="47.27775" lon="-2.35253">
        <ele>-0.40000000596046</ele>
        <time>2022-09-08T07:08:09.000Z</time>
      </trkpt>
      <trkpt lat="47.27777" lon="-2.3526">
        <ele>-0.40000000596046</ele>
        <time>2022-09-08T07:08:10.000Z</time>
      </trkpt>
      <trkpt lat="47.27778" lon="-2.35267">
        <ele>-0.40000000596046</ele>
        <time>2022-09-08T07:08:11.000Z</time>
      </trkpt>
      <trkpt lat="47.27792" lon="-2.35315">
        <ele>-0.40000000596046</ele>
        <time>2022-09-08T07:08:18.000Z</time>
      </trkpt>
      <trkpt lat="47.27802" lon="-2.35355">
        <ele>-0.40000000596046</ele>
        <time>2022-09-08T07:08:24.000Z</time>
      </trkpt>
      <trkpt lat="47.27806" lon="-2.3536">
        <ele>-0.40000000596046</ele>
        <time>2022-09-08T07:08:25.000Z</time>
      </trkpt>
      <trkpt lat="47.27819" lon="-2.35363">
        <ele>-0.40000000596046</ele>
        <time>2022-09-08T07:08:28.000Z</time>
      </trkpt>
      <trkpt lat="47.27828" lon="-2.35363">
        <ele>-0.40000000596046</ele>
        <time>2022-09-08T07:08:30.000Z</time>
      </trkpt>
      <trkpt lat="47.27849" lon="-2.3536">
        <ele>-0.40000000596046</ele>
        <time>2022-09-08T07:08:35.000Z</time>
      </trkpt>
      <trkpt lat="47.27876" lon="-2.35367">
        <ele>-0.40000000596046</ele>
        <time>2022-09-08T07:08:42.000Z</time>
      </trkpt>
      <trkpt lat="47.27882" lon="-2.35375">
        <ele>-0.40000000596046</ele>
        <time>2022-09-08T07:08:44.000Z</time>
      </trkpt>
      <trkpt lat="47.27891" lon="-2.35388">
        <ele>-0.40000000596046</ele>
        <time>2022-09-08T07:08:47.000Z</time>
      </trkpt>
      <trkpt lat="47.27919" lon="-2.35424">
        <ele>-0.40000000596046</ele>
        <time>2022-09-08T07:08:55.000Z</time>
      </trkpt>
      <trkpt lat="47.27938" lon="-2.35448">
        <ele>-0.40000000596046</ele>
        <time>2022-09-08T07:09:00.000Z</time>
      </trkpt>
      <trkpt lat="47.27946" lon="-2.35456">
        <ele>-0.40000000596046</ele>
        <time>2022-09-08T07:09:02.000Z</time>
      </trkpt>
      <trkpt lat="47.27969" lon="-2.35471">
        <ele>-0.40000000596046</ele>
        <time>2022-09-08T07:09:07.000Z</time>
      </trkpt>
      <trkpt lat="47.27973" lon="-2.35475">
        <ele>-0.40000000596046</ele>
        <time>2022-09-08T07:09:08.000Z</time>
      </trkpt>
      <trkpt lat="47.27984" lon="-2.35493">
        <ele>-0.40000000596046</ele>
        <time>2022-09-08T07:09:11.000Z</time>
      </trkpt>
      <trkpt lat="47.27988" lon="-2.35505">
        <ele>-0.40000000596046</ele>
        <time>2022-09-08T07:09:13.000Z</time>
      </trkpt>
      <trkpt lat="47.28001" lon="-2.35535">
        <ele>-0.40000000596046</ele>
        <time>2022-09-08T07:09:19.000Z</time>
      </trkpt>
      <trkpt lat="47.28004" lon="-2.35548">
        <ele>0.60000002384186</ele>
        <time>2022-09-08T07:09:22.000Z</time>
      </trkpt>
      <trkpt lat="47.28006" lon="-2.3555">
        <ele>1</ele>
        <time>2022-09-08T07:09:23.000Z</time>
      </trkpt>
      <trkpt lat="47.28008" lon="-2.35554">
        <ele>1.3999999761581</ele>
        <time>2022-09-08T07:09:24.000Z</time>
      </trkpt>
      <trkpt lat="47.28009" lon="-2.35558">
        <ele>1.7999999523163</ele>
        <time>2022-09-08T07:09:25.000Z</time>
      </trkpt>
      <trkpt lat="47.28014" lon="-2.35564">
        <ele>1.7999999523163</ele>
        <time>2022-09-08T07:09:27.000Z</time>
      </trkpt>
      <trkpt lat="47.28023" lon="-2.35563">
        <ele>1.7999999523163</ele>
        <time>2022-09-08T07:09:30.000Z</time>
      </trkpt>
      <trkpt lat="47.28034" lon="-2.35572">
        <ele>1.7999999523163</ele>
        <time>2022-09-08T07:09:34.000Z</time>
      </trkpt>
      <trkpt lat="47.28049" lon="-2.35577">
        <ele>2.2000000476837</ele>
        <time>2022-09-08T07:09:39.000Z</time>
      </trkpt>
      <trkpt lat="47.28051" lon="-2.35578">
        <ele>2.5999999046326</ele>
        <time>2022-09-08T07:09:40.000Z</time>
      </trkpt>
      <trkpt lat="47.28053" lon="-2.35579">
        <ele>3</ele>
        <time>2022-09-08T07:09:41.000Z</time>
      </trkpt>
      <trkpt lat="47.28055" lon="-2.35581">
        <ele>3.4000000953674</ele>
        <time>2022-09-08T07:09:42.000Z</time>
      </trkpt>
      <trkpt lat="47.28058" lon="-2.35582">
        <ele>3.7999999523163</ele>
        <time>2022-09-08T07:09:43.000Z</time>
      </trkpt>
      <trkpt lat="47.28065" lon="-2.35585">
        <ele>3.7999999523163</ele>
        <time>2022-09-08T07:09:47.000Z</time>
      </trkpt>
      <trkpt lat="47.28071" lon="-2.35595">
        <ele>3.7999999523163</ele>
        <time>2022-09-08T07:09:51.000Z</time>
      </trkpt>
      <trkpt lat="47.28071" lon="-2.35595">
        <ele>3.7999999523163</ele>
        <time>2022-09-08T07:09:53.000Z</time>
      </trkpt>
      <trkpt lat="47.28071" lon="-2.35595">
        <ele>3.7999999523163</ele>
        <time>2022-09-08T07:09:54.000Z</time>
      </trkpt>
      <trkpt lat="47.28072" lon="-2.35597">
        <ele>3.7999999523163</ele>
        <time>2022-09-08T07:12:41.000Z</time>
      </trkpt>
      <trkpt lat="47.2807" lon="-2.35593">
        <ele>3.7999999523163</ele>
        <time>2022-09-08T07:12:43.000Z</time>
      </trkpt>
      <trkpt lat="47.28069" lon="-2.35591">
        <ele>3.4000000953674</ele>
        <time>2022-09-08T07:12:44.000Z</time>
      </trkpt>
      <trkpt lat="47.28069" lon="-2.35588">
        <ele>3</ele>
        <time>2022-09-08T07:12:45.000Z</time>
      </trkpt>
      <trkpt lat="47.28068" lon="-2.35585">
        <ele>2.5999999046326</ele>
        <time>2022-09-08T07:12:46.000Z</time>
      </trkpt>
      <trkpt lat="47.28068" lon="-2.35583">
        <ele>2.2000000476837</ele>
        <time>2022-09-08T07:12:47.000Z</time>
      </trkpt>
      <trkpt lat="47.28068" lon="-2.35583">
        <ele>1.7999999523163</ele>
        <time>2022-09-08T07:12:48.000Z</time>
      </trkpt>
      <trkpt lat="47.28069" lon="-2.35581">
        <ele>1.7999999523163</ele>
        <time>2022-09-08T07:12:49.000Z</time>
      </trkpt>
      <trkpt lat="47.28075" lon="-2.35571">
        <ele>1.7999999523163</ele>
        <time>2022-09-08T07:12:53.000Z</time>
      </trkpt>
      <trkpt lat="47.28078" lon="-2.35568">
        <ele>1.7999999523163</ele>
        <time>2022-09-08T07:12:54.000Z</time>
      </trkpt>
      <trkpt lat="47.28091" lon="-2.35563">
        <ele>1.7999999523163</ele>
        <time>2022-09-08T07:12:59.000Z</time>
      </trkpt>
      <trkpt lat="47.28102" lon="-2.35563">
        <ele>1.7999999523163</ele>
        <time>2022-09-08T07:13:04.000Z</time>
      </trkpt>
      <trkpt lat="47.28121" lon="-2.35564">
        <ele>1.7999999523163</ele>
        <time>2022-09-08T07:13:10.000Z</time>
      </trkpt>
      <trkpt lat="47.28129" lon="-2.35563">
        <ele>1.7999999523163</ele>
        <time>2022-09-08T07:13:13.000Z</time>
      </trkpt>
      <trkpt lat="47.28131" lon="-2.3556">
        <ele>1.7999999523163</ele>
        <time>2022-09-08T07:13:14.000Z</time>
      </trkpt>
      <trkpt lat="47.28144" lon="-2.35558">
        <ele>1.7999999523163</ele>
        <time>2022-09-08T07:13:18.000Z</time>
      </trkpt>
      <trkpt lat="47.28148" lon="-2.35559">
        <ele>1.7999999523163</ele>
        <time>2022-09-08T07:13:19.000Z</time>
      </trkpt>
      <trkpt lat="47.28164" lon="-2.35564">
        <ele>2.2000000476837</ele>
        <time>2022-09-08T07:13:24.000Z</time>
      </trkpt>
      <trkpt lat="47.28166" lon="-2.35565">
        <ele>2.5999999046326</ele>
        <time>2022-09-08T07:13:25.000Z</time>
      </trkpt>
      <trkpt lat="47.28169" lon="-2.35566">
        <ele>3</ele>
        <time>2022-09-08T07:13:26.000Z</time>
      </trkpt>
      <trkpt lat="47.28172" lon="-2.35569">
        <ele>3.4000000953674</ele>
        <time>2022-09-08T07:13:27.000Z</time>
      </trkpt>
      <trkpt lat="47.28175" lon="-2.35571">
        <ele>4</ele>
        <time>2022-09-08T07:13:28.000Z</time>
      </trkpt>
      <trkpt lat="47.2818" lon="-2.35575">
        <ele>4</ele>
        <time>2022-09-08T07:13:30.000Z</time>
      </trkpt>
      <trkpt lat="47.28195" lon="-2.35594">
        <ele>4</ele>
        <time>2022-09-08T07:13:36.000Z</time>
      </trkpt>
      <trkpt lat="47.28211" lon="-2.35615">
        <ele>4</ele>
        <time>2022-09-08T07:13:41.000Z</time>
      </trkpt>
      <trkpt lat="47.28223" lon="-2.35634">
        <ele>4</ele>
        <time>2022-09-08T07:13:46.000Z</time>
      </trkpt>
      <trkpt lat="47.28235" lon="-2.35651">
        <ele>4</ele>
        <time>2022-09-08T07:13:51.000Z</time>
      </trkpt>
      <trkpt lat="47.28241" lon="-2.35659">
        <ele>4.4000000953674</ele>
        <time>2022-09-08T07:13:53.000Z</time>
      </trkpt>
      <trkpt lat="47.28244" lon="-2.35663">
        <ele>4.8000001907349</ele>
        <time>2022-09-08T07:13:54.000Z</time>
      </trkpt>
      <trkpt lat="47.28247" lon="-2.35668">
        <ele>5.1999998092651</ele>
        <time>2022-09-08T07:13:55.000Z</time>
      </trkpt>
      <trkpt lat="47.28251" lon="-2.35672">
        <ele>5.5999999046326</ele>
        <time>2022-09-08T07:13:56.000Z</time>
      </trkpt>
      <trkpt lat="47.28255" lon="-2.35677">
        <ele>6</ele>
        <time>2022-09-08T07:13:57.000Z</time>
      </trkpt>
      <trkpt lat="47.28263" lon="-2.35687">
        <ele>6</ele>
        <time>2022-09-08T07:13:59.000Z</time>
      </trkpt>
      <trkpt lat="47.28271" lon="-2.35695">
        <ele>6</ele>
        <time>2022-09-08T07:14:01.000Z</time>
      </trkpt>
      <trkpt lat="47.28292" lon="-2.35717">
        <ele>6</ele>
        <time>2022-09-08T07:14:07.000Z</time>
      </trkpt>
      <trkpt lat="47.28295" lon="-2.35717">
        <ele>6</ele>
        <time>2022-09-08T07:14:08.000Z</time>
      </trkpt>
      <trkpt lat="47.283" lon="-2.35724">
        <ele>6</ele>
        <time>2022-09-08T07:14:10.000Z</time>
      </trkpt>
      <trkpt lat="47.28309" lon="-2.35733">
        <ele>6</ele>
        <time>2022-09-08T07:14:13.000Z</time>
      </trkpt>
      <trkpt lat="47.28314" lon="-2.35737">
        <ele>6</ele>
        <time>2022-09-08T07:14:15.000Z</time>
      </trkpt>
      <trkpt lat="47.28333" lon="-2.35751">
        <ele>6.4000000953674</ele>
        <time>2022-09-08T07:14:21.000Z</time>
      </trkpt>
      <trkpt lat="47.28337" lon="-2.35753">
        <ele>7</ele>
        <time>2022-09-08T07:14:22.000Z</time>
      </trkpt>
      <trkpt lat="47.28341" lon="-2.35755">
        <ele>7.4000000953674</ele>
        <time>2022-09-08T07:14:23.000Z</time>
      </trkpt>
      <trkpt lat="47.28344" lon="-2.35757">
        <ele>7.8000001907349</ele>
        <time>2022-09-08T07:14:24.000Z</time>
      </trkpt>
      <trkpt lat="47.28347" lon="-2.35758">
        <ele>8.1999998092651</ele>
        <time>2022-09-08T07:14:25.000Z</time>
      </trkpt>
      <trkpt lat="47.28381" lon="-2.35772">
        <ele>8.1999998092651</ele>
        <time>2022-09-08T07:14:32.000Z</time>
      </trkpt>
      <trkpt lat="47.28391" lon="-2.35775">
        <ele>8.1999998092651</ele>
        <time>2022-09-08T07:14:36.000Z</time>
      </trkpt>
      <trkpt lat="47.28403" lon="-2.35778">
        <ele>8.1999998092651</ele>
        <time>2022-09-08T07:14:40.000Z</time>
      </trkpt>
      <trkpt lat="47.28408" lon="-2.35778">
        <ele>8.1999998092651</ele>
        <time>2022-09-08T07:14:41.000Z</time>
      </trkpt>
      <trkpt lat="47.2841" lon="-2.35777">
        <ele>8.1999998092651</ele>
        <time>2022-09-08T07:14:42.000Z</time>
      </trkpt>
      <trkpt lat="47.28414" lon="-2.35771">
        <ele>8.1999998092651</ele>
        <time>2022-09-08T07:14:46.000Z</time>
      </trkpt>
      <trkpt lat="47.28415" lon="-2.3576">
        <ele>8.1999998092651</ele>
        <time>2022-09-08T07:14:49.000Z</time>
      </trkpt>
      <trkpt lat="47.28414" lon="-2.35757">
        <ele>8.1999998092651</ele>
        <time>2022-09-08T07:14:50.000Z</time>
      </trkpt>
      <trkpt lat="47.28412" lon="-2.35735">
        <ele>8.1999998092651</ele>
        <time>2022-09-08T07:14:55.000Z</time>
      </trkpt>
      <trkpt lat="47.2841" lon="-2.3573">
        <ele>8.1999998092651</ele>
        <time>2022-09-08T07:14:56.000Z</time>
      </trkpt>
      <trkpt lat="47.28408" lon="-2.35717">
        <ele>8.1999998092651</ele>
        <time>2022-09-08T07:14:59.000Z</time>
      </trkpt>
      <trkpt lat="47.28404" lon="-2.35691">
        <ele>8.1999998092651</ele>
        <time>2022-09-08T07:15:04.000Z</time>
      </trkpt>
      <trkpt lat="47.28405" lon="-2.35663">
        <ele>8.1999998092651</ele>
        <time>2022-09-08T07:15:09.000Z</time>
      </trkpt>
      <trkpt lat="47.28404" lon="-2.35659">
        <ele>8.1999998092651</ele>
        <time>2022-09-08T07:15:10.000Z</time>
      </trkpt>
      <trkpt lat="47.28402" lon="-2.35649">
        <ele>8.1999998092651</ele>
        <time>2022-09-08T07:15:12.000Z</time>
      </trkpt>
      <trkpt lat="47.28393" lon="-2.35628">
        <ele>8.1999998092651</ele>
        <time>2022-09-08T07:15:16.000Z</time>
      </trkpt>
      <trkpt lat="47.28387" lon="-2.3561">
        <ele>8.1999998092651</ele>
        <time>2022-09-08T07:15:20.000Z</time>
      </trkpt>
      <trkpt lat="47.28383" lon="-2.35589">
        <ele>8.1999998092651</ele>
        <time>2022-09-08T07:15:24.000Z</time>
      </trkpt>
      <trkpt lat="47.28382" lon="-2.35577">
        <ele>7.8000001907349</ele>
        <time>2022-09-08T07:15:26.000Z</time>
      </trkpt>
      <trkpt lat="47.28383" lon="-2.3557">
        <ele>7.4000000953674</ele>
        <time>2022-09-08T07:15:27.000Z</time>
      </trkpt>
      <trkpt lat="47.28383" lon="-2.35564">
        <ele>7</ele>
        <time>2022-09-08T07:15:28.000Z</time>
      </trkpt>
      <trkpt lat="47.28383" lon="-2.35558">
        <ele>6.5999999046326</ele>
        <time>2022-09-08T07:15:29.000Z</time>
      </trkpt>
      <trkpt lat="47.28383" lon="-2.35553">
        <ele>6.1999998092651</ele>
        <time>2022-09-08T07:15:30.000Z</time>
      </trkpt>
      <trkpt lat="47.28386" lon="-2.35539">
        <ele>6.1999998092651</ele>
        <time>2022-09-08T07:15:33.000Z</time>
      </trkpt>
      <trkpt lat="47.28388" lon="-2.35526">
        <ele>6.1999998092651</ele>
        <time>2022-09-08T07:15:35.000Z</time>
      </trkpt>
      <trkpt lat="47.28391" lon="-2.35513">
        <ele>6.1999998092651</ele>
        <time>2022-09-08T07:15:37.000Z</time>
      </trkpt>
      <trkpt lat="47.28396" lon="-2.35486">
        <ele>6.1999998092651</ele>
        <time>2022-09-08T07:15:42.000Z</time>
      </trkpt>
      <trkpt lat="47.28396" lon="-2.35468">
        <ele>6.5999999046326</ele>
        <time>2022-09-08T07:15:46.000Z</time>
      </trkpt>
      <trkpt lat="47.28397" lon="-2.35464">
        <ele>7</ele>
        <time>2022-09-08T07:15:47.000Z</time>
      </trkpt>
      <trkpt lat="47.28398" lon="-2.3546">
        <ele>7.4000000953674</ele>
        <time>2022-09-08T07:15:48.000Z</time>
      </trkpt>
      <trkpt lat="47.28399" lon="-2.35457">
        <ele>7.8000001907349</ele>
        <time>2022-09-08T07:15:49.000Z</time>
      </trkpt>
      <trkpt lat="47.284" lon="-2.35454">
        <ele>8.1999998092651</ele>
        <time>2022-09-08T07:15:50.000Z</time>
      </trkpt>
      <trkpt lat="47.28403" lon="-2.35446">
        <ele>8.1999998092651</ele>
        <time>2022-09-08T07:15:52.000Z</time>
      </trkpt>
      <trkpt lat="47.28402" lon="-2.35439">
        <ele>8.1999998092651</ele>
        <time>2022-09-08T07:15:54.000Z</time>
      </trkpt>
      <trkpt lat="47.28398" lon="-2.35431">
        <ele>8.6000003814697</ele>
        <time>2022-09-08T07:15:56.000Z</time>
      </trkpt>
      <trkpt lat="47.28398" lon="-2.35429">
        <ele>9.3999996185303</ele>
        <time>2022-09-08T07:15:57.000Z</time>
      </trkpt>
      <trkpt lat="47.28396" lon="-2.35425">
        <ele>9.8000001907349</ele>
        <time>2022-09-08T07:15:58.000Z</time>
      </trkpt>
      <trkpt lat="47.28393" lon="-2.35423">
        <ele>10.199999809265</ele>
        <time>2022-09-08T07:15:59.000Z</time>
      </trkpt>
      <trkpt lat="47.28379" lon="-2.35403">
        <ele>10.199999809265</ele>
        <time>2022-09-08T07:16:04.000Z</time>
      </trkpt>
      <trkpt lat="47.28375" lon="-2.35392">
        <ele>9.8000001907349</ele>
        <time>2022-09-08T07:16:06.000Z</time>
      </trkpt>
      <trkpt lat="47.28373" lon="-2.35386">
        <ele>9.3999996185303</ele>
        <time>2022-09-08T07:16:07.000Z</time>
      </trkpt>
      <trkpt lat="47.28371" lon="-2.3538">
        <ele>9</ele>
        <time>2022-09-08T07:16:08.000Z</time>
      </trkpt>
      <trkpt lat="47.2837" lon="-2.35376">
        <ele>8.1999998092651</ele>
        <time>2022-09-08T07:16:09.000Z</time>
      </trkpt>
      <trkpt lat="47.28368" lon="-2.35371">
        <ele>7.4000000953674</ele>
        <time>2022-09-08T07:16:10.000Z</time>
      </trkpt>
      <trkpt lat="47.28367" lon="-2.35367">
        <ele>6.8000001907349</ele>
        <time>2022-09-08T07:16:11.000Z</time>
      </trkpt>
      <trkpt lat="47.28366" lon="-2.35364">
        <ele>6</ele>
        <time>2022-09-08T07:16:12.000Z</time>
      </trkpt>
      <trkpt lat="47.28363" lon="-2.35362">
        <ele>5.1999998092651</ele>
        <time>2022-09-08T07:16:13.000Z</time>
      </trkpt>
      <trkpt lat="47.28361" lon="-2.35358">
        <ele>4.8000001907349</ele>
        <time>2022-09-08T07:16:14.000Z</time>
      </trkpt>
      <trkpt lat="47.28361" lon="-2.35354">
        <ele>4.4000000953674</ele>
        <time>2022-09-08T07:16:15.000Z</time>
      </trkpt>
      <trkpt lat="47.28359" lon="-2.3535">
        <ele>3.7999999523163</ele>
        <time>2022-09-08T07:16:16.000Z</time>
      </trkpt>
      <trkpt lat="47.28357" lon="-2.35345">
        <ele>3.4000000953674</ele>
        <time>2022-09-08T07:16:17.000Z</time>
      </trkpt>
      <trkpt lat="47.28355" lon="-2.35338">
        <ele>3</ele>
        <time>2022-09-08T07:16:18.000Z</time>
      </trkpt>
      <trkpt lat="47.28353" lon="-2.35332">
        <ele>3</ele>
        <time>2022-09-08T07:16:19.000Z</time>
      </trkpt>
      <trkpt lat="47.28349" lon="-2.35317">
        <ele>3</ele>
        <time>2022-09-08T07:16:22.000Z</time>
      </trkpt>
      <trkpt lat="47.28346" lon="-2.35298">
        <ele>3</ele>
        <time>2022-09-08T07:16:26.000Z</time>
      </trkpt>
      <trkpt lat="47.28356" lon="-2.3528">
        <ele>3</ele>
        <time>2022-09-08T07:16:30.000Z</time>
      </trkpt>
      <trkpt lat="47.28362" lon="-2.35271">
        <ele>3</ele>
        <time>2022-09-08T07:16:32.000Z</time>
      </trkpt>
      <trkpt lat="47.2837" lon="-2.35257">
        <ele>3</ele>
        <time>2022-09-08T07:16:35.000Z</time>
      </trkpt>
      <trkpt lat="47.28385" lon="-2.35223">
        <ele>3</ele>
        <time>2022-09-08T07:16:41.000Z</time>
      </trkpt>
      <trkpt lat="47.2838" lon="-2.35202">
        <ele>3</ele>
        <time>2022-09-08T07:16:44.000Z</time>
      </trkpt>
      <trkpt lat="47.28378" lon="-2.35194">
        <ele>3</ele>
        <time>2022-09-08T07:16:45.000Z</time>
      </trkpt>
      <trkpt lat="47.28364" lon="-2.35154">
        <ele>3</ele>
        <time>2022-09-08T07:16:51.000Z</time>
      </trkpt>
      <trkpt lat="47.28347" lon="-2.35108">
        <ele>3</ele>
        <time>2022-09-08T07:16:58.000Z</time>
      </trkpt>
      <trkpt lat="47.28337" lon="-2.35091">
        <ele>3</ele>
        <time>2022-09-08T07:17:01.000Z</time>
      </trkpt>
      <trkpt lat="47.28328" lon="-2.35084">
        <ele>3</ele>
        <time>2022-09-08T07:17:03.000Z</time>
      </trkpt>
      <trkpt lat="47.28307" lon="-2.35078">
        <ele>3</ele>
        <time>2022-09-08T07:17:07.000Z</time>
      </trkpt>
      <trkpt lat="47.28302" lon="-2.35077">
        <ele>3</ele>
        <time>2022-09-08T07:17:08.000Z</time>
      </trkpt>
      <trkpt lat="47.28287" lon="-2.35072">
        <ele>3</ele>
        <time>2022-09-08T07:17:11.000Z</time>
      </trkpt>
      <trkpt lat="47.28273" lon="-2.35061">
        <ele>3</ele>
        <time>2022-09-08T07:17:14.000Z</time>
      </trkpt>
      <trkpt lat="47.28269" lon="-2.35056">
        <ele>3</ele>
        <time>2022-09-08T07:17:15.000Z</time>
      </trkpt>
      <trkpt lat="47.28244" lon="-2.35023">
        <ele>3</ele>
        <time>2022-09-08T07:17:21.000Z</time>
      </trkpt>
      <trkpt lat="47.28222" lon="-2.34982">
        <ele>3</ele>
        <time>2022-09-08T07:17:27.000Z</time>
      </trkpt>
      <trkpt lat="47.28203" lon="-2.34928">
        <ele>3</ele>
        <time>2022-09-08T07:17:34.000Z</time>
      </trkpt>
      <trkpt lat="47.28187" lon="-2.34869">
        <ele>3</ele>
        <time>2022-09-08T07:17:41.000Z</time>
      </trkpt>
      <trkpt lat="47.28179" lon="-2.34825">
        <ele>3</ele>
        <time>2022-09-08T07:17:46.000Z</time>
      </trkpt>
      <trkpt lat="47.28179" lon="-2.34816">
        <ele>3</ele>
        <time>2022-09-08T07:17:47.000Z</time>
      </trkpt>
      <trkpt lat="47.28181" lon="-2.34789">
        <ele>3</ele>
        <time>2022-09-08T07:17:50.000Z</time>
      </trkpt>
      <trkpt lat="47.28185" lon="-2.34773">
        <ele>3</ele>
        <time>2022-09-08T07:17:52.000Z</time>
      </trkpt>
      <trkpt lat="47.2819" lon="-2.34758">
        <ele>3</ele>
        <time>2022-09-08T07:17:54.000Z</time>
      </trkpt>
      <trkpt lat="47.28194" lon="-2.34751">
        <ele>3</ele>
        <time>2022-09-08T07:17:55.000Z</time>
      </trkpt>
      <trkpt lat="47.28201" lon="-2.34738">
        <ele>3</ele>
        <time>2022-09-08T07:17:57.000Z</time>
      </trkpt>
      <trkpt lat="47.28225" lon="-2.34701">
        <ele>3</ele>
        <time>2022-09-08T07:18:03.000Z</time>
      </trkpt>
      <trkpt lat="47.28255" lon="-2.34656">
        <ele>3</ele>
        <time>2022-09-08T07:18:11.000Z</time>
      </trkpt>
      <trkpt lat="47.28281" lon="-2.34617">
        <ele>3</ele>
        <time>2022-09-08T07:18:18.000Z</time>
      </trkpt>
      <trkpt lat="47.28319" lon="-2.3456">
        <ele>3</ele>
        <time>2022-09-08T07:18:28.000Z</time>
      </trkpt>
      <trkpt lat="47.28323" lon="-2.34554">
        <ele>3.4000000953674</ele>
        <time>2022-09-08T07:18:29.000Z</time>
      </trkpt>
      <trkpt lat="47.28327" lon="-2.34547">
        <ele>3.7999999523163</ele>
        <time>2022-09-08T07:18:30.000Z</time>
      </trkpt>
      <trkpt lat="47.2833" lon="-2.34542">
        <ele>4.1999998092651</ele>
        <time>2022-09-08T07:18:31.000Z</time>
      </trkpt>
      <trkpt lat="47.28334" lon="-2.34535">
        <ele>4.5999999046326</ele>
        <time>2022-09-08T07:18:32.000Z</time>
      </trkpt>
      <trkpt lat="47.28338" lon="-2.34529">
        <ele>5</ele>
        <time>2022-09-08T07:18:33.000Z</time>
      </trkpt>
      <trkpt lat="47.28366" lon="-2.34492">
        <ele>5</ele>
        <time>2022-09-08T07:18:39.000Z</time>
      </trkpt>
      <trkpt lat="47.28381" lon="-2.34476">
        <ele>5</ele>
        <time>2022-09-08T07:18:42.000Z</time>
      </trkpt>
      <trkpt lat="47.28396" lon="-2.34463">
        <ele>5</ele>
        <time>2022-09-08T07:18:45.000Z</time>
      </trkpt>
      <trkpt lat="47.28434" lon="-2.34441">
        <ele>5</ele>
        <time>2022-09-08T07:18:52.000Z</time>
      </trkpt>
      <trkpt lat="47.28462" lon="-2.34433">
        <ele>5</ele>
        <time>2022-09-08T07:18:57.000Z</time>
      </trkpt>
      <trkpt lat="47.28477" lon="-2.3443">
        <ele>5</ele>
        <time>2022-09-08T07:19:00.000Z</time>
      </trkpt>
      <trkpt lat="47.28515" lon="-2.34421">
        <ele>5</ele>
        <time>2022-09-08T07:19:07.000Z</time>
      </trkpt>
      <trkpt lat="47.28552" lon="-2.3441">
        <ele>5</ele>
        <time>2022-09-08T07:19:14.000Z</time>
      </trkpt>
      <trkpt lat="47.28566" lon="-2.344">
        <ele>5</ele>
        <time>2022-09-08T07:19:17.000Z</time>
      </trkpt>
      <trkpt lat="47.2858" lon="-2.34386">
        <ele>5</ele>
        <time>2022-09-08T07:19:20.000Z</time>
      </trkpt>
      <trkpt lat="47.28595" lon="-2.34361">
        <ele>5</ele>
        <time>2022-09-08T07:19:24.000Z</time>
      </trkpt>
      <trkpt lat="47.28598" lon="-2.34354">
        <ele>5</ele>
        <time>2022-09-08T07:19:25.000Z</time>
      </trkpt>
      <trkpt lat="47.2861" lon="-2.34314">
        <ele>5</ele>
        <time>2022-09-08T07:19:30.000Z</time>
      </trkpt>
      <trkpt lat="47.28627" lon="-2.34253">
        <ele>5</ele>
        <time>2022-09-08T07:19:38.000Z</time>
      </trkpt>
      <trkpt lat="47.2864" lon="-2.34204">
        <ele>5</ele>
        <time>2022-09-08T07:19:45.000Z</time>
      </trkpt>
      <trkpt lat="47.2864" lon="-2.34197">
        <ele>5</ele>
        <time>2022-09-08T07:19:46.000Z</time>
      </trkpt>
      <trkpt lat="47.28641" lon="-2.34169">
        <ele>5</ele>
        <time>2022-09-08T07:19:50.000Z</time>
      </trkpt>
      <trkpt lat="47.2864" lon="-2.34163">
        <ele>5</ele>
        <time>2022-09-08T07:19:51.000Z</time>
      </trkpt>
      <trkpt lat="47.28635" lon="-2.34135">
        <ele>5</ele>
        <time>2022-09-08T07:19:55.000Z</time>
      </trkpt>
      <trkpt lat="47.2862" lon="-2.34063">
        <ele>5</ele>
        <time>2022-09-08T07:20:04.000Z</time>
      </trkpt>
      <trkpt lat="47.28619" lon="-2.34055">
        <ele>4.5999999046326</ele>
        <time>2022-09-08T07:20:05.000Z</time>
      </trkpt>
      <trkpt lat="47.28617" lon="-2.34046">
        <ele>4.1999998092651</ele>
        <time>2022-09-08T07:20:06.000Z</time>
      </trkpt>
      <trkpt lat="47.28615" lon="-2.34038">
        <ele>3.7999999523163</ele>
        <time>2022-09-08T07:20:07.000Z</time>
      </trkpt>
      <trkpt lat="47.28613" lon="-2.3403">
        <ele>3.4000000953674</ele>
        <time>2022-09-08T07:20:08.000Z</time>
      </trkpt>
      <trkpt lat="47.28612" lon="-2.34022">
        <ele>2.7999999523163</ele>
        <time>2022-09-08T07:20:09.000Z</time>
      </trkpt>
      <trkpt lat="47.28609" lon="-2.34005">
        <ele>2.7999999523163</ele>
        <time>2022-09-08T07:20:11.000Z</time>
      </trkpt>
      <trkpt lat="47.28592" lon="-2.33926">
        <ele>2.7999999523163</ele>
        <time>2022-09-08T07:20:21.000Z</time>
      </trkpt>
      <trkpt lat="47.28577" lon="-2.33853">
        <ele>2.7999999523163</ele>
        <time>2022-09-08T07:20:30.000Z</time>
      </trkpt>
      <trkpt lat="47.28569" lon="-2.33803">
        <ele>2.7999999523163</ele>
        <time>2022-09-08T07:20:36.000Z</time>
      </trkpt>
      <trkpt lat="47.28569" lon="-2.33787">
        <ele>2.7999999523163</ele>
        <time>2022-09-08T07:20:38.000Z</time>
      </trkpt>
      <trkpt lat="47.28579" lon="-2.3375">
        <ele>2.7999999523163</ele>
        <time>2022-09-08T07:20:43.000Z</time>
      </trkpt>
      <trkpt lat="47.28584" lon="-2.33735">
        <ele>2.7999999523163</ele>
        <time>2022-09-08T07:20:46.000Z</time>
      </trkpt>
      <trkpt lat="47.28576" lon="-2.33732">
        <ele>2.7999999523163</ele>
        <time>2022-09-08T07:20:49.000Z</time>
      </trkpt>
      <trkpt lat="47.28573" lon="-2.33732">
        <ele>2.7999999523163</ele>
        <time>2022-09-08T07:20:50.000Z</time>
      </trkpt>
      <trkpt lat="47.28568" lon="-2.33731">
        <ele>2.7999999523163</ele>
        <time>2022-09-08T07:20:51.000Z</time>
      </trkpt>
      <trkpt lat="47.28555" lon="-2.3373">
        <ele>2.7999999523163</ele>
        <time>2022-09-08T07:20:54.000Z</time>
      </trkpt>
      <trkpt lat="47.28539" lon="-2.33731">
        <ele>2.4000000953674</ele>
        <time>2022-09-08T07:20:57.000Z</time>
      </trkpt>
      <trkpt lat="47.28533" lon="-2.33731">
        <ele>2</ele>
        <time>2022-09-08T07:20:58.000Z</time>
      </trkpt>
      <trkpt lat="47.28527" lon="-2.33731">
        <ele>1.6000000238419</ele>
        <time>2022-09-08T07:20:59.000Z</time>
      </trkpt>
      <trkpt lat="47.28522" lon="-2.33732">
        <ele>1.2000000476837</ele>
        <time>2022-09-08T07:21:00.000Z</time>
      </trkpt>
      <trkpt lat="47.28516" lon="-2.33733">
        <ele>0.80000001192093</ele>
        <time>2022-09-08T07:21:01.000Z</time>
      </trkpt>
      <trkpt lat="47.28499" lon="-2.33743">
        <ele>0.80000001192093</ele>
        <time>2022-09-08T07:21:04.000Z</time>
      </trkpt>
      <trkpt lat="47.2849" lon="-2.33753">
        <ele>0.80000001192093</ele>
        <time>2022-09-08T07:21:06.000Z</time>
      </trkpt>
      <trkpt lat="47.28468" lon="-2.3378">
        <ele>0.80000001192093</ele>
        <time>2022-09-08T07:21:11.000Z</time>
      </trkpt>
      <trkpt lat="47.28435" lon="-2.33815">
        <ele>0.80000001192093</ele>
        <time>2022-09-08T07:21:18.000Z</time>
      </trkpt>
      <trkpt lat="47.28392" lon="-2.33859">
        <ele>0.80000001192093</ele>
        <time>2022-09-08T07:21:27.000Z</time>
      </trkpt>
      <trkpt lat="47.28381" lon="-2.33869">
        <ele>0.40000000596046</ele>
        <time>2022-09-08T07:21:29.000Z</time>
      </trkpt>
      <trkpt lat="47.28376" lon="-2.33874">
        <ele>25</ele>
        <time>2022-09-08T07:21:30.000Z</time>
      </trkpt>
      <trkpt lat="47.2837" lon="-2.33878">
        <ele>-0.40000000596046</ele>
        <time>2022-09-08T07:21:31.000Z</time>
      </trkpt>
      <trkpt lat="47.28365" lon="-2.33882">
        <ele>-0.80000001192093</ele>
        <time>2022-09-08T07:21:32.000Z</time>
      </trkpt>
      <trkpt lat="47.2836" lon="-2.33887">
        <ele>-1.2000000476837</ele>
        <time>2022-09-08T07:21:33.000Z</time>
      </trkpt>
      <trkpt lat="47.28355" lon="-2.33892">
        <ele>-1.2000000476837</ele>
        <time>2022-09-08T07:21:34.000Z</time>
      </trkpt>
      <trkpt lat="47.28313" lon="-2.33929">
        <ele>-1.7999999523163</ele>
        <time>2022-09-08T07:21:42.000Z</time>
      </trkpt>
      <trkpt lat="47.28309" lon="-2.3393">
        <ele>-2.2000000476837</ele>
        <time>2022-09-08T07:21:43.000Z</time>
      </trkpt>
      <trkpt lat="47.28304" lon="-2.33929">
        <ele>-2.5999999046326</ele>
        <time>2022-09-08T07:21:44.000Z</time>
      </trkpt>
      <trkpt lat="47.283" lon="-2.33924">
        <ele>-3</ele>
        <time>2022-09-08T07:21:45.000Z</time>
      </trkpt>
      <trkpt lat="47.28298" lon="-2.33919">
        <ele>-3.4000000953674</ele>
        <time>2022-09-08T07:21:46.000Z</time>
      </trkpt>
      <trkpt lat="47.28295" lon="-2.33912">
        <ele>-3.4000000953674</ele>
        <time>2022-09-08T07:21:47.000Z</time>
      </trkpt>
      <trkpt lat="47.2829" lon="-2.33898">
        <ele>-3.4000000953674</ele>
        <time>2022-09-08T07:21:49.000Z</time>
      </trkpt>
      <trkpt lat="47.28263" lon="-2.33838">
        <ele>-3.4000000953674</ele>
        <time>2022-09-08T07:21:57.000Z</time>
      </trkpt>
      <trkpt lat="47.28256" lon="-2.33824">
        <ele>-3.4000000953674</ele>
        <time>2022-09-08T07:21:59.000Z</time>
      </trkpt>
      <trkpt lat="47.28242" lon="-2.3381">
        <ele>-3.4000000953674</ele>
        <time>2022-09-08T07:22:02.000Z</time>
      </trkpt>
      <trkpt lat="47.28231" lon="-2.33803">
        <ele>-4</ele>
        <time>2022-09-08T07:22:04.000Z</time>
      </trkpt>
      <trkpt lat="47.28224" lon="-2.33801">
        <ele>-4.4000000953674</ele>
        <time>2022-09-08T07:22:05.000Z</time>
      </trkpt>
      <trkpt lat="47.28218" lon="-2.33799">
        <ele>-5</ele>
        <time>2022-09-08T07:22:06.000Z</time>
      </trkpt>
      <trkpt lat="47.28212" lon="-2.33797">
        <ele>-6</ele>
        <time>2022-09-08T07:22:07.000Z</time>
      </trkpt>
      <trkpt lat="47.28206" lon="-2.33794">
        <ele>-6</ele>
        <time>2022-09-08T07:22:08.000Z</time>
      </trkpt>
      <trkpt lat="47.2819" lon="-2.3378">
        <ele>-6</ele>
        <time>2022-09-08T07:22:11.000Z</time>
      </trkpt>
      <trkpt lat="47.28186" lon="-2.33775">
        <ele>-6</ele>
        <time>2022-09-08T07:22:12.000Z</time>
      </trkpt>
      <trkpt lat="47.28172" lon="-2.33757">
        <ele>-6</ele>
        <time>2022-09-08T07:22:15.000Z</time>
      </trkpt>
      <trkpt lat="47.28151" lon="-2.33735">
        <ele>-6</ele>
        <time>2022-09-08T07:22:19.000Z</time>
      </trkpt>
      <trkpt lat="47.28147" lon="-2.33729">
        <ele>-6</ele>
        <time>2022-09-08T07:22:20.000Z</time>
      </trkpt>
      <trkpt lat="47.28126" lon="-2.33698">
        <ele>-6</ele>
        <time>2022-09-08T07:22:25.000Z</time>
      </trkpt>
      <trkpt lat="47.28122" lon="-2.33692">
        <ele>-6</ele>
        <time>2022-09-08T07:22:26.000Z</time>
      </trkpt>
      <trkpt lat="47.28107" lon="-2.33673">
        <ele>-6</ele>
        <time>2022-09-08T07:22:30.000Z</time>
      </trkpt>
      <trkpt lat="47.28102" lon="-2.33666">
        <ele>-6.4000000953674</ele>
        <time>2022-09-08T07:22:32.000Z</time>
      </trkpt>
      <trkpt lat="47.28101" lon="-2.33663">
        <ele>-6.8000001907349</ele>
        <time>2022-09-08T07:22:33.000Z</time>
      </trkpt>
      <trkpt lat="47.28099" lon="-2.33661">
        <ele>-7.1999998092651</ele>
        <time>2022-09-08T07:22:34.000Z</time>
      </trkpt>
      <trkpt lat="47.28098" lon="-2.33659">
        <ele>-7.5999999046326</ele>
        <time>2022-09-08T07:22:35.000Z</time>
      </trkpt>
      <trkpt lat="47.28097" lon="-2.33656">
        <ele>-8.1999998092651</ele>
        <time>2022-09-08T07:22:36.000Z</time>
      </trkpt>
      <trkpt lat="47.28093" lon="-2.33645">
        <ele>-8.1999998092651</ele>
        <time>2022-09-08T07:22:40.000Z</time>
      </trkpt>
      <trkpt lat="47.2809" lon="-2.3362">
        <ele>-8.1999998092651</ele>
        <time>2022-09-08T07:22:45.000Z</time>
      </trkpt>
      <trkpt lat="47.28085" lon="-2.33587">
        <ele>-8.1999998092651</ele>
        <time>2022-09-08T07:22:50.000Z</time>
      </trkpt>
      <trkpt lat="47.28083" lon="-2.3358">
        <ele>-8.1999998092651</ele>
        <time>2022-09-08T07:22:51.000Z</time>
      </trkpt>
      <trkpt lat="47.2808" lon="-2.3356">
        <ele>-8.1999998092651</ele>
        <time>2022-09-08T07:22:54.000Z</time>
      </trkpt>
      <trkpt lat="47.28079" lon="-2.33553">
        <ele>-8.1999998092651</ele>
        <time>2022-09-08T07:22:55.000Z</time>
      </trkpt>
      <trkpt lat="47.28076" lon="-2.33534">
        <ele>-8.1999998092651</ele>
        <time>2022-09-08T07:22:58.000Z</time>
      </trkpt>
      <trkpt lat="47.28072" lon="-2.33523">
        <ele>-8.1999998092651</ele>
        <time>2022-09-08T07:23:00.000Z</time>
      </trkpt>
      <trkpt lat="47.28062" lon="-2.3352">
        <ele>-8.1999998092651</ele>
        <time>2022-09-08T07:23:03.000Z</time>
      </trkpt>
      <trkpt lat="47.28044" lon="-2.33521">
        <ele>-8.1999998092651</ele>
        <time>2022-09-08T07:23:07.000Z</time>
      </trkpt>
      <trkpt lat="47.28035" lon="-2.33524">
        <ele>-8.1999998092651</ele>
        <time>2022-09-08T07:23:09.000Z</time>
      </trkpt>
      <trkpt lat="47.28023" lon="-2.33527">
        <ele>-8.1999998092651</ele>
        <time>2022-09-08T07:23:12.000Z</time>
      </trkpt>
      <trkpt lat="47.28014" lon="-2.33532">
        <ele>-8.1999998092651</ele>
        <time>2022-09-08T07:23:14.000Z</time>
      </trkpt>
      <trkpt lat="47.27996" lon="-2.33542">
        <ele>-8.1999998092651</ele>
        <time>2022-09-08T07:23:18.000Z</time>
      </trkpt>
      <trkpt lat="47.27988" lon="-2.33549">
        <ele>-8.1999998092651</ele>
        <time>2022-09-08T07:23:20.000Z</time>
      </trkpt>
      <trkpt lat="47.27959" lon="-2.33568">
        <ele>-8.1999998092651</ele>
        <time>2022-09-08T07:23:27.000Z</time>
      </trkpt>
      <trkpt lat="47.2795" lon="-2.33572">
        <ele>-8.1999998092651</ele>
        <time>2022-09-08T07:23:29.000Z</time>
      </trkpt>
      <trkpt lat="47.2794" lon="-2.3357">
        <ele>-8.1999998092651</ele>
        <time>2022-09-08T07:23:31.000Z</time>
      </trkpt>
      <trkpt lat="47.27932" lon="-2.33553">
        <ele>-8.1999998092651</ele>
        <time>2022-09-08T07:23:34.000Z</time>
      </trkpt>
      <trkpt lat="47.2793" lon="-2.33546">
        <ele>-8.1999998092651</ele>
        <time>2022-09-08T07:23:35.000Z</time>
      </trkpt>
      <trkpt lat="47.27918" lon="-2.33509">
        <ele>-8.1999998092651</ele>
        <time>2022-09-08T07:23:41.000Z</time>
      </trkpt>
      <trkpt lat="47.27915" lon="-2.33502">
        <ele>-8.1999998092651</ele>
        <time>2022-09-08T07:23:42.000Z</time>
      </trkpt>
      <trkpt lat="47.279" lon="-2.33474">
        <ele>-8.1999998092651</ele>
        <time>2022-09-08T07:23:47.000Z</time>
      </trkpt>
      <trkpt lat="47.27897" lon="-2.33469">
        <ele>-8.1999998092651</ele>
        <time>2022-09-08T07:23:48.000Z</time>
      </trkpt>
      <trkpt lat="47.27884" lon="-2.33459">
        <ele>-8.1999998092651</ele>
        <time>2022-09-08T07:23:51.000Z</time>
      </trkpt>
      <trkpt lat="47.27873" lon="-2.33459">
        <ele>-8.1999998092651</ele>
        <time>2022-09-08T07:23:53.000Z</time>
      </trkpt>
      <trkpt lat="47.27857" lon="-2.33458">
        <ele>-8.1999998092651</ele>
        <time>2022-09-08T07:23:56.000Z</time>
      </trkpt>
      <trkpt lat="47.27847" lon="-2.33456">
        <ele>-7.8000001907349</ele>
        <time>2022-09-08T07:23:58.000Z</time>
      </trkpt>
      <trkpt lat="47.27842" lon="-2.33454">
        <ele>-7.1999998092651</ele>
        <time>2022-09-08T07:23:59.000Z</time>
      </trkpt>
      <trkpt lat="47.27837" lon="-2.33451">
        <ele>-6.8000001907349</ele>
        <time>2022-09-08T07:24:00.000Z</time>
      </trkpt>
      <trkpt lat="47.27832" lon="-2.33448">
        <ele>-6.4000000953674</ele>
        <time>2022-09-08T07:24:01.000Z</time>
      </trkpt>
      <trkpt lat="47.27827" lon="-2.33445">
        <ele>-6</ele>
        <time>2022-09-08T07:24:02.000Z</time>
      </trkpt>
      <trkpt lat="47.27799" lon="-2.33432">
        <ele>-6</ele>
        <time>2022-09-08T07:24:08.000Z</time>
      </trkpt>
      <trkpt lat="47.27776" lon="-2.33425">
        <ele>-6</ele>
        <time>2022-09-08T07:24:14.000Z</time>
      </trkpt>
      <trkpt lat="47.27773" lon="-2.33407">
        <ele>-6</ele>
        <time>2022-09-08T07:24:17.000Z</time>
      </trkpt>
      <trkpt lat="47.27773" lon="-2.334">
        <ele>-6</ele>
        <time>2022-09-08T07:24:18.000Z</time>
      </trkpt>
      <trkpt lat="47.27774" lon="-2.3336">
        <ele>-6</ele>
        <time>2022-09-08T07:24:23.000Z</time>
      </trkpt>
      <trkpt lat="47.27769" lon="-2.33282">
        <ele>-6</ele>
        <time>2022-09-08T07:24:32.000Z</time>
      </trkpt>
      <trkpt lat="47.27763" lon="-2.33215">
        <ele>-6</ele>
        <time>2022-09-08T07:24:40.000Z</time>
      </trkpt>
      <trkpt lat="47.27758" lon="-2.33174">
        <ele>-6</ele>
        <time>2022-09-08T07:24:45.000Z</time>
      </trkpt>
      <trkpt lat="47.27754" lon="-2.3316">
        <ele>-6</ele>
        <time>2022-09-08T07:24:47.000Z</time>
      </trkpt>
      <trkpt lat="47.27753" lon="-2.33153">
        <ele>-6</ele>
        <time>2022-09-08T07:24:48.000Z</time>
      </trkpt>
      <trkpt lat="47.27753" lon="-2.33138">
        <ele>-6</ele>
        <time>2022-09-08T07:24:50.000Z</time>
      </trkpt>
      <trkpt lat="47.27755" lon="-2.33115">
        <ele>-6.4000000953674</ele>
        <time>2022-09-08T07:24:53.000Z</time>
      </trkpt>
      <trkpt lat="47.27754" lon="-2.33107">
        <ele>-6.8000001907349</ele>
        <time>2022-09-08T07:24:54.000Z</time>
      </trkpt>
      <trkpt lat="47.27754" lon="-2.33098">
        <ele>-7.4000000953674</ele>
        <time>2022-09-08T07:24:55.000Z</time>
      </trkpt>
      <trkpt lat="47.27753" lon="-2.3309">
        <ele>-7.8000001907349</ele>
        <time>2022-09-08T07:24:56.000Z</time>
      </trkpt>
      <trkpt lat="47.27752" lon="-2.33081">
        <ele>-8.1999998092651</ele>
        <time>2022-09-08T07:24:57.000Z</time>
      </trkpt>
      <trkpt lat="47.2775" lon="-2.33036">
        <ele>-8.1999998092651</ele>
        <time>2022-09-08T07:25:02.000Z</time>
      </trkpt>
      <trkpt lat="47.27751" lon="-2.33026">
        <ele>-8.6000003814697</ele>
        <time>2022-09-08T07:25:03.000Z</time>
      </trkpt>
      <trkpt lat="47.27751" lon="-2.33017">
        <ele>-9</ele>
        <time>2022-09-08T07:25:04.000Z</time>
      </trkpt>
      <trkpt lat="47.2775" lon="-2.33006">
        <ele>-9.3999996185303</ele>
        <time>2022-09-08T07:25:05.000Z</time>
      </trkpt>
      <trkpt lat="47.2775" lon="-2.32996">
        <ele>-9.8000001907349</ele>
        <time>2022-09-08T07:25:06.000Z</time>
      </trkpt>
      <trkpt lat="47.2775" lon="-2.32986">
        <ele>-10.39999961853</ele>
        <time>2022-09-08T07:25:07.000Z</time>
      </trkpt>
      <trkpt lat="47.27751" lon="-2.32965">
        <ele>-10.39999961853</ele>
        <time>2022-09-08T07:25:09.000Z</time>
      </trkpt>
      <trkpt lat="47.27751" lon="-2.32955">
        <ele>-10.800000190735</ele>
        <time>2022-09-08T07:25:10.000Z</time>
      </trkpt>
      <trkpt lat="47.27751" lon="-2.32945">
        <ele>-11.199999809265</ele>
        <time>2022-09-08T07:25:11.000Z</time>
      </trkpt>
      <trkpt lat="47.27751" lon="-2.32935">
        <ele>-11.60000038147</ele>
        <time>2022-09-08T07:25:12.000Z</time>
      </trkpt>
      <trkpt lat="47.2775" lon="-2.32926">
        <ele>-12</ele>
        <time>2022-09-08T07:25:13.000Z</time>
      </trkpt>
      <trkpt lat="47.27747" lon="-2.32918">
        <ele>-12.39999961853</ele>
        <time>2022-09-08T07:25:14.000Z</time>
      </trkpt>
      <trkpt lat="47.27736" lon="-2.32902">
        <ele>-12.39999961853</ele>
        <time>2022-09-08T07:25:17.000Z</time>
      </trkpt>
      <trkpt lat="47.27728" lon="-2.32892">
        <ele>-12.39999961853</ele>
        <time>2022-09-08T07:25:21.000Z</time>
      </trkpt>
      <trkpt lat="47.27727" lon="-2.32883">
        <ele>-12.39999961853</ele>
        <time>2022-09-08T07:25:25.000Z</time>
      </trkpt>
      <trkpt lat="47.27723" lon="-2.32871">
        <ele>-12.39999961853</ele>
        <time>2022-09-08T07:25:29.000Z</time>
      </trkpt>
      <trkpt lat="47.27718" lon="-2.32853">
        <ele>-12.39999961853</ele>
        <time>2022-09-08T07:25:34.000Z</time>
      </trkpt>
      <trkpt lat="47.2771" lon="-2.32833">
        <ele>-12.39999961853</ele>
        <time>2022-09-08T07:25:40.000Z</time>
      </trkpt>
      <trkpt lat="47.27702" lon="-2.32816">
        <ele>-12.39999961853</ele>
        <time>2022-09-08T07:25:45.000Z</time>
      </trkpt>
      <trkpt lat="47.27701" lon="-2.32816">
        <ele>-12.39999961853</ele>
        <time>2022-09-08T07:25:46.000Z</time>
      </trkpt>
      <trkpt lat="47.27688" lon="-2.32812">
        <ele>-12.39999961853</ele>
        <time>2022-09-08T07:25:50.000Z</time>
      </trkpt>
      <trkpt lat="47.27671" lon="-2.32801">
        <ele>-12.39999961853</ele>
        <time>2022-09-08T07:25:55.000Z</time>
      </trkpt>
      <trkpt lat="47.27669" lon="-2.32797">
        <ele>-12.39999961853</ele>
        <time>2022-09-08T07:25:56.000Z</time>
      </trkpt>
      <trkpt lat="47.27665" lon="-2.32781">
        <ele>-12.39999961853</ele>
        <time>2022-09-08T07:26:00.000Z</time>
      </trkpt>
      <trkpt lat="47.27665" lon="-2.32779">
        <ele>-12.800000190735</ele>
        <time>2022-09-08T07:26:01.000Z</time>
      </trkpt>
      <trkpt lat="47.27666" lon="-2.32777">
        <ele>-13.199999809265</ele>
        <time>2022-09-08T07:26:02.000Z</time>
      </trkpt>
      <trkpt lat="47.27666" lon="-2.32775">
        <ele>-13.60000038147</ele>
        <time>2022-09-08T07:26:03.000Z</time>
      </trkpt>
      <trkpt lat="47.27666" lon="-2.32774">
        <ele>-14</ele>
        <time>2022-09-08T07:26:04.000Z</time>
      </trkpt>
      <trkpt lat="47.27666" lon="-2.32772">
        <ele>-14.39999961853</ele>
        <time>2022-09-08T07:26:05.000Z</time>
      </trkpt>
      <trkpt lat="47.27665" lon="-2.32769">
        <ele>-14.39999961853</ele>
        <time>2022-09-08T07:26:07.000Z</time>
      </trkpt>
      <trkpt lat="47.27663" lon="-2.32767">
        <ele>-14.39999961853</ele>
        <time>2022-09-08T07:26:09.000Z</time>
      </trkpt>
      <trkpt lat="47.27654" lon="-2.32761">
        <ele>-14.39999961853</ele>
        <time>2022-09-08T07:26:13.000Z</time>
      </trkpt>
      <trkpt lat="47.27646" lon="-2.32759">
        <ele>-14.39999961853</ele>
        <time>2022-09-08T07:26:16.000Z</time>
      </trkpt>
      <trkpt lat="47.27642" lon="-2.3276">
        <ele>-14.39999961853</ele>
        <time>2022-09-08T07:26:17.000Z</time>
      </trkpt>
      <trkpt lat="47.27614" lon="-2.3277">
        <ele>-14.39999961853</ele>
        <time>2022-09-08T07:26:23.000Z</time>
      </trkpt>
      <trkpt lat="47.276" lon="-2.32767">
        <ele>-14.39999961853</ele>
        <time>2022-09-08T07:26:27.000Z</time>
      </trkpt>
      <trkpt lat="47.27589" lon="-2.3276">
        <ele>-14.39999961853</ele>
        <time>2022-09-08T07:26:31.000Z</time>
      </trkpt>
      <trkpt lat="47.27588" lon="-2.32738">
        <ele>-14.800000190735</ele>
        <time>2022-09-08T07:26:35.000Z</time>
      </trkpt>
      <trkpt lat="47.27588" lon="-2.32732">
        <ele>-15.39999961853</ele>
        <time>2022-09-08T07:26:36.000Z</time>
      </trkpt>
      <trkpt lat="47.27588" lon="-2.32727">
        <ele>-15.800000190735</ele>
        <time>2022-09-08T07:26:37.000Z</time>
      </trkpt>
      <trkpt lat="47.27589" lon="-2.32721">
        <ele>-17.200000762939</ele>
        <time>2022-09-08T07:26:38.000Z</time>
      </trkpt>
      <trkpt lat="47.27591" lon="-2.32716">
        <ele>-17.799999237061</ele>
        <time>2022-09-08T07:26:39.000Z</time>
      </trkpt>
      <trkpt lat="47.27592" lon="-2.3271">
        <ele>-18.39999961853</ele>
        <time>2022-09-08T07:26:40.000Z</time>
      </trkpt>
      <trkpt lat="47.27593" lon="-2.32704">
        <ele>-19.200000762939</ele>
        <time>2022-09-08T07:26:41.000Z</time>
      </trkpt>
      <trkpt lat="47.276" lon="-2.3269">
        <ele>-19.200000762939</ele>
        <time>2022-09-08T07:26:44.000Z</time>
      </trkpt>
      <trkpt lat="47.27602" lon="-2.32689">
        <ele>-19.200000762939</ele>
        <time>2022-09-08T07:26:45.000Z</time>
      </trkpt>
      <trkpt lat="47.27611" lon="-2.32696">
        <ele>-19.200000762939</ele>
        <time>2022-09-08T07:26:49.000Z</time>
      </trkpt>
      <trkpt lat="47.27619" lon="-2.32709">
        <ele>-19.200000762939</ele>
        <time>2022-09-08T07:26:54.000Z</time>
      </trkpt>
      <trkpt lat="47.27631" lon="-2.32714">
        <ele>-19.200000762939</ele>
        <time>2022-09-08T07:26:57.000Z</time>
      </trkpt>
      <trkpt lat="47.27637" lon="-2.32716">
        <ele>-19.200000762939</ele>
        <time>2022-09-08T07:26:58.000Z</time>
      </trkpt>
      <trkpt lat="47.27653" lon="-2.32725">
        <ele>-19.200000762939</ele>
        <time>2022-09-08T07:27:01.000Z</time>
      </trkpt>
      <trkpt lat="47.27658" lon="-2.32725">
        <ele>-19.200000762939</ele>
        <time>2022-09-08T07:27:02.000Z</time>
      </trkpt>
      <trkpt lat="47.27669" lon="-2.32722">
        <ele>-19.200000762939</ele>
        <time>2022-09-08T07:27:04.000Z</time>
      </trkpt>
      <trkpt lat="47.27693" lon="-2.32717">
        <ele>-19.200000762939</ele>
        <time>2022-09-08T07:27:09.000Z</time>
      </trkpt>
      <trkpt lat="47.2771" lon="-2.32704">
        <ele>-19.200000762939</ele>
        <time>2022-09-08T07:27:14.000Z</time>
      </trkpt>
      <trkpt lat="47.27716" lon="-2.3269">
        <ele>-19.200000762939</ele>
        <time>2022-09-08T07:27:18.000Z</time>
      </trkpt>
      <trkpt lat="47.27725" lon="-2.32674">
        <ele>-19.200000762939</ele>
        <time>2022-09-08T07:27:23.000Z</time>
      </trkpt>
      <trkpt lat="47.27727" lon="-2.32671">
        <ele>-19.200000762939</ele>
        <time>2022-09-08T07:27:24.000Z</time>
      </trkpt>
      <trkpt lat="47.27731" lon="-2.3266">
        <ele>-18.200000762939</ele>
        <time>2022-09-08T07:27:27.000Z</time>
      </trkpt>
      <trkpt lat="47.27733" lon="-2.32657">
        <ele>-17.799999237061</ele>
        <time>2022-09-08T07:27:28.000Z</time>
      </trkpt>
      <trkpt lat="47.27734" lon="-2.32654">
        <ele>-17.39999961853</ele>
        <time>2022-09-08T07:27:29.000Z</time>
      </trkpt>
      <trkpt lat="47.27736" lon="-2.32651">
        <ele>-16.799999237061</ele>
        <time>2022-09-08T07:27:30.000Z</time>
      </trkpt>
      <trkpt lat="47.2774" lon="-2.32644">
        <ele>-16.39999961853</ele>
        <time>2022-09-08T07:27:32.000Z</time>
      </trkpt>
      <trkpt lat="47.27741" lon="-2.32641">
        <ele>-16</ele>
        <time>2022-09-08T07:27:33.000Z</time>
      </trkpt>
      <trkpt lat="47.27742" lon="-2.32638">
        <ele>-15.39999961853</ele>
        <time>2022-09-08T07:27:34.000Z</time>
      </trkpt>
      <trkpt lat="47.27744" lon="-2.32635">
        <ele>-15</ele>
        <time>2022-09-08T07:27:35.000Z</time>
      </trkpt>
      <trkpt lat="47.27745" lon="-2.32632">
        <ele>-14.60000038147</ele>
        <time>2022-09-08T07:27:36.000Z</time>
      </trkpt>
      <trkpt lat="47.27747" lon="-2.32629">
        <ele>-14.60000038147</ele>
        <time>2022-09-08T07:27:37.000Z</time>
      </trkpt>
      <trkpt lat="47.27758" lon="-2.32609">
        <ele>-14.199999809265</ele>
        <time>2022-09-08T07:27:43.000Z</time>
      </trkpt>
      <trkpt lat="47.2776" lon="-2.32606">
        <ele>-13.800000190735</ele>
        <time>2022-09-08T07:27:44.000Z</time>
      </trkpt>
      <trkpt lat="47.27762" lon="-2.32603">
        <ele>-13.39999961853</ele>
        <time>2022-09-08T07:27:45.000Z</time>
      </trkpt>
      <trkpt lat="47.27763" lon="-2.326">
        <ele>-13</ele>
        <time>2022-09-08T07:27:46.000Z</time>
      </trkpt>
      <trkpt lat="47.27766" lon="-2.32596">
        <ele>-12.60000038147</ele>
        <time>2022-09-08T07:27:47.000Z</time>
      </trkpt>
      <trkpt lat="47.27769" lon="-2.32591">
        <ele>-12.60000038147</ele>
        <time>2022-09-08T07:27:48.000Z</time>
      </trkpt>
      <trkpt lat="47.27783" lon="-2.32572">
        <ele>-12.60000038147</ele>
        <time>2022-09-08T07:27:53.000Z</time>
      </trkpt>
      <trkpt lat="47.27795" lon="-2.32554">
        <ele>-12.60000038147</ele>
        <time>2022-09-08T07:27:58.000Z</time>
      </trkpt>
      <trkpt lat="47.27807" lon="-2.32535">
        <ele>-12.60000038147</ele>
        <time>2022-09-08T07:28:04.000Z</time>
      </trkpt>
      <trkpt lat="47.27819" lon="-2.32521">
        <ele>-12.60000038147</ele>
        <time>2022-09-08T07:28:08.000Z</time>
      </trkpt>
      <trkpt lat="47.27823" lon="-2.32515">
        <ele>-12.60000038147</ele>
        <time>2022-09-08T07:28:10.000Z</time>
      </trkpt>
      <trkpt lat="47.27827" lon="-2.32506">
        <ele>-12.60000038147</ele>
        <time>2022-09-08T07:28:12.000Z</time>
      </trkpt>
      <trkpt lat="47.27839" lon="-2.32488">
        <ele>-12.60000038147</ele>
        <time>2022-09-08T07:28:16.000Z</time>
      </trkpt>
      <trkpt lat="47.27853" lon="-2.32467">
        <ele>-12.60000038147</ele>
        <time>2022-09-08T07:28:21.000Z</time>
      </trkpt>
      <trkpt lat="47.27868" lon="-2.32451">
        <ele>-12.60000038147</ele>
        <time>2022-09-08T07:28:26.000Z</time>
      </trkpt>
      <trkpt lat="47.27872" lon="-2.32443">
        <ele>-12.60000038147</ele>
        <time>2022-09-08T07:28:28.000Z</time>
      </trkpt>
      <trkpt lat="47.27881" lon="-2.32429">
        <ele>-12.60000038147</ele>
        <time>2022-09-08T07:28:31.000Z</time>
      </trkpt>
      <trkpt lat="47.27895" lon="-2.32408">
        <ele>-12.60000038147</ele>
        <time>2022-09-08T07:28:36.000Z</time>
      </trkpt>
      <trkpt lat="47.279" lon="-2.32394">
        <ele>-12.60000038147</ele>
        <time>2022-09-08T07:28:41.000Z</time>
      </trkpt>
      <trkpt lat="47.27897" lon="-2.32389">
        <ele>-12.60000038147</ele>
        <time>2022-09-08T07:28:44.000Z</time>
      </trkpt>
      <trkpt lat="47.27896" lon="-2.32388">
        <ele>-12.60000038147</ele>
        <time>2022-09-08T07:28:45.000Z</time>
      </trkpt>
      <trkpt lat="47.27887" lon="-2.3239">
        <ele>-12.60000038147</ele>
        <time>2022-09-08T07:28:49.000Z</time>
      </trkpt>
      <trkpt lat="47.27879" lon="-2.32389">
        <ele>-12.60000038147</ele>
        <time>2022-09-08T07:28:51.000Z</time>
      </trkpt>
      <trkpt lat="47.27871" lon="-2.32387">
        <ele>-12.60000038147</ele>
        <time>2022-09-08T07:28:53.000Z</time>
      </trkpt>
      <trkpt lat="47.27859" lon="-2.32383">
        <ele>-12.60000038147</ele>
        <time>2022-09-08T07:28:57.000Z</time>
      </trkpt>
      <trkpt lat="47.27845" lon="-2.32379">
        <ele>-12.60000038147</ele>
        <time>2022-09-08T07:29:01.000Z</time>
      </trkpt>
      <trkpt lat="47.27833" lon="-2.32379">
        <ele>-12.60000038147</ele>
        <time>2022-09-08T07:29:05.000Z</time>
      </trkpt>
      <trkpt lat="47.27816" lon="-2.32381">
        <ele>-12.60000038147</ele>
        <time>2022-09-08T07:29:10.000Z</time>
      </trkpt>
      <trkpt lat="47.27795" lon="-2.32382">
        <ele>-12.60000038147</ele>
        <time>2022-09-08T07:29:16.000Z</time>
      </trkpt>
      <trkpt lat="47.27785" lon="-2.32383">
        <ele>-12.60000038147</ele>
        <time>2022-09-08T07:29:21.000Z</time>
      </trkpt>
      <trkpt lat="47.27779" lon="-2.32385">
        <ele>-12.199999809265</ele>
        <time>2022-09-08T07:29:23.000Z</time>
      </trkpt>
      <trkpt lat="47.27776" lon="-2.32384">
        <ele>-11.800000190735</ele>
        <time>2022-09-08T07:29:24.000Z</time>
      </trkpt>
      <trkpt lat="47.27773" lon="-2.32383">
        <ele>-11.39999961853</ele>
        <time>2022-09-08T07:29:25.000Z</time>
      </trkpt>
      <trkpt lat="47.27771" lon="-2.3238">
        <ele>-11</ele>
        <time>2022-09-08T07:29:26.000Z</time>
      </trkpt>
      <trkpt lat="47.27769" lon="-2.32377">
        <ele>-10.60000038147</ele>
        <time>2022-09-08T07:29:27.000Z</time>
      </trkpt>
      <trkpt lat="47.27763" lon="-2.32372">
        <ele>-10.60000038147</ele>
        <time>2022-09-08T07:29:29.000Z</time>
      </trkpt>
      <trkpt lat="47.27752" lon="-2.32362">
        <ele>-10.60000038147</ele>
        <time>2022-09-08T07:29:34.000Z</time>
      </trkpt>
      <trkpt lat="47.27743" lon="-2.32355">
        <ele>-10.60000038147</ele>
        <time>2022-09-08T07:29:37.000Z</time>
      </trkpt>
      <trkpt lat="47.27737" lon="-2.32352">
        <ele>-10.60000038147</ele>
        <time>2022-09-08T07:29:39.000Z</time>
      </trkpt>
      <trkpt lat="47.27731" lon="-2.3235">
        <ele>-10.60000038147</ele>
        <time>2022-09-08T07:29:41.000Z</time>
      </trkpt>
      <trkpt lat="47.27719" lon="-2.32344">
        <ele>-10.60000038147</ele>
        <time>2022-09-08T07:29:45.000Z</time>
      </trkpt>
      <trkpt lat="47.27699" lon="-2.32337">
        <ele>-10.60000038147</ele>
        <time>2022-09-08T07:29:51.000Z</time>
      </trkpt>
      <trkpt lat="47.27691" lon="-2.32334">
        <ele>-10.60000038147</ele>
        <time>2022-09-08T07:29:53.000Z</time>
      </trkpt>
      <trkpt lat="47.27683" lon="-2.3233">
        <ele>-10.60000038147</ele>
        <time>2022-09-08T07:29:55.000Z</time>
      </trkpt>
      <trkpt lat="47.27666" lon="-2.32323">
        <ele>-10.60000038147</ele>
        <time>2022-09-08T07:29:59.000Z</time>
      </trkpt>
      <trkpt lat="47.27648" lon="-2.32318">
        <ele>-10.60000038147</ele>
        <time>2022-09-08T07:30:03.000Z</time>
      </trkpt>
      <trkpt lat="47.27643" lon="-2.32316">
        <ele>-10.60000038147</ele>
        <time>2022-09-08T07:30:04.000Z</time>
      </trkpt>
      <trkpt lat="47.27629" lon="-2.32308">
        <ele>-10.60000038147</ele>
        <time>2022-09-08T07:30:07.000Z</time>
      </trkpt>
      <trkpt lat="47.27623" lon="-2.32302">
        <ele>-11</ele>
        <time>2022-09-08T07:30:09.000Z</time>
      </trkpt>
      <trkpt lat="47.27622" lon="-2.32299">
        <ele>-11.39999961853</ele>
        <time>2022-09-08T07:30:10.000Z</time>
      </trkpt>
      <trkpt lat="47.27622" lon="-2.32295">
        <ele>-11.800000190735</ele>
        <time>2022-09-08T07:30:11.000Z</time>
      </trkpt>
      <trkpt lat="47.27622" lon="-2.32289">
        <ele>-12.199999809265</ele>
        <time>2022-09-08T07:30:12.000Z</time>
      </trkpt>
      <trkpt lat="47.27623" lon="-2.32282">
        <ele>-12.60000038147</ele>
        <time>2022-09-08T07:30:13.000Z</time>
      </trkpt>
      <trkpt lat="47.27624" lon="-2.32275">
        <ele>-12.60000038147</ele>
        <time>2022-09-08T07:30:14.000Z</time>
      </trkpt>
      <trkpt lat="47.27625" lon="-2.32269">
        <ele>-12.60000038147</ele>
        <time>2022-09-08T07:30:15.000Z</time>
      </trkpt>
      <trkpt lat="47.27634" lon="-2.32245">
        <ele>-12.60000038147</ele>
        <time>2022-09-08T07:30:19.000Z</time>
      </trkpt>
      <trkpt lat="47.27637" lon="-2.32233">
        <ele>-12.60000038147</ele>
        <time>2022-09-08T07:30:21.000Z</time>
      </trkpt>
      <trkpt lat="47.27647" lon="-2.322">
        <ele>-12.60000038147</ele>
        <time>2022-09-08T07:30:26.000Z</time>
      </trkpt>
      <trkpt lat="47.27661" lon="-2.32152">
        <ele>-12.60000038147</ele>
        <time>2022-09-08T07:30:32.000Z</time>
      </trkpt>
      <trkpt lat="47.27675" lon="-2.32105">
        <ele>-13</ele>
        <time>2022-09-08T07:30:37.000Z</time>
      </trkpt>
      <trkpt lat="47.27678" lon="-2.32096">
        <ele>-13.39999961853</ele>
        <time>2022-09-08T07:30:38.000Z</time>
      </trkpt>
      <trkpt lat="47.27682" lon="-2.32087">
        <ele>-13.800000190735</ele>
        <time>2022-09-08T07:30:39.000Z</time>
      </trkpt>
      <trkpt lat="47.27684" lon="-2.32078">
        <ele>-14.199999809265</ele>
        <time>2022-09-08T07:30:40.000Z</time>
      </trkpt>
      <trkpt lat="47.27687" lon="-2.32071">
        <ele>-14.60000038147</ele>
        <time>2022-09-08T07:30:41.000Z</time>
      </trkpt>
      <trkpt lat="47.2769" lon="-2.32054">
        <ele>-14.60000038147</ele>
        <time>2022-09-08T07:30:43.000Z</time>
      </trkpt>
      <trkpt lat="47.27689" lon="-2.32038">
        <ele>-14.60000038147</ele>
        <time>2022-09-08T07:30:45.000Z</time>
      </trkpt>
      <trkpt lat="47.2769" lon="-2.3203">
        <ele>-14.60000038147</ele>
        <time>2022-09-08T07:30:46.000Z</time>
      </trkpt>
      <trkpt lat="47.27691" lon="-2.32022">
        <ele>-14.60000038147</ele>
        <time>2022-09-08T07:30:47.000Z</time>
      </trkpt>
      <trkpt lat="47.27701" lon="-2.31996">
        <ele>-14.60000038147</ele>
        <time>2022-09-08T07:30:51.000Z</time>
      </trkpt>
      <trkpt lat="47.27716" lon="-2.31961">
        <ele>-14.60000038147</ele>
        <time>2022-09-08T07:30:56.000Z</time>
      </trkpt>
      <trkpt lat="47.27719" lon="-2.31954">
        <ele>-14.60000038147</ele>
        <time>2022-09-08T07:30:57.000Z</time>
      </trkpt>
      <trkpt lat="47.27728" lon="-2.3193">
        <ele>-14.60000038147</ele>
        <time>2022-09-08T07:31:01.000Z</time>
      </trkpt>
      <trkpt lat="47.2773" lon="-2.31923">
        <ele>-14.60000038147</ele>
        <time>2022-09-08T07:31:02.000Z</time>
      </trkpt>
      <trkpt lat="47.27734" lon="-2.31912">
        <ele>-14.60000038147</ele>
        <time>2022-09-08T07:31:04.000Z</time>
      </trkpt>
      <trkpt lat="47.27738" lon="-2.31895">
        <ele>-14.60000038147</ele>
        <time>2022-09-08T07:31:07.000Z</time>
      </trkpt>
      <trkpt lat="47.27737" lon="-2.3187">
        <ele>-14.60000038147</ele>
        <time>2022-09-08T07:31:11.000Z</time>
      </trkpt>
      <trkpt lat="47.27733" lon="-2.31827">
        <ele>-14.60000038147</ele>
        <time>2022-09-08T07:31:17.000Z</time>
      </trkpt>
      <trkpt lat="47.27729" lon="-2.31797">
        <ele>-14.60000038147</ele>
        <time>2022-09-08T07:31:22.000Z</time>
      </trkpt>
      <trkpt lat="47.27728" lon="-2.31783">
        <ele>-14.60000038147</ele>
        <time>2022-09-08T07:31:24.000Z</time>
      </trkpt>
      <trkpt lat="47.27729" lon="-2.31765">
        <ele>-14.60000038147</ele>
        <time>2022-09-08T07:31:27.000Z</time>
      </trkpt>
      <trkpt lat="47.27729" lon="-2.31759">
        <ele>-14.60000038147</ele>
        <time>2022-09-08T07:31:28.000Z</time>
      </trkpt>
      <trkpt lat="47.27733" lon="-2.31738">
        <ele>-14.60000038147</ele>
        <time>2022-09-08T07:31:32.000Z</time>
      </trkpt>
      <trkpt lat="47.27737" lon="-2.31718">
        <ele>-14.60000038147</ele>
        <time>2022-09-08T07:31:36.000Z</time>
      </trkpt>
      <trkpt lat="47.27746" lon="-2.31716">
        <ele>-14.60000038147</ele>
        <time>2022-09-08T07:31:39.000Z</time>
      </trkpt>
      <trkpt lat="47.2776" lon="-2.31722">
        <ele>-14.60000038147</ele>
        <time>2022-09-08T07:31:44.000Z</time>
      </trkpt>
      <trkpt lat="47.27775" lon="-2.31729">
        <ele>-14.60000038147</ele>
        <time>2022-09-08T07:31:49.000Z</time>
      </trkpt>
      <trkpt lat="47.27798" lon="-2.31747">
        <ele>-14.60000038147</ele>
        <time>2022-09-08T07:31:55.000Z</time>
      </trkpt>
      <trkpt lat="47.27814" lon="-2.31753">
        <ele>-14.60000038147</ele>
        <time>2022-09-08T07:31:59.000Z</time>
      </trkpt>
      <trkpt lat="47.27819" lon="-2.31752">
        <ele>-14.60000038147</ele>
        <time>2022-09-08T07:32:00.000Z</time>
      </trkpt>
      <trkpt lat="47.27824" lon="-2.3175">
        <ele>-14.199999809265</ele>
        <time>2022-09-08T07:32:01.000Z</time>
      </trkpt>
      <trkpt lat="47.2783" lon="-2.31749">
        <ele>-13.800000190735</ele>
        <time>2022-09-08T07:32:02.000Z</time>
      </trkpt>
      <trkpt lat="47.27835" lon="-2.31749">
        <ele>-13.39999961853</ele>
        <time>2022-09-08T07:32:03.000Z</time>
      </trkpt>
      <trkpt lat="47.2784" lon="-2.31748">
        <ele>-13</ele>
        <time>2022-09-08T07:32:04.000Z</time>
      </trkpt>
      <trkpt lat="47.27845" lon="-2.31747">
        <ele>-12.60000038147</ele>
        <time>2022-09-08T07:32:05.000Z</time>
      </trkpt>
      <trkpt lat="47.27863" lon="-2.31744">
        <ele>-12.60000038147</ele>
        <time>2022-09-08T07:32:09.000Z</time>
      </trkpt>
      <trkpt lat="47.27882" lon="-2.31734">
        <ele>-12.60000038147</ele>
        <time>2022-09-08T07:32:13.000Z</time>
      </trkpt>
      <trkpt lat="47.2789" lon="-2.31728">
        <ele>-12.60000038147</ele>
        <time>2022-09-08T07:32:15.000Z</time>
      </trkpt>
      <trkpt lat="47.27899" lon="-2.31722">
        <ele>-12.199999809265</ele>
        <time>2022-09-08T07:32:17.000Z</time>
      </trkpt>
      <trkpt lat="47.27903" lon="-2.31719">
        <ele>-11.800000190735</ele>
        <time>2022-09-08T07:32:18.000Z</time>
      </trkpt>
      <trkpt lat="47.27908" lon="-2.31716">
        <ele>-11.39999961853</ele>
        <time>2022-09-08T07:32:19.000Z</time>
      </trkpt>
      <trkpt lat="47.27913" lon="-2.31712">
        <ele>-11</ele>
        <time>2022-09-08T07:32:20.000Z</time>
      </trkpt>
      <trkpt lat="47.27918" lon="-2.31709">
        <ele>-10.60000038147</ele>
        <time>2022-09-08T07:32:21.000Z</time>
      </trkpt>
      <trkpt lat="47.27922" lon="-2.31705">
        <ele>-10.60000038147</ele>
        <time>2022-09-08T07:32:22.000Z</time>
      </trkpt>
      <trkpt lat="47.27936" lon="-2.31692">
        <ele>-10.60000038147</ele>
        <time>2022-09-08T07:32:25.000Z</time>
      </trkpt>
      <trkpt lat="47.27945" lon="-2.31684">
        <ele>-10.60000038147</ele>
        <time>2022-09-08T07:32:27.000Z</time>
      </trkpt>
      <trkpt lat="47.27977" lon="-2.31661">
        <ele>-10.60000038147</ele>
        <time>2022-09-08T07:32:33.000Z</time>
      </trkpt>
      <trkpt lat="47.27989" lon="-2.31654">
        <ele>-11</ele>
        <time>2022-09-08T07:32:35.000Z</time>
      </trkpt>
      <trkpt lat="47.27996" lon="-2.31651">
        <ele>-11.39999961853</ele>
        <time>2022-09-08T07:32:36.000Z</time>
      </trkpt>
      <trkpt lat="47.28002" lon="-2.31648">
        <ele>-11.800000190735</ele>
        <time>2022-09-08T07:32:37.000Z</time>
      </trkpt>
      <trkpt lat="47.28008" lon="-2.31645">
        <ele>-12.199999809265</ele>
        <time>2022-09-08T07:32:38.000Z</time>
      </trkpt>
      <trkpt lat="47.28014" lon="-2.31643">
        <ele>-12.60000038147</ele>
        <time>2022-09-08T07:32:39.000Z</time>
      </trkpt>
      <trkpt lat="47.28027" lon="-2.3164">
        <ele>-12.60000038147</ele>
        <time>2022-09-08T07:32:41.000Z</time>
      </trkpt>
      <trkpt lat="47.28048" lon="-2.31632">
        <ele>-12.60000038147</ele>
        <time>2022-09-08T07:32:45.000Z</time>
      </trkpt>
      <trkpt lat="47.28057" lon="-2.31632">
        <ele>-12.60000038147</ele>
        <time>2022-09-08T07:32:47.000Z</time>
      </trkpt>
      <trkpt lat="47.28077" lon="-2.3163">
        <ele>-12.60000038147</ele>
        <time>2022-09-08T07:32:52.000Z</time>
      </trkpt>
      <trkpt lat="47.28113" lon="-2.31629">
        <ele>-12.60000038147</ele>
        <time>2022-09-08T07:32:59.000Z</time>
      </trkpt>
      <trkpt lat="47.28154" lon="-2.31624">
        <ele>-12.60000038147</ele>
        <time>2022-09-08T07:33:06.000Z</time>
      </trkpt>
      <trkpt lat="47.28185" lon="-2.3162">
        <ele>-12.60000038147</ele>
        <time>2022-09-08T07:33:12.000Z</time>
      </trkpt>
      <trkpt lat="47.28215" lon="-2.31614">
        <ele>-12.60000038147</ele>
        <time>2022-09-08T07:33:18.000Z</time>
      </trkpt>
      <trkpt lat="47.28248" lon="-2.31607">
        <ele>-12.199999809265</ele>
        <time>2022-09-08T07:33:25.000Z</time>
      </trkpt>
      <trkpt lat="47.28253" lon="-2.31605">
        <ele>-11.800000190735</ele>
        <time>2022-09-08T07:33:26.000Z</time>
      </trkpt>
      <trkpt lat="47.28258" lon="-2.31603">
        <ele>-11.39999961853</ele>
        <time>2022-09-08T07:33:27.000Z</time>
      </trkpt>
      <trkpt lat="47.28263" lon="-2.31601">
        <ele>-11</ele>
        <time>2022-09-08T07:33:28.000Z</time>
      </trkpt>
      <trkpt lat="47.28268" lon="-2.316">
        <ele>-10.60000038147</ele>
        <time>2022-09-08T07:33:29.000Z</time>
      </trkpt>
      <trkpt lat="47.28286" lon="-2.31593">
        <ele>-10.60000038147</ele>
        <time>2022-09-08T07:33:33.000Z</time>
      </trkpt>
      <trkpt lat="47.28306" lon="-2.31589">
        <ele>-10.60000038147</ele>
        <time>2022-09-08T07:33:39.000Z</time>
      </trkpt>
      <trkpt lat="47.28313" lon="-2.31588">
        <ele>-10.60000038147</ele>
        <time>2022-09-08T07:33:43.000Z</time>
      </trkpt>
      <trkpt lat="47.28326" lon="-2.31584">
        <ele>-10.60000038147</ele>
        <time>2022-09-08T07:33:48.000Z</time>
      </trkpt>
      <trkpt lat="47.2833" lon="-2.31584">
        <ele>-10.60000038147</ele>
        <time>2022-09-08T07:33:49.000Z</time>
      </trkpt>
      <trkpt lat="47.28344" lon="-2.31582">
        <ele>-10.60000038147</ele>
        <time>2022-09-08T07:33:52.000Z</time>
      </trkpt>
      <trkpt lat="47.28348" lon="-2.3158">
        <ele>-10.60000038147</ele>
        <time>2022-09-08T07:33:53.000Z</time>
      </trkpt>
      <trkpt lat="47.28388" lon="-2.31566">
        <ele>-10.60000038147</ele>
        <time>2022-09-08T07:34:01.000Z</time>
      </trkpt>
      <trkpt lat="47.28423" lon="-2.31548">
        <ele>-10.60000038147</ele>
        <time>2022-09-08T07:34:08.000Z</time>
      </trkpt>
      <trkpt lat="47.28446" lon="-2.31524">
        <ele>-10.60000038147</ele>
        <time>2022-09-08T07:34:13.000Z</time>
      </trkpt>
      <trkpt lat="47.28451" lon="-2.31521">
        <ele>-10.60000038147</ele>
        <time>2022-09-08T07:34:14.000Z</time>
      </trkpt>
      <trkpt lat="47.28471" lon="-2.31509">
        <ele>-10.60000038147</ele>
        <time>2022-09-08T07:34:18.000Z</time>
      </trkpt>
      <trkpt lat="47.28506" lon="-2.31503">
        <ele>-10.60000038147</ele>
        <time>2022-09-08T07:34:24.000Z</time>
      </trkpt>
      <trkpt lat="47.28545" lon="-2.31496">
        <ele>-10.60000038147</ele>
        <time>2022-09-08T07:34:31.000Z</time>
      </trkpt>
      <trkpt lat="47.28561" lon="-2.31491">
        <ele>-10.199999809265</ele>
        <time>2022-09-08T07:34:34.000Z</time>
      </trkpt>
      <trkpt lat="47.28567" lon="-2.3149">
        <ele>-9.8000001907349</ele>
        <time>2022-09-08T07:34:35.000Z</time>
      </trkpt>
      <trkpt lat="47.28572" lon="-2.31487">
        <ele>-9.3999996185303</ele>
        <time>2022-09-08T07:34:36.000Z</time>
      </trkpt>
      <trkpt lat="47.28578" lon="-2.31485">
        <ele>-9</ele>
        <time>2022-09-08T07:34:37.000Z</time>
      </trkpt>
      <trkpt lat="47.28583" lon="-2.31483">
        <ele>-8.6000003814697</ele>
        <time>2022-09-08T07:34:38.000Z</time>
      </trkpt>
      <trkpt lat="47.2862" lon="-2.31468">
        <ele>-8.6000003814697</ele>
        <time>2022-09-08T07:34:45.000Z</time>
      </trkpt>
      <trkpt lat="47.28651" lon="-2.31454">
        <ele>-8.6000003814697</ele>
        <time>2022-09-08T07:34:52.000Z</time>
      </trkpt>
      <trkpt lat="47.28664" lon="-2.31452">
        <ele>-8.6000003814697</ele>
        <time>2022-09-08T07:34:55.000Z</time>
      </trkpt>
      <trkpt lat="47.28671" lon="-2.3146">
        <ele>-8.6000003814697</ele>
        <time>2022-09-08T07:34:57.000Z</time>
      </trkpt>
      <trkpt lat="47.28681" lon="-2.31485">
        <ele>-8.6000003814697</ele>
        <time>2022-09-08T07:35:01.000Z</time>
      </trkpt>
      <trkpt lat="47.28696" lon="-2.31492">
        <ele>-8.6000003814697</ele>
        <time>2022-09-08T07:35:04.000Z</time>
      </trkpt>
      <trkpt lat="47.28713" lon="-2.31487">
        <ele>-8.6000003814697</ele>
        <time>2022-09-08T07:35:07.000Z</time>
      </trkpt>
      <trkpt lat="47.28718" lon="-2.31485">
        <ele>-8.6000003814697</ele>
        <time>2022-09-08T07:35:08.000Z</time>
      </trkpt>
      <trkpt lat="47.28752" lon="-2.31466">
        <ele>-8.6000003814697</ele>
        <time>2022-09-08T07:35:14.000Z</time>
      </trkpt>
      <trkpt lat="47.28791" lon="-2.31444">
        <ele>-8.6000003814697</ele>
        <time>2022-09-08T07:35:21.000Z</time>
      </trkpt>
      <trkpt lat="47.28838" lon="-2.31413">
        <ele>-8.6000003814697</ele>
        <time>2022-09-08T07:35:29.000Z</time>
      </trkpt>
      <trkpt lat="47.28884" lon="-2.31393">
        <ele>-8.6000003814697</ele>
        <time>2022-09-08T07:35:36.000Z</time>
      </trkpt>
      <trkpt lat="47.28932" lon="-2.3139">
        <ele>-8.6000003814697</ele>
        <time>2022-09-08T07:35:43.000Z</time>
      </trkpt>
      <trkpt lat="47.28939" lon="-2.31389">
        <ele>-8.6000003814697</ele>
        <time>2022-09-08T07:35:44.000Z</time>
      </trkpt>
      <trkpt lat="47.28958" lon="-2.31379">
        <ele>-8.6000003814697</ele>
        <time>2022-09-08T07:35:47.000Z</time>
      </trkpt>
      <trkpt lat="47.28974" lon="-2.31361">
        <ele>-8.6000003814697</ele>
        <time>2022-09-08T07:35:50.000Z</time>
      </trkpt>
      <trkpt lat="47.28984" lon="-2.31348">
        <ele>-8.6000003814697</ele>
        <time>2022-09-08T07:35:52.000Z</time>
      </trkpt>
      <trkpt lat="47.29009" lon="-2.31298">
        <ele>-9</ele>
        <time>2022-09-08T07:35:58.000Z</time>
      </trkpt>
      <trkpt lat="47.29013" lon="-2.31289">
        <ele>-9.3999996185303</ele>
        <time>2022-09-08T07:35:59.000Z</time>
      </trkpt>
      <trkpt lat="47.29017" lon="-2.3128">
        <ele>-10</ele>
        <time>2022-09-08T07:36:00.000Z</time>
      </trkpt>
      <trkpt lat="47.29021" lon="-2.31271">
        <ele>-10.39999961853</ele>
        <time>2022-09-08T07:36:01.000Z</time>
      </trkpt>
      <trkpt lat="47.29024" lon="-2.31262">
        <ele>-10.800000190735</ele>
        <time>2022-09-08T07:36:02.000Z</time>
      </trkpt>
      <trkpt lat="47.29036" lon="-2.31236">
        <ele>-10.800000190735</ele>
        <time>2022-09-08T07:36:05.000Z</time>
      </trkpt>
      <trkpt lat="47.29041" lon="-2.31217">
        <ele>-10.800000190735</ele>
        <time>2022-09-08T07:36:07.000Z</time>
      </trkpt>
      <trkpt lat="47.29042" lon="-2.31196">
        <ele>-10.800000190735</ele>
        <time>2022-09-08T07:36:09.000Z</time>
      </trkpt>
      <trkpt lat="47.2904" lon="-2.31176">
        <ele>-10.800000190735</ele>
        <time>2022-09-08T07:36:11.000Z</time>
      </trkpt>
      <trkpt lat="47.29036" lon="-2.31135">
        <ele>-10.800000190735</ele>
        <time>2022-09-08T07:36:15.000Z</time>
      </trkpt>
      <trkpt lat="47.29033" lon="-2.31093">
        <ele>-11.199999809265</ele>
        <time>2022-09-08T07:36:19.000Z</time>
      </trkpt>
      <trkpt lat="47.29033" lon="-2.31082">
        <ele>-11.800000190735</ele>
        <time>2022-09-08T07:36:20.000Z</time>
      </trkpt>
      <trkpt lat="47.29032" lon="-2.3107">
        <ele>-12.199999809265</ele>
        <time>2022-09-08T07:36:21.000Z</time>
      </trkpt>
      <trkpt lat="47.29031" lon="-2.31059">
        <ele>-12.60000038147</ele>
        <time>2022-09-08T07:36:22.000Z</time>
      </trkpt>
      <trkpt lat="47.2903" lon="-2.31047">
        <ele>-13</ele>
        <time>2022-09-08T07:36:23.000Z</time>
      </trkpt>
      <trkpt lat="47.29031" lon="-2.31012">
        <ele>-13.60000038147</ele>
        <time>2022-09-08T07:36:26.000Z</time>
      </trkpt>
      <trkpt lat="47.29031" lon="-2.31">
        <ele>-14</ele>
        <time>2022-09-08T07:36:27.000Z</time>
      </trkpt>
      <trkpt lat="47.29032" lon="-2.30988">
        <ele>-14.39999961853</ele>
        <time>2022-09-08T07:36:28.000Z</time>
      </trkpt>
      <trkpt lat="47.29032" lon="-2.30976">
        <ele>-15.39999961853</ele>
        <time>2022-09-08T07:36:29.000Z</time>
      </trkpt>
      <trkpt lat="47.29031" lon="-2.30938">
        <ele>-15.800000190735</ele>
        <time>2022-09-08T07:36:32.000Z</time>
      </trkpt>
      <trkpt lat="47.2903" lon="-2.30925">
        <ele>-16.39999961853</ele>
        <time>2022-09-08T07:36:33.000Z</time>
      </trkpt>
      <trkpt lat="47.2903" lon="-2.30912">
        <ele>-16.799999237061</ele>
        <time>2022-09-08T07:36:34.000Z</time>
      </trkpt>
      <trkpt lat="47.29029" lon="-2.30898">
        <ele>-17.39999961853</ele>
        <time>2022-09-08T07:36:35.000Z</time>
      </trkpt>
      <trkpt lat="47.29029" lon="-2.30885">
        <ele>-17.799999237061</ele>
        <time>2022-09-08T07:36:36.000Z</time>
      </trkpt>
      <trkpt lat="47.29027" lon="-2.30872">
        <ele>-18.200000762939</ele>
        <time>2022-09-08T07:36:37.000Z</time>
      </trkpt>
      <trkpt lat="47.29026" lon="-2.30859">
        <ele>-18.60000038147</ele>
        <time>2022-09-08T07:36:38.000Z</time>
      </trkpt>
      <trkpt lat="47.29024" lon="-2.30846">
        <ele>-19</ele>
        <time>2022-09-08T07:36:39.000Z</time>
      </trkpt>
      <trkpt lat="47.29022" lon="-2.30834">
        <ele>-19.39999961853</ele>
        <time>2022-09-08T07:36:40.000Z</time>
      </trkpt>
      <trkpt lat="47.29021" lon="-2.30821">
        <ele>-20</ele>
        <time>2022-09-08T07:36:41.000Z</time>
      </trkpt>
      <trkpt lat="47.29019" lon="-2.30809">
        <ele>-20</ele>
        <time>2022-09-08T07:36:42.000Z</time>
      </trkpt>
      <trkpt lat="47.29012" lon="-2.30774">
        <ele>-20.39999961853</ele>
        <time>2022-09-08T07:36:45.000Z</time>
      </trkpt>
      <trkpt lat="47.29009" lon="-2.30763">
        <ele>-20.799999237061</ele>
        <time>2022-09-08T07:36:46.000Z</time>
      </trkpt>
      <trkpt lat="47.29007" lon="-2.30752">
        <ele>-21.200000762939</ele>
        <time>2022-09-08T07:36:47.000Z</time>
      </trkpt>
      <trkpt lat="47.29006" lon="-2.30741">
        <ele>-21.60000038147</ele>
        <time>2022-09-08T07:36:48.000Z</time>
      </trkpt>
      <trkpt lat="47.29005" lon="-2.30729">
        <ele>-22.200000762939</ele>
        <time>2022-09-08T07:36:49.000Z</time>
      </trkpt>
      <trkpt lat="47.29005" lon="-2.30707">
        <ele>-22.200000762939</ele>
        <time>2022-09-08T07:36:51.000Z</time>
      </trkpt>
      <trkpt lat="47.29003" lon="-2.3064">
        <ele>-22.200000762939</ele>
        <time>2022-09-08T07:36:58.000Z</time>
      </trkpt>
      <trkpt lat="47.29002" lon="-2.30601">
        <ele>-22.200000762939</ele>
        <time>2022-09-08T07:37:03.000Z</time>
      </trkpt>
      <trkpt lat="47.29001" lon="-2.30593">
        <ele>-22.200000762939</ele>
        <time>2022-09-08T07:37:04.000Z</time>
      </trkpt>
      <trkpt lat="47.28998" lon="-2.30572">
        <ele>-22.200000762939</ele>
        <time>2022-09-08T07:37:07.000Z</time>
      </trkpt>
      <trkpt lat="47.28996" lon="-2.30557">
        <ele>-22.200000762939</ele>
        <time>2022-09-08T07:37:09.000Z</time>
      </trkpt>
      <trkpt lat="47.28994" lon="-2.30521">
        <ele>-22.200000762939</ele>
        <time>2022-09-08T07:37:14.000Z</time>
      </trkpt>
      <trkpt lat="47.28991" lon="-2.30507">
        <ele>-22.200000762939</ele>
        <time>2022-09-08T07:37:16.000Z</time>
      </trkpt>
      <trkpt lat="47.28987" lon="-2.30482">
        <ele>-22.200000762939</ele>
        <time>2022-09-08T07:37:19.000Z</time>
      </trkpt>
      <trkpt lat="47.28985" lon="-2.30473">
        <ele>-22.200000762939</ele>
        <time>2022-09-08T07:37:20.000Z</time>
      </trkpt>
      <trkpt lat="47.28981" lon="-2.30448">
        <ele>-22.200000762939</ele>
        <time>2022-09-08T07:37:23.000Z</time>
      </trkpt>
      <trkpt lat="47.2898" lon="-2.30442">
        <ele>-22.200000762939</ele>
        <time>2022-09-08T07:37:24.000Z</time>
      </trkpt>
      <trkpt lat="47.28979" lon="-2.30428">
        <ele>-22.200000762939</ele>
        <time>2022-09-08T07:37:28.000Z</time>
      </trkpt>
      <trkpt lat="47.28979" lon="-2.30428">
        <ele>-22.200000762939</ele>
        <time>2022-09-08T07:37:29.000Z</time>
      </trkpt>
      <trkpt lat="47.28977" lon="-2.30418">
        <ele>-22.200000762939</ele>
        <time>2022-09-08T07:39:38.000Z</time>
      </trkpt>
      <trkpt lat="47.28977" lon="-2.30413">
        <ele>-22.200000762939</ele>
        <time>2022-09-08T07:39:40.000Z</time>
      </trkpt>
      <trkpt lat="47.28976" lon="-2.30394">
        <ele>-22.200000762939</ele>
        <time>2022-09-08T07:39:45.000Z</time>
      </trkpt>
      <trkpt lat="47.28977" lon="-2.30361">
        <ele>-22.200000762939</ele>
        <time>2022-09-08T07:39:51.000Z</time>
      </trkpt>
      <trkpt lat="47.28978" lon="-2.3033">
        <ele>-22.200000762939</ele>
        <time>2022-09-08T07:39:56.000Z</time>
      </trkpt>
      <trkpt lat="47.28977" lon="-2.30323">
        <ele>-22.200000762939</ele>
        <time>2022-09-08T07:39:57.000Z</time>
      </trkpt>
      <trkpt lat="47.28972" lon="-2.30282">
        <ele>-22.60000038147</ele>
        <time>2022-09-08T07:40:03.000Z</time>
      </trkpt>
      <trkpt lat="47.28972" lon="-2.30275">
        <ele>-23</ele>
        <time>2022-09-08T07:40:04.000Z</time>
      </trkpt>
      <trkpt lat="47.28973" lon="-2.30269">
        <ele>-23.39999961853</ele>
        <time>2022-09-08T07:40:05.000Z</time>
      </trkpt>
      <trkpt lat="47.28975" lon="-2.30263">
        <ele>-23.799999237061</ele>
        <time>2022-09-08T07:40:06.000Z</time>
      </trkpt>
      <trkpt lat="47.28979" lon="-2.30258">
        <ele>-24.200000762939</ele>
        <time>2022-09-08T07:40:07.000Z</time>
      </trkpt>
      <trkpt lat="47.28982" lon="-2.30255">
        <ele>-24.200000762939</ele>
        <time>2022-09-08T07:40:08.000Z</time>
      </trkpt>
      <trkpt lat="47.28995" lon="-2.30256">
        <ele>-24.200000762939</ele>
        <time>2022-09-08T07:40:11.000Z</time>
      </trkpt>
      <trkpt lat="47.29013" lon="-2.30251">
        <ele>-24.200000762939</ele>
        <time>2022-09-08T07:40:15.000Z</time>
      </trkpt>
      <trkpt lat="47.29034" lon="-2.30245">
        <ele>-24.200000762939</ele>
        <time>2022-09-08T07:40:20.000Z</time>
      </trkpt>
      <trkpt lat="47.29043" lon="-2.30243">
        <ele>-24.200000762939</ele>
        <time>2022-09-08T07:40:22.000Z</time>
      </trkpt>
      <trkpt lat="47.29058" lon="-2.30237">
        <ele>-24.200000762939</ele>
        <time>2022-09-08T07:40:25.000Z</time>
      </trkpt>
      <trkpt lat="47.29084" lon="-2.30224">
        <ele>-24.200000762939</ele>
        <time>2022-09-08T07:40:30.000Z</time>
      </trkpt>
      <trkpt lat="47.29124" lon="-2.30204">
        <ele>-24.200000762939</ele>
        <time>2022-09-08T07:40:37.000Z</time>
      </trkpt>
      <trkpt lat="47.29145" lon="-2.30193">
        <ele>-24.60000038147</ele>
        <time>2022-09-08T07:40:41.000Z</time>
      </trkpt>
      <trkpt lat="47.29151" lon="-2.3019">
        <ele>-25</ele>
        <time>2022-09-08T07:40:42.000Z</time>
      </trkpt>
      <trkpt lat="47.29156" lon="-2.30187">
        <ele>-25.39999961853</ele>
        <time>2022-09-08T07:40:43.000Z</time>
      </trkpt>
      <trkpt lat="47.29162" lon="-2.30184">
        <ele>-25.799999237061</ele>
        <time>2022-09-08T07:40:44.000Z</time>
      </trkpt>
      <trkpt lat="47.29167" lon="-2.30181">
        <ele>-26.200000762939</ele>
        <time>2022-09-08T07:40:45.000Z</time>
      </trkpt>
      <trkpt lat="47.29206" lon="-2.3016">
        <ele>-26.200000762939</ele>
        <time>2022-09-08T07:40:52.000Z</time>
      </trkpt>
      <trkpt lat="47.29242" lon="-2.30144">
        <ele>-26.200000762939</ele>
        <time>2022-09-08T07:40:59.000Z</time>
      </trkpt>
      <trkpt lat="47.29263" lon="-2.3014">
        <ele>-26.200000762939</ele>
        <time>2022-09-08T07:41:03.000Z</time>
      </trkpt>
      <trkpt lat="47.29277" lon="-2.30138">
        <ele>-26.60000038147</ele>
        <time>2022-09-08T07:41:06.000Z</time>
      </trkpt>
      <trkpt lat="47.29281" lon="-2.30138">
        <ele>-27</ele>
        <time>2022-09-08T07:41:07.000Z</time>
      </trkpt>
      <trkpt lat="47.29286" lon="-2.30137">
        <ele>-27.39999961853</ele>
        <time>2022-09-08T07:41:08.000Z</time>
      </trkpt>
      <trkpt lat="47.2929" lon="-2.30137">
        <ele>-27.799999237061</ele>
        <time>2022-09-08T07:41:09.000Z</time>
      </trkpt>
      <trkpt lat="47.29294" lon="-2.30136">
        <ele>-28.200000762939</ele>
        <time>2022-09-08T07:41:10.000Z</time>
      </trkpt>
      <trkpt lat="47.29303" lon="-2.30136">
        <ele>-28.200000762939</ele>
        <time>2022-09-08T07:41:12.000Z</time>
      </trkpt>
      <trkpt lat="47.29329" lon="-2.30132">
        <ele>-28.200000762939</ele>
        <time>2022-09-08T07:41:18.000Z</time>
      </trkpt>
      <trkpt lat="47.29329" lon="-2.30127">
        <ele>-28.200000762939</ele>
        <time>2022-09-08T07:41:19.000Z</time>
      </trkpt>
      <trkpt lat="47.29333" lon="-2.30118">
        <ele>-28.200000762939</ele>
        <time>2022-09-08T07:41:21.000Z</time>
      </trkpt>
      <trkpt lat="47.29339" lon="-2.30095">
        <ele>-28.200000762939</ele>
        <time>2022-09-08T07:41:25.000Z</time>
      </trkpt>
      <trkpt lat="47.29341" lon="-2.30083">
        <ele>-28.200000762939</ele>
        <time>2022-09-08T07:41:27.000Z</time>
      </trkpt>
      <trkpt lat="47.29344" lon="-2.30038">
        <ele>-28.200000762939</ele>
        <time>2022-09-08T07:41:34.000Z</time>
      </trkpt>
      <trkpt lat="47.29344" lon="-2.30033">
        <ele>-27.799999237061</ele>
        <time>2022-09-08T07:41:35.000Z</time>
      </trkpt>
      <trkpt lat="47.29344" lon="-2.30027">
        <ele>-27.39999961853</ele>
        <time>2022-09-08T07:41:36.000Z</time>
      </trkpt>
      <trkpt lat="47.29344" lon="-2.30022">
        <ele>-27</ele>
        <time>2022-09-08T07:41:37.000Z</time>
      </trkpt>
      <trkpt lat="47.29344" lon="-2.30018">
        <ele>-26.60000038147</ele>
        <time>2022-09-08T07:41:38.000Z</time>
      </trkpt>
      <trkpt lat="47.29344" lon="-2.30013">
        <ele>-26.200000762939</ele>
        <time>2022-09-08T07:41:39.000Z</time>
      </trkpt>
      <trkpt lat="47.29347" lon="-2.30004">
        <ele>-26.200000762939</ele>
        <time>2022-09-08T07:41:42.000Z</time>
      </trkpt>
      <trkpt lat="47.29349" lon="-2.30003">
        <ele>-26.200000762939</ele>
        <time>2022-09-08T07:41:43.000Z</time>
      </trkpt>
      <trkpt lat="47.29359" lon="-2.30009">
        <ele>-26.200000762939</ele>
        <time>2022-09-08T07:41:46.000Z</time>
      </trkpt>
      <trkpt lat="47.29363" lon="-2.3001">
        <ele>-26.200000762939</ele>
        <time>2022-09-08T07:41:47.000Z</time>
      </trkpt>
      <trkpt lat="47.2937" lon="-2.30014">
        <ele>-26.200000762939</ele>
        <time>2022-09-08T07:41:49.000Z</time>
      </trkpt>
      <trkpt lat="47.2938" lon="-2.3002">
        <ele>-26.200000762939</ele>
        <time>2022-09-08T07:41:51.000Z</time>
      </trkpt>
      <trkpt lat="47.294" lon="-2.30026">
        <ele>-26.60000038147</ele>
        <time>2022-09-08T07:41:55.000Z</time>
      </trkpt>
      <trkpt lat="47.29406" lon="-2.30028">
        <ele>-27</ele>
        <time>2022-09-08T07:41:56.000Z</time>
      </trkpt>
      <trkpt lat="47.29411" lon="-2.30029">
        <ele>-27.39999961853</ele>
        <time>2022-09-08T07:41:57.000Z</time>
      </trkpt>
      <trkpt lat="47.29417" lon="-2.3003">
        <ele>-27.799999237061</ele>
        <time>2022-09-08T07:41:58.000Z</time>
      </trkpt>
      <trkpt lat="47.29423" lon="-2.3003">
        <ele>-28.200000762939</ele>
        <time>2022-09-08T07:41:59.000Z</time>
      </trkpt>
      <trkpt lat="47.29441" lon="-2.3003">
        <ele>-28.200000762939</ele>
        <time>2022-09-08T07:42:02.000Z</time>
      </trkpt>
      <trkpt lat="47.29481" lon="-2.30028">
        <ele>-28.200000762939</ele>
        <time>2022-09-08T07:42:09.000Z</time>
      </trkpt>
      <trkpt lat="47.29502" lon="-2.30025">
        <ele>-28.200000762939</ele>
        <time>2022-09-08T07:42:13.000Z</time>
      </trkpt>
      <trkpt lat="47.29513" lon="-2.30023">
        <ele>-28.200000762939</ele>
        <time>2022-09-08T07:42:15.000Z</time>
      </trkpt>
      <trkpt lat="47.29529" lon="-2.30028">
        <ele>-28.60000038147</ele>
        <time>2022-09-08T07:42:18.000Z</time>
      </trkpt>
      <trkpt lat="47.29535" lon="-2.30027">
        <ele>-29</ele>
        <time>2022-09-08T07:42:19.000Z</time>
      </trkpt>
      <trkpt lat="47.29541" lon="-2.30025">
        <ele>-29.39999961853</ele>
        <time>2022-09-08T07:42:20.000Z</time>
      </trkpt>
      <trkpt lat="47.29547" lon="-2.30022">
        <ele>-29.799999237061</ele>
        <time>2022-09-08T07:42:21.000Z</time>
      </trkpt>
      <trkpt lat="47.29552" lon="-2.3002">
        <ele>-30.200000762939</ele>
        <time>2022-09-08T07:42:22.000Z</time>
      </trkpt>
      <trkpt lat="47.29602" lon="-2.30004">
        <ele>-30.200000762939</ele>
        <time>2022-09-08T07:42:30.000Z</time>
      </trkpt>
      <trkpt lat="47.29637" lon="-2.29989">
        <ele>-30.200000762939</ele>
        <time>2022-09-08T07:42:36.000Z</time>
      </trkpt>
      <trkpt lat="47.29641" lon="-2.29985">
        <ele>-30.200000762939</ele>
        <time>2022-09-08T07:42:37.000Z</time>
      </trkpt>
      <trkpt lat="47.2965" lon="-2.29984">
        <ele>-30.200000762939</ele>
        <time>2022-09-08T07:42:39.000Z</time>
      </trkpt>
      <trkpt lat="47.29664" lon="-2.29997">
        <ele>-30.200000762939</ele>
        <time>2022-09-08T07:42:42.000Z</time>
      </trkpt>
      <trkpt lat="47.2967" lon="-2.30001">
        <ele>-30.200000762939</ele>
        <time>2022-09-08T07:42:43.000Z</time>
      </trkpt>
      <trkpt lat="47.29684" lon="-2.30002">
        <ele>-30.200000762939</ele>
        <time>2022-09-08T07:42:45.000Z</time>
      </trkpt>
      <trkpt lat="47.29723" lon="-2.29996">
        <ele>-30.200000762939</ele>
        <time>2022-09-08T07:42:51.000Z</time>
      </trkpt>
      <trkpt lat="47.2973" lon="-2.29993">
        <ele>-30.200000762939</ele>
        <time>2022-09-08T07:42:52.000Z</time>
      </trkpt>
      <trkpt lat="47.29754" lon="-2.29978">
        <ele>-30.200000762939</ele>
        <time>2022-09-08T07:42:56.000Z</time>
      </trkpt>
      <trkpt lat="47.29782" lon="-2.29956">
        <ele>-30.200000762939</ele>
        <time>2022-09-08T07:43:01.000Z</time>
      </trkpt>
      <trkpt lat="47.29787" lon="-2.29953">
        <ele>-30.200000762939</ele>
        <time>2022-09-08T07:43:02.000Z</time>
      </trkpt>
      <trkpt lat="47.29805" lon="-2.29953">
        <ele>-30.200000762939</ele>
        <time>2022-09-08T07:43:05.000Z</time>
      </trkpt>
      <trkpt lat="47.29811" lon="-2.29954">
        <ele>-30.200000762939</ele>
        <time>2022-09-08T07:43:06.000Z</time>
      </trkpt>
      <trkpt lat="47.29843" lon="-2.29953">
        <ele>-30.200000762939</ele>
        <time>2022-09-08T07:43:11.000Z</time>
      </trkpt>
      <trkpt lat="47.29881" lon="-2.29943">
        <ele>-30.200000762939</ele>
        <time>2022-09-08T07:43:17.000Z</time>
      </trkpt>
      <trkpt lat="47.299" lon="-2.29938">
        <ele>-30.200000762939</ele>
        <time>2022-09-08T07:43:20.000Z</time>
      </trkpt>
      <trkpt lat="47.29907" lon="-2.29928">
        <ele>-30.200000762939</ele>
        <time>2022-09-08T07:43:22.000Z</time>
      </trkpt>
      <trkpt lat="47.29906" lon="-2.29907">
        <ele>-30.200000762939</ele>
        <time>2022-09-08T07:43:25.000Z</time>
      </trkpt>
      <trkpt lat="47.29904" lon="-2.29887">
        <ele>-30.200000762939</ele>
        <time>2022-09-08T07:43:28.000Z</time>
      </trkpt>
      <trkpt lat="47.29903" lon="-2.29873">
        <ele>-30.200000762939</ele>
        <time>2022-09-08T07:43:30.000Z</time>
      </trkpt>
      <trkpt lat="47.29902" lon="-2.29866">
        <ele>-30.200000762939</ele>
        <time>2022-09-08T07:43:31.000Z</time>
      </trkpt>
      <trkpt lat="47.29902" lon="-2.29847">
        <ele>-30.200000762939</ele>
        <time>2022-09-08T07:43:34.000Z</time>
      </trkpt>
      <trkpt lat="47.29906" lon="-2.29835">
        <ele>-30.200000762939</ele>
        <time>2022-09-08T07:43:36.000Z</time>
      </trkpt>
      <trkpt lat="47.29921" lon="-2.29822">
        <ele>-30.200000762939</ele>
        <time>2022-09-08T07:43:40.000Z</time>
      </trkpt>
      <trkpt lat="47.29935" lon="-2.29813">
        <ele>-30.200000762939</ele>
        <time>2022-09-08T07:43:45.000Z</time>
      </trkpt>
      <trkpt lat="47.29938" lon="-2.29811">
        <ele>-30.200000762939</ele>
        <time>2022-09-08T07:43:47.000Z</time>
      </trkpt>
      <trkpt lat="47.29945" lon="-2.29801">
        <ele>-30.200000762939</ele>
        <time>2022-09-08T07:43:50.000Z</time>
      </trkpt>
      <trkpt lat="47.29948" lon="-2.29798">
        <ele>-30.200000762939</ele>
        <time>2022-09-08T07:43:51.000Z</time>
      </trkpt>
      <trkpt lat="47.29951" lon="-2.29789">
        <ele>-30.200000762939</ele>
        <time>2022-09-08T07:43:53.000Z</time>
      </trkpt>
      <trkpt lat="47.29951" lon="-2.29785">
        <ele>-30.200000762939</ele>
        <time>2022-09-08T07:43:54.000Z</time>
      </trkpt>
      <trkpt lat="47.29945" lon="-2.29769">
        <ele>-30.200000762939</ele>
        <time>2022-09-08T07:43:57.000Z</time>
      </trkpt>
      <trkpt lat="47.29931" lon="-2.29726">
        <ele>-30.200000762939</ele>
        <time>2022-09-08T07:44:04.000Z</time>
      </trkpt>
      <trkpt lat="47.29919" lon="-2.29688">
        <ele>-30.200000762939</ele>
        <time>2022-09-08T07:44:11.000Z</time>
      </trkpt>
      <trkpt lat="47.29917" lon="-2.29672">
        <ele>-30.200000762939</ele>
        <time>2022-09-08T07:44:16.000Z</time>
      </trkpt>
      <trkpt lat="47.29917" lon="-2.29671">
        <ele>-30.200000762939</ele>
        <time>2022-09-08T07:44:18.000Z</time>
      </trkpt>
      <trkpt lat="47.29919" lon="-2.29669">
        <ele>-30.200000762939</ele>
        <time>2022-09-08T07:44:24.000Z</time>
      </trkpt>
      <trkpt lat="47.29921" lon="-2.29667">
        <ele>-30.200000762939</ele>
        <time>2022-09-08T07:44:25.000Z</time>
      </trkpt>
      <trkpt lat="47.29933" lon="-2.29658">
        <ele>-30.200000762939</ele>
        <time>2022-09-08T07:44:30.000Z</time>
      </trkpt>
      <trkpt lat="47.29936" lon="-2.29656">
        <ele>-30.200000762939</ele>
        <time>2022-09-08T07:44:31.000Z</time>
      </trkpt>
      <trkpt lat="47.29963" lon="-2.29643">
        <ele>-30.200000762939</ele>
        <time>2022-09-08T07:44:37.000Z</time>
      </trkpt>
      <trkpt lat="47.29973" lon="-2.29643">
        <ele>-30.200000762939</ele>
        <time>2022-09-08T07:44:39.000Z</time>
      </trkpt>
      <trkpt lat="47.29982" lon="-2.29641">
        <ele>-30.200000762939</ele>
        <time>2022-09-08T07:44:41.000Z</time>
      </trkpt>
      <trkpt lat="47.29987" lon="-2.29638">
        <ele>-30.200000762939</ele>
        <time>2022-09-08T07:44:42.000Z</time>
      </trkpt>
      <trkpt lat="47.29996" lon="-2.29635">
        <ele>-30.60000038147</ele>
        <time>2022-09-08T07:44:44.000Z</time>
      </trkpt>
      <trkpt lat="47.30001" lon="-2.29633">
        <ele>-31.200000762939</ele>
        <time>2022-09-08T07:44:45.000Z</time>
      </trkpt>
      <trkpt lat="47.30006" lon="-2.29632">
        <ele>-31.60000038147</ele>
        <time>2022-09-08T07:44:46.000Z</time>
      </trkpt>
      <trkpt lat="47.30011" lon="-2.29631">
        <ele>-32</ele>
        <time>2022-09-08T07:44:47.000Z</time>
      </trkpt>
      <trkpt lat="47.30016" lon="-2.29631">
        <ele>-32.400001525879</ele>
        <time>2022-09-08T07:44:48.000Z</time>
      </trkpt>
      <trkpt lat="47.30053" lon="-2.2963">
        <ele>-32.400001525879</ele>
        <time>2022-09-08T07:44:55.000Z</time>
      </trkpt>
      <trkpt lat="47.30086" lon="-2.2964">
        <ele>-32.400001525879</ele>
        <time>2022-09-08T07:45:01.000Z</time>
      </trkpt>
      <trkpt lat="47.30133" lon="-2.29655">
        <ele>-32.400001525879</ele>
        <time>2022-09-08T07:45:09.000Z</time>
      </trkpt>
      <trkpt lat="47.30163" lon="-2.29668">
        <ele>-32.400001525879</ele>
        <time>2022-09-08T07:45:14.000Z</time>
      </trkpt>
      <trkpt lat="47.30187" lon="-2.29681">
        <ele>-32.400001525879</ele>
        <time>2022-09-08T07:45:18.000Z</time>
      </trkpt>
      <trkpt lat="47.30199" lon="-2.29686">
        <ele>-32.400001525879</ele>
        <time>2022-09-08T07:45:20.000Z</time>
      </trkpt>
      <trkpt lat="47.30204" lon="-2.29689">
        <ele>-32.400001525879</ele>
        <time>2022-09-08T07:45:21.000Z</time>
      </trkpt>
      <trkpt lat="47.30227" lon="-2.29703">
        <ele>-32.400001525879</ele>
        <time>2022-09-08T07:45:25.000Z</time>
      </trkpt>
      <trkpt lat="47.30232" lon="-2.29705">
        <ele>-32.400001525879</ele>
        <time>2022-09-08T07:45:26.000Z</time>
      </trkpt>
      <trkpt lat="47.30241" lon="-2.29709">
        <ele>-32.400001525879</ele>
        <time>2022-09-08T07:45:29.000Z</time>
      </trkpt>
      <trkpt lat="47.30247" lon="-2.29714">
        <ele>-32.400001525879</ele>
        <time>2022-09-08T07:45:34.000Z</time>
      </trkpt>
      <trkpt lat="47.30249" lon="-2.29716">
        <ele>-32.400001525879</ele>
        <time>2022-09-08T07:45:35.000Z</time>
      </trkpt>
      <trkpt lat="47.30248" lon="-2.29719">
        <ele>-32.400001525879</ele>
        <time>2022-09-08T07:45:37.000Z</time>
      </trkpt>
      <trkpt lat="47.30246" lon="-2.29722">
        <ele>-32.400001525879</ele>
        <time>2022-09-08T07:45:38.000Z</time>
      </trkpt>
      <trkpt lat="47.30238" lon="-2.29737">
        <ele>-32.799999237061</ele>
        <time>2022-09-08T07:45:43.000Z</time>
      </trkpt>
      <trkpt lat="47.30236" lon="-2.29738">
        <ele>-33.200000762939</ele>
        <time>2022-09-08T07:45:44.000Z</time>
      </trkpt>
      <trkpt lat="47.30235" lon="-2.29738">
        <ele>-33.599998474121</ele>
        <time>2022-09-08T07:45:45.000Z</time>
      </trkpt>
      <trkpt lat="47.30234" lon="-2.29741">
        <ele>-34</ele>
        <time>2022-09-08T07:45:46.000Z</time>
      </trkpt>
      <trkpt lat="47.30233" lon="-2.29742">
        <ele>-34.400001525879</ele>
        <time>2022-09-08T07:45:47.000Z</time>
      </trkpt>
      <trkpt lat="47.30233" lon="-2.29744">
        <ele>-34.400001525879</ele>
        <time>2022-09-08T07:45:48.000Z</time>
      </trkpt>
      <trkpt lat="47.30229" lon="-2.29753">
        <ele>-34.400001525879</ele>
        <time>2022-09-08T07:45:51.000Z</time>
      </trkpt>
      <trkpt lat="47.30227" lon="-2.29758">
        <ele>-34.400001525879</ele>
        <time>2022-09-08T07:45:52.000Z</time>
      </trkpt>
      <trkpt lat="47.30216" lon="-2.29779">
        <ele>-34.400001525879</ele>
        <time>2022-09-08T07:45:57.000Z</time>
      </trkpt>
      <trkpt lat="47.30203" lon="-2.29793">
        <ele>-34.400001525879</ele>
        <time>2022-09-08T07:46:02.000Z</time>
      </trkpt>
      <trkpt lat="47.30192" lon="-2.29808">
        <ele>-34.400001525879</ele>
        <time>2022-09-08T07:46:07.000Z</time>
      </trkpt>
      <trkpt lat="47.30186" lon="-2.29817">
        <ele>-34.400001525879</ele>
        <time>2022-09-08T07:46:11.000Z</time>
      </trkpt>
      <trkpt lat="47.30177" lon="-2.29828">
        <ele>-34.400001525879</ele>
        <time>2022-09-08T07:46:15.000Z</time>
      </trkpt>
      <trkpt lat="47.30166" lon="-2.29844">
        <ele>-34.400001525879</ele>
        <time>2022-09-08T07:46:20.000Z</time>
      </trkpt>
      <trkpt lat="47.30152" lon="-2.29861">
        <ele>-34.400001525879</ele>
        <time>2022-09-08T07:46:24.000Z</time>
      </trkpt>
      <trkpt lat="47.3014" lon="-2.29869">
        <ele>-34.400001525879</ele>
        <time>2022-09-08T07:46:27.000Z</time>
      </trkpt>
      <trkpt lat="47.30126" lon="-2.29885">
        <ele>-34.400001525879</ele>
        <time>2022-09-08T07:46:31.000Z</time>
      </trkpt>
      <trkpt lat="47.30121" lon="-2.29889">
        <ele>-34.400001525879</ele>
        <time>2022-09-08T07:46:32.000Z</time>
      </trkpt>
      <trkpt lat="47.30115" lon="-2.29897">
        <ele>-34.400001525879</ele>
        <time>2022-09-08T07:46:34.000Z</time>
      </trkpt>
      <trkpt lat="47.3011" lon="-2.29902">
        <ele>-34.400001525879</ele>
        <time>2022-09-08T07:46:35.000Z</time>
      </trkpt>
      <trkpt lat="47.30097" lon="-2.2991">
        <ele>-34.400001525879</ele>
        <time>2022-09-08T07:46:39.000Z</time>
      </trkpt>
      <trkpt lat="47.30095" lon="-2.29924">
        <ele>-34.400001525879</ele>
        <time>2022-09-08T07:46:42.000Z</time>
      </trkpt>
      <trkpt lat="47.301" lon="-2.29942">
        <ele>-34.400001525879</ele>
        <time>2022-09-08T07:46:47.000Z</time>
      </trkpt>
      <trkpt lat="47.301" lon="-2.29955">
        <ele>-34.400001525879</ele>
        <time>2022-09-08T07:46:50.000Z</time>
      </trkpt>
      <trkpt lat="47.30098" lon="-2.29961">
        <ele>-34.400001525879</ele>
        <time>2022-09-08T07:46:52.000Z</time>
      </trkpt>
      <trkpt lat="47.30098" lon="-2.29966">
        <ele>-34.400001525879</ele>
        <time>2022-09-08T07:46:54.000Z</time>
      </trkpt>
      <trkpt lat="47.301" lon="-2.29969">
        <ele>-34.400001525879</ele>
        <time>2022-09-08T07:46:55.000Z</time>
      </trkpt>
      <trkpt lat="47.30107" lon="-2.29988">
        <ele>-34.400001525879</ele>
        <time>2022-09-08T07:47:00.000Z</time>
      </trkpt>
      <trkpt lat="47.30114" lon="-2.29997">
        <ele>-34.400001525879</ele>
        <time>2022-09-08T07:47:03.000Z</time>
      </trkpt>
      <trkpt lat="47.30126" lon="-2.30012">
        <ele>-34.400001525879</ele>
        <time>2022-09-08T07:47:08.000Z</time>
      </trkpt>
      <trkpt lat="47.30136" lon="-2.30033">
        <ele>-34.400001525879</ele>
        <time>2022-09-08T07:47:12.000Z</time>
      </trkpt>
      <trkpt lat="47.30141" lon="-2.30043">
        <ele>-34.400001525879</ele>
        <time>2022-09-08T07:47:14.000Z</time>
      </trkpt>
      <trkpt lat="47.3015" lon="-2.30058">
        <ele>-34.400001525879</ele>
        <time>2022-09-08T07:47:17.000Z</time>
      </trkpt>
      <trkpt lat="47.30156" lon="-2.30067">
        <ele>-34.400001525879</ele>
        <time>2022-09-08T07:47:19.000Z</time>
      </trkpt>
      <trkpt lat="47.3016" lon="-2.30089">
        <ele>-34.400001525879</ele>
        <time>2022-09-08T07:47:22.000Z</time>
      </trkpt>
      <trkpt lat="47.30165" lon="-2.30107">
        <ele>-34.400001525879</ele>
        <time>2022-09-08T07:47:25.000Z</time>
      </trkpt>
      <trkpt lat="47.3017" lon="-2.30125">
        <ele>-34.400001525879</ele>
        <time>2022-09-08T07:47:28.000Z</time>
      </trkpt>
      <trkpt lat="47.30183" lon="-2.30159">
        <ele>-34.400001525879</ele>
        <time>2022-09-08T07:47:34.000Z</time>
      </trkpt>
      <trkpt lat="47.30193" lon="-2.30184">
        <ele>-34.400001525879</ele>
        <time>2022-09-08T07:47:39.000Z</time>
      </trkpt>
      <trkpt lat="47.30194" lon="-2.30189">
        <ele>-34</ele>
        <time>2022-09-08T07:47:40.000Z</time>
      </trkpt>
      <trkpt lat="47.30196" lon="-2.30193">
        <ele>-33.599998474121</ele>
        <time>2022-09-08T07:47:41.000Z</time>
      </trkpt>
      <trkpt lat="47.30198" lon="-2.30198">
        <ele>-33.200000762939</ele>
        <time>2022-09-08T07:47:42.000Z</time>
      </trkpt>
      <trkpt lat="47.302" lon="-2.30202">
        <ele>-32.799999237061</ele>
        <time>2022-09-08T07:47:43.000Z</time>
      </trkpt>
      <trkpt lat="47.30201" lon="-2.30207">
        <ele>-32.400001525879</ele>
        <time>2022-09-08T07:47:44.000Z</time>
      </trkpt>
      <trkpt lat="47.30201" lon="-2.30213">
        <ele>-32.400001525879</ele>
        <time>2022-09-08T07:47:45.000Z</time>
      </trkpt>
      <trkpt lat="47.30195" lon="-2.30227">
        <ele>-32.400001525879</ele>
        <time>2022-09-08T07:47:48.000Z</time>
      </trkpt>
      <trkpt lat="47.30179" lon="-2.30241">
        <ele>-32.400001525879</ele>
        <time>2022-09-08T07:47:53.000Z</time>
      </trkpt>
      <trkpt lat="47.30153" lon="-2.30251">
        <ele>-32.400001525879</ele>
        <time>2022-09-08T07:47:58.000Z</time>
      </trkpt>
      <trkpt lat="47.30109" lon="-2.3027">
        <ele>-32.400001525879</ele>
        <time>2022-09-08T07:48:06.000Z</time>
      </trkpt>
      <trkpt lat="47.30104" lon="-2.30291">
        <ele>-32.400001525879</ele>
        <time>2022-09-08T07:48:09.000Z</time>
      </trkpt>
      <trkpt lat="47.30109" lon="-2.3031">
        <ele>-32.400001525879</ele>
        <time>2022-09-08T07:48:12.000Z</time>
      </trkpt>
      <trkpt lat="47.30115" lon="-2.30339">
        <ele>-32.400001525879</ele>
        <time>2022-09-08T07:48:16.000Z</time>
      </trkpt>
      <trkpt lat="47.30119" lon="-2.30353">
        <ele>-32.400001525879</ele>
        <time>2022-09-08T07:48:18.000Z</time>
      </trkpt>
      <trkpt lat="47.30134" lon="-2.30401">
        <ele>-32.400001525879</ele>
        <time>2022-09-08T07:48:25.000Z</time>
      </trkpt>
      <trkpt lat="47.30136" lon="-2.30408">
        <ele>-32.400001525879</ele>
        <time>2022-09-08T07:48:26.000Z</time>
      </trkpt>
      <trkpt lat="47.30148" lon="-2.30443">
        <ele>-32.400001525879</ele>
        <time>2022-09-08T07:48:31.000Z</time>
      </trkpt>
      <trkpt lat="47.30157" lon="-2.30462">
        <ele>-32.400001525879</ele>
        <time>2022-09-08T07:48:34.000Z</time>
      </trkpt>
      <trkpt lat="47.30181" lon="-2.30499">
        <ele>-32.400001525879</ele>
        <time>2022-09-08T07:48:41.000Z</time>
      </trkpt>
      <trkpt lat="47.30185" lon="-2.30502">
        <ele>-32.400001525879</ele>
        <time>2022-09-08T07:48:42.000Z</time>
      </trkpt>
      <trkpt lat="47.30198" lon="-2.30515">
        <ele>-32.400001525879</ele>
        <time>2022-09-08T07:48:46.000Z</time>
      </trkpt>
      <trkpt lat="47.30222" lon="-2.30537">
        <ele>-32.400001525879</ele>
        <time>2022-09-08T07:48:52.000Z</time>
      </trkpt>
      <trkpt lat="47.30225" lon="-2.30542">
        <ele>-32.400001525879</ele>
        <time>2022-09-08T07:48:53.000Z</time>
      </trkpt>
      <trkpt lat="47.30231" lon="-2.30557">
        <ele>-32.400001525879</ele>
        <time>2022-09-08T07:48:56.000Z</time>
      </trkpt>
      <trkpt lat="47.30233" lon="-2.30575">
        <ele>-32.400001525879</ele>
        <time>2022-09-08T07:49:00.000Z</time>
      </trkpt>
      <trkpt lat="47.30231" lon="-2.30581">
        <ele>-32.400001525879</ele>
        <time>2022-09-08T07:49:01.000Z</time>
      </trkpt>
      <trkpt lat="47.30216" lon="-2.30596">
        <ele>-32.400001525879</ele>
        <time>2022-09-08T07:49:05.000Z</time>
      </trkpt>
      <trkpt lat="47.30212" lon="-2.30598">
        <ele>-32.400001525879</ele>
        <time>2022-09-08T07:49:06.000Z</time>
      </trkpt>
      <trkpt lat="47.30204" lon="-2.30603">
        <ele>-32.400001525879</ele>
        <time>2022-09-08T07:49:08.000Z</time>
      </trkpt>
      <trkpt lat="47.30198" lon="-2.30613">
        <ele>-32.400001525879</ele>
        <time>2022-09-08T07:49:10.000Z</time>
      </trkpt>
      <trkpt lat="47.30189" lon="-2.30626">
        <ele>-32.400001525879</ele>
        <time>2022-09-08T07:49:13.000Z</time>
      </trkpt>
      <trkpt lat="47.30176" lon="-2.30634">
        <ele>-32.400001525879</ele>
        <time>2022-09-08T07:49:16.000Z</time>
      </trkpt>
      <trkpt lat="47.30168" lon="-2.30642">
        <ele>-32.400001525879</ele>
        <time>2022-09-08T07:49:18.000Z</time>
      </trkpt>
      <trkpt lat="47.30163" lon="-2.30656">
        <ele>-32.400001525879</ele>
        <time>2022-09-08T07:49:20.000Z</time>
      </trkpt>
      <trkpt lat="47.30164" lon="-2.3068">
        <ele>-32.400001525879</ele>
        <time>2022-09-08T07:49:23.000Z</time>
      </trkpt>
      <trkpt lat="47.30169" lon="-2.30705">
        <ele>-32.400001525879</ele>
        <time>2022-09-08T07:49:26.000Z</time>
      </trkpt>
      <trkpt lat="47.30172" lon="-2.30722">
        <ele>-32.400001525879</ele>
        <time>2022-09-08T07:49:28.000Z</time>
      </trkpt>
      <trkpt lat="47.30172" lon="-2.3073">
        <ele>-32.400001525879</ele>
        <time>2022-09-08T07:49:29.000Z</time>
      </trkpt>
      <trkpt lat="47.30178" lon="-2.30751">
        <ele>-32.400001525879</ele>
        <time>2022-09-08T07:49:32.000Z</time>
      </trkpt>
      <trkpt lat="47.3018" lon="-2.30756">
        <ele>-32.400001525879</ele>
        <time>2022-09-08T07:49:33.000Z</time>
      </trkpt>
      <trkpt lat="47.3018" lon="-2.30762">
        <ele>-32.400001525879</ele>
        <time>2022-09-08T07:49:34.000Z</time>
      </trkpt>
      <trkpt lat="47.30184" lon="-2.30778">
        <ele>-32.400001525879</ele>
        <time>2022-09-08T07:49:37.000Z</time>
      </trkpt>
      <trkpt lat="47.30184" lon="-2.30791">
        <ele>-32.400001525879</ele>
        <time>2022-09-08T07:49:39.000Z</time>
      </trkpt>
      <trkpt lat="47.30186" lon="-2.30803">
        <ele>-32.400001525879</ele>
        <time>2022-09-08T07:49:41.000Z</time>
      </trkpt>
      <trkpt lat="47.30189" lon="-2.30808">
        <ele>-32.400001525879</ele>
        <time>2022-09-08T07:49:42.000Z</time>
      </trkpt>
      <trkpt lat="47.30195" lon="-2.30818">
        <ele>-32.400001525879</ele>
        <time>2022-09-08T07:49:45.000Z</time>
      </trkpt>
      <trkpt lat="47.30199" lon="-2.30822">
        <ele>-32.400001525879</ele>
        <time>2022-09-08T07:49:46.000Z</time>
      </trkpt>
      <trkpt lat="47.30216" lon="-2.30845">
        <ele>-32.400001525879</ele>
        <time>2022-09-08T07:49:51.000Z</time>
      </trkpt>
      <trkpt lat="47.3022" lon="-2.30849">
        <ele>-32.400001525879</ele>
        <time>2022-09-08T07:49:52.000Z</time>
      </trkpt>
      <trkpt lat="47.3024" lon="-2.3087">
        <ele>-32.400001525879</ele>
        <time>2022-09-08T07:49:57.000Z</time>
      </trkpt>
      <trkpt lat="47.30259" lon="-2.30893">
        <ele>-32.400001525879</ele>
        <time>2022-09-08T07:50:02.000Z</time>
      </trkpt>
      <trkpt lat="47.30266" lon="-2.30903">
        <ele>-32.400001525879</ele>
        <time>2022-09-08T07:50:04.000Z</time>
      </trkpt>
      <trkpt lat="47.30272" lon="-2.30912">
        <ele>-31.39999961853</ele>
        <time>2022-09-08T07:50:06.000Z</time>
      </trkpt>
      <trkpt lat="47.30275" lon="-2.30917">
        <ele>-31</ele>
        <time>2022-09-08T07:50:07.000Z</time>
      </trkpt>
      <trkpt lat="47.30278" lon="-2.30921">
        <ele>-30.60000038147</ele>
        <time>2022-09-08T07:50:08.000Z</time>
      </trkpt>
      <trkpt lat="47.30282" lon="-2.30926">
        <ele>-30.200000762939</ele>
        <time>2022-09-08T07:50:09.000Z</time>
      </trkpt>
      <trkpt lat="47.30285" lon="-2.3093">
        <ele>-30.200000762939</ele>
        <time>2022-09-08T07:50:10.000Z</time>
      </trkpt>
      <trkpt lat="47.30308" lon="-2.30965">
        <ele>-29.799999237061</ele>
        <time>2022-09-08T07:50:17.000Z</time>
      </trkpt>
      <trkpt lat="47.30312" lon="-2.3097">
        <ele>-29.39999961853</ele>
        <time>2022-09-08T07:50:18.000Z</time>
      </trkpt>
      <trkpt lat="47.30315" lon="-2.30975">
        <ele>-28.799999237061</ele>
        <time>2022-09-08T07:50:19.000Z</time>
      </trkpt>
      <trkpt lat="47.30318" lon="-2.3098">
        <ele>-28.39999961853</ele>
        <time>2022-09-08T07:50:20.000Z</time>
      </trkpt>
      <trkpt lat="47.30322" lon="-2.30983">
        <ele>-28</ele>
        <time>2022-09-08T07:50:21.000Z</time>
      </trkpt>
      <trkpt lat="47.30328" lon="-2.30991">
        <ele>-28</ele>
        <time>2022-09-08T07:50:23.000Z</time>
      </trkpt>
      <trkpt lat="47.30337" lon="-2.31004">
        <ele>-27.60000038147</ele>
        <time>2022-09-08T07:50:26.000Z</time>
      </trkpt>
      <trkpt lat="47.30341" lon="-2.31008">
        <ele>-27.200000762939</ele>
        <time>2022-09-08T07:50:27.000Z</time>
      </trkpt>
      <trkpt lat="47.30344" lon="-2.31012">
        <ele>-26.799999237061</ele>
        <time>2022-09-08T07:50:28.000Z</time>
      </trkpt>
      <trkpt lat="47.30346" lon="-2.31015">
        <ele>-26.39999961853</ele>
        <time>2022-09-08T07:50:29.000Z</time>
      </trkpt>
      <trkpt lat="47.3035" lon="-2.31019">
        <ele>-26</ele>
        <time>2022-09-08T07:50:30.000Z</time>
      </trkpt>
      <trkpt lat="47.30362" lon="-2.31036">
        <ele>-26</ele>
        <time>2022-09-08T07:50:34.000Z</time>
      </trkpt>
      <trkpt lat="47.30365" lon="-2.31041">
        <ele>-26</ele>
        <time>2022-09-08T07:50:35.000Z</time>
      </trkpt>
      <trkpt lat="47.30382" lon="-2.31065">
        <ele>-26</ele>
        <time>2022-09-08T07:50:40.000Z</time>
      </trkpt>
      <trkpt lat="47.30386" lon="-2.3107">
        <ele>-25.60000038147</ele>
        <time>2022-09-08T07:50:41.000Z</time>
      </trkpt>
      <trkpt lat="47.30388" lon="-2.31075">
        <ele>-25.200000762939</ele>
        <time>2022-09-08T07:50:42.000Z</time>
      </trkpt>
      <trkpt lat="47.30392" lon="-2.31079">
        <ele>-24.60000038147</ele>
        <time>2022-09-08T07:50:43.000Z</time>
      </trkpt>
      <trkpt lat="47.30394" lon="-2.31084">
        <ele>-24.200000762939</ele>
        <time>2022-09-08T07:50:44.000Z</time>
      </trkpt>
      <trkpt lat="47.30397" lon="-2.31087">
        <ele>-23.799999237061</ele>
        <time>2022-09-08T07:50:45.000Z</time>
      </trkpt>
      <trkpt lat="47.30404" lon="-2.31094">
        <ele>-23.799999237061</ele>
        <time>2022-09-08T07:50:47.000Z</time>
      </trkpt>
      <trkpt lat="47.30431" lon="-2.31113">
        <ele>-23.799999237061</ele>
        <time>2022-09-08T07:50:54.000Z</time>
      </trkpt>
      <trkpt lat="47.30448" lon="-2.31135">
        <ele>-23.799999237061</ele>
        <time>2022-09-08T07:51:00.000Z</time>
      </trkpt>
      <trkpt lat="47.30455" lon="-2.31153">
        <ele>-23.799999237061</ele>
        <time>2022-09-08T07:51:03.000Z</time>
      </trkpt>
      <trkpt lat="47.30459" lon="-2.31165">
        <ele>-23.799999237061</ele>
        <time>2022-09-08T07:51:05.000Z</time>
      </trkpt>
      <trkpt lat="47.30468" lon="-2.31196">
        <ele>-23.799999237061</ele>
        <time>2022-09-08T07:51:10.000Z</time>
      </trkpt>
      <trkpt lat="47.30483" lon="-2.31241">
        <ele>-23.799999237061</ele>
        <time>2022-09-08T07:51:17.000Z</time>
      </trkpt>
      <trkpt lat="47.30504" lon="-2.31276">
        <ele>-23.799999237061</ele>
        <time>2022-09-08T07:51:23.000Z</time>
      </trkpt>
      <trkpt lat="47.30531" lon="-2.31315">
        <ele>-23.799999237061</ele>
        <time>2022-09-08T07:51:30.000Z</time>
      </trkpt>
      <trkpt lat="47.30557" lon="-2.31354">
        <ele>-23.799999237061</ele>
        <time>2022-09-08T07:51:37.000Z</time>
      </trkpt>
      <trkpt lat="47.30576" lon="-2.31389">
        <ele>-23.799999237061</ele>
        <time>2022-09-08T07:51:43.000Z</time>
      </trkpt>
      <trkpt lat="47.30579" lon="-2.31394">
        <ele>-23.799999237061</ele>
        <time>2022-09-08T07:51:44.000Z</time>
      </trkpt>
      <trkpt lat="47.30581" lon="-2.31401">
        <ele>-23.799999237061</ele>
        <time>2022-09-08T07:51:45.000Z</time>
      </trkpt>
      <trkpt lat="47.30589" lon="-2.31421">
        <ele>-23.799999237061</ele>
        <time>2022-09-08T07:51:48.000Z</time>
      </trkpt>
      <trkpt lat="47.3061" lon="-2.31469">
        <ele>-23.799999237061</ele>
        <time>2022-09-08T07:51:55.000Z</time>
      </trkpt>
      <trkpt lat="47.3063" lon="-2.31521">
        <ele>-23.799999237061</ele>
        <time>2022-09-08T07:52:02.000Z</time>
      </trkpt>
      <trkpt lat="47.30633" lon="-2.3153">
        <ele>-23.799999237061</ele>
        <time>2022-09-08T07:52:03.000Z</time>
      </trkpt>
      <trkpt lat="47.30651" lon="-2.31569">
        <ele>-23.799999237061</ele>
        <time>2022-09-08T07:52:08.000Z</time>
      </trkpt>
      <trkpt lat="47.30666" lon="-2.31602">
        <ele>-24.200000762939</ele>
        <time>2022-09-08T07:52:12.000Z</time>
      </trkpt>
      <trkpt lat="47.3067" lon="-2.3161">
        <ele>-24.799999237061</ele>
        <time>2022-09-08T07:52:13.000Z</time>
      </trkpt>
      <trkpt lat="47.30674" lon="-2.31618">
        <ele>-25.200000762939</ele>
        <time>2022-09-08T07:52:14.000Z</time>
      </trkpt>
      <trkpt lat="47.30678" lon="-2.31627">
        <ele>-25.60000038147</ele>
        <time>2022-09-08T07:52:15.000Z</time>
      </trkpt>
      <trkpt lat="47.30681" lon="-2.31636">
        <ele>-26</ele>
        <time>2022-09-08T07:52:16.000Z</time>
      </trkpt>
      <trkpt lat="47.30689" lon="-2.31662">
        <ele>-26</ele>
        <time>2022-09-08T07:52:19.000Z</time>
      </trkpt>
      <trkpt lat="47.30707" lon="-2.31704">
        <ele>-26</ele>
        <time>2022-09-08T07:52:25.000Z</time>
      </trkpt>
      <trkpt lat="47.30723" lon="-2.31742">
        <ele>-26</ele>
        <time>2022-09-08T07:52:31.000Z</time>
      </trkpt>
      <trkpt lat="47.30726" lon="-2.31749">
        <ele>-26</ele>
        <time>2022-09-08T07:52:32.000Z</time>
      </trkpt>
      <trkpt lat="47.30734" lon="-2.31757">
        <ele>-26</ele>
        <time>2022-09-08T07:52:35.000Z</time>
      </trkpt>
      <trkpt lat="47.30741" lon="-2.31755">
        <ele>-26</ele>
        <time>2022-09-08T07:52:37.000Z</time>
      </trkpt>
      <trkpt lat="47.30751" lon="-2.3175">
        <ele>-26</ele>
        <time>2022-09-08T07:52:40.000Z</time>
      </trkpt>
      <trkpt lat="47.30755" lon="-2.31747">
        <ele>-26</ele>
        <time>2022-09-08T07:52:41.000Z</time>
      </trkpt>
      <trkpt lat="47.30762" lon="-2.3174">
        <ele>-26</ele>
        <time>2022-09-08T07:52:43.000Z</time>
      </trkpt>
      <trkpt lat="47.30768" lon="-2.31732">
        <ele>-26</ele>
        <time>2022-09-08T07:52:45.000Z</time>
      </trkpt>
      <trkpt lat="47.30796" lon="-2.317">
        <ele>-26</ele>
        <time>2022-09-08T07:52:53.000Z</time>
      </trkpt>
      <trkpt lat="47.30809" lon="-2.31683">
        <ele>-25.60000038147</ele>
        <time>2022-09-08T07:52:57.000Z</time>
      </trkpt>
      <trkpt lat="47.30812" lon="-2.31679">
        <ele>-25.200000762939</ele>
        <time>2022-09-08T07:52:58.000Z</time>
      </trkpt>
      <trkpt lat="47.30815" lon="-2.31675">
        <ele>-24.39999961853</ele>
        <time>2022-09-08T07:52:59.000Z</time>
      </trkpt>
      <trkpt lat="47.30818" lon="-2.31671">
        <ele>-24</ele>
        <time>2022-09-08T07:53:00.000Z</time>
      </trkpt>
      <trkpt lat="47.30842" lon="-2.31646">
        <ele>-24</ele>
        <time>2022-09-08T07:53:07.000Z</time>
      </trkpt>
      <trkpt lat="47.30854" lon="-2.31651">
        <ele>-24</ele>
        <time>2022-09-08T07:53:10.000Z</time>
      </trkpt>
      <trkpt lat="47.30857" lon="-2.31654">
        <ele>-23.60000038147</ele>
        <time>2022-09-08T07:53:11.000Z</time>
      </trkpt>
      <trkpt lat="47.3086" lon="-2.31659">
        <ele>-23.200000762939</ele>
        <time>2022-09-08T07:53:12.000Z</time>
      </trkpt>
      <trkpt lat="47.30864" lon="-2.31663">
        <ele>-22.799999237061</ele>
        <time>2022-09-08T07:53:13.000Z</time>
      </trkpt>
      <trkpt lat="47.30867" lon="-2.31668">
        <ele>-22.39999961853</ele>
        <time>2022-09-08T07:53:14.000Z</time>
      </trkpt>
      <trkpt lat="47.3087" lon="-2.31672">
        <ele>-22</ele>
        <time>2022-09-08T07:53:15.000Z</time>
      </trkpt>
      <trkpt lat="47.30874" lon="-2.31676">
        <ele>-22</ele>
        <time>2022-09-08T07:53:16.000Z</time>
      </trkpt>
      <trkpt lat="47.309" lon="-2.31707">
        <ele>-22</ele>
        <time>2022-09-08T07:53:23.000Z</time>
      </trkpt>
      <trkpt lat="47.30925" lon="-2.31739">
        <ele>-22</ele>
        <time>2022-09-08T07:53:30.000Z</time>
      </trkpt>
      <trkpt lat="47.30954" lon="-2.31771">
        <ele>-22</ele>
        <time>2022-09-08T07:53:37.000Z</time>
      </trkpt>
      <trkpt lat="47.30984" lon="-2.31801">
        <ele>-22</ele>
        <time>2022-09-08T07:53:44.000Z</time>
      </trkpt>
      <trkpt lat="47.31" lon="-2.31818">
        <ele>-22</ele>
        <time>2022-09-08T07:53:48.000Z</time>
      </trkpt>
      <trkpt lat="47.31004" lon="-2.31828">
        <ele>-22</ele>
        <time>2022-09-08T07:53:50.000Z</time>
      </trkpt>
      <trkpt lat="47.31002" lon="-2.31844">
        <ele>-22</ele>
        <time>2022-09-08T07:53:53.000Z</time>
      </trkpt>
      <trkpt lat="47.31" lon="-2.3185">
        <ele>-22</ele>
        <time>2022-09-08T07:53:54.000Z</time>
      </trkpt>
      <trkpt lat="47.30996" lon="-2.31863">
        <ele>-22</ele>
        <time>2022-09-08T07:53:56.000Z</time>
      </trkpt>
      <trkpt lat="47.30992" lon="-2.31883">
        <ele>-22</ele>
        <time>2022-09-08T07:53:59.000Z</time>
      </trkpt>
      <trkpt lat="47.30989" lon="-2.31896">
        <ele>-22</ele>
        <time>2022-09-08T07:54:01.000Z</time>
      </trkpt>
      <trkpt lat="47.30987" lon="-2.31902">
        <ele>-22.39999961853</ele>
        <time>2022-09-08T07:54:02.000Z</time>
      </trkpt>
      <trkpt lat="47.30984" lon="-2.31908">
        <ele>-22.799999237061</ele>
        <time>2022-09-08T07:54:03.000Z</time>
      </trkpt>
      <trkpt lat="47.30981" lon="-2.31914">
        <ele>-23.200000762939</ele>
        <time>2022-09-08T07:54:04.000Z</time>
      </trkpt>
      <trkpt lat="47.30979" lon="-2.31919">
        <ele>-23.60000038147</ele>
        <time>2022-09-08T07:54:05.000Z</time>
      </trkpt>
      <trkpt lat="47.30976" lon="-2.31926">
        <ele>-24</ele>
        <time>2022-09-08T07:54:06.000Z</time>
      </trkpt>
      <trkpt lat="47.30972" lon="-2.31941">
        <ele>-24</ele>
        <time>2022-09-08T07:54:08.000Z</time>
      </trkpt>
      <trkpt lat="47.3097" lon="-2.31964">
        <ele>-24</ele>
        <time>2022-09-08T07:54:11.000Z</time>
      </trkpt>
      <trkpt lat="47.30973" lon="-2.31978">
        <ele>-24</ele>
        <time>2022-09-08T07:54:13.000Z</time>
      </trkpt>
      <trkpt lat="47.30981" lon="-2.32004">
        <ele>-24</ele>
        <time>2022-09-08T07:54:17.000Z</time>
      </trkpt>
      <trkpt lat="47.30987" lon="-2.32021">
        <ele>-24</ele>
        <time>2022-09-08T07:54:20.000Z</time>
      </trkpt>
      <trkpt lat="47.3099" lon="-2.32032">
        <ele>-24</ele>
        <time>2022-09-08T07:54:22.000Z</time>
      </trkpt>
      <trkpt lat="47.30992" lon="-2.32038">
        <ele>-24</ele>
        <time>2022-09-08T07:54:23.000Z</time>
      </trkpt>
      <trkpt lat="47.31004" lon="-2.32058">
        <ele>-24</ele>
        <time>2022-09-08T07:54:27.000Z</time>
      </trkpt>
      <trkpt lat="47.31021" lon="-2.32087">
        <ele>-23.60000038147</ele>
        <time>2022-09-08T07:54:33.000Z</time>
      </trkpt>
      <trkpt lat="47.31024" lon="-2.32091">
        <ele>-23</ele>
        <time>2022-09-08T07:54:34.000Z</time>
      </trkpt>
      <trkpt lat="47.31027" lon="-2.32095">
        <ele>-22.60000038147</ele>
        <time>2022-09-08T07:54:35.000Z</time>
      </trkpt>
      <trkpt lat="47.3103" lon="-2.32101">
        <ele>-22.200000762939</ele>
        <time>2022-09-08T07:54:36.000Z</time>
      </trkpt>
      <trkpt lat="47.31033" lon="-2.32106">
        <ele>-21.799999237061</ele>
        <time>2022-09-08T07:54:37.000Z</time>
      </trkpt>
      <trkpt lat="47.31037" lon="-2.32111">
        <ele>-21.799999237061</ele>
        <time>2022-09-08T07:54:38.000Z</time>
      </trkpt>
      <trkpt lat="47.31041" lon="-2.32116">
        <ele>-21.799999237061</ele>
        <time>2022-09-08T07:54:39.000Z</time>
      </trkpt>
      <trkpt lat="47.31051" lon="-2.32132">
        <ele>-21.799999237061</ele>
        <time>2022-09-08T07:54:42.000Z</time>
      </trkpt>
      <trkpt lat="47.31055" lon="-2.32137">
        <ele>-21.799999237061</ele>
        <time>2022-09-08T07:54:43.000Z</time>
      </trkpt>
      <trkpt lat="47.31062" lon="-2.32148">
        <ele>-21.799999237061</ele>
        <time>2022-09-08T07:54:45.000Z</time>
      </trkpt>
      <trkpt lat="47.31072" lon="-2.32166">
        <ele>-21.799999237061</ele>
        <time>2022-09-08T07:54:48.000Z</time>
      </trkpt>
      <trkpt lat="47.31075" lon="-2.32171">
        <ele>-21.799999237061</ele>
        <time>2022-09-08T07:54:49.000Z</time>
      </trkpt>
      <trkpt lat="47.31078" lon="-2.32176">
        <ele>-21.39999961853</ele>
        <time>2022-09-08T07:54:50.000Z</time>
      </trkpt>
      <trkpt lat="47.3108" lon="-2.3218">
        <ele>-21</ele>
        <time>2022-09-08T07:54:51.000Z</time>
      </trkpt>
      <trkpt lat="47.31083" lon="-2.32185">
        <ele>-20.60000038147</ele>
        <time>2022-09-08T07:54:52.000Z</time>
      </trkpt>
      <trkpt lat="47.31086" lon="-2.32191">
        <ele>-20.200000762939</ele>
        <time>2022-09-08T07:54:53.000Z</time>
      </trkpt>
      <trkpt lat="47.31088" lon="-2.32197">
        <ele>-19.799999237061</ele>
        <time>2022-09-08T07:54:54.000Z</time>
      </trkpt>
      <trkpt lat="47.31098" lon="-2.32225">
        <ele>-19.799999237061</ele>
        <time>2022-09-08T07:54:59.000Z</time>
      </trkpt>
      <trkpt lat="47.31101" lon="-2.32235">
        <ele>-19.39999961853</ele>
        <time>2022-09-08T07:55:01.000Z</time>
      </trkpt>
      <trkpt lat="47.31103" lon="-2.32241">
        <ele>-19</ele>
        <time>2022-09-08T07:55:02.000Z</time>
      </trkpt>
      <trkpt lat="47.31105" lon="-2.32246">
        <ele>-18.60000038147</ele>
        <time>2022-09-08T07:55:03.000Z</time>
      </trkpt>
      <trkpt lat="47.31108" lon="-2.3225">
        <ele>-18.200000762939</ele>
        <time>2022-09-08T07:55:04.000Z</time>
      </trkpt>
      <trkpt lat="47.31111" lon="-2.32255">
        <ele>-17.60000038147</ele>
        <time>2022-09-08T07:55:05.000Z</time>
      </trkpt>
      <trkpt lat="47.31126" lon="-2.32286">
        <ele>-17.60000038147</ele>
        <time>2022-09-08T07:55:12.000Z</time>
      </trkpt>
      <trkpt lat="47.31133" lon="-2.32299">
        <ele>-17.200000762939</ele>
        <time>2022-09-08T07:55:15.000Z</time>
      </trkpt>
      <trkpt lat="47.31134" lon="-2.32305">
        <ele>-16.799999237061</ele>
        <time>2022-09-08T07:55:16.000Z</time>
      </trkpt>
      <trkpt lat="47.31136" lon="-2.3231">
        <ele>-16.39999961853</ele>
        <time>2022-09-08T07:55:17.000Z</time>
      </trkpt>
      <trkpt lat="47.31137" lon="-2.32315">
        <ele>-16</ele>
        <time>2022-09-08T07:55:18.000Z</time>
      </trkpt>
      <trkpt lat="47.31138" lon="-2.3232">
        <ele>-15.60000038147</ele>
        <time>2022-09-08T07:55:19.000Z</time>
      </trkpt>
      <trkpt lat="47.31143" lon="-2.32342">
        <ele>-15.60000038147</ele>
        <time>2022-09-08T07:55:23.000Z</time>
      </trkpt>
      <trkpt lat="47.31146" lon="-2.32373">
        <ele>-15.60000038147</ele>
        <time>2022-09-08T07:55:29.000Z</time>
      </trkpt>
      <trkpt lat="47.31146" lon="-2.32379">
        <ele>-15.199999809265</ele>
        <time>2022-09-08T07:55:30.000Z</time>
      </trkpt>
      <trkpt lat="47.31146" lon="-2.32384">
        <ele>-14.800000190735</ele>
        <time>2022-09-08T07:55:31.000Z</time>
      </trkpt>
      <trkpt lat="47.31146" lon="-2.3239">
        <ele>-14.39999961853</ele>
        <time>2022-09-08T07:55:32.000Z</time>
      </trkpt>
      <trkpt lat="47.31145" lon="-2.32395">
        <ele>-14</ele>
        <time>2022-09-08T07:55:33.000Z</time>
      </trkpt>
      <trkpt lat="47.31146" lon="-2.32401">
        <ele>-13.60000038147</ele>
        <time>2022-09-08T07:55:34.000Z</time>
      </trkpt>
      <trkpt lat="47.31147" lon="-2.32416">
        <ele>-13.60000038147</ele>
        <time>2022-09-08T07:55:37.000Z</time>
      </trkpt>
      <trkpt lat="47.31154" lon="-2.32423">
        <ele>-13.60000038147</ele>
        <time>2022-09-08T07:55:40.000Z</time>
      </trkpt>
      <trkpt lat="47.31157" lon="-2.32425">
        <ele>-13.60000038147</ele>
        <time>2022-09-08T07:55:41.000Z</time>
      </trkpt>
      <trkpt lat="47.31175" lon="-2.32437">
        <ele>-13.60000038147</ele>
        <time>2022-09-08T07:55:46.000Z</time>
      </trkpt>
      <trkpt lat="47.31177" lon="-2.3244">
        <ele>-13.60000038147</ele>
        <time>2022-09-08T07:55:47.000Z</time>
      </trkpt>
      <trkpt lat="47.31179" lon="-2.32452">
        <ele>-13.60000038147</ele>
        <time>2022-09-08T07:55:49.000Z</time>
      </trkpt>
      <trkpt lat="47.31176" lon="-2.32498">
        <ele>-13.60000038147</ele>
        <time>2022-09-08T07:55:56.000Z</time>
      </trkpt>
      <trkpt lat="47.31175" lon="-2.32553">
        <ele>-13.60000038147</ele>
        <time>2022-09-08T07:56:04.000Z</time>
      </trkpt>
      <trkpt lat="47.31174" lon="-2.3256">
        <ele>-13.199999809265</ele>
        <time>2022-09-08T07:56:05.000Z</time>
      </trkpt>
      <trkpt lat="47.31174" lon="-2.32567">
        <ele>-12.800000190735</ele>
        <time>2022-09-08T07:56:06.000Z</time>
      </trkpt>
      <trkpt lat="47.31174" lon="-2.32574">
        <ele>-12.39999961853</ele>
        <time>2022-09-08T07:56:07.000Z</time>
      </trkpt>
      <trkpt lat="47.31174" lon="-2.32581">
        <ele>-12</ele>
        <time>2022-09-08T07:56:08.000Z</time>
      </trkpt>
      <trkpt lat="47.31174" lon="-2.32589">
        <ele>-11.60000038147</ele>
        <time>2022-09-08T07:56:09.000Z</time>
      </trkpt>
      <trkpt lat="47.31175" lon="-2.32602">
        <ele>-11.60000038147</ele>
        <time>2022-09-08T07:56:11.000Z</time>
      </trkpt>
      <trkpt lat="47.31177" lon="-2.32629">
        <ele>-11.60000038147</ele>
        <time>2022-09-08T07:56:15.000Z</time>
      </trkpt>
      <trkpt lat="47.3118" lon="-2.32642">
        <ele>-11.60000038147</ele>
        <time>2022-09-08T07:56:17.000Z</time>
      </trkpt>
      <trkpt lat="47.31196" lon="-2.32684">
        <ele>-11.60000038147</ele>
        <time>2022-09-08T07:56:24.000Z</time>
      </trkpt>
      <trkpt lat="47.31202" lon="-2.32709">
        <ele>-11.60000038147</ele>
        <time>2022-09-08T07:56:28.000Z</time>
      </trkpt>
      <trkpt lat="47.31203" lon="-2.32716">
        <ele>-11.60000038147</ele>
        <time>2022-09-08T07:56:29.000Z</time>
      </trkpt>
      <trkpt lat="47.31211" lon="-2.32732">
        <ele>-11.60000038147</ele>
        <time>2022-09-08T07:56:32.000Z</time>
      </trkpt>
      <trkpt lat="47.31219" lon="-2.32739">
        <ele>-11.60000038147</ele>
        <time>2022-09-08T07:56:34.000Z</time>
      </trkpt>
      <trkpt lat="47.31228" lon="-2.32746">
        <ele>-11.60000038147</ele>
        <time>2022-09-08T07:56:36.000Z</time>
      </trkpt>
      <trkpt lat="47.31233" lon="-2.32749">
        <ele>-11.60000038147</ele>
        <time>2022-09-08T07:56:37.000Z</time>
      </trkpt>
      <trkpt lat="47.31262" lon="-2.3277">
        <ele>-11.60000038147</ele>
        <time>2022-09-08T07:56:43.000Z</time>
      </trkpt>
      <trkpt lat="47.31273" lon="-2.32777">
        <ele>-11.60000038147</ele>
        <time>2022-09-08T07:56:45.000Z</time>
      </trkpt>
      <trkpt lat="47.31281" lon="-2.32786">
        <ele>-11.60000038147</ele>
        <time>2022-09-08T07:56:47.000Z</time>
      </trkpt>
      <trkpt lat="47.31285" lon="-2.32793">
        <ele>-11.60000038147</ele>
        <time>2022-09-08T07:56:48.000Z</time>
      </trkpt>
      <trkpt lat="47.31293" lon="-2.3281">
        <ele>-11.60000038147</ele>
        <time>2022-09-08T07:56:51.000Z</time>
      </trkpt>
      <trkpt lat="47.31299" lon="-2.3282">
        <ele>-11.60000038147</ele>
        <time>2022-09-08T07:56:53.000Z</time>
      </trkpt>
      <trkpt lat="47.31311" lon="-2.32837">
        <ele>-11.60000038147</ele>
        <time>2022-09-08T07:56:56.000Z</time>
      </trkpt>
      <trkpt lat="47.31319" lon="-2.32847">
        <ele>-11.60000038147</ele>
        <time>2022-09-08T07:56:58.000Z</time>
      </trkpt>
      <trkpt lat="47.31326" lon="-2.32855">
        <ele>-11.60000038147</ele>
        <time>2022-09-08T07:57:00.000Z</time>
      </trkpt>
      <trkpt lat="47.31337" lon="-2.32869">
        <ele>-11.60000038147</ele>
        <time>2022-09-08T07:57:03.000Z</time>
      </trkpt>
      <trkpt lat="47.31348" lon="-2.32882">
        <ele>-11.60000038147</ele>
        <time>2022-09-08T07:57:06.000Z</time>
      </trkpt>
      <trkpt lat="47.31351" lon="-2.32893">
        <ele>-11.60000038147</ele>
        <time>2022-09-08T07:57:08.000Z</time>
      </trkpt>
      <trkpt lat="47.31352" lon="-2.32898">
        <ele>-11.60000038147</ele>
        <time>2022-09-08T07:57:09.000Z</time>
      </trkpt>
      <trkpt lat="47.31346" lon="-2.32914">
        <ele>-11.60000038147</ele>
        <time>2022-09-08T07:57:13.000Z</time>
      </trkpt>
      <trkpt lat="47.31342" lon="-2.32926">
        <ele>-11.60000038147</ele>
        <time>2022-09-08T07:57:15.000Z</time>
      </trkpt>
      <trkpt lat="47.31334" lon="-2.32943">
        <ele>-11.60000038147</ele>
        <time>2022-09-08T07:57:18.000Z</time>
      </trkpt>
      <trkpt lat="47.31331" lon="-2.3295">
        <ele>-11.60000038147</ele>
        <time>2022-09-08T07:57:19.000Z</time>
      </trkpt>
      <trkpt lat="47.31318" lon="-2.32975">
        <ele>-11.60000038147</ele>
        <time>2022-09-08T07:57:23.000Z</time>
      </trkpt>
      <trkpt lat="47.31316" lon="-2.32981">
        <ele>-11.60000038147</ele>
        <time>2022-09-08T07:57:24.000Z</time>
      </trkpt>
      <trkpt lat="47.31304" lon="-2.33005">
        <ele>-11.60000038147</ele>
        <time>2022-09-08T07:57:28.000Z</time>
      </trkpt>
      <trkpt lat="47.31292" lon="-2.33028">
        <ele>-11.60000038147</ele>
        <time>2022-09-08T07:57:32.000Z</time>
      </trkpt>
      <trkpt lat="47.31289" lon="-2.33033">
        <ele>-11.60000038147</ele>
        <time>2022-09-08T07:57:33.000Z</time>
      </trkpt>
      <trkpt lat="47.31275" lon="-2.3306">
        <ele>-11.60000038147</ele>
        <time>2022-09-08T07:57:38.000Z</time>
      </trkpt>
      <trkpt lat="47.31259" lon="-2.33099">
        <ele>-11.60000038147</ele>
        <time>2022-09-08T07:57:45.000Z</time>
      </trkpt>
      <trkpt lat="47.31252" lon="-2.33112">
        <ele>-11.60000038147</ele>
        <time>2022-09-08T07:57:47.000Z</time>
      </trkpt>
      <trkpt lat="47.31246" lon="-2.33124">
        <ele>-11.60000038147</ele>
        <time>2022-09-08T07:57:49.000Z</time>
      </trkpt>
      <trkpt lat="47.31244" lon="-2.3313">
        <ele>-11.60000038147</ele>
        <time>2022-09-08T07:57:50.000Z</time>
      </trkpt>
      <trkpt lat="47.31244" lon="-2.33139">
        <ele>-11.60000038147</ele>
        <time>2022-09-08T07:57:52.000Z</time>
      </trkpt>
      <trkpt lat="47.31252" lon="-2.33147">
        <ele>-11.60000038147</ele>
        <time>2022-09-08T07:57:55.000Z</time>
      </trkpt>
      <trkpt lat="47.31256" lon="-2.33149">
        <ele>-11.60000038147</ele>
        <time>2022-09-08T07:57:56.000Z</time>
      </trkpt>
      <trkpt lat="47.31264" lon="-2.33151">
        <ele>-11.60000038147</ele>
        <time>2022-09-08T07:57:58.000Z</time>
      </trkpt>
      <trkpt lat="47.31276" lon="-2.33158">
        <ele>-11.60000038147</ele>
        <time>2022-09-08T07:58:01.000Z</time>
      </trkpt>
      <trkpt lat="47.31281" lon="-2.33161">
        <ele>-11.60000038147</ele>
        <time>2022-09-08T07:58:02.000Z</time>
      </trkpt>
      <trkpt lat="47.31304" lon="-2.33177">
        <ele>-11.60000038147</ele>
        <time>2022-09-08T07:58:07.000Z</time>
      </trkpt>
      <trkpt lat="47.31312" lon="-2.33183">
        <ele>-11.60000038147</ele>
        <time>2022-09-08T07:58:09.000Z</time>
      </trkpt>
      <trkpt lat="47.31322" lon="-2.33193">
        <ele>-11.60000038147</ele>
        <time>2022-09-08T07:58:11.000Z</time>
      </trkpt>
      <trkpt lat="47.31343" lon="-2.33212">
        <ele>-11.60000038147</ele>
        <time>2022-09-08T07:58:16.000Z</time>
      </trkpt>
      <trkpt lat="47.31375" lon="-2.33237">
        <ele>-11.60000038147</ele>
        <time>2022-09-08T07:58:23.000Z</time>
      </trkpt>
      <trkpt lat="47.31383" lon="-2.33243">
        <ele>-11.60000038147</ele>
        <time>2022-09-08T07:58:25.000Z</time>
      </trkpt>
      <trkpt lat="47.31393" lon="-2.33251">
        <ele>-11.60000038147</ele>
        <time>2022-09-08T07:58:28.000Z</time>
      </trkpt>
      <trkpt lat="47.31407" lon="-2.33261">
        <ele>-11.199999809265</ele>
        <time>2022-09-08T07:58:32.000Z</time>
      </trkpt>
      <trkpt lat="47.31411" lon="-2.33263">
        <ele>-10.800000190735</ele>
        <time>2022-09-08T07:58:33.000Z</time>
      </trkpt>
      <trkpt lat="47.31414" lon="-2.33266">
        <ele>-10.39999961853</ele>
        <time>2022-09-08T07:58:34.000Z</time>
      </trkpt>
      <trkpt lat="47.31418" lon="-2.33269">
        <ele>-9.8000001907349</ele>
        <time>2022-09-08T07:58:35.000Z</time>
      </trkpt>
      <trkpt lat="47.31421" lon="-2.33271">
        <ele>-9.3999996185303</ele>
        <time>2022-09-08T07:58:36.000Z</time>
      </trkpt>
      <trkpt lat="47.31437" lon="-2.33291">
        <ele>-9.3999996185303</ele>
        <time>2022-09-08T07:58:42.000Z</time>
      </trkpt>
      <trkpt lat="47.31449" lon="-2.3331">
        <ele>-9.3999996185303</ele>
        <time>2022-09-08T07:58:47.000Z</time>
      </trkpt>
      <trkpt lat="47.31469" lon="-2.33346">
        <ele>-9.3999996185303</ele>
        <time>2022-09-08T07:58:55.000Z</time>
      </trkpt>
      <trkpt lat="47.31483" lon="-2.33366">
        <ele>-9.3999996185303</ele>
        <time>2022-09-08T07:59:00.000Z</time>
      </trkpt>
      <trkpt lat="47.31488" lon="-2.33367">
        <ele>-9.3999996185303</ele>
        <time>2022-09-08T07:59:01.000Z</time>
      </trkpt>
      <trkpt lat="47.3151" lon="-2.33356">
        <ele>-9.3999996185303</ele>
        <time>2022-09-08T07:59:06.000Z</time>
      </trkpt>
      <trkpt lat="47.31514" lon="-2.33353">
        <ele>-9</ele>
        <time>2022-09-08T07:59:07.000Z</time>
      </trkpt>
      <trkpt lat="47.31518" lon="-2.33351">
        <ele>-8.1999998092651</ele>
        <time>2022-09-08T07:59:08.000Z</time>
      </trkpt>
      <trkpt lat="47.31523" lon="-2.33349">
        <ele>-7.8000001907349</ele>
        <time>2022-09-08T07:59:09.000Z</time>
      </trkpt>
      <trkpt lat="47.31527" lon="-2.33346">
        <ele>-7.4000000953674</ele>
        <time>2022-09-08T07:59:10.000Z</time>
      </trkpt>
      <trkpt lat="47.3154" lon="-2.3334">
        <ele>-7.4000000953674</ele>
        <time>2022-09-08T07:59:13.000Z</time>
      </trkpt>
      <trkpt lat="47.31567" lon="-2.33328">
        <ele>-7.4000000953674</ele>
        <time>2022-09-08T07:59:19.000Z</time>
      </trkpt>
      <trkpt lat="47.31571" lon="-2.33326">
        <ele>-7.4000000953674</ele>
        <time>2022-09-08T07:59:20.000Z</time>
      </trkpt>
      <trkpt lat="47.31579" lon="-2.33324">
        <ele>-7.4000000953674</ele>
        <time>2022-09-08T07:59:22.000Z</time>
      </trkpt>
      <trkpt lat="47.31593" lon="-2.33315">
        <ele>-7.4000000953674</ele>
        <time>2022-09-08T07:59:25.000Z</time>
      </trkpt>
      <trkpt lat="47.31628" lon="-2.33294">
        <ele>-7.4000000953674</ele>
        <time>2022-09-08T07:59:32.000Z</time>
      </trkpt>
      <trkpt lat="47.31662" lon="-2.33277">
        <ele>-7.4000000953674</ele>
        <time>2022-09-08T07:59:38.000Z</time>
      </trkpt>
      <trkpt lat="47.31691" lon="-2.33265">
        <ele>-7.4000000953674</ele>
        <time>2022-09-08T07:59:43.000Z</time>
      </trkpt>
      <trkpt lat="47.31706" lon="-2.33257">
        <ele>-8</ele>
        <time>2022-09-08T07:59:46.000Z</time>
      </trkpt>
      <trkpt lat="47.31713" lon="-2.33254">
        <ele>-8.3999996185303</ele>
        <time>2022-09-08T07:59:47.000Z</time>
      </trkpt>
      <trkpt lat="47.31719" lon="-2.33251">
        <ele>-8.8000001907349</ele>
        <time>2022-09-08T07:59:48.000Z</time>
      </trkpt>
      <trkpt lat="47.31724" lon="-2.33248">
        <ele>-9.3999996185303</ele>
        <time>2022-09-08T07:59:49.000Z</time>
      </trkpt>
      <trkpt lat="47.3173" lon="-2.33246">
        <ele>-9.8000001907349</ele>
        <time>2022-09-08T07:59:50.000Z</time>
      </trkpt>
      <trkpt lat="47.31734" lon="-2.33246">
        <ele>-10.199999809265</ele>
        <time>2022-09-08T07:59:51.000Z</time>
      </trkpt>
      <trkpt lat="47.31739" lon="-2.33249">
        <ele>-10.60000038147</ele>
        <time>2022-09-08T07:59:52.000Z</time>
      </trkpt>
      <trkpt lat="47.31742" lon="-2.33254">
        <ele>-11</ele>
        <time>2022-09-08T07:59:53.000Z</time>
      </trkpt>
      <trkpt lat="47.31744" lon="-2.3326">
        <ele>-11.39999961853</ele>
        <time>2022-09-08T07:59:54.000Z</time>
      </trkpt>
      <trkpt lat="47.31744" lon="-2.33266">
        <ele>-11.800000190735</ele>
        <time>2022-09-08T07:59:55.000Z</time>
      </trkpt>
      <trkpt lat="47.31745" lon="-2.33272">
        <ele>-11.800000190735</ele>
        <time>2022-09-08T07:59:56.000Z</time>
      </trkpt>
      <trkpt lat="47.3175" lon="-2.33291">
        <ele>-11.800000190735</ele>
        <time>2022-09-08T07:59:59.000Z</time>
      </trkpt>
      <trkpt lat="47.31752" lon="-2.33298">
        <ele>-11.800000190735</ele>
        <time>2022-09-08T08:00:00.000Z</time>
      </trkpt>
      <trkpt lat="47.31765" lon="-2.33326">
        <ele>-11.800000190735</ele>
        <time>2022-09-08T08:00:05.000Z</time>
      </trkpt>
      <trkpt lat="47.31769" lon="-2.33327">
        <ele>-11.800000190735</ele>
        <time>2022-09-08T08:00:06.000Z</time>
      </trkpt>
      <trkpt lat="47.31773" lon="-2.33326">
        <ele>-12.39999961853</ele>
        <time>2022-09-08T08:00:07.000Z</time>
      </trkpt>
      <trkpt lat="47.31776" lon="-2.33323">
        <ele>-12.800000190735</ele>
        <time>2022-09-08T08:00:08.000Z</time>
      </trkpt>
      <trkpt lat="47.31781" lon="-2.33319">
        <ele>-13.39999961853</ele>
        <time>2022-09-08T08:00:09.000Z</time>
      </trkpt>
      <trkpt lat="47.31786" lon="-2.33315">
        <ele>-13.800000190735</ele>
        <time>2022-09-08T08:00:10.000Z</time>
      </trkpt>
      <trkpt lat="47.3179" lon="-2.3331">
        <ele>-14.199999809265</ele>
        <time>2022-09-08T08:00:11.000Z</time>
      </trkpt>
      <trkpt lat="47.31795" lon="-2.33306">
        <ele>-14.800000190735</ele>
        <time>2022-09-08T08:00:12.000Z</time>
      </trkpt>
      <trkpt lat="47.31799" lon="-2.33301">
        <ele>-15.39999961853</ele>
        <time>2022-09-08T08:00:13.000Z</time>
      </trkpt>
      <trkpt lat="47.31803" lon="-2.33297">
        <ele>-15.800000190735</ele>
        <time>2022-09-08T08:00:14.000Z</time>
      </trkpt>
      <trkpt lat="47.31807" lon="-2.33295">
        <ele>-16.39999961853</ele>
        <time>2022-09-08T08:00:15.000Z</time>
      </trkpt>
      <trkpt lat="47.3181" lon="-2.33292">
        <ele>-16.799999237061</ele>
        <time>2022-09-08T08:00:16.000Z</time>
      </trkpt>
      <trkpt lat="47.31814" lon="-2.33288">
        <ele>-17.200000762939</ele>
        <time>2022-09-08T08:00:17.000Z</time>
      </trkpt>
      <trkpt lat="47.31818" lon="-2.33283">
        <ele>-17.60000038147</ele>
        <time>2022-09-08T08:00:18.000Z</time>
      </trkpt>
      <trkpt lat="47.31821" lon="-2.33278">
        <ele>-18</ele>
        <time>2022-09-08T08:00:19.000Z</time>
      </trkpt>
      <trkpt lat="47.31826" lon="-2.3327">
        <ele>-18.39999961853</ele>
        <time>2022-09-08T08:00:20.000Z</time>
      </trkpt>
      <trkpt lat="47.3183" lon="-2.33263">
        <ele>-19</ele>
        <time>2022-09-08T08:00:21.000Z</time>
      </trkpt>
      <trkpt lat="47.31838" lon="-2.33246">
        <ele>-19</ele>
        <time>2022-09-08T08:00:23.000Z</time>
      </trkpt>
      <trkpt lat="47.31843" lon="-2.33229">
        <ele>-19</ele>
        <time>2022-09-08T08:00:25.000Z</time>
      </trkpt>
      <trkpt lat="47.31846" lon="-2.33208">
        <ele>-19</ele>
        <time>2022-09-08T08:00:27.000Z</time>
      </trkpt>
      <trkpt lat="47.31848" lon="-2.33198">
        <ele>-19.39999961853</ele>
        <time>2022-09-08T08:00:28.000Z</time>
      </trkpt>
      <trkpt lat="47.3185" lon="-2.33188">
        <ele>-19.799999237061</ele>
        <time>2022-09-08T08:00:29.000Z</time>
      </trkpt>
      <trkpt lat="47.31853" lon="-2.33178">
        <ele>-20.200000762939</ele>
        <time>2022-09-08T08:00:30.000Z</time>
      </trkpt>
      <trkpt lat="47.31854" lon="-2.33169">
        <ele>-20.60000038147</ele>
        <time>2022-09-08T08:00:31.000Z</time>
      </trkpt>
      <trkpt lat="47.31856" lon="-2.3316">
        <ele>-21</ele>
        <time>2022-09-08T08:00:32.000Z</time>
      </trkpt>
      <trkpt lat="47.31862" lon="-2.33132">
        <ele>-21.39999961853</ele>
        <time>2022-09-08T08:00:35.000Z</time>
      </trkpt>
      <trkpt lat="47.31863" lon="-2.33123">
        <ele>-22</ele>
        <time>2022-09-08T08:00:36.000Z</time>
      </trkpt>
      <trkpt lat="47.31865" lon="-2.33112">
        <ele>-22.39999961853</ele>
        <time>2022-09-08T08:00:37.000Z</time>
      </trkpt>
      <trkpt lat="47.31868" lon="-2.33101">
        <ele>-22.799999237061</ele>
        <time>2022-09-08T08:00:38.000Z</time>
      </trkpt>
      <trkpt lat="47.31869" lon="-2.33091">
        <ele>-23.200000762939</ele>
        <time>2022-09-08T08:00:39.000Z</time>
      </trkpt>
      <trkpt lat="47.31871" lon="-2.33081">
        <ele>-23.200000762939</ele>
        <time>2022-09-08T08:00:40.000Z</time>
      </trkpt>
      <trkpt lat="47.31875" lon="-2.33028">
        <ele>-23.60000038147</ele>
        <time>2022-09-08T08:00:45.000Z</time>
      </trkpt>
      <trkpt lat="47.31874" lon="-2.33018">
        <ele>-24</ele>
        <time>2022-09-08T08:00:46.000Z</time>
      </trkpt>
      <trkpt lat="47.31875" lon="-2.33007">
        <ele>-25</ele>
        <time>2022-09-08T08:00:47.000Z</time>
      </trkpt>
      <trkpt lat="47.31875" lon="-2.32998">
        <ele>-25.39999961853</ele>
        <time>2022-09-08T08:00:48.000Z</time>
      </trkpt>
      <trkpt lat="47.31875" lon="-2.32989">
        <ele>-25.39999961853</ele>
        <time>2022-09-08T08:00:49.000Z</time>
      </trkpt>
      <trkpt lat="47.31876" lon="-2.3298">
        <ele>-25.39999961853</ele>
        <time>2022-09-08T08:00:50.000Z</time>
      </trkpt>
      <trkpt lat="47.31878" lon="-2.32954">
        <ele>-25.39999961853</ele>
        <time>2022-09-08T08:00:53.000Z</time>
      </trkpt>
      <trkpt lat="47.3188" lon="-2.3293">
        <ele>-25.39999961853</ele>
        <time>2022-09-08T08:00:56.000Z</time>
      </trkpt>
      <trkpt lat="47.3188" lon="-2.32912">
        <ele>-25.39999961853</ele>
        <time>2022-09-08T08:00:58.000Z</time>
      </trkpt>
      <trkpt lat="47.31881" lon="-2.32896">
        <ele>-25.39999961853</ele>
        <time>2022-09-08T08:01:00.000Z</time>
      </trkpt>
      <trkpt lat="47.31885" lon="-2.3285">
        <ele>-25.39999961853</ele>
        <time>2022-09-08T08:01:05.000Z</time>
      </trkpt>
      <trkpt lat="47.31885" lon="-2.32797">
        <ele>-25.39999961853</ele>
        <time>2022-09-08T08:01:11.000Z</time>
      </trkpt>
      <trkpt lat="47.31881" lon="-2.32768">
        <ele>-25.39999961853</ele>
        <time>2022-09-08T08:01:15.000Z</time>
      </trkpt>
      <trkpt lat="47.31877" lon="-2.32755">
        <ele>-25</ele>
        <time>2022-09-08T08:01:17.000Z</time>
      </trkpt>
      <trkpt lat="47.31874" lon="-2.32749">
        <ele>-24.60000038147</ele>
        <time>2022-09-08T08:01:18.000Z</time>
      </trkpt>
      <trkpt lat="47.31872" lon="-2.32743">
        <ele>-24.200000762939</ele>
        <time>2022-09-08T08:01:19.000Z</time>
      </trkpt>
      <trkpt lat="47.3187" lon="-2.32737">
        <ele>-23.60000038147</ele>
        <time>2022-09-08T08:01:20.000Z</time>
      </trkpt>
      <trkpt lat="47.31869" lon="-2.3273">
        <ele>-23.200000762939</ele>
        <time>2022-09-08T08:01:21.000Z</time>
      </trkpt>
      <trkpt lat="47.31864" lon="-2.32719">
        <ele>-23.200000762939</ele>
        <time>2022-09-08T08:01:23.000Z</time>
      </trkpt>
      <trkpt lat="47.31857" lon="-2.32702">
        <ele>-23.200000762939</ele>
        <time>2022-09-08T08:01:26.000Z</time>
      </trkpt>
      <trkpt lat="47.31844" lon="-2.3267">
        <ele>-23.200000762939</ele>
        <time>2022-09-08T08:01:32.000Z</time>
      </trkpt>
      <trkpt lat="47.3184" lon="-2.32652">
        <ele>-22.799999237061</ele>
        <time>2022-09-08T08:01:35.000Z</time>
      </trkpt>
      <trkpt lat="47.31838" lon="-2.32646">
        <ele>-22</ele>
        <time>2022-09-08T08:01:36.000Z</time>
      </trkpt>
      <trkpt lat="47.31837" lon="-2.3264">
        <ele>-21.60000038147</ele>
        <time>2022-09-08T08:01:37.000Z</time>
      </trkpt>
      <trkpt lat="47.31836" lon="-2.32633">
        <ele>-21.200000762939</ele>
        <time>2022-09-08T08:01:38.000Z</time>
      </trkpt>
      <trkpt lat="47.31829" lon="-2.32607">
        <ele>-21.200000762939</ele>
        <time>2022-09-08T08:01:42.000Z</time>
      </trkpt>
      <trkpt lat="47.31821" lon="-2.3257">
        <ele>-21.200000762939</ele>
        <time>2022-09-08T08:01:48.000Z</time>
      </trkpt>
      <trkpt lat="47.31817" lon="-2.32555">
        <ele>-20.799999237061</ele>
        <time>2022-09-08T08:01:51.000Z</time>
      </trkpt>
      <trkpt lat="47.31816" lon="-2.32551">
        <ele>-20.39999961853</ele>
        <time>2022-09-08T08:01:52.000Z</time>
      </trkpt>
      <trkpt lat="47.31815" lon="-2.32546">
        <ele>-20</ele>
        <time>2022-09-08T08:01:53.000Z</time>
      </trkpt>
      <trkpt lat="47.31814" lon="-2.3254">
        <ele>-19.60000038147</ele>
        <time>2022-09-08T08:01:54.000Z</time>
      </trkpt>
      <trkpt lat="47.31813" lon="-2.32535">
        <ele>-19.200000762939</ele>
        <time>2022-09-08T08:01:55.000Z</time>
      </trkpt>
      <trkpt lat="47.31806" lon="-2.32513">
        <ele>-19.200000762939</ele>
        <time>2022-09-08T08:02:00.000Z</time>
      </trkpt>
      <trkpt lat="47.318" lon="-2.325">
        <ele>-18.60000038147</ele>
        <time>2022-09-08T08:02:03.000Z</time>
      </trkpt>
      <trkpt lat="47.31797" lon="-2.32494">
        <ele>-18.200000762939</ele>
        <time>2022-09-08T08:02:04.000Z</time>
      </trkpt>
      <trkpt lat="47.31794" lon="-2.32488">
        <ele>-17.799999237061</ele>
        <time>2022-09-08T08:02:05.000Z</time>
      </trkpt>
      <trkpt lat="47.31791" lon="-2.32483">
        <ele>-17.39999961853</ele>
        <time>2022-09-08T08:02:06.000Z</time>
      </trkpt>
      <trkpt lat="47.31788" lon="-2.32478">
        <ele>-17</ele>
        <time>2022-09-08T08:02:07.000Z</time>
      </trkpt>
      <trkpt lat="47.31787" lon="-2.32472">
        <ele>-17</ele>
        <time>2022-09-08T08:02:08.000Z</time>
      </trkpt>
      <trkpt lat="47.31787" lon="-2.32458">
        <ele>-16.60000038147</ele>
        <time>2022-09-08T08:02:10.000Z</time>
      </trkpt>
      <trkpt lat="47.31786" lon="-2.32452">
        <ele>-16.200000762939</ele>
        <time>2022-09-08T08:02:11.000Z</time>
      </trkpt>
      <trkpt lat="47.31785" lon="-2.32446">
        <ele>-15.800000190735</ele>
        <time>2022-09-08T08:02:12.000Z</time>
      </trkpt>
      <trkpt lat="47.31785" lon="-2.3244">
        <ele>-15.39999961853</ele>
        <time>2022-09-08T08:02:13.000Z</time>
      </trkpt>
      <trkpt lat="47.31784" lon="-2.32434">
        <ele>-15</ele>
        <time>2022-09-08T08:02:14.000Z</time>
      </trkpt>
      <trkpt lat="47.31781" lon="-2.32414">
        <ele>-15</ele>
        <time>2022-09-08T08:02:18.000Z</time>
      </trkpt>
      <trkpt lat="47.31778" lon="-2.32381">
        <ele>-15</ele>
        <time>2022-09-08T08:02:24.000Z</time>
      </trkpt>
      <trkpt lat="47.31776" lon="-2.32367">
        <ele>-14.60000038147</ele>
        <time>2022-09-08T08:02:27.000Z</time>
      </trkpt>
      <trkpt lat="47.31775" lon="-2.32362">
        <ele>-14.199999809265</ele>
        <time>2022-09-08T08:02:28.000Z</time>
      </trkpt>
      <trkpt lat="47.31774" lon="-2.32358">
        <ele>-13.800000190735</ele>
        <time>2022-09-08T08:02:29.000Z</time>
      </trkpt>
      <trkpt lat="47.31773" lon="-2.32354">
        <ele>-13.39999961853</ele>
        <time>2022-09-08T08:02:30.000Z</time>
      </trkpt>
      <trkpt lat="47.31772" lon="-2.3235">
        <ele>-13</ele>
        <time>2022-09-08T08:02:31.000Z</time>
      </trkpt>
      <trkpt lat="47.31769" lon="-2.32332">
        <ele>-13</ele>
        <time>2022-09-08T08:02:36.000Z</time>
      </trkpt>
      <trkpt lat="47.31765" lon="-2.32308">
        <ele>-13</ele>
        <time>2022-09-08T08:02:42.000Z</time>
      </trkpt>
      <trkpt lat="47.3176" lon="-2.32278">
        <ele>-13</ele>
        <time>2022-09-08T08:02:48.000Z</time>
      </trkpt>
      <trkpt lat="47.31757" lon="-2.32263">
        <ele>-13</ele>
        <time>2022-09-08T08:02:52.000Z</time>
      </trkpt>
      <trkpt lat="47.31755" lon="-2.32243">
        <ele>-13</ele>
        <time>2022-09-08T08:02:57.000Z</time>
      </trkpt>
      <trkpt lat="47.31763" lon="-2.32235">
        <ele>-13</ele>
        <time>2022-09-08T08:03:01.000Z</time>
      </trkpt>
      <trkpt lat="47.31777" lon="-2.32232">
        <ele>-13</ele>
        <time>2022-09-08T08:03:05.000Z</time>
      </trkpt>
      <trkpt lat="47.3178" lon="-2.32231">
        <ele>-13</ele>
        <time>2022-09-08T08:03:06.000Z</time>
      </trkpt>
      <trkpt lat="47.31809" lon="-2.32227">
        <ele>-13</ele>
        <time>2022-09-08T08:03:13.000Z</time>
      </trkpt>
      <trkpt lat="47.31842" lon="-2.32221">
        <ele>-13.39999961853</ele>
        <time>2022-09-08T08:03:19.000Z</time>
      </trkpt>
      <trkpt lat="47.31848" lon="-2.32218">
        <ele>-13.800000190735</ele>
        <time>2022-09-08T08:03:20.000Z</time>
      </trkpt>
      <trkpt lat="47.31855" lon="-2.32216">
        <ele>-14.199999809265</ele>
        <time>2022-09-08T08:03:21.000Z</time>
      </trkpt>
      <trkpt lat="47.31862" lon="-2.32214">
        <ele>-14.60000038147</ele>
        <time>2022-09-08T08:03:22.000Z</time>
      </trkpt>
      <trkpt lat="47.31869" lon="-2.32212">
        <ele>-15</ele>
        <time>2022-09-08T08:03:23.000Z</time>
      </trkpt>
      <trkpt lat="47.31875" lon="-2.3221">
        <ele>-15.39999961853</ele>
        <time>2022-09-08T08:03:24.000Z</time>
      </trkpt>
      <trkpt lat="47.31882" lon="-2.32208">
        <ele>-15.800000190735</ele>
        <time>2022-09-08T08:03:25.000Z</time>
      </trkpt>
      <trkpt lat="47.31889" lon="-2.32206">
        <ele>-16.39999961853</ele>
        <time>2022-09-08T08:03:26.000Z</time>
      </trkpt>
      <trkpt lat="47.31897" lon="-2.32206">
        <ele>-16.799999237061</ele>
        <time>2022-09-08T08:03:27.000Z</time>
      </trkpt>
      <trkpt lat="47.31905" lon="-2.32205">
        <ele>-17.200000762939</ele>
        <time>2022-09-08T08:03:28.000Z</time>
      </trkpt>
      <trkpt lat="47.31913" lon="-2.32205">
        <ele>-17.200000762939</ele>
        <time>2022-09-08T08:03:29.000Z</time>
      </trkpt>
      <trkpt lat="47.31921" lon="-2.32206">
        <ele>-17.60000038147</ele>
        <time>2022-09-08T08:03:30.000Z</time>
      </trkpt>
      <trkpt lat="47.31928" lon="-2.32208">
        <ele>-18.200000762939</ele>
        <time>2022-09-08T08:03:31.000Z</time>
      </trkpt>
      <trkpt lat="47.31936" lon="-2.32209">
        <ele>-18.60000038147</ele>
        <time>2022-09-08T08:03:32.000Z</time>
      </trkpt>
      <trkpt lat="47.31942" lon="-2.32211">
        <ele>-19.200000762939</ele>
        <time>2022-09-08T08:03:33.000Z</time>
      </trkpt>
      <trkpt lat="47.31947" lon="-2.32213">
        <ele>-19.60000038147</ele>
        <time>2022-09-08T08:03:34.000Z</time>
      </trkpt>
      <trkpt lat="47.31952" lon="-2.32216">
        <ele>-20.200000762939</ele>
        <time>2022-09-08T08:03:35.000Z</time>
      </trkpt>
      <trkpt lat="47.31954" lon="-2.32221">
        <ele>-20.799999237061</ele>
        <time>2022-09-08T08:03:36.000Z</time>
      </trkpt>
      <trkpt lat="47.31956" lon="-2.32227">
        <ele>-21.39999961853</ele>
        <time>2022-09-08T08:03:37.000Z</time>
      </trkpt>
      <trkpt lat="47.31955" lon="-2.32232">
        <ele>-22</ele>
        <time>2022-09-08T08:03:38.000Z</time>
      </trkpt>
      <trkpt lat="47.31951" lon="-2.32243">
        <ele>-22</ele>
        <time>2022-09-08T08:03:40.000Z</time>
      </trkpt>
      <trkpt lat="47.31949" lon="-2.32248">
        <ele>-22</ele>
        <time>2022-09-08T08:03:41.000Z</time>
      </trkpt>
      <trkpt lat="47.31948" lon="-2.32254">
        <ele>-22</ele>
        <time>2022-09-08T08:03:42.000Z</time>
      </trkpt>
      <trkpt lat="47.31949" lon="-2.32258">
        <ele>-22.39999961853</ele>
        <time>2022-09-08T08:03:43.000Z</time>
      </trkpt>
      <trkpt lat="47.31951" lon="-2.32262">
        <ele>-22.799999237061</ele>
        <time>2022-09-08T08:03:44.000Z</time>
      </trkpt>
      <trkpt lat="47.31954" lon="-2.32264">
        <ele>-23.200000762939</ele>
        <time>2022-09-08T08:03:45.000Z</time>
      </trkpt>
      <trkpt lat="47.31957" lon="-2.32261">
        <ele>-23.799999237061</ele>
        <time>2022-09-08T08:03:46.000Z</time>
      </trkpt>
      <trkpt lat="47.31961" lon="-2.32256">
        <ele>-24.200000762939</ele>
        <time>2022-09-08T08:03:47.000Z</time>
      </trkpt>
      <trkpt lat="47.31963" lon="-2.32251">
        <ele>-24.60000038147</ele>
        <time>2022-09-08T08:03:48.000Z</time>
      </trkpt>
      <trkpt lat="47.31967" lon="-2.32244">
        <ele>-25</ele>
        <time>2022-09-08T08:03:49.000Z</time>
      </trkpt>
      <trkpt lat="47.31971" lon="-2.32238">
        <ele>-25.60000038147</ele>
        <time>2022-09-08T08:03:50.000Z</time>
      </trkpt>
      <trkpt lat="47.31975" lon="-2.32232">
        <ele>-26</ele>
        <time>2022-09-08T08:03:51.000Z</time>
      </trkpt>
      <trkpt lat="47.31981" lon="-2.32225">
        <ele>-26.39999961853</ele>
        <time>2022-09-08T08:03:52.000Z</time>
      </trkpt>
      <trkpt lat="47.31987" lon="-2.32219">
        <ele>-27</ele>
        <time>2022-09-08T08:03:53.000Z</time>
      </trkpt>
      <trkpt lat="47.31993" lon="-2.32212">
        <ele>-27.39999961853</ele>
        <time>2022-09-08T08:03:54.000Z</time>
      </trkpt>
      <trkpt lat="47.31999" lon="-2.32206">
        <ele>-28</ele>
        <time>2022-09-08T08:03:55.000Z</time>
      </trkpt>
      <trkpt lat="47.32005" lon="-2.322">
        <ele>-28.39999961853</ele>
        <time>2022-09-08T08:03:56.000Z</time>
      </trkpt>
      <trkpt lat="47.32023" lon="-2.32185">
        <ele>-28.799999237061</ele>
        <time>2022-09-08T08:03:59.000Z</time>
      </trkpt>
      <trkpt lat="47.3203" lon="-2.32185">
        <ele>-28.799999237061</ele>
        <time>2022-09-08T08:04:00.000Z</time>
      </trkpt>
      <trkpt lat="47.32067" lon="-2.32184">
        <ele>-29.200000762939</ele>
        <time>2022-09-08T08:04:05.000Z</time>
      </trkpt>
      <trkpt lat="47.32074" lon="-2.32183">
        <ele>-29.60000038147</ele>
        <time>2022-09-08T08:04:06.000Z</time>
      </trkpt>
      <trkpt lat="47.32082" lon="-2.32182">
        <ele>-30</ele>
        <time>2022-09-08T08:04:07.000Z</time>
      </trkpt>
      <trkpt lat="47.32089" lon="-2.32181">
        <ele>-30.39999961853</ele>
        <time>2022-09-08T08:04:08.000Z</time>
      </trkpt>
      <trkpt lat="47.32096" lon="-2.3218">
        <ele>-30.799999237061</ele>
        <time>2022-09-08T08:04:09.000Z</time>
      </trkpt>
      <trkpt lat="47.32118" lon="-2.32177">
        <ele>-30.799999237061</ele>
        <time>2022-09-08T08:04:12.000Z</time>
      </trkpt>
      <trkpt lat="47.32132" lon="-2.32171">
        <ele>-31.200000762939</ele>
        <time>2022-09-08T08:04:14.000Z</time>
      </trkpt>
      <trkpt lat="47.32139" lon="-2.32166">
        <ele>-31.799999237061</ele>
        <time>2022-09-08T08:04:15.000Z</time>
      </trkpt>
      <trkpt lat="47.32146" lon="-2.32161">
        <ele>-32.200000762939</ele>
        <time>2022-09-08T08:04:16.000Z</time>
      </trkpt>
      <trkpt lat="47.32152" lon="-2.32156">
        <ele>-32.599998474121</ele>
        <time>2022-09-08T08:04:17.000Z</time>
      </trkpt>
      <trkpt lat="47.32157" lon="-2.3215">
        <ele>-33</ele>
        <time>2022-09-08T08:04:18.000Z</time>
      </trkpt>
      <trkpt lat="47.32167" lon="-2.3214">
        <ele>-33</ele>
        <time>2022-09-08T08:04:20.000Z</time>
      </trkpt>
      <trkpt lat="47.3219" lon="-2.32121">
        <ele>-33</ele>
        <time>2022-09-08T08:04:25.000Z</time>
      </trkpt>
      <trkpt lat="47.32194" lon="-2.32118">
        <ele>-33</ele>
        <time>2022-09-08T08:04:27.000Z</time>
      </trkpt>
      <trkpt lat="47.32194" lon="-2.32117">
        <ele>-33</ele>
        <time>2022-09-08T08:04:28.000Z</time>
      </trkpt>
      <trkpt lat="47.32194" lon="-2.32116">
        <ele>-33</ele>
        <time>2022-09-08T08:04:32.000Z</time>
      </trkpt>
      <trkpt lat="47.32195" lon="-2.32113">
        <ele>-33</ele>
        <time>2022-09-08T08:04:35.000Z</time>
      </trkpt>
      <trkpt lat="47.32204" lon="-2.32115">
        <ele>-33</ele>
        <time>2022-09-08T08:04:39.000Z</time>
      </trkpt>
      <trkpt lat="47.32221" lon="-2.32112">
        <ele>-33</ele>
        <time>2022-09-08T08:04:43.000Z</time>
      </trkpt>
      <trkpt lat="47.32255" lon="-2.32103">
        <ele>-33</ele>
        <time>2022-09-08T08:04:50.000Z</time>
      </trkpt>
      <trkpt lat="47.32281" lon="-2.321">
        <ele>-33</ele>
        <time>2022-09-08T08:04:55.000Z</time>
      </trkpt>
      <trkpt lat="47.32286" lon="-2.32099">
        <ele>-33</ele>
        <time>2022-09-08T08:04:56.000Z</time>
      </trkpt>
      <trkpt lat="47.323" lon="-2.32099">
        <ele>-32.599998474121</ele>
        <time>2022-09-08T08:04:59.000Z</time>
      </trkpt>
      <trkpt lat="47.32305" lon="-2.32099">
        <ele>-32.200000762939</ele>
        <time>2022-09-08T08:05:00.000Z</time>
      </trkpt>
      <trkpt lat="47.3231" lon="-2.321">
        <ele>-31.799999237061</ele>
        <time>2022-09-08T08:05:01.000Z</time>
      </trkpt>
      <trkpt lat="47.32315" lon="-2.32101">
        <ele>-31.200000762939</ele>
        <time>2022-09-08T08:05:02.000Z</time>
      </trkpt>
      <trkpt lat="47.3232" lon="-2.32102">
        <ele>-30.799999237061</ele>
        <time>2022-09-08T08:05:03.000Z</time>
      </trkpt>
      <trkpt lat="47.32325" lon="-2.32102">
        <ele>-30.799999237061</ele>
        <time>2022-09-08T08:05:04.000Z</time>
      </trkpt>
      <trkpt lat="47.3235" lon="-2.32104">
        <ele>-30.799999237061</ele>
        <time>2022-09-08T08:05:09.000Z</time>
      </trkpt>
      <trkpt lat="47.32364" lon="-2.32106">
        <ele>-30.799999237061</ele>
        <time>2022-09-08T08:05:12.000Z</time>
      </trkpt>
      <trkpt lat="47.32374" lon="-2.32105">
        <ele>-30.799999237061</ele>
        <time>2022-09-08T08:05:14.000Z</time>
      </trkpt>
      <trkpt lat="47.32406" lon="-2.32102">
        <ele>-30.799999237061</ele>
        <time>2022-09-08T08:05:20.000Z</time>
      </trkpt>
      <trkpt lat="47.32447" lon="-2.321">
        <ele>-30.799999237061</ele>
        <time>2022-09-08T08:05:27.000Z</time>
      </trkpt>
      <trkpt lat="47.3248" lon="-2.32098">
        <ele>-30.799999237061</ele>
        <time>2022-09-08T08:05:33.000Z</time>
      </trkpt>
      <trkpt lat="47.32494" lon="-2.32095">
        <ele>-30.799999237061</ele>
        <time>2022-09-08T08:05:36.000Z</time>
      </trkpt>
      <trkpt lat="47.32497" lon="-2.3209">
        <ele>-30.799999237061</ele>
        <time>2022-09-08T08:05:37.000Z</time>
      </trkpt>
      <trkpt lat="47.325" lon="-2.32072">
        <ele>-30.799999237061</ele>
        <time>2022-09-08T08:05:40.000Z</time>
      </trkpt>
      <trkpt lat="47.32501" lon="-2.32064">
        <ele>-30.799999237061</ele>
        <time>2022-09-08T08:05:41.000Z</time>
      </trkpt>
      <trkpt lat="47.325" lon="-2.32057">
        <ele>-30.799999237061</ele>
        <time>2022-09-08T08:05:42.000Z</time>
      </trkpt>
      <trkpt lat="47.325" lon="-2.32032">
        <ele>-30.799999237061</ele>
        <time>2022-09-08T08:05:45.000Z</time>
      </trkpt>
      <trkpt lat="47.32501" lon="-2.32024">
        <ele>-30.799999237061</ele>
        <time>2022-09-08T08:05:46.000Z</time>
      </trkpt>
      <trkpt lat="47.32501" lon="-2.32001">
        <ele>-30.799999237061</ele>
        <time>2022-09-08T08:05:49.000Z</time>
      </trkpt>
      <trkpt lat="47.32501" lon="-2.31993">
        <ele>-30.799999237061</ele>
        <time>2022-09-08T08:05:50.000Z</time>
      </trkpt>
      <trkpt lat="47.32503" lon="-2.31959">
        <ele>-30.799999237061</ele>
        <time>2022-09-08T08:05:54.000Z</time>
      </trkpt>
      <trkpt lat="47.32509" lon="-2.31915">
        <ele>-30.799999237061</ele>
        <time>2022-09-08T08:05:59.000Z</time>
      </trkpt>
      <trkpt lat="47.32517" lon="-2.31854">
        <ele>-30.799999237061</ele>
        <time>2022-09-08T08:06:06.000Z</time>
      </trkpt>
      <trkpt lat="47.32517" lon="-2.31828">
        <ele>-30.799999237061</ele>
        <time>2022-09-08T08:06:09.000Z</time>
      </trkpt>
      <trkpt lat="47.32516" lon="-2.31804">
        <ele>-30.799999237061</ele>
        <time>2022-09-08T08:06:12.000Z</time>
      </trkpt>
      <trkpt lat="47.32511" lon="-2.31755">
        <ele>-30.799999237061</ele>
        <time>2022-09-08T08:06:18.000Z</time>
      </trkpt>
      <trkpt lat="47.32508" lon="-2.31708">
        <ele>-30.799999237061</ele>
        <time>2022-09-08T08:06:24.000Z</time>
      </trkpt>
      <trkpt lat="47.32507" lon="-2.31659">
        <ele>-30.799999237061</ele>
        <time>2022-09-08T08:06:30.000Z</time>
      </trkpt>
      <trkpt lat="47.32508" lon="-2.31651">
        <ele>-30.799999237061</ele>
        <time>2022-09-08T08:06:31.000Z</time>
      </trkpt>
      <trkpt lat="47.32518" lon="-2.31634">
        <ele>-30.799999237061</ele>
        <time>2022-09-08T08:06:34.000Z</time>
      </trkpt>
      <trkpt lat="47.32522" lon="-2.31629">
        <ele>-30.799999237061</ele>
        <time>2022-09-08T08:06:35.000Z</time>
      </trkpt>
      <trkpt lat="47.3254" lon="-2.31604">
        <ele>-30.799999237061</ele>
        <time>2022-09-08T08:06:39.000Z</time>
      </trkpt>
      <trkpt lat="47.32559" lon="-2.31584">
        <ele>-30.799999237061</ele>
        <time>2022-09-08T08:06:43.000Z</time>
      </trkpt>
      <trkpt lat="47.32564" lon="-2.31581">
        <ele>-30.799999237061</ele>
        <time>2022-09-08T08:06:44.000Z</time>
      </trkpt>
      <trkpt lat="47.32591" lon="-2.31569">
        <ele>-30.799999237061</ele>
        <time>2022-09-08T08:06:49.000Z</time>
      </trkpt>
      <trkpt lat="47.32609" lon="-2.31561">
        <ele>-30.799999237061</ele>
        <time>2022-09-08T08:06:53.000Z</time>
      </trkpt>
      <trkpt lat="47.32618" lon="-2.31557">
        <ele>-30.799999237061</ele>
        <time>2022-09-08T08:06:55.000Z</time>
      </trkpt>
      <trkpt lat="47.32641" lon="-2.31548">
        <ele>-30.799999237061</ele>
        <time>2022-09-08T08:07:01.000Z</time>
      </trkpt>
      <trkpt lat="47.32646" lon="-2.31547">
        <ele>-30.799999237061</ele>
        <time>2022-09-08T08:07:02.000Z</time>
      </trkpt>
      <trkpt lat="47.32661" lon="-2.31541">
        <ele>-30.799999237061</ele>
        <time>2022-09-08T08:07:05.000Z</time>
      </trkpt>
      <trkpt lat="47.32665" lon="-2.31538">
        <ele>-30.799999237061</ele>
        <time>2022-09-08T08:07:06.000Z</time>
      </trkpt>
      <trkpt lat="47.32678" lon="-2.31529">
        <ele>-30.799999237061</ele>
        <time>2022-09-08T08:07:09.000Z</time>
      </trkpt>
      <trkpt lat="47.32691" lon="-2.3152">
        <ele>-31.200000762939</ele>
        <time>2022-09-08T08:07:12.000Z</time>
      </trkpt>
      <trkpt lat="47.32695" lon="-2.31517">
        <ele>-31.799999237061</ele>
        <time>2022-09-08T08:07:13.000Z</time>
      </trkpt>
      <trkpt lat="47.327" lon="-2.31514">
        <ele>-32.200000762939</ele>
        <time>2022-09-08T08:07:14.000Z</time>
      </trkpt>
      <trkpt lat="47.32704" lon="-2.31511">
        <ele>-32.599998474121</ele>
        <time>2022-09-08T08:07:15.000Z</time>
      </trkpt>
      <trkpt lat="47.32709" lon="-2.31507">
        <ele>-33</ele>
        <time>2022-09-08T08:07:16.000Z</time>
      </trkpt>
      <trkpt lat="47.32713" lon="-2.31504">
        <ele>-33</ele>
        <time>2022-09-08T08:07:17.000Z</time>
      </trkpt>
      <trkpt lat="47.32733" lon="-2.31485">
        <ele>-33</ele>
        <time>2022-09-08T08:07:22.000Z</time>
      </trkpt>
      <trkpt lat="47.32736" lon="-2.3148">
        <ele>-33</ele>
        <time>2022-09-08T08:07:23.000Z</time>
      </trkpt>
      <trkpt lat="47.32758" lon="-2.31442">
        <ele>-33</ele>
        <time>2022-09-08T08:07:30.000Z</time>
      </trkpt>
      <trkpt lat="47.32771" lon="-2.3142">
        <ele>-33</ele>
        <time>2022-09-08T08:07:34.000Z</time>
      </trkpt>
      <trkpt lat="47.32776" lon="-2.31415">
        <ele>-33</ele>
        <time>2022-09-08T08:07:35.000Z</time>
      </trkpt>
      <trkpt lat="47.32803" lon="-2.31394">
        <ele>-33</ele>
        <time>2022-09-08T08:07:40.000Z</time>
      </trkpt>
      <trkpt lat="47.32808" lon="-2.31389">
        <ele>-33.400001525879</ele>
        <time>2022-09-08T08:07:41.000Z</time>
      </trkpt>
      <trkpt lat="47.32814" lon="-2.31385">
        <ele>-33.799999237061</ele>
        <time>2022-09-08T08:07:42.000Z</time>
      </trkpt>
      <trkpt lat="47.3282" lon="-2.3138">
        <ele>-34.200000762939</ele>
        <time>2022-09-08T08:07:43.000Z</time>
      </trkpt>
      <trkpt lat="47.32826" lon="-2.31376">
        <ele>-34.599998474121</ele>
        <time>2022-09-08T08:07:44.000Z</time>
      </trkpt>
      <trkpt lat="47.32831" lon="-2.3137">
        <ele>-35</ele>
        <time>2022-09-08T08:07:45.000Z</time>
      </trkpt>
      <trkpt lat="47.32835" lon="-2.31363">
        <ele>-35</ele>
        <time>2022-09-08T08:07:46.000Z</time>
      </trkpt>
      <trkpt lat="47.32843" lon="-2.31337">
        <ele>-35</ele>
        <time>2022-09-08T08:07:49.000Z</time>
      </trkpt>
      <trkpt lat="47.32844" lon="-2.31328">
        <ele>-35</ele>
        <time>2022-09-08T08:07:50.000Z</time>
      </trkpt>
      <trkpt lat="47.32846" lon="-2.3132">
        <ele>-35</ele>
        <time>2022-09-08T08:07:51.000Z</time>
      </trkpt>
      <trkpt lat="47.32855" lon="-2.3131">
        <ele>-35</ele>
        <time>2022-09-08T08:07:53.000Z</time>
      </trkpt>
      <trkpt lat="47.32865" lon="-2.31304">
        <ele>-35</ele>
        <time>2022-09-08T08:07:55.000Z</time>
      </trkpt>
      <trkpt lat="47.32877" lon="-2.313">
        <ele>-35</ele>
        <time>2022-09-08T08:07:57.000Z</time>
      </trkpt>
      <trkpt lat="47.32911" lon="-2.31286">
        <ele>-35</ele>
        <time>2022-09-08T08:08:03.000Z</time>
      </trkpt>
      <trkpt lat="47.32916" lon="-2.31283">
        <ele>-35.400001525879</ele>
        <time>2022-09-08T08:08:04.000Z</time>
      </trkpt>
      <trkpt lat="47.32921" lon="-2.31279">
        <ele>-35.799999237061</ele>
        <time>2022-09-08T08:08:05.000Z</time>
      </trkpt>
      <trkpt lat="47.32926" lon="-2.31274">
        <ele>-36.200000762939</ele>
        <time>2022-09-08T08:08:06.000Z</time>
      </trkpt>
      <trkpt lat="47.3293" lon="-2.3127">
        <ele>-36.599998474121</ele>
        <time>2022-09-08T08:08:07.000Z</time>
      </trkpt>
      <trkpt lat="47.32933" lon="-2.31263">
        <ele>-37.200000762939</ele>
        <time>2022-09-08T08:08:08.000Z</time>
      </trkpt>
      <trkpt lat="47.32933" lon="-2.3124">
        <ele>-37.200000762939</ele>
        <time>2022-09-08T08:08:11.000Z</time>
      </trkpt>
      <trkpt lat="47.32929" lon="-2.31227">
        <ele>-37.200000762939</ele>
        <time>2022-09-08T08:08:13.000Z</time>
      </trkpt>
      <trkpt lat="47.32922" lon="-2.31202">
        <ele>-37.200000762939</ele>
        <time>2022-09-08T08:08:17.000Z</time>
      </trkpt>
      <trkpt lat="47.32921" lon="-2.31196">
        <ele>-37.200000762939</ele>
        <time>2022-09-08T08:08:18.000Z</time>
      </trkpt>
      <trkpt lat="47.32912" lon="-2.31161">
        <ele>-37.200000762939</ele>
        <time>2022-09-08T08:08:24.000Z</time>
      </trkpt>
      <trkpt lat="47.32905" lon="-2.31137">
        <ele>-37.200000762939</ele>
        <time>2022-09-08T08:08:28.000Z</time>
      </trkpt>
      <trkpt lat="47.32902" lon="-2.31123">
        <ele>-37.200000762939</ele>
        <time>2022-09-08T08:08:30.000Z</time>
      </trkpt>
      <trkpt lat="47.32893" lon="-2.31069">
        <ele>-37.200000762939</ele>
        <time>2022-09-08T08:08:37.000Z</time>
      </trkpt>
      <trkpt lat="47.32892" lon="-2.3106">
        <ele>-37.200000762939</ele>
        <time>2022-09-08T08:08:38.000Z</time>
      </trkpt>
      <trkpt lat="47.32891" lon="-2.3102">
        <ele>-37.200000762939</ele>
        <time>2022-09-08T08:08:43.000Z</time>
      </trkpt>
      <trkpt lat="47.32897" lon="-2.30956">
        <ele>-37.200000762939</ele>
        <time>2022-09-08T08:08:51.000Z</time>
      </trkpt>
      <trkpt lat="47.32898" lon="-2.30948">
        <ele>-37.200000762939</ele>
        <time>2022-09-08T08:08:52.000Z</time>
      </trkpt>
      <trkpt lat="47.32901" lon="-2.30909">
        <ele>-37.200000762939</ele>
        <time>2022-09-08T08:08:57.000Z</time>
      </trkpt>
      <trkpt lat="47.32903" lon="-2.30871">
        <ele>-37.200000762939</ele>
        <time>2022-09-08T08:09:02.000Z</time>
      </trkpt>
      <trkpt lat="47.32906" lon="-2.30839">
        <ele>-37.200000762939</ele>
        <time>2022-09-08T08:09:06.000Z</time>
      </trkpt>
      <trkpt lat="47.32908" lon="-2.30819">
        <ele>-37.200000762939</ele>
        <time>2022-09-08T08:09:09.000Z</time>
      </trkpt>
      <trkpt lat="47.32912" lon="-2.30795">
        <ele>-37.200000762939</ele>
        <time>2022-09-08T08:09:14.000Z</time>
      </trkpt>
      <trkpt lat="47.32912" lon="-2.30784">
        <ele>-37.200000762939</ele>
        <time>2022-09-08T08:09:18.000Z</time>
      </trkpt>
      <trkpt lat="47.32915" lon="-2.30787">
        <ele>-37.200000762939</ele>
        <time>2022-09-08T08:09:21.000Z</time>
      </trkpt>
      <trkpt lat="47.32915" lon="-2.30804">
        <ele>-37.200000762939</ele>
        <time>2022-09-08T08:09:25.000Z</time>
      </trkpt>
      <trkpt lat="47.32924" lon="-2.30811">
        <ele>-37.200000762939</ele>
        <time>2022-09-08T08:09:28.000Z</time>
      </trkpt>
      <trkpt lat="47.32942" lon="-2.30811">
        <ele>-37.200000762939</ele>
        <time>2022-09-08T08:09:31.000Z</time>
      </trkpt>
      <trkpt lat="47.32949" lon="-2.3081">
        <ele>-37.200000762939</ele>
        <time>2022-09-08T08:09:32.000Z</time>
      </trkpt>
      <trkpt lat="47.32988" lon="-2.30808">
        <ele>-37.200000762939</ele>
        <time>2022-09-08T08:09:38.000Z</time>
      </trkpt>
      <trkpt lat="47.33033" lon="-2.3081">
        <ele>-37.200000762939</ele>
        <time>2022-09-08T08:09:45.000Z</time>
      </trkpt>
      <trkpt lat="47.33046" lon="-2.30806">
        <ele>-37.599998474121</ele>
        <time>2022-09-08T08:09:47.000Z</time>
      </trkpt>
      <trkpt lat="47.3305" lon="-2.30801">
        <ele>-38</ele>
        <time>2022-09-08T08:09:48.000Z</time>
      </trkpt>
      <trkpt lat="47.33053" lon="-2.30793">
        <ele>-38.400001525879</ele>
        <time>2022-09-08T08:09:49.000Z</time>
      </trkpt>
      <trkpt lat="47.33055" lon="-2.30785">
        <ele>-38.799999237061</ele>
        <time>2022-09-08T08:09:50.000Z</time>
      </trkpt>
      <trkpt lat="47.33057" lon="-2.30776">
        <ele>-39.400001525879</ele>
        <time>2022-09-08T08:09:51.000Z</time>
      </trkpt>
      <trkpt lat="47.33058" lon="-2.30768">
        <ele>-39.400001525879</ele>
        <time>2022-09-08T08:09:52.000Z</time>
      </trkpt>
      <trkpt lat="47.3306" lon="-2.3076">
        <ele>-39.400001525879</ele>
        <time>2022-09-08T08:09:53.000Z</time>
      </trkpt>
      <trkpt lat="47.33068" lon="-2.30717">
        <ele>-39.400001525879</ele>
        <time>2022-09-08T08:09:58.000Z</time>
      </trkpt>
      <trkpt lat="47.3307" lon="-2.30709">
        <ele>-39.400001525879</ele>
        <time>2022-09-08T08:09:59.000Z</time>
      </trkpt>
      <trkpt lat="47.33078" lon="-2.30666">
        <ele>-39.400001525879</ele>
        <time>2022-09-08T08:10:04.000Z</time>
      </trkpt>
      <trkpt lat="47.33085" lon="-2.30616">
        <ele>-39.400001525879</ele>
        <time>2022-09-08T08:10:10.000Z</time>
      </trkpt>
      <trkpt lat="47.33087" lon="-2.306">
        <ele>-39.400001525879</ele>
        <time>2022-09-08T08:10:12.000Z</time>
      </trkpt>
      <trkpt lat="47.33091" lon="-2.30587">
        <ele>-39.400001525879</ele>
        <time>2022-09-08T08:10:14.000Z</time>
      </trkpt>
      <trkpt lat="47.33102" lon="-2.30574">
        <ele>-39.400001525879</ele>
        <time>2022-09-08T08:10:17.000Z</time>
      </trkpt>
      <trkpt lat="47.33109" lon="-2.30571">
        <ele>-39.400001525879</ele>
        <time>2022-09-08T08:10:19.000Z</time>
      </trkpt>
      <trkpt lat="47.33118" lon="-2.30567">
        <ele>-39.400001525879</ele>
        <time>2022-09-08T08:10:21.000Z</time>
      </trkpt>
      <trkpt lat="47.33143" lon="-2.30555">
        <ele>-39.400001525879</ele>
        <time>2022-09-08T08:10:26.000Z</time>
      </trkpt>
      <trkpt lat="47.33148" lon="-2.30552">
        <ele>-39.400001525879</ele>
        <time>2022-09-08T08:10:27.000Z</time>
      </trkpt>
      <trkpt lat="47.3316" lon="-2.30548">
        <ele>-39.400001525879</ele>
        <time>2022-09-08T08:10:29.000Z</time>
      </trkpt>
      <trkpt lat="47.33181" lon="-2.3054">
        <ele>-39.400001525879</ele>
        <time>2022-09-08T08:10:32.000Z</time>
      </trkpt>
      <trkpt lat="47.33218" lon="-2.30527">
        <ele>-39.400001525879</ele>
        <time>2022-09-08T08:10:38.000Z</time>
      </trkpt>
      <trkpt lat="47.33247" lon="-2.30518">
        <ele>-39.400001525879</ele>
        <time>2022-09-08T08:10:43.000Z</time>
      </trkpt>
      <trkpt lat="47.33259" lon="-2.30516">
        <ele>-39.400001525879</ele>
        <time>2022-09-08T08:10:45.000Z</time>
      </trkpt>
      <trkpt lat="47.33282" lon="-2.30513">
        <ele>-39.400001525879</ele>
        <time>2022-09-08T08:10:49.000Z</time>
      </trkpt>
      <trkpt lat="47.33306" lon="-2.30507">
        <ele>-39.400001525879</ele>
        <time>2022-09-08T08:10:54.000Z</time>
      </trkpt>
      <trkpt lat="47.33313" lon="-2.30504">
        <ele>-39.799999237061</ele>
        <time>2022-09-08T08:10:56.000Z</time>
      </trkpt>
      <trkpt lat="47.33315" lon="-2.30503">
        <ele>-40.200000762939</ele>
        <time>2022-09-08T08:10:57.000Z</time>
      </trkpt>
      <trkpt lat="47.33317" lon="-2.30503">
        <ele>-40.599998474121</ele>
        <time>2022-09-08T08:10:58.000Z</time>
      </trkpt>
      <trkpt lat="47.33319" lon="-2.30503">
        <ele>-41</ele>
        <time>2022-09-08T08:10:59.000Z</time>
      </trkpt>
      <trkpt lat="47.3332" lon="-2.30502">
        <ele>-41.400001525879</ele>
        <time>2022-09-08T08:11:00.000Z</time>
      </trkpt>
      <trkpt lat="47.33321" lon="-2.30502">
        <ele>-41.400001525879</ele>
        <time>2022-09-08T08:11:01.000Z</time>
      </trkpt>
      <trkpt lat="47.33329" lon="-2.30501">
        <ele>-41.400001525879</ele>
        <time>2022-09-08T08:11:23.000Z</time>
      </trkpt>
      <trkpt lat="47.33331" lon="-2.305">
        <ele>-41.400001525879</ele>
        <time>2022-09-08T08:11:24.000Z</time>
      </trkpt>
      <trkpt lat="47.33338" lon="-2.30491">
        <ele>-41.400001525879</ele>
        <time>2022-09-08T08:11:29.000Z</time>
      </trkpt>
      <trkpt lat="47.3334" lon="-2.30487">
        <ele>-41.400001525879</ele>
        <time>2022-09-08T08:11:30.000Z</time>
      </trkpt>
      <trkpt lat="47.33341" lon="-2.30477">
        <ele>-41.400001525879</ele>
        <time>2022-09-08T08:11:32.000Z</time>
      </trkpt>
      <trkpt lat="47.33339" lon="-2.30447">
        <ele>-41.400001525879</ele>
        <time>2022-09-08T08:11:38.000Z</time>
      </trkpt>
      <trkpt lat="47.33345" lon="-2.30414">
        <ele>-41.400001525879</ele>
        <time>2022-09-08T08:11:43.000Z</time>
      </trkpt>
      <trkpt lat="47.33356" lon="-2.30401">
        <ele>-41.400001525879</ele>
        <time>2022-09-08T08:11:46.000Z</time>
      </trkpt>
      <trkpt lat="47.3337" lon="-2.30394">
        <ele>-41.400001525879</ele>
        <time>2022-09-08T08:11:49.000Z</time>
      </trkpt>
      <trkpt lat="47.33374" lon="-2.30391">
        <ele>-41.400001525879</ele>
        <time>2022-09-08T08:11:50.000Z</time>
      </trkpt>
      <trkpt lat="47.33378" lon="-2.30387">
        <ele>-41.400001525879</ele>
        <time>2022-09-08T08:11:51.000Z</time>
      </trkpt>
      <trkpt lat="47.33386" lon="-2.30363">
        <ele>-41.400001525879</ele>
        <time>2022-09-08T08:11:55.000Z</time>
      </trkpt>
      <trkpt lat="47.33387" lon="-2.30357">
        <ele>-41.400001525879</ele>
        <time>2022-09-08T08:11:56.000Z</time>
      </trkpt>
      <trkpt lat="47.33389" lon="-2.30338">
        <ele>-41.400001525879</ele>
        <time>2022-09-08T08:11:59.000Z</time>
      </trkpt>
      <trkpt lat="47.3339" lon="-2.30332">
        <ele>-41.400001525879</ele>
        <time>2022-09-08T08:12:00.000Z</time>
      </trkpt>
      <trkpt lat="47.3339" lon="-2.30306">
        <ele>-41.400001525879</ele>
        <time>2022-09-08T08:12:05.000Z</time>
      </trkpt>
      <trkpt lat="47.33389" lon="-2.30287">
        <ele>-41.400001525879</ele>
        <time>2022-09-08T08:12:08.000Z</time>
      </trkpt>
      <trkpt lat="47.33388" lon="-2.30275">
        <ele>-41.400001525879</ele>
        <time>2022-09-08T08:12:10.000Z</time>
      </trkpt>
      <trkpt lat="47.33394" lon="-2.30249">
        <ele>-41.400001525879</ele>
        <time>2022-09-08T08:12:14.000Z</time>
      </trkpt>
      <trkpt lat="47.33397" lon="-2.30236">
        <ele>-41.400001525879</ele>
        <time>2022-09-08T08:12:16.000Z</time>
      </trkpt>
      <trkpt lat="47.33405" lon="-2.30212">
        <ele>-41.400001525879</ele>
        <time>2022-09-08T08:12:20.000Z</time>
      </trkpt>
      <trkpt lat="47.33411" lon="-2.30193">
        <ele>-41.400001525879</ele>
        <time>2022-09-08T08:12:23.000Z</time>
      </trkpt>
      <trkpt lat="47.33416" lon="-2.30181">
        <ele>-41.400001525879</ele>
        <time>2022-09-08T08:12:25.000Z</time>
      </trkpt>
      <trkpt lat="47.33425" lon="-2.30164">
        <ele>-41.400001525879</ele>
        <time>2022-09-08T08:12:28.000Z</time>
      </trkpt>
      <trkpt lat="47.33432" lon="-2.30156">
        <ele>-41.400001525879</ele>
        <time>2022-09-08T08:12:30.000Z</time>
      </trkpt>
      <trkpt lat="47.33438" lon="-2.30148">
        <ele>-41.400001525879</ele>
        <time>2022-09-08T08:12:32.000Z</time>
      </trkpt>
      <trkpt lat="47.33444" lon="-2.30131">
        <ele>-41.400001525879</ele>
        <time>2022-09-08T08:12:35.000Z</time>
      </trkpt>
      <trkpt lat="47.33448" lon="-2.30118">
        <ele>-41.400001525879</ele>
        <time>2022-09-08T08:12:38.000Z</time>
      </trkpt>
      <trkpt lat="47.33451" lon="-2.30108">
        <ele>-41.400001525879</ele>
        <time>2022-09-08T08:12:40.000Z</time>
      </trkpt>
      <trkpt lat="47.33459" lon="-2.30086">
        <ele>-41.400001525879</ele>
        <time>2022-09-08T08:12:45.000Z</time>
      </trkpt>
      <trkpt lat="47.33465" lon="-2.30058">
        <ele>-41.400001525879</ele>
        <time>2022-09-08T08:12:50.000Z</time>
      </trkpt>
      <trkpt lat="47.33471" lon="-2.30036">
        <ele>-41.400001525879</ele>
        <time>2022-09-08T08:12:54.000Z</time>
      </trkpt>
      <trkpt lat="47.33473" lon="-2.3003">
        <ele>-41.400001525879</ele>
        <time>2022-09-08T08:12:55.000Z</time>
      </trkpt>
      <trkpt lat="47.33483" lon="-2.30007">
        <ele>-41.400001525879</ele>
        <time>2022-09-08T08:12:59.000Z</time>
      </trkpt>
      <trkpt lat="47.33496" lon="-2.30001">
        <ele>-41.400001525879</ele>
        <time>2022-09-08T08:13:02.000Z</time>
      </trkpt>
      <trkpt lat="47.3351" lon="-2.30001">
        <ele>-41.400001525879</ele>
        <time>2022-09-08T08:13:05.000Z</time>
      </trkpt>
      <trkpt lat="47.3352" lon="-2.30002">
        <ele>-41.400001525879</ele>
        <time>2022-09-08T08:13:07.000Z</time>
      </trkpt>
      <trkpt lat="47.33551" lon="-2.30006">
        <ele>-41.400001525879</ele>
        <time>2022-09-08T08:13:13.000Z</time>
      </trkpt>
      <trkpt lat="47.33561" lon="-2.30005">
        <ele>-41.400001525879</ele>
        <time>2022-09-08T08:13:15.000Z</time>
      </trkpt>
      <trkpt lat="47.33574" lon="-2.29996">
        <ele>-41.400001525879</ele>
        <time>2022-09-08T08:13:18.000Z</time>
      </trkpt>
      <trkpt lat="47.33582" lon="-2.29987">
        <ele>-41.400001525879</ele>
        <time>2022-09-08T08:13:20.000Z</time>
      </trkpt>
      <trkpt lat="47.33596" lon="-2.29971">
        <ele>-41.400001525879</ele>
        <time>2022-09-08T08:13:24.000Z</time>
      </trkpt>
      <trkpt lat="47.33615" lon="-2.29947">
        <ele>-41.400001525879</ele>
        <time>2022-09-08T08:13:29.000Z</time>
      </trkpt>
      <trkpt lat="47.3362" lon="-2.29942">
        <ele>-41.400001525879</ele>
        <time>2022-09-08T08:13:30.000Z</time>
      </trkpt>
      <trkpt lat="47.3363" lon="-2.29927">
        <ele>-41.400001525879</ele>
        <time>2022-09-08T08:13:33.000Z</time>
      </trkpt>
      <trkpt lat="47.33647" lon="-2.29899">
        <ele>-41.400001525879</ele>
        <time>2022-09-08T08:13:38.000Z</time>
      </trkpt>
      <trkpt lat="47.33648" lon="-2.29892">
        <ele>-41.400001525879</ele>
        <time>2022-09-08T08:13:39.000Z</time>
      </trkpt>
      <trkpt lat="47.33644" lon="-2.29864">
        <ele>-41.400001525879</ele>
        <time>2022-09-08T08:13:43.000Z</time>
      </trkpt>
      <trkpt lat="47.33642" lon="-2.29856">
        <ele>-41.400001525879</ele>
        <time>2022-09-08T08:13:44.000Z</time>
      </trkpt>
      <trkpt lat="47.33635" lon="-2.29836">
        <ele>-41.400001525879</ele>
        <time>2022-09-08T08:13:47.000Z</time>
      </trkpt>
      <trkpt lat="47.33634" lon="-2.29829">
        <ele>-41.400001525879</ele>
        <time>2022-09-08T08:13:48.000Z</time>
      </trkpt>
      <trkpt lat="47.33642" lon="-2.29814">
        <ele>-41.400001525879</ele>
        <time>2022-09-08T08:13:51.000Z</time>
      </trkpt>
      <trkpt lat="47.33661" lon="-2.29805">
        <ele>-41.400001525879</ele>
        <time>2022-09-08T08:13:55.000Z</time>
      </trkpt>
      <trkpt lat="47.33689" lon="-2.29795">
        <ele>-41.400001525879</ele>
        <time>2022-09-08T08:14:01.000Z</time>
      </trkpt>
      <trkpt lat="47.33693" lon="-2.29795">
        <ele>-41.400001525879</ele>
        <time>2022-09-08T08:14:02.000Z</time>
      </trkpt>
      <trkpt lat="47.33703" lon="-2.29795">
        <ele>-41.400001525879</ele>
        <time>2022-09-08T08:14:04.000Z</time>
      </trkpt>
      <trkpt lat="47.33717" lon="-2.29798">
        <ele>-41.400001525879</ele>
        <time>2022-09-08T08:14:07.000Z</time>
      </trkpt>
      <trkpt lat="47.33758" lon="-2.29808">
        <ele>-41.400001525879</ele>
        <time>2022-09-08T08:14:15.000Z</time>
      </trkpt>
      <trkpt lat="47.3379" lon="-2.29817">
        <ele>-41.400001525879</ele>
        <time>2022-09-08T08:14:21.000Z</time>
      </trkpt>
      <trkpt lat="47.33811" lon="-2.29815">
        <ele>-41.400001525879</ele>
        <time>2022-09-08T08:14:25.000Z</time>
      </trkpt>
      <trkpt lat="47.33816" lon="-2.29814">
        <ele>-41.400001525879</ele>
        <time>2022-09-08T08:14:26.000Z</time>
      </trkpt>
      <trkpt lat="47.33821" lon="-2.29811">
        <ele>-41.400001525879</ele>
        <time>2022-09-08T08:14:27.000Z</time>
      </trkpt>
      <trkpt lat="47.33836" lon="-2.29803">
        <ele>-41.400001525879</ele>
        <time>2022-09-08T08:14:30.000Z</time>
      </trkpt>
      <trkpt lat="47.33863" lon="-2.29784">
        <ele>-41.400001525879</ele>
        <time>2022-09-08T08:14:36.000Z</time>
      </trkpt>
      <trkpt lat="47.33867" lon="-2.2978">
        <ele>-41.400001525879</ele>
        <time>2022-09-08T08:14:37.000Z</time>
      </trkpt>
      <trkpt lat="47.33875" lon="-2.29761">
        <ele>-41.400001525879</ele>
        <time>2022-09-08T08:14:40.000Z</time>
      </trkpt>
      <trkpt lat="47.33878" lon="-2.29754">
        <ele>-41.400001525879</ele>
        <time>2022-09-08T08:14:41.000Z</time>
      </trkpt>
      <trkpt lat="47.33892" lon="-2.29706">
        <ele>-41.400001525879</ele>
        <time>2022-09-08T08:14:48.000Z</time>
      </trkpt>
      <trkpt lat="47.33901" lon="-2.2968">
        <ele>-41.400001525879</ele>
        <time>2022-09-08T08:14:52.000Z</time>
      </trkpt>
      <trkpt lat="47.33905" lon="-2.29668">
        <ele>-41.400001525879</ele>
        <time>2022-09-08T08:14:54.000Z</time>
      </trkpt>
      <trkpt lat="47.3391" lon="-2.29647">
        <ele>-41.400001525879</ele>
        <time>2022-09-08T08:14:57.000Z</time>
      </trkpt>
      <trkpt lat="47.33911" lon="-2.29625">
        <ele>-41.400001525879</ele>
        <time>2022-09-08T08:15:00.000Z</time>
      </trkpt>
      <trkpt lat="47.33912" lon="-2.29619">
        <ele>-41.400001525879</ele>
        <time>2022-09-08T08:15:01.000Z</time>
      </trkpt>
      <trkpt lat="47.33914" lon="-2.296">
        <ele>-41.400001525879</ele>
        <time>2022-09-08T08:15:04.000Z</time>
      </trkpt>
      <trkpt lat="47.33914" lon="-2.29593">
        <ele>-41.400001525879</ele>
        <time>2022-09-08T08:15:05.000Z</time>
      </trkpt>
      <trkpt lat="47.33917" lon="-2.2957">
        <ele>-41.400001525879</ele>
        <time>2022-09-08T08:15:10.000Z</time>
      </trkpt>
      <trkpt lat="47.33916" lon="-2.29566">
        <ele>-41.400001525879</ele>
        <time>2022-09-08T08:15:12.000Z</time>
      </trkpt>
      <trkpt lat="47.33916" lon="-2.2956">
        <ele>-41.400001525879</ele>
        <time>2022-09-08T08:15:15.000Z</time>
      </trkpt>
      <trkpt lat="47.33915" lon="-2.29552">
        <ele>-41.400001525879</ele>
        <time>2022-09-08T08:15:20.000Z</time>
      </trkpt>
      <trkpt lat="47.33917" lon="-2.2954">
        <ele>-41.400001525879</ele>
        <time>2022-09-08T08:15:29.000Z</time>
      </trkpt>
      <trkpt lat="47.33919" lon="-2.29522">
        <ele>-41.400001525879</ele>
        <time>2022-09-08T08:15:35.000Z</time>
      </trkpt>
      <trkpt lat="47.33918" lon="-2.29517">
        <ele>-41.400001525879</ele>
        <time>2022-09-08T08:15:37.000Z</time>
      </trkpt>
      <trkpt lat="47.3392" lon="-2.29502">
        <ele>-41.400001525879</ele>
        <time>2022-09-08T08:15:42.000Z</time>
      </trkpt>
      <trkpt lat="47.33924" lon="-2.29493">
        <ele>-41.400001525879</ele>
        <time>2022-09-08T08:15:46.000Z</time>
      </trkpt>
      <trkpt lat="47.33925" lon="-2.29491">
        <ele>-41.400001525879</ele>
        <time>2022-09-08T08:15:47.000Z</time>
      </trkpt>
      <trkpt lat="47.33933" lon="-2.2948">
        <ele>-41.400001525879</ele>
        <time>2022-09-08T08:15:52.000Z</time>
      </trkpt>
      <trkpt lat="47.33942" lon="-2.29464">
        <ele>-41.400001525879</ele>
        <time>2022-09-08T08:15:58.000Z</time>
      </trkpt>
      <trkpt lat="47.33949" lon="-2.29446">
        <ele>-41.400001525879</ele>
        <time>2022-09-08T08:16:04.000Z</time>
      </trkpt>
      <trkpt lat="47.33948" lon="-2.29438">
        <ele>-41.400001525879</ele>
        <time>2022-09-08T08:16:06.000Z</time>
      </trkpt>
      <trkpt lat="47.33945" lon="-2.29433">
        <ele>-41.400001525879</ele>
        <time>2022-09-08T08:16:08.000Z</time>
      </trkpt>
      <trkpt lat="47.33937" lon="-2.29425">
        <ele>-41.400001525879</ele>
        <time>2022-09-08T08:16:12.000Z</time>
      </trkpt>
      <trkpt lat="47.33933" lon="-2.29422">
        <ele>-41.400001525879</ele>
        <time>2022-09-08T08:16:14.000Z</time>
      </trkpt>
      <trkpt lat="47.33923" lon="-2.29406">
        <ele>-41</ele>
        <time>2022-09-08T08:16:20.000Z</time>
      </trkpt>
      <trkpt lat="47.33921" lon="-2.29404">
        <ele>-40.599998474121</ele>
        <time>2022-09-08T08:16:21.000Z</time>
      </trkpt>
      <trkpt lat="47.3392" lon="-2.29402">
        <ele>-40</ele>
        <time>2022-09-08T08:16:22.000Z</time>
      </trkpt>
      <trkpt lat="47.33918" lon="-2.294">
        <ele>-39.599998474121</ele>
        <time>2022-09-08T08:16:23.000Z</time>
      </trkpt>
      <trkpt lat="47.33915" lon="-2.29396">
        <ele>-39.200000762939</ele>
        <time>2022-09-08T08:16:24.000Z</time>
      </trkpt>
      <trkpt lat="47.33911" lon="-2.29391">
        <ele>-39.200000762939</ele>
        <time>2022-09-08T08:16:26.000Z</time>
      </trkpt>
      <trkpt lat="47.33894" lon="-2.29375">
        <ele>-39.200000762939</ele>
        <time>2022-09-08T08:16:32.000Z</time>
      </trkpt>
      <trkpt lat="47.33871" lon="-2.29355">
        <ele>-39.200000762939</ele>
        <time>2022-09-08T08:16:40.000Z</time>
      </trkpt>
      <trkpt lat="47.3385" lon="-2.2934">
        <ele>-39.200000762939</ele>
        <time>2022-09-08T08:16:46.000Z</time>
      </trkpt>
      <trkpt lat="47.33831" lon="-2.29321">
        <ele>-39.200000762939</ele>
        <time>2022-09-08T08:16:51.000Z</time>
      </trkpt>
      <trkpt lat="47.33828" lon="-2.29317">
        <ele>-39.200000762939</ele>
        <time>2022-09-08T08:16:52.000Z</time>
      </trkpt>
      <trkpt lat="47.33815" lon="-2.29303">
        <ele>-39.200000762939</ele>
        <time>2022-09-08T08:16:56.000Z</time>
      </trkpt>
      <trkpt lat="47.33803" lon="-2.29282">
        <ele>-39.200000762939</ele>
        <time>2022-09-08T08:17:01.000Z</time>
      </trkpt>
      <trkpt lat="47.33811" lon="-2.29271">
        <ele>-39.200000762939</ele>
        <time>2022-09-08T08:17:04.000Z</time>
      </trkpt>
      <trkpt lat="47.33818" lon="-2.29267">
        <ele>-39.200000762939</ele>
        <time>2022-09-08T08:17:06.000Z</time>
      </trkpt>
      <trkpt lat="47.33832" lon="-2.29258">
        <ele>-39.200000762939</ele>
        <time>2022-09-08T08:17:10.000Z</time>
      </trkpt>
      <trkpt lat="47.33858" lon="-2.29246">
        <ele>-39.200000762939</ele>
        <time>2022-09-08T08:17:16.000Z</time>
      </trkpt>
      <trkpt lat="47.33867" lon="-2.29242">
        <ele>-39.200000762939</ele>
        <time>2022-09-08T08:17:18.000Z</time>
      </trkpt>
      <trkpt lat="47.33885" lon="-2.29237">
        <ele>-39.200000762939</ele>
        <time>2022-09-08T08:17:22.000Z</time>
      </trkpt>
      <trkpt lat="47.33914" lon="-2.29231">
        <ele>-39.200000762939</ele>
        <time>2022-09-08T08:17:28.000Z</time>
      </trkpt>
      <trkpt lat="47.33931" lon="-2.29228">
        <ele>-39.200000762939</ele>
        <time>2022-09-08T08:17:31.000Z</time>
      </trkpt>
      <trkpt lat="47.3394" lon="-2.29226">
        <ele>-39.200000762939</ele>
        <time>2022-09-08T08:17:33.000Z</time>
      </trkpt>
      <trkpt lat="47.33974" lon="-2.29222">
        <ele>-39.200000762939</ele>
        <time>2022-09-08T08:17:39.000Z</time>
      </trkpt>
      <trkpt lat="47.33991" lon="-2.29218">
        <ele>-39.200000762939</ele>
        <time>2022-09-08T08:17:42.000Z</time>
      </trkpt>
      <trkpt lat="47.34004" lon="-2.29213">
        <ele>-39.200000762939</ele>
        <time>2022-09-08T08:17:45.000Z</time>
      </trkpt>
      <trkpt lat="47.34023" lon="-2.29205">
        <ele>-39.200000762939</ele>
        <time>2022-09-08T08:17:50.000Z</time>
      </trkpt>
      <trkpt lat="47.34047" lon="-2.2919">
        <ele>-39.200000762939</ele>
        <time>2022-09-08T08:17:56.000Z</time>
      </trkpt>
      <trkpt lat="47.3406" lon="-2.2918">
        <ele>-39.200000762939</ele>
        <time>2022-09-08T08:17:59.000Z</time>
      </trkpt>
      <trkpt lat="47.34068" lon="-2.29172">
        <ele>-39.200000762939</ele>
        <time>2022-09-08T08:18:01.000Z</time>
      </trkpt>
      <trkpt lat="47.34106" lon="-2.2914">
        <ele>-39.200000762939</ele>
        <time>2022-09-08T08:18:09.000Z</time>
      </trkpt>
      <trkpt lat="47.34129" lon="-2.29124">
        <ele>-39.200000762939</ele>
        <time>2022-09-08T08:18:14.000Z</time>
      </trkpt>
      <trkpt lat="47.34166" lon="-2.29102">
        <ele>-39.200000762939</ele>
        <time>2022-09-08T08:18:21.000Z</time>
      </trkpt>
      <trkpt lat="47.34196" lon="-2.29088">
        <ele>-39.200000762939</ele>
        <time>2022-09-08T08:18:27.000Z</time>
      </trkpt>
      <trkpt lat="47.34228" lon="-2.29079">
        <ele>-39.200000762939</ele>
        <time>2022-09-08T08:18:33.000Z</time>
      </trkpt>
      <trkpt lat="47.34262" lon="-2.29073">
        <ele>-39.200000762939</ele>
        <time>2022-09-08T08:18:39.000Z</time>
      </trkpt>
      <trkpt lat="47.34303" lon="-2.2907">
        <ele>-39.200000762939</ele>
        <time>2022-09-08T08:18:47.000Z</time>
      </trkpt>
      <trkpt lat="47.34316" lon="-2.29061">
        <ele>-39.200000762939</ele>
        <time>2022-09-08T08:18:51.000Z</time>
      </trkpt>
      <trkpt lat="47.34311" lon="-2.29045">
        <ele>-39.200000762939</ele>
        <time>2022-09-08T08:18:54.000Z</time>
      </trkpt>
      <trkpt lat="47.34309" lon="-2.29038">
        <ele>-39.200000762939</ele>
        <time>2022-09-08T08:18:55.000Z</time>
      </trkpt>
      <trkpt lat="47.34307" lon="-2.29032">
        <ele>-39.200000762939</ele>
        <time>2022-09-08T08:18:56.000Z</time>
      </trkpt>
      <trkpt lat="47.34301" lon="-2.29003">
        <ele>-39.200000762939</ele>
        <time>2022-09-08T08:19:00.000Z</time>
      </trkpt>
      <trkpt lat="47.3429" lon="-2.28946">
        <ele>-39.200000762939</ele>
        <time>2022-09-08T08:19:07.000Z</time>
      </trkpt>
      <trkpt lat="47.34279" lon="-2.28907">
        <ele>-39.200000762939</ele>
        <time>2022-09-08T08:19:12.000Z</time>
      </trkpt>
      <trkpt lat="47.34275" lon="-2.28899">
        <ele>-39.200000762939</ele>
        <time>2022-09-08T08:19:13.000Z</time>
      </trkpt>
      <trkpt lat="47.34269" lon="-2.28878">
        <ele>-39.200000762939</ele>
        <time>2022-09-08T08:19:16.000Z</time>
      </trkpt>
      <trkpt lat="47.34262" lon="-2.28853">
        <ele>-39.200000762939</ele>
        <time>2022-09-08T08:19:20.000Z</time>
      </trkpt>
      <trkpt lat="47.34259" lon="-2.28847">
        <ele>-39.200000762939</ele>
        <time>2022-09-08T08:19:21.000Z</time>
      </trkpt>
      <trkpt lat="47.3425" lon="-2.28843">
        <ele>-39.200000762939</ele>
        <time>2022-09-08T08:19:23.000Z</time>
      </trkpt>
      <trkpt lat="47.34238" lon="-2.28847">
        <ele>-39.200000762939</ele>
        <time>2022-09-08T08:19:26.000Z</time>
      </trkpt>
      <trkpt lat="47.34213" lon="-2.28864">
        <ele>-39.200000762939</ele>
        <time>2022-09-08T08:19:31.000Z</time>
      </trkpt>
      <trkpt lat="47.34204" lon="-2.28871">
        <ele>-39.200000762939</ele>
        <time>2022-09-08T08:19:33.000Z</time>
      </trkpt>
      <trkpt lat="47.34195" lon="-2.28878">
        <ele>-39.200000762939</ele>
        <time>2022-09-08T08:19:35.000Z</time>
      </trkpt>
      <trkpt lat="47.34183" lon="-2.28881">
        <ele>-39.200000762939</ele>
        <time>2022-09-08T08:19:38.000Z</time>
      </trkpt>
      <trkpt lat="47.34181" lon="-2.28876">
        <ele>-39.200000762939</ele>
        <time>2022-09-08T08:19:39.000Z</time>
      </trkpt>
      <trkpt lat="47.34179" lon="-2.28858">
        <ele>-39.200000762939</ele>
        <time>2022-09-08T08:19:42.000Z</time>
      </trkpt>
      <trkpt lat="47.34179" lon="-2.2885">
        <ele>-39.200000762939</ele>
        <time>2022-09-08T08:19:43.000Z</time>
      </trkpt>
      <trkpt lat="47.34177" lon="-2.28819">
        <ele>-39.200000762939</ele>
        <time>2022-09-08T08:19:47.000Z</time>
      </trkpt>
      <trkpt lat="47.34177" lon="-2.28797">
        <ele>-39.200000762939</ele>
        <time>2022-09-08T08:19:50.000Z</time>
      </trkpt>
      <trkpt lat="47.34175" lon="-2.28774">
        <ele>-39.200000762939</ele>
        <time>2022-09-08T08:19:53.000Z</time>
      </trkpt>
      <trkpt lat="47.34176" lon="-2.28766">
        <ele>-39.200000762939</ele>
        <time>2022-09-08T08:19:54.000Z</time>
      </trkpt>
      <trkpt lat="47.34176" lon="-2.28735">
        <ele>-39.200000762939</ele>
        <time>2022-09-08T08:19:58.000Z</time>
      </trkpt>
      <trkpt lat="47.34175" lon="-2.28728">
        <ele>-39.200000762939</ele>
        <time>2022-09-08T08:19:59.000Z</time>
      </trkpt>
      <trkpt lat="47.3417" lon="-2.28708">
        <ele>-39.200000762939</ele>
        <time>2022-09-08T08:20:02.000Z</time>
      </trkpt>
      <trkpt lat="47.34167" lon="-2.28704">
        <ele>-39.200000762939</ele>
        <time>2022-09-08T08:20:03.000Z</time>
      </trkpt>
      <trkpt lat="47.34153" lon="-2.28698">
        <ele>-39.200000762939</ele>
        <time>2022-09-08T08:20:06.000Z</time>
      </trkpt>
      <trkpt lat="47.34148" lon="-2.28697">
        <ele>-39.200000762939</ele>
        <time>2022-09-08T08:20:07.000Z</time>
      </trkpt>
      <trkpt lat="47.34143" lon="-2.28697">
        <ele>-39.200000762939</ele>
        <time>2022-09-08T08:20:08.000Z</time>
      </trkpt>
      <trkpt lat="47.34128" lon="-2.28697">
        <ele>-39.200000762939</ele>
        <time>2022-09-08T08:20:11.000Z</time>
      </trkpt>
      <trkpt lat="47.34123" lon="-2.28698">
        <ele>-39.200000762939</ele>
        <time>2022-09-08T08:20:12.000Z</time>
      </trkpt>
      <trkpt lat="47.34111" lon="-2.28711">
        <ele>-39.200000762939</ele>
        <time>2022-09-08T08:20:15.000Z</time>
      </trkpt>
      <trkpt lat="47.34104" lon="-2.28725">
        <ele>-39.200000762939</ele>
        <time>2022-09-08T08:20:18.000Z</time>
      </trkpt>
      <trkpt lat="47.34102" lon="-2.28729">
        <ele>-39.200000762939</ele>
        <time>2022-09-08T08:20:19.000Z</time>
      </trkpt>
      <trkpt lat="47.34095" lon="-2.28735">
        <ele>-39.200000762939</ele>
        <time>2022-09-08T08:20:21.000Z</time>
      </trkpt>
      <trkpt lat="47.3409" lon="-2.28736">
        <ele>-39.599998474121</ele>
        <time>2022-09-08T08:20:22.000Z</time>
      </trkpt>
      <trkpt lat="47.34085" lon="-2.28736">
        <ele>-40</ele>
        <time>2022-09-08T08:20:23.000Z</time>
      </trkpt>
      <trkpt lat="47.34081" lon="-2.28734">
        <ele>-40.599998474121</ele>
        <time>2022-09-08T08:20:24.000Z</time>
      </trkpt>
      <trkpt lat="47.34075" lon="-2.28733">
        <ele>-41</ele>
        <time>2022-09-08T08:20:25.000Z</time>
      </trkpt>
      <trkpt lat="47.3407" lon="-2.28732">
        <ele>-41.400001525879</ele>
        <time>2022-09-08T08:20:26.000Z</time>
      </trkpt>
      <trkpt lat="47.3406" lon="-2.28727">
        <ele>-41.400001525879</ele>
        <time>2022-09-08T08:20:28.000Z</time>
      </trkpt>
      <trkpt lat="47.34028" lon="-2.28714">
        <ele>-41.400001525879</ele>
        <time>2022-09-08T08:20:35.000Z</time>
      </trkpt>
      <trkpt lat="47.34008" lon="-2.28707">
        <ele>-41.400001525879</ele>
        <time>2022-09-08T08:20:41.000Z</time>
      </trkpt>
      <trkpt lat="47.33997" lon="-2.28695">
        <ele>-41.400001525879</ele>
        <time>2022-09-08T08:20:46.000Z</time>
      </trkpt>
      <trkpt lat="47.33991" lon="-2.28679">
        <ele>-41.400001525879</ele>
        <time>2022-09-08T08:20:51.000Z</time>
      </trkpt>
      <trkpt lat="47.33989" lon="-2.28657">
        <ele>-41.400001525879</ele>
        <time>2022-09-08T08:20:57.000Z</time>
      </trkpt>
      <trkpt lat="47.33989" lon="-2.28643">
        <ele>-41.400001525879</ele>
        <time>2022-09-08T08:21:03.000Z</time>
      </trkpt>
      <trkpt lat="47.33999" lon="-2.28638">
        <ele>-41.400001525879</ele>
        <time>2022-09-08T08:21:09.000Z</time>
      </trkpt>
      <trkpt lat="47.34001" lon="-2.28637">
        <ele>-41.400001525879</ele>
        <time>2022-09-08T08:21:13.000Z</time>
      </trkpt>
      <trkpt lat="47.33999" lon="-2.28639">
        <ele>-43.400001525879</ele>
        <time>2022-09-08T08:36:29.000Z</time>
      </trkpt>
      <trkpt lat="47.33989" lon="-2.28637">
        <ele>-43.400001525879</ele>
        <time>2022-09-08T08:36:35.000Z</time>
      </trkpt>
      <trkpt lat="47.33973" lon="-2.28626">
        <ele>-43.400001525879</ele>
        <time>2022-09-08T08:36:40.000Z</time>
      </trkpt>
      <trkpt lat="47.3395" lon="-2.28596">
        <ele>-43.400001525879</ele>
        <time>2022-09-08T08:36:47.000Z</time>
      </trkpt>
      <trkpt lat="47.33929" lon="-2.2857">
        <ele>-43.400001525879</ele>
        <time>2022-09-08T08:36:53.000Z</time>
      </trkpt>
      <trkpt lat="47.33904" lon="-2.28537">
        <ele>-43.400001525879</ele>
        <time>2022-09-08T08:37:01.000Z</time>
      </trkpt>
      <trkpt lat="47.33897" lon="-2.28529">
        <ele>-43.400001525879</ele>
        <time>2022-09-08T08:37:03.000Z</time>
      </trkpt>
      <trkpt lat="47.33886" lon="-2.28516">
        <ele>-43.400001525879</ele>
        <time>2022-09-08T08:37:06.000Z</time>
      </trkpt>
      <trkpt lat="47.33882" lon="-2.28512">
        <ele>-43.400001525879</ele>
        <time>2022-09-08T08:37:07.000Z</time>
      </trkpt>
      <trkpt lat="47.33874" lon="-2.28504">
        <ele>-43.400001525879</ele>
        <time>2022-09-08T08:37:09.000Z</time>
      </trkpt>
      <trkpt lat="47.33868" lon="-2.28496">
        <ele>-43.400001525879</ele>
        <time>2022-09-08T08:37:11.000Z</time>
      </trkpt>
      <trkpt lat="47.33857" lon="-2.28484">
        <ele>-43.400001525879</ele>
        <time>2022-09-08T08:37:14.000Z</time>
      </trkpt>
      <trkpt lat="47.33847" lon="-2.28471">
        <ele>-43.400001525879</ele>
        <time>2022-09-08T08:37:17.000Z</time>
      </trkpt>
      <trkpt lat="47.33843" lon="-2.28466">
        <ele>-43.400001525879</ele>
        <time>2022-09-08T08:37:18.000Z</time>
      </trkpt>
      <trkpt lat="47.33839" lon="-2.28463">
        <ele>-43.400001525879</ele>
        <time>2022-09-08T08:37:19.000Z</time>
      </trkpt>
      <trkpt lat="47.33828" lon="-2.28462">
        <ele>-43.400001525879</ele>
        <time>2022-09-08T08:37:21.000Z</time>
      </trkpt>
      <trkpt lat="47.33815" lon="-2.28469">
        <ele>-43.400001525879</ele>
        <time>2022-09-08T08:37:24.000Z</time>
      </trkpt>
      <trkpt lat="47.33811" lon="-2.28472">
        <ele>-43.400001525879</ele>
        <time>2022-09-08T08:37:25.000Z</time>
      </trkpt>
      <trkpt lat="47.33802" lon="-2.28476">
        <ele>-43.400001525879</ele>
        <time>2022-09-08T08:37:27.000Z</time>
      </trkpt>
      <trkpt lat="47.33792" lon="-2.28479">
        <ele>-43.400001525879</ele>
        <time>2022-09-08T08:37:29.000Z</time>
      </trkpt>
      <trkpt lat="47.33784" lon="-2.28485">
        <ele>-43.400001525879</ele>
        <time>2022-09-08T08:37:31.000Z</time>
      </trkpt>
      <trkpt lat="47.3378" lon="-2.28489">
        <ele>-43.400001525879</ele>
        <time>2022-09-08T08:37:32.000Z</time>
      </trkpt>
      <trkpt lat="47.33772" lon="-2.28496">
        <ele>-43.400001525879</ele>
        <time>2022-09-08T08:37:34.000Z</time>
      </trkpt>
      <trkpt lat="47.33744" lon="-2.28518">
        <ele>-43.400001525879</ele>
        <time>2022-09-08T08:37:40.000Z</time>
      </trkpt>
      <trkpt lat="47.33717" lon="-2.28543">
        <ele>-43.400001525879</ele>
        <time>2022-09-08T08:37:46.000Z</time>
      </trkpt>
      <trkpt lat="47.33687" lon="-2.28574">
        <ele>-43.400001525879</ele>
        <time>2022-09-08T08:37:53.000Z</time>
      </trkpt>
      <trkpt lat="47.33676" lon="-2.28588">
        <ele>-43.400001525879</ele>
        <time>2022-09-08T08:37:56.000Z</time>
      </trkpt>
      <trkpt lat="47.33668" lon="-2.28598">
        <ele>-43.400001525879</ele>
        <time>2022-09-08T08:37:58.000Z</time>
      </trkpt>
      <trkpt lat="47.3364" lon="-2.28625">
        <ele>-43.400001525879</ele>
        <time>2022-09-08T08:38:04.000Z</time>
      </trkpt>
      <trkpt lat="47.33607" lon="-2.28644">
        <ele>-43.400001525879</ele>
        <time>2022-09-08T08:38:10.000Z</time>
      </trkpt>
      <trkpt lat="47.33574" lon="-2.28661">
        <ele>-43.400001525879</ele>
        <time>2022-09-08T08:38:16.000Z</time>
      </trkpt>
      <trkpt lat="47.33547" lon="-2.28675">
        <ele>-43.400001525879</ele>
        <time>2022-09-08T08:38:21.000Z</time>
      </trkpt>
      <trkpt lat="47.33519" lon="-2.28691">
        <ele>-43.400001525879</ele>
        <time>2022-09-08T08:38:26.000Z</time>
      </trkpt>
      <trkpt lat="47.33514" lon="-2.28695">
        <ele>-43.400001525879</ele>
        <time>2022-09-08T08:38:27.000Z</time>
      </trkpt>
      <trkpt lat="47.33502" lon="-2.28709">
        <ele>-43.400001525879</ele>
        <time>2022-09-08T08:38:30.000Z</time>
      </trkpt>
      <trkpt lat="47.33495" lon="-2.2872">
        <ele>-43.400001525879</ele>
        <time>2022-09-08T08:38:32.000Z</time>
      </trkpt>
      <trkpt lat="47.33488" lon="-2.28732">
        <ele>-43.400001525879</ele>
        <time>2022-09-08T08:38:34.000Z</time>
      </trkpt>
      <trkpt lat="47.33478" lon="-2.28753">
        <ele>-43.400001525879</ele>
        <time>2022-09-08T08:38:37.000Z</time>
      </trkpt>
      <trkpt lat="47.3346" lon="-2.28789">
        <ele>-43</ele>
        <time>2022-09-08T08:38:42.000Z</time>
      </trkpt>
      <trkpt lat="47.33456" lon="-2.28796">
        <ele>-42.599998474121</ele>
        <time>2022-09-08T08:38:43.000Z</time>
      </trkpt>
      <trkpt lat="47.33453" lon="-2.28803">
        <ele>-42.200000762939</ele>
        <time>2022-09-08T08:38:44.000Z</time>
      </trkpt>
      <trkpt lat="47.33449" lon="-2.28809">
        <ele>-41.599998474121</ele>
        <time>2022-09-08T08:38:45.000Z</time>
      </trkpt>
      <trkpt lat="47.33446" lon="-2.28816">
        <ele>-41.200000762939</ele>
        <time>2022-09-08T08:38:46.000Z</time>
      </trkpt>
      <trkpt lat="47.33442" lon="-2.28822">
        <ele>-41.200000762939</ele>
        <time>2022-09-08T08:38:47.000Z</time>
      </trkpt>
      <trkpt lat="47.33426" lon="-2.28846">
        <ele>-41.200000762939</ele>
        <time>2022-09-08T08:38:51.000Z</time>
      </trkpt>
      <trkpt lat="47.33416" lon="-2.28855">
        <ele>-41.200000762939</ele>
        <time>2022-09-08T08:38:53.000Z</time>
      </trkpt>
      <trkpt lat="47.334" lon="-2.28865">
        <ele>-41.200000762939</ele>
        <time>2022-09-08T08:38:56.000Z</time>
      </trkpt>
      <trkpt lat="47.33373" lon="-2.2888">
        <ele>-41.200000762939</ele>
        <time>2022-09-08T08:39:01.000Z</time>
      </trkpt>
      <trkpt lat="47.33367" lon="-2.28883">
        <ele>-41.200000762939</ele>
        <time>2022-09-08T08:39:02.000Z</time>
      </trkpt>
      <trkpt lat="47.33351" lon="-2.28892">
        <ele>-40.400001525879</ele>
        <time>2022-09-08T08:39:05.000Z</time>
      </trkpt>
      <trkpt lat="47.33345" lon="-2.28895">
        <ele>-40</ele>
        <time>2022-09-08T08:39:06.000Z</time>
      </trkpt>
      <trkpt lat="47.33339" lon="-2.28898">
        <ele>-39.599998474121</ele>
        <time>2022-09-08T08:39:07.000Z</time>
      </trkpt>
      <trkpt lat="47.33333" lon="-2.28901">
        <ele>-39.200000762939</ele>
        <time>2022-09-08T08:39:08.000Z</time>
      </trkpt>
      <trkpt lat="47.33312" lon="-2.28913">
        <ele>-39.200000762939</ele>
        <time>2022-09-08T08:39:12.000Z</time>
      </trkpt>
      <trkpt lat="47.33296" lon="-2.28923">
        <ele>-39.200000762939</ele>
        <time>2022-09-08T08:39:15.000Z</time>
      </trkpt>
      <trkpt lat="47.33276" lon="-2.28937">
        <ele>-39.200000762939</ele>
        <time>2022-09-08T08:39:19.000Z</time>
      </trkpt>
      <trkpt lat="47.33266" lon="-2.28943">
        <ele>-39.200000762939</ele>
        <time>2022-09-08T08:39:21.000Z</time>
      </trkpt>
      <trkpt lat="47.33252" lon="-2.28955">
        <ele>-39.200000762939</ele>
        <time>2022-09-08T08:39:24.000Z</time>
      </trkpt>
      <trkpt lat="47.33245" lon="-2.28967">
        <ele>-39.200000762939</ele>
        <time>2022-09-08T08:39:26.000Z</time>
      </trkpt>
      <trkpt lat="47.33242" lon="-2.2899">
        <ele>-39.200000762939</ele>
        <time>2022-09-08T08:39:29.000Z</time>
      </trkpt>
      <trkpt lat="47.33241" lon="-2.28998">
        <ele>-39.200000762939</ele>
        <time>2022-09-08T08:39:30.000Z</time>
      </trkpt>
      <trkpt lat="47.33237" lon="-2.29037">
        <ele>-39.200000762939</ele>
        <time>2022-09-08T08:39:35.000Z</time>
      </trkpt>
      <trkpt lat="47.33231" lon="-2.29064">
        <ele>-39.200000762939</ele>
        <time>2022-09-08T08:39:40.000Z</time>
      </trkpt>
      <trkpt lat="47.33228" lon="-2.29068">
        <ele>-39.200000762939</ele>
        <time>2022-09-08T08:39:42.000Z</time>
      </trkpt>
      <trkpt lat="47.33224" lon="-2.2907">
        <ele>-39.200000762939</ele>
        <time>2022-09-08T08:39:45.000Z</time>
      </trkpt>
      <trkpt lat="47.33212" lon="-2.29071">
        <ele>-39.200000762939</ele>
        <time>2022-09-08T08:39:49.000Z</time>
      </trkpt>
      <trkpt lat="47.33195" lon="-2.29065">
        <ele>-38.799999237061</ele>
        <time>2022-09-08T08:39:53.000Z</time>
      </trkpt>
      <trkpt lat="47.33191" lon="-2.29064">
        <ele>-38.400001525879</ele>
        <time>2022-09-08T08:39:54.000Z</time>
      </trkpt>
      <trkpt lat="47.33186" lon="-2.29062">
        <ele>-38</ele>
        <time>2022-09-08T08:39:55.000Z</time>
      </trkpt>
      <trkpt lat="47.33182" lon="-2.29062">
        <ele>-37</ele>
        <time>2022-09-08T08:39:56.000Z</time>
      </trkpt>
      <trkpt lat="47.33151" lon="-2.29058">
        <ele>-37</ele>
        <time>2022-09-08T08:40:03.000Z</time>
      </trkpt>
      <trkpt lat="47.33118" lon="-2.29065">
        <ele>-37</ele>
        <time>2022-09-08T08:40:10.000Z</time>
      </trkpt>
      <trkpt lat="47.33082" lon="-2.29076">
        <ele>-37</ele>
        <time>2022-09-08T08:40:17.000Z</time>
      </trkpt>
      <trkpt lat="47.33043" lon="-2.29089">
        <ele>-37</ele>
        <time>2022-09-08T08:40:24.000Z</time>
      </trkpt>
      <trkpt lat="47.33002" lon="-2.29104">
        <ele>-37</ele>
        <time>2022-09-08T08:40:31.000Z</time>
      </trkpt>
      <trkpt lat="47.32967" lon="-2.29117">
        <ele>-37</ele>
        <time>2022-09-08T08:40:37.000Z</time>
      </trkpt>
      <trkpt lat="47.32919" lon="-2.29135">
        <ele>-37</ele>
        <time>2022-09-08T08:40:45.000Z</time>
      </trkpt>
      <trkpt lat="47.32865" lon="-2.29154">
        <ele>-37</ele>
        <time>2022-09-08T08:40:54.000Z</time>
      </trkpt>
      <trkpt lat="47.3282" lon="-2.29169">
        <ele>-37</ele>
        <time>2022-09-08T08:41:02.000Z</time>
      </trkpt>
      <trkpt lat="47.328" lon="-2.29176">
        <ele>-37.400001525879</ele>
        <time>2022-09-08T08:41:06.000Z</time>
      </trkpt>
      <trkpt lat="47.32797" lon="-2.29182">
        <ele>-38</ele>
        <time>2022-09-08T08:41:07.000Z</time>
      </trkpt>
      <trkpt lat="47.32796" lon="-2.29189">
        <ele>-38.400001525879</ele>
        <time>2022-09-08T08:41:08.000Z</time>
      </trkpt>
      <trkpt lat="47.32796" lon="-2.29196">
        <ele>-38.799999237061</ele>
        <time>2022-09-08T08:41:09.000Z</time>
      </trkpt>
      <trkpt lat="47.32797" lon="-2.29204">
        <ele>-39.200000762939</ele>
        <time>2022-09-08T08:41:10.000Z</time>
      </trkpt>
      <trkpt lat="47.32789" lon="-2.29223">
        <ele>-39.200000762939</ele>
        <time>2022-09-08T08:41:13.000Z</time>
      </trkpt>
      <trkpt lat="47.32785" lon="-2.29229">
        <ele>-39.200000762939</ele>
        <time>2022-09-08T08:41:14.000Z</time>
      </trkpt>
      <trkpt lat="47.3276" lon="-2.29274">
        <ele>-39.200000762939</ele>
        <time>2022-09-08T08:41:21.000Z</time>
      </trkpt>
      <trkpt lat="47.32747" lon="-2.29298">
        <ele>-39.200000762939</ele>
        <time>2022-09-08T08:41:25.000Z</time>
      </trkpt>
      <trkpt lat="47.32741" lon="-2.29311">
        <ele>-39.200000762939</ele>
        <time>2022-09-08T08:41:27.000Z</time>
      </trkpt>
      <trkpt lat="47.32719" lon="-2.29368">
        <ele>-38.200000762939</ele>
        <time>2022-09-08T08:41:35.000Z</time>
      </trkpt>
      <trkpt lat="47.32716" lon="-2.29375">
        <ele>-37.799999237061</ele>
        <time>2022-09-08T08:41:36.000Z</time>
      </trkpt>
      <trkpt lat="47.32714" lon="-2.29382">
        <ele>-37.400001525879</ele>
        <time>2022-09-08T08:41:37.000Z</time>
      </trkpt>
      <trkpt lat="47.32711" lon="-2.29388">
        <ele>-37</ele>
        <time>2022-09-08T08:41:38.000Z</time>
      </trkpt>
      <trkpt lat="47.32701" lon="-2.29416">
        <ele>-37</ele>
        <time>2022-09-08T08:41:42.000Z</time>
      </trkpt>
      <trkpt lat="47.32685" lon="-2.29458">
        <ele>-37</ele>
        <time>2022-09-08T08:41:48.000Z</time>
      </trkpt>
      <trkpt lat="47.32679" lon="-2.29479">
        <ele>-37</ele>
        <time>2022-09-08T08:41:51.000Z</time>
      </trkpt>
      <trkpt lat="47.32674" lon="-2.29501">
        <ele>-37</ele>
        <time>2022-09-08T08:41:54.000Z</time>
      </trkpt>
      <trkpt lat="47.32673" lon="-2.29513">
        <ele>-37</ele>
        <time>2022-09-08T08:41:56.000Z</time>
      </trkpt>
      <trkpt lat="47.3267" lon="-2.29528">
        <ele>-37</ele>
        <time>2022-09-08T08:41:58.000Z</time>
      </trkpt>
      <trkpt lat="47.32668" lon="-2.29541">
        <ele>-36.599998474121</ele>
        <time>2022-09-08T08:42:00.000Z</time>
      </trkpt>
      <trkpt lat="47.32667" lon="-2.29549">
        <ele>-36.200000762939</ele>
        <time>2022-09-08T08:42:01.000Z</time>
      </trkpt>
      <trkpt lat="47.32665" lon="-2.29555">
        <ele>-35.799999237061</ele>
        <time>2022-09-08T08:42:02.000Z</time>
      </trkpt>
      <trkpt lat="47.32663" lon="-2.29561">
        <ele>-35.200000762939</ele>
        <time>2022-09-08T08:42:03.000Z</time>
      </trkpt>
      <trkpt lat="47.32662" lon="-2.29568">
        <ele>-34.799999237061</ele>
        <time>2022-09-08T08:42:04.000Z</time>
      </trkpt>
      <trkpt lat="47.32655" lon="-2.29587">
        <ele>-34.799999237061</ele>
        <time>2022-09-08T08:42:07.000Z</time>
      </trkpt>
      <trkpt lat="47.3265" lon="-2.296">
        <ele>-34.799999237061</ele>
        <time>2022-09-08T08:42:09.000Z</time>
      </trkpt>
      <trkpt lat="47.32644" lon="-2.29612">
        <ele>-34.799999237061</ele>
        <time>2022-09-08T08:42:11.000Z</time>
      </trkpt>
      <trkpt lat="47.32638" lon="-2.29625">
        <ele>-34.400001525879</ele>
        <time>2022-09-08T08:42:13.000Z</time>
      </trkpt>
      <trkpt lat="47.32635" lon="-2.2963">
        <ele>-34</ele>
        <time>2022-09-08T08:42:14.000Z</time>
      </trkpt>
      <trkpt lat="47.32632" lon="-2.29636">
        <ele>-33.599998474121</ele>
        <time>2022-09-08T08:42:15.000Z</time>
      </trkpt>
      <trkpt lat="47.32629" lon="-2.29642">
        <ele>-33.200000762939</ele>
        <time>2022-09-08T08:42:16.000Z</time>
      </trkpt>
      <trkpt lat="47.32626" lon="-2.29647">
        <ele>-32.799999237061</ele>
        <time>2022-09-08T08:42:17.000Z</time>
      </trkpt>
      <trkpt lat="47.32614" lon="-2.29668">
        <ele>-32.799999237061</ele>
        <time>2022-09-08T08:42:21.000Z</time>
      </trkpt>
      <trkpt lat="47.32605" lon="-2.29683">
        <ele>-32.799999237061</ele>
        <time>2022-09-08T08:42:24.000Z</time>
      </trkpt>
      <trkpt lat="47.32599" lon="-2.29694">
        <ele>-32.799999237061</ele>
        <time>2022-09-08T08:42:26.000Z</time>
      </trkpt>
      <trkpt lat="47.32596" lon="-2.29699">
        <ele>-32.200000762939</ele>
        <time>2022-09-08T08:42:27.000Z</time>
      </trkpt>
      <trkpt lat="47.32593" lon="-2.29705">
        <ele>-31.799999237061</ele>
        <time>2022-09-08T08:42:28.000Z</time>
      </trkpt>
      <trkpt lat="47.3259" lon="-2.29711">
        <ele>-31.39999961853</ele>
        <time>2022-09-08T08:42:29.000Z</time>
      </trkpt>
      <trkpt lat="47.32586" lon="-2.29716">
        <ele>-31</ele>
        <time>2022-09-08T08:42:30.000Z</time>
      </trkpt>
      <trkpt lat="47.32583" lon="-2.29722">
        <ele>-30.60000038147</ele>
        <time>2022-09-08T08:42:31.000Z</time>
      </trkpt>
      <trkpt lat="47.32576" lon="-2.29734">
        <ele>-30.60000038147</ele>
        <time>2022-09-08T08:42:33.000Z</time>
      </trkpt>
      <trkpt lat="47.32572" lon="-2.29739">
        <ele>-30.60000038147</ele>
        <time>2022-09-08T08:42:34.000Z</time>
      </trkpt>
      <trkpt lat="47.32558" lon="-2.29762">
        <ele>-30.60000038147</ele>
        <time>2022-09-08T08:42:38.000Z</time>
      </trkpt>
      <trkpt lat="47.32554" lon="-2.29766">
        <ele>-30.60000038147</ele>
        <time>2022-09-08T08:42:39.000Z</time>
      </trkpt>
      <trkpt lat="47.32537" lon="-2.29782">
        <ele>-30.60000038147</ele>
        <time>2022-09-08T08:42:43.000Z</time>
      </trkpt>
      <trkpt lat="47.32501" lon="-2.29816">
        <ele>-30.60000038147</ele>
        <time>2022-09-08T08:42:51.000Z</time>
      </trkpt>
      <trkpt lat="47.32496" lon="-2.2982">
        <ele>-30.60000038147</ele>
        <time>2022-09-08T08:42:52.000Z</time>
      </trkpt>
      <trkpt lat="47.3247" lon="-2.29844">
        <ele>-30.60000038147</ele>
        <time>2022-09-08T08:42:58.000Z</time>
      </trkpt>
      <trkpt lat="47.32449" lon="-2.29861">
        <ele>-30.60000038147</ele>
        <time>2022-09-08T08:43:03.000Z</time>
      </trkpt>
      <trkpt lat="47.32446" lon="-2.29865">
        <ele>-30.60000038147</ele>
        <time>2022-09-08T08:43:04.000Z</time>
      </trkpt>
      <trkpt lat="47.32444" lon="-2.29886">
        <ele>-30.60000038147</ele>
        <time>2022-09-08T08:43:07.000Z</time>
      </trkpt>
      <trkpt lat="47.32448" lon="-2.29912">
        <ele>-30.60000038147</ele>
        <time>2022-09-08T08:43:11.000Z</time>
      </trkpt>
      <trkpt lat="47.32449" lon="-2.29924">
        <ele>-30.60000038147</ele>
        <time>2022-09-08T08:43:13.000Z</time>
      </trkpt>
      <trkpt lat="47.32447" lon="-2.29932">
        <ele>-30.60000038147</ele>
        <time>2022-09-08T08:43:15.000Z</time>
      </trkpt>
      <trkpt lat="47.32445" lon="-2.29941">
        <ele>-30.60000038147</ele>
        <time>2022-09-08T08:43:17.000Z</time>
      </trkpt>
      <trkpt lat="47.32444" lon="-2.29952">
        <ele>-30.60000038147</ele>
        <time>2022-09-08T08:43:19.000Z</time>
      </trkpt>
      <trkpt lat="47.32447" lon="-2.29958">
        <ele>-30.60000038147</ele>
        <time>2022-09-08T08:43:20.000Z</time>
      </trkpt>
      <trkpt lat="47.32456" lon="-2.29973">
        <ele>-30.60000038147</ele>
        <time>2022-09-08T08:43:23.000Z</time>
      </trkpt>
      <trkpt lat="47.32463" lon="-2.29984">
        <ele>-30.60000038147</ele>
        <time>2022-09-08T08:43:25.000Z</time>
      </trkpt>
      <trkpt lat="47.32473" lon="-2.30002">
        <ele>-30.60000038147</ele>
        <time>2022-09-08T08:43:28.000Z</time>
      </trkpt>
      <trkpt lat="47.32481" lon="-2.30024">
        <ele>-30.60000038147</ele>
        <time>2022-09-08T08:43:31.000Z</time>
      </trkpt>
      <trkpt lat="47.32485" lon="-2.30039">
        <ele>-30.60000038147</ele>
        <time>2022-09-08T08:43:33.000Z</time>
      </trkpt>
      <trkpt lat="47.32493" lon="-2.30069">
        <ele>-30.60000038147</ele>
        <time>2022-09-08T08:43:37.000Z</time>
      </trkpt>
      <trkpt lat="47.32496" lon="-2.30099">
        <ele>-30.60000038147</ele>
        <time>2022-09-08T08:43:41.000Z</time>
      </trkpt>
      <trkpt lat="47.325" lon="-2.30129">
        <ele>-30.60000038147</ele>
        <time>2022-09-08T08:43:45.000Z</time>
      </trkpt>
      <trkpt lat="47.32507" lon="-2.30176">
        <ele>-30.60000038147</ele>
        <time>2022-09-08T08:43:51.000Z</time>
      </trkpt>
      <trkpt lat="47.32508" lon="-2.30184">
        <ele>-30.60000038147</ele>
        <time>2022-09-08T08:43:52.000Z</time>
      </trkpt>
      <trkpt lat="47.32515" lon="-2.30238">
        <ele>-30.60000038147</ele>
        <time>2022-09-08T08:43:59.000Z</time>
      </trkpt>
      <trkpt lat="47.32519" lon="-2.30262">
        <ele>-30.60000038147</ele>
        <time>2022-09-08T08:44:02.000Z</time>
      </trkpt>
      <trkpt lat="47.32525" lon="-2.30293">
        <ele>-30.60000038147</ele>
        <time>2022-09-08T08:44:06.000Z</time>
      </trkpt>
      <trkpt lat="47.32533" lon="-2.3034">
        <ele>-30.60000038147</ele>
        <time>2022-09-08T08:44:12.000Z</time>
      </trkpt>
      <trkpt lat="47.32542" lon="-2.30384">
        <ele>-30.60000038147</ele>
        <time>2022-09-08T08:44:18.000Z</time>
      </trkpt>
      <trkpt lat="47.32542" lon="-2.30391">
        <ele>-30.60000038147</ele>
        <time>2022-09-08T08:44:19.000Z</time>
      </trkpt>
      <trkpt lat="47.32537" lon="-2.304">
        <ele>-30.60000038147</ele>
        <time>2022-09-08T08:44:21.000Z</time>
      </trkpt>
      <trkpt lat="47.32528" lon="-2.30404">
        <ele>-31</ele>
        <time>2022-09-08T08:44:23.000Z</time>
      </trkpt>
      <trkpt lat="47.32523" lon="-2.30406">
        <ele>-31.39999961853</ele>
        <time>2022-09-08T08:44:24.000Z</time>
      </trkpt>
      <trkpt lat="47.32518" lon="-2.30408">
        <ele>-31.799999237061</ele>
        <time>2022-09-08T08:44:25.000Z</time>
      </trkpt>
      <trkpt lat="47.32513" lon="-2.3041">
        <ele>-32.200000762939</ele>
        <time>2022-09-08T08:44:26.000Z</time>
      </trkpt>
      <trkpt lat="47.32508" lon="-2.30412">
        <ele>-32.599998474121</ele>
        <time>2022-09-08T08:44:27.000Z</time>
      </trkpt>
      <trkpt lat="47.325" lon="-2.30419">
        <ele>-32.599998474121</ele>
        <time>2022-09-08T08:44:29.000Z</time>
      </trkpt>
      <trkpt lat="47.32499" lon="-2.30426">
        <ele>-32.599998474121</ele>
        <time>2022-09-08T08:44:30.000Z</time>
      </trkpt>
      <trkpt lat="47.32503" lon="-2.30446">
        <ele>-32.599998474121</ele>
        <time>2022-09-08T08:44:33.000Z</time>
      </trkpt>
      <trkpt lat="47.32506" lon="-2.30461">
        <ele>-32.599998474121</ele>
        <time>2022-09-08T08:44:35.000Z</time>
      </trkpt>
      <trkpt lat="47.32513" lon="-2.30495">
        <ele>-32.599998474121</ele>
        <time>2022-09-08T08:44:39.000Z</time>
      </trkpt>
      <trkpt lat="47.32522" lon="-2.30553">
        <ele>-32.599998474121</ele>
        <time>2022-09-08T08:44:46.000Z</time>
      </trkpt>
      <trkpt lat="47.32533" lon="-2.30617">
        <ele>-32.599998474121</ele>
        <time>2022-09-08T08:44:54.000Z</time>
      </trkpt>
      <trkpt lat="47.32544" lon="-2.30667">
        <ele>-32.599998474121</ele>
        <time>2022-09-08T08:45:00.000Z</time>
      </trkpt>
      <trkpt lat="47.32548" lon="-2.3071">
        <ele>-32.599998474121</ele>
        <time>2022-09-08T08:45:05.000Z</time>
      </trkpt>
      <trkpt lat="47.32553" lon="-2.30736">
        <ele>-32.599998474121</ele>
        <time>2022-09-08T08:45:08.000Z</time>
      </trkpt>
      <trkpt lat="47.32556" lon="-2.30754">
        <ele>-33</ele>
        <time>2022-09-08T08:45:10.000Z</time>
      </trkpt>
      <trkpt lat="47.32557" lon="-2.30762">
        <ele>-33.400001525879</ele>
        <time>2022-09-08T08:45:11.000Z</time>
      </trkpt>
      <trkpt lat="47.32559" lon="-2.3077">
        <ele>-33.799999237061</ele>
        <time>2022-09-08T08:45:12.000Z</time>
      </trkpt>
      <trkpt lat="47.3256" lon="-2.30778">
        <ele>-34.200000762939</ele>
        <time>2022-09-08T08:45:13.000Z</time>
      </trkpt>
      <trkpt lat="47.32562" lon="-2.30786">
        <ele>-34.599998474121</ele>
        <time>2022-09-08T08:45:14.000Z</time>
      </trkpt>
      <trkpt lat="47.32564" lon="-2.30808">
        <ele>-34.599998474121</ele>
        <time>2022-09-08T08:45:17.000Z</time>
      </trkpt>
      <trkpt lat="47.32567" lon="-2.30848">
        <ele>-34.599998474121</ele>
        <time>2022-09-08T08:45:22.000Z</time>
      </trkpt>
      <trkpt lat="47.32568" lon="-2.30888">
        <ele>-34.599998474121</ele>
        <time>2022-09-08T08:45:27.000Z</time>
      </trkpt>
      <trkpt lat="47.32568" lon="-2.30895">
        <ele>-34.599998474121</ele>
        <time>2022-09-08T08:45:28.000Z</time>
      </trkpt>
      <trkpt lat="47.32567" lon="-2.30919">
        <ele>-34.599998474121</ele>
        <time>2022-09-08T08:45:31.000Z</time>
      </trkpt>
      <trkpt lat="47.32567" lon="-2.30934">
        <ele>-34.599998474121</ele>
        <time>2022-09-08T08:45:33.000Z</time>
      </trkpt>
      <trkpt lat="47.32565" lon="-2.30969">
        <ele>-34.599998474121</ele>
        <time>2022-09-08T08:45:38.000Z</time>
      </trkpt>
      <trkpt lat="47.32566" lon="-2.30996">
        <ele>-34.599998474121</ele>
        <time>2022-09-08T08:45:42.000Z</time>
      </trkpt>
      <trkpt lat="47.32567" lon="-2.31012">
        <ele>-34.599998474121</ele>
        <time>2022-09-08T08:45:44.000Z</time>
      </trkpt>
      <trkpt lat="47.32573" lon="-2.31059">
        <ele>-34.599998474121</ele>
        <time>2022-09-08T08:45:50.000Z</time>
      </trkpt>
      <trkpt lat="47.32573" lon="-2.31098">
        <ele>-34.599998474121</ele>
        <time>2022-09-08T08:45:55.000Z</time>
      </trkpt>
      <trkpt lat="47.32571" lon="-2.31105">
        <ele>-34.599998474121</ele>
        <time>2022-09-08T08:45:56.000Z</time>
      </trkpt>
      <trkpt lat="47.32568" lon="-2.31136">
        <ele>-34.599998474121</ele>
        <time>2022-09-08T08:46:00.000Z</time>
      </trkpt>
      <trkpt lat="47.32565" lon="-2.31158">
        <ele>-34.599998474121</ele>
        <time>2022-09-08T08:46:03.000Z</time>
      </trkpt>
      <trkpt lat="47.32563" lon="-2.31171">
        <ele>-34.599998474121</ele>
        <time>2022-09-08T08:46:05.000Z</time>
      </trkpt>
      <trkpt lat="47.32567" lon="-2.31204">
        <ele>-35</ele>
        <time>2022-09-08T08:46:10.000Z</time>
      </trkpt>
      <trkpt lat="47.3257" lon="-2.3121">
        <ele>-35.599998474121</ele>
        <time>2022-09-08T08:46:11.000Z</time>
      </trkpt>
      <trkpt lat="47.32572" lon="-2.31217">
        <ele>-36</ele>
        <time>2022-09-08T08:46:12.000Z</time>
      </trkpt>
      <trkpt lat="47.32572" lon="-2.31225">
        <ele>-36.400001525879</ele>
        <time>2022-09-08T08:46:13.000Z</time>
      </trkpt>
      <trkpt lat="47.32572" lon="-2.31233">
        <ele>-36.799999237061</ele>
        <time>2022-09-08T08:46:14.000Z</time>
      </trkpt>
      <trkpt lat="47.3257" lon="-2.31256">
        <ele>-36.799999237061</ele>
        <time>2022-09-08T08:46:17.000Z</time>
      </trkpt>
      <trkpt lat="47.3257" lon="-2.31263">
        <ele>-36.799999237061</ele>
        <time>2022-09-08T08:46:18.000Z</time>
      </trkpt>
      <trkpt lat="47.3257" lon="-2.31292">
        <ele>-36.799999237061</ele>
        <time>2022-09-08T08:46:22.000Z</time>
      </trkpt>
      <trkpt lat="47.32569" lon="-2.31306">
        <ele>-36.799999237061</ele>
        <time>2022-09-08T08:46:24.000Z</time>
      </trkpt>
      <trkpt lat="47.32562" lon="-2.31325">
        <ele>-36.799999237061</ele>
        <time>2022-09-08T08:46:27.000Z</time>
      </trkpt>
      <trkpt lat="47.3256" lon="-2.31331">
        <ele>-36.799999237061</ele>
        <time>2022-09-08T08:46:28.000Z</time>
      </trkpt>
      <trkpt lat="47.32557" lon="-2.31344">
        <ele>-36.799999237061</ele>
        <time>2022-09-08T08:46:30.000Z</time>
      </trkpt>
      <trkpt lat="47.32555" lon="-2.31365">
        <ele>-36.400001525879</ele>
        <time>2022-09-08T08:46:33.000Z</time>
      </trkpt>
      <trkpt lat="47.32555" lon="-2.31372">
        <ele>-36</ele>
        <time>2022-09-08T08:46:34.000Z</time>
      </trkpt>
      <trkpt lat="47.32555" lon="-2.31379">
        <ele>-35.599998474121</ele>
        <time>2022-09-08T08:46:35.000Z</time>
      </trkpt>
      <trkpt lat="47.32554" lon="-2.31385">
        <ele>-35.200000762939</ele>
        <time>2022-09-08T08:46:36.000Z</time>
      </trkpt>
      <trkpt lat="47.32553" lon="-2.3139">
        <ele>-34.799999237061</ele>
        <time>2022-09-08T08:46:37.000Z</time>
      </trkpt>
      <trkpt lat="47.32552" lon="-2.31399">
        <ele>-34.799999237061</ele>
        <time>2022-09-08T08:46:39.000Z</time>
      </trkpt>
      <trkpt lat="47.32553" lon="-2.31418">
        <ele>-34.799999237061</ele>
        <time>2022-09-08T08:46:44.000Z</time>
      </trkpt>
      <trkpt lat="47.32556" lon="-2.31439">
        <ele>-34.799999237061</ele>
        <time>2022-09-08T08:46:50.000Z</time>
      </trkpt>
      <trkpt lat="47.32559" lon="-2.31463">
        <ele>-34.799999237061</ele>
        <time>2022-09-08T08:46:55.000Z</time>
      </trkpt>
      <trkpt lat="47.32561" lon="-2.31487">
        <ele>-34.799999237061</ele>
        <time>2022-09-08T08:47:01.000Z</time>
      </trkpt>
      <trkpt lat="47.32558" lon="-2.31516">
        <ele>-34.799999237061</ele>
        <time>2022-09-08T08:47:06.000Z</time>
      </trkpt>
      <trkpt lat="47.32558" lon="-2.3153">
        <ele>-34.799999237061</ele>
        <time>2022-09-08T08:47:08.000Z</time>
      </trkpt>
      <trkpt lat="47.32558" lon="-2.31551">
        <ele>-34.799999237061</ele>
        <time>2022-09-08T08:47:11.000Z</time>
      </trkpt>
      <trkpt lat="47.32558" lon="-2.31572">
        <ele>-34.799999237061</ele>
        <time>2022-09-08T08:47:14.000Z</time>
      </trkpt>
      <trkpt lat="47.32557" lon="-2.31582">
        <ele>-34.799999237061</ele>
        <time>2022-09-08T08:47:16.000Z</time>
      </trkpt>
      <trkpt lat="47.32549" lon="-2.31595">
        <ele>-34.799999237061</ele>
        <time>2022-09-08T08:47:19.000Z</time>
      </trkpt>
      <trkpt lat="47.32546" lon="-2.316">
        <ele>-34.799999237061</ele>
        <time>2022-09-08T08:47:20.000Z</time>
      </trkpt>
      <trkpt lat="47.32529" lon="-2.31625">
        <ele>-34.799999237061</ele>
        <time>2022-09-08T08:47:25.000Z</time>
      </trkpt>
      <trkpt lat="47.32513" lon="-2.31647">
        <ele>-34.799999237061</ele>
        <time>2022-09-08T08:47:30.000Z</time>
      </trkpt>
      <trkpt lat="47.32507" lon="-2.31663">
        <ele>-34.799999237061</ele>
        <time>2022-09-08T08:47:33.000Z</time>
      </trkpt>
      <trkpt lat="47.32505" lon="-2.31677">
        <ele>-34.799999237061</ele>
        <time>2022-09-08T08:47:35.000Z</time>
      </trkpt>
      <trkpt lat="47.32507" lon="-2.31699">
        <ele>-34.799999237061</ele>
        <time>2022-09-08T08:47:38.000Z</time>
      </trkpt>
      <trkpt lat="47.32508" lon="-2.31705">
        <ele>-34.799999237061</ele>
        <time>2022-09-08T08:47:39.000Z</time>
      </trkpt>
      <trkpt lat="47.32508" lon="-2.31713">
        <ele>-34.799999237061</ele>
        <time>2022-09-08T08:47:40.000Z</time>
      </trkpt>
      <trkpt lat="47.32511" lon="-2.31734">
        <ele>-34.799999237061</ele>
        <time>2022-09-08T08:47:43.000Z</time>
      </trkpt>
      <trkpt lat="47.32513" lon="-2.31758">
        <ele>-34.799999237061</ele>
        <time>2022-09-08T08:47:46.000Z</time>
      </trkpt>
      <trkpt lat="47.32517" lon="-2.31813">
        <ele>-34.799999237061</ele>
        <time>2022-09-08T08:47:53.000Z</time>
      </trkpt>
      <trkpt lat="47.32518" lon="-2.31861">
        <ele>-34.799999237061</ele>
        <time>2022-09-08T08:47:59.000Z</time>
      </trkpt>
      <trkpt lat="47.32517" lon="-2.31869">
        <ele>-34.799999237061</ele>
        <time>2022-09-08T08:48:00.000Z</time>
      </trkpt>
      <trkpt lat="47.32513" lon="-2.31916">
        <ele>-34.799999237061</ele>
        <time>2022-09-08T08:48:06.000Z</time>
      </trkpt>
      <trkpt lat="47.32508" lon="-2.31953">
        <ele>-34.799999237061</ele>
        <time>2022-09-08T08:48:11.000Z</time>
      </trkpt>
      <trkpt lat="47.32506" lon="-2.31975">
        <ele>-34.799999237061</ele>
        <time>2022-09-08T08:48:14.000Z</time>
      </trkpt>
      <trkpt lat="47.32505" lon="-2.31995">
        <ele>-34.799999237061</ele>
        <time>2022-09-08T08:48:17.000Z</time>
      </trkpt>
      <trkpt lat="47.32504" lon="-2.32034">
        <ele>-34.799999237061</ele>
        <time>2022-09-08T08:48:23.000Z</time>
      </trkpt>
      <trkpt lat="47.32502" lon="-2.32066">
        <ele>-34.799999237061</ele>
        <time>2022-09-08T08:48:29.000Z</time>
      </trkpt>
      <trkpt lat="47.32502" lon="-2.32091">
        <ele>-34.799999237061</ele>
        <time>2022-09-08T08:48:34.000Z</time>
      </trkpt>
      <trkpt lat="47.32504" lon="-2.32093">
        <ele>-34.799999237061</ele>
        <time>2022-09-08T08:48:35.000Z</time>
      </trkpt>
      <trkpt lat="47.32511" lon="-2.32094">
        <ele>-34.799999237061</ele>
        <time>2022-09-08T08:48:37.000Z</time>
      </trkpt>
      <trkpt lat="47.32535" lon="-2.32092">
        <ele>-34.799999237061</ele>
        <time>2022-09-08T08:48:43.000Z</time>
      </trkpt>
      <trkpt lat="47.32574" lon="-2.32091">
        <ele>-34.799999237061</ele>
        <time>2022-09-08T08:48:52.000Z</time>
      </trkpt>
      <trkpt lat="47.32588" lon="-2.32104">
        <ele>-34.799999237061</ele>
        <time>2022-09-08T08:48:56.000Z</time>
      </trkpt>
      <trkpt lat="47.32588" lon="-2.32121">
        <ele>-35.400001525879</ele>
        <time>2022-09-08T08:48:58.000Z</time>
      </trkpt>
      <trkpt lat="47.32586" lon="-2.3213">
        <ele>-35.799999237061</ele>
        <time>2022-09-08T08:48:59.000Z</time>
      </trkpt>
      <trkpt lat="47.32584" lon="-2.32138">
        <ele>-36.799999237061</ele>
        <time>2022-09-08T08:49:00.000Z</time>
      </trkpt>
      <trkpt lat="47.32582" lon="-2.32146">
        <ele>-37.200000762939</ele>
        <time>2022-09-08T08:49:01.000Z</time>
      </trkpt>
      <trkpt lat="47.32573" lon="-2.32172">
        <ele>-37.200000762939</ele>
        <time>2022-09-08T08:49:04.000Z</time>
      </trkpt>
      <trkpt lat="47.32571" lon="-2.3218">
        <ele>-37.599998474121</ele>
        <time>2022-09-08T08:49:05.000Z</time>
      </trkpt>
      <trkpt lat="47.32569" lon="-2.32188">
        <ele>-38.200000762939</ele>
        <time>2022-09-08T08:49:06.000Z</time>
      </trkpt>
      <trkpt lat="47.32567" lon="-2.32197">
        <ele>-38.599998474121</ele>
        <time>2022-09-08T08:49:07.000Z</time>
      </trkpt>
      <trkpt lat="47.32565" lon="-2.32205">
        <ele>-39</ele>
        <time>2022-09-08T08:49:08.000Z</time>
      </trkpt>
      <trkpt lat="47.32562" lon="-2.32212">
        <ele>-39.400001525879</ele>
        <time>2022-09-08T08:49:09.000Z</time>
      </trkpt>
      <trkpt lat="47.32552" lon="-2.32244">
        <ele>-39.400001525879</ele>
        <time>2022-09-08T08:49:13.000Z</time>
      </trkpt>
      <trkpt lat="47.32547" lon="-2.32265">
        <ele>-39.400001525879</ele>
        <time>2022-09-08T08:49:16.000Z</time>
      </trkpt>
      <trkpt lat="47.32543" lon="-2.32278">
        <ele>-39.400001525879</ele>
        <time>2022-09-08T08:49:18.000Z</time>
      </trkpt>
      <trkpt lat="47.32538" lon="-2.323">
        <ele>-39</ele>
        <time>2022-09-08T08:49:22.000Z</time>
      </trkpt>
      <trkpt lat="47.32538" lon="-2.32305">
        <ele>-38.599998474121</ele>
        <time>2022-09-08T08:49:23.000Z</time>
      </trkpt>
      <trkpt lat="47.32539" lon="-2.32309">
        <ele>-37.799999237061</ele>
        <time>2022-09-08T08:49:24.000Z</time>
      </trkpt>
      <trkpt lat="47.32542" lon="-2.32312">
        <ele>-37.400001525879</ele>
        <time>2022-09-08T08:49:25.000Z</time>
      </trkpt>
      <trkpt lat="47.32546" lon="-2.32313">
        <ele>-37.400001525879</ele>
        <time>2022-09-08T08:49:26.000Z</time>
      </trkpt>
      <trkpt lat="47.32563" lon="-2.32313">
        <ele>-37.400001525879</ele>
        <time>2022-09-08T08:49:30.000Z</time>
      </trkpt>
      <trkpt lat="47.32568" lon="-2.32313">
        <ele>-37.400001525879</ele>
        <time>2022-09-08T08:49:31.000Z</time>
      </trkpt>
      <trkpt lat="47.32601" lon="-2.32308">
        <ele>-37.400001525879</ele>
        <time>2022-09-08T08:49:37.000Z</time>
      </trkpt>
      <trkpt lat="47.32606" lon="-2.32307">
        <ele>-37.400001525879</ele>
        <time>2022-09-08T08:49:38.000Z</time>
      </trkpt>
      <trkpt lat="47.32628" lon="-2.32309">
        <ele>-37.400001525879</ele>
        <time>2022-09-08T08:49:42.000Z</time>
      </trkpt>
      <trkpt lat="47.32667" lon="-2.32313">
        <ele>-37.400001525879</ele>
        <time>2022-09-08T08:49:49.000Z</time>
      </trkpt>
      <trkpt lat="47.3271" lon="-2.32329">
        <ele>-37.400001525879</ele>
        <time>2022-09-08T08:49:56.000Z</time>
      </trkpt>
      <trkpt lat="47.32753" lon="-2.32351">
        <ele>-37.400001525879</ele>
        <time>2022-09-08T08:50:03.000Z</time>
      </trkpt>
      <trkpt lat="47.32766" lon="-2.3236">
        <ele>-37.799999237061</ele>
        <time>2022-09-08T08:50:05.000Z</time>
      </trkpt>
      <trkpt lat="47.32772" lon="-2.32364">
        <ele>-38.200000762939</ele>
        <time>2022-09-08T08:50:06.000Z</time>
      </trkpt>
      <trkpt lat="47.32779" lon="-2.32368">
        <ele>-38.599998474121</ele>
        <time>2022-09-08T08:50:07.000Z</time>
      </trkpt>
      <trkpt lat="47.32785" lon="-2.32372">
        <ele>-39</ele>
        <time>2022-09-08T08:50:08.000Z</time>
      </trkpt>
      <trkpt lat="47.32791" lon="-2.32376">
        <ele>-39.400001525879</ele>
        <time>2022-09-08T08:50:09.000Z</time>
      </trkpt>
      <trkpt lat="47.32797" lon="-2.32381">
        <ele>-39.400001525879</ele>
        <time>2022-09-08T08:50:10.000Z</time>
      </trkpt>
      <trkpt lat="47.32817" lon="-2.32405">
        <ele>-39.400001525879</ele>
        <time>2022-09-08T08:50:14.000Z</time>
      </trkpt>
      <trkpt lat="47.32849" lon="-2.3243">
        <ele>-39.400001525879</ele>
        <time>2022-09-08T08:50:20.000Z</time>
      </trkpt>
      <trkpt lat="47.32861" lon="-2.32437">
        <ele>-39.400001525879</ele>
        <time>2022-09-08T08:50:22.000Z</time>
      </trkpt>
      <trkpt lat="47.32879" lon="-2.32448">
        <ele>-39.400001525879</ele>
        <time>2022-09-08T08:50:25.000Z</time>
      </trkpt>
      <trkpt lat="47.32894" lon="-2.3246">
        <ele>-39.400001525879</ele>
        <time>2022-09-08T08:50:28.000Z</time>
      </trkpt>
      <trkpt lat="47.32898" lon="-2.32465">
        <ele>-39.400001525879</ele>
        <time>2022-09-08T08:50:29.000Z</time>
      </trkpt>
      <trkpt lat="47.32901" lon="-2.32472">
        <ele>-39.400001525879</ele>
        <time>2022-09-08T08:50:30.000Z</time>
      </trkpt>
      <trkpt lat="47.32906" lon="-2.32487">
        <ele>-39.400001525879</ele>
        <time>2022-09-08T08:50:32.000Z</time>
      </trkpt>
      <trkpt lat="47.32911" lon="-2.32505">
        <ele>-39.400001525879</ele>
        <time>2022-09-08T08:50:34.000Z</time>
      </trkpt>
      <trkpt lat="47.32915" lon="-2.32532">
        <ele>-39.400001525879</ele>
        <time>2022-09-08T08:50:37.000Z</time>
      </trkpt>
      <trkpt lat="47.32918" lon="-2.32559">
        <ele>-39.400001525879</ele>
        <time>2022-09-08T08:50:40.000Z</time>
      </trkpt>
      <trkpt lat="47.32918" lon="-2.32587">
        <ele>-39.400001525879</ele>
        <time>2022-09-08T08:50:43.000Z</time>
      </trkpt>
      <trkpt lat="47.32916" lon="-2.32622">
        <ele>-39.400001525879</ele>
        <time>2022-09-08T08:50:47.000Z</time>
      </trkpt>
      <trkpt lat="47.32916" lon="-2.32629">
        <ele>-39.400001525879</ele>
        <time>2022-09-08T08:50:48.000Z</time>
      </trkpt>
      <trkpt lat="47.32927" lon="-2.32641">
        <ele>-39.400001525879</ele>
        <time>2022-09-08T08:50:51.000Z</time>
      </trkpt>
      <trkpt lat="47.32945" lon="-2.3264">
        <ele>-39.400001525879</ele>
        <time>2022-09-08T08:50:54.000Z</time>
      </trkpt>
      <trkpt lat="47.3295" lon="-2.32639">
        <ele>-39.400001525879</ele>
        <time>2022-09-08T08:50:55.000Z</time>
      </trkpt>
      <trkpt lat="47.32961" lon="-2.32637">
        <ele>-39.400001525879</ele>
        <time>2022-09-08T08:50:57.000Z</time>
      </trkpt>
      <trkpt lat="47.32972" lon="-2.32631">
        <ele>-39.400001525879</ele>
        <time>2022-09-08T08:50:59.000Z</time>
      </trkpt>
      <trkpt lat="47.32988" lon="-2.32621">
        <ele>-39.799999237061</ele>
        <time>2022-09-08T08:51:02.000Z</time>
      </trkpt>
      <trkpt lat="47.32995" lon="-2.32622">
        <ele>-40.799999237061</ele>
        <time>2022-09-08T08:51:03.000Z</time>
      </trkpt>
      <trkpt lat="47.33001" lon="-2.32625">
        <ele>-41.200000762939</ele>
        <time>2022-09-08T08:51:04.000Z</time>
      </trkpt>
      <trkpt lat="47.33007" lon="-2.3263">
        <ele>-41.799999237061</ele>
        <time>2022-09-08T08:51:05.000Z</time>
      </trkpt>
      <trkpt lat="47.33013" lon="-2.32633">
        <ele>-41.799999237061</ele>
        <time>2022-09-08T08:51:06.000Z</time>
      </trkpt>
      <trkpt lat="47.33029" lon="-2.32628">
        <ele>-41.799999237061</ele>
        <time>2022-09-08T08:51:09.000Z</time>
      </trkpt>
      <trkpt lat="47.33045" lon="-2.32617">
        <ele>-41.799999237061</ele>
        <time>2022-09-08T08:51:12.000Z</time>
      </trkpt>
      <trkpt lat="47.33056" lon="-2.32609">
        <ele>-41.799999237061</ele>
        <time>2022-09-08T08:51:14.000Z</time>
      </trkpt>
      <trkpt lat="47.3308" lon="-2.32591">
        <ele>-41.799999237061</ele>
        <time>2022-09-08T08:51:19.000Z</time>
      </trkpt>
      <trkpt lat="47.33116" lon="-2.32561">
        <ele>-41.799999237061</ele>
        <time>2022-09-08T08:51:26.000Z</time>
      </trkpt>
      <trkpt lat="47.33126" lon="-2.32553">
        <ele>-41.400001525879</ele>
        <time>2022-09-08T08:51:28.000Z</time>
      </trkpt>
      <trkpt lat="47.33131" lon="-2.3255">
        <ele>-41</ele>
        <time>2022-09-08T08:51:29.000Z</time>
      </trkpt>
      <trkpt lat="47.33136" lon="-2.32546">
        <ele>-40.599998474121</ele>
        <time>2022-09-08T08:51:30.000Z</time>
      </trkpt>
      <trkpt lat="47.33141" lon="-2.32543">
        <ele>-40</ele>
        <time>2022-09-08T08:51:31.000Z</time>
      </trkpt>
      <trkpt lat="47.33146" lon="-2.32539">
        <ele>-39.599998474121</ele>
        <time>2022-09-08T08:51:32.000Z</time>
      </trkpt>
      <trkpt lat="47.33152" lon="-2.32536">
        <ele>-39.599998474121</ele>
        <time>2022-09-08T08:51:33.000Z</time>
      </trkpt>
      <trkpt lat="47.33179" lon="-2.3252">
        <ele>-39.599998474121</ele>
        <time>2022-09-08T08:51:38.000Z</time>
      </trkpt>
      <trkpt lat="47.33184" lon="-2.32518">
        <ele>-39.599998474121</ele>
        <time>2022-09-08T08:51:39.000Z</time>
      </trkpt>
      <trkpt lat="47.33207" lon="-2.32507">
        <ele>-39.200000762939</ele>
        <time>2022-09-08T08:51:43.000Z</time>
      </trkpt>
      <trkpt lat="47.33213" lon="-2.32504">
        <ele>-38.799999237061</ele>
        <time>2022-09-08T08:51:44.000Z</time>
      </trkpt>
      <trkpt lat="47.33218" lon="-2.32502">
        <ele>-38.400001525879</ele>
        <time>2022-09-08T08:51:45.000Z</time>
      </trkpt>
      <trkpt lat="47.33224" lon="-2.325">
        <ele>-38</ele>
        <time>2022-09-08T08:51:46.000Z</time>
      </trkpt>
      <trkpt lat="47.3323" lon="-2.32498">
        <ele>-37.599998474121</ele>
        <time>2022-09-08T08:51:47.000Z</time>
      </trkpt>
      <trkpt lat="47.33257" lon="-2.32483">
        <ele>-37.599998474121</ele>
        <time>2022-09-08T08:51:52.000Z</time>
      </trkpt>
      <trkpt lat="47.33291" lon="-2.32468">
        <ele>-37.599998474121</ele>
        <time>2022-09-08T08:51:58.000Z</time>
      </trkpt>
      <trkpt lat="47.33307" lon="-2.32462">
        <ele>-37.599998474121</ele>
        <time>2022-09-08T08:52:01.000Z</time>
      </trkpt>
      <trkpt lat="47.33319" lon="-2.32458">
        <ele>-37.599998474121</ele>
        <time>2022-09-08T08:52:03.000Z</time>
      </trkpt>
      <trkpt lat="47.3333" lon="-2.32451">
        <ele>-37.599998474121</ele>
        <time>2022-09-08T08:52:05.000Z</time>
      </trkpt>
      <trkpt lat="47.3334" lon="-2.32439">
        <ele>-37.599998474121</ele>
        <time>2022-09-08T08:52:07.000Z</time>
      </trkpt>
      <trkpt lat="47.3335" lon="-2.32425">
        <ele>-37.599998474121</ele>
        <time>2022-09-08T08:52:09.000Z</time>
      </trkpt>
      <trkpt lat="47.33361" lon="-2.32413">
        <ele>-37.599998474121</ele>
        <time>2022-09-08T08:52:11.000Z</time>
      </trkpt>
      <trkpt lat="47.33367" lon="-2.32408">
        <ele>-37.599998474121</ele>
        <time>2022-09-08T08:52:12.000Z</time>
      </trkpt>
      <trkpt lat="47.33396" lon="-2.32384">
        <ele>-38.400001525879</ele>
        <time>2022-09-08T08:52:17.000Z</time>
      </trkpt>
      <trkpt lat="47.33401" lon="-2.32379">
        <ele>-38.799999237061</ele>
        <time>2022-09-08T08:52:18.000Z</time>
      </trkpt>
      <trkpt lat="47.33406" lon="-2.32375">
        <ele>-39.200000762939</ele>
        <time>2022-09-08T08:52:19.000Z</time>
      </trkpt>
      <trkpt lat="47.33412" lon="-2.3237">
        <ele>-39.599998474121</ele>
        <time>2022-09-08T08:52:20.000Z</time>
      </trkpt>
      <trkpt lat="47.33429" lon="-2.32356">
        <ele>-39.599998474121</ele>
        <time>2022-09-08T08:52:23.000Z</time>
      </trkpt>
      <trkpt lat="47.33453" lon="-2.32338">
        <ele>-39.599998474121</ele>
        <time>2022-09-08T08:52:27.000Z</time>
      </trkpt>
      <trkpt lat="47.33465" lon="-2.32332">
        <ele>-39.599998474121</ele>
        <time>2022-09-08T08:52:29.000Z</time>
      </trkpt>
      <trkpt lat="47.33495" lon="-2.32317">
        <ele>-39.599998474121</ele>
        <time>2022-09-08T08:52:34.000Z</time>
      </trkpt>
      <trkpt lat="47.3353" lon="-2.32303">
        <ele>-39.599998474121</ele>
        <time>2022-09-08T08:52:40.000Z</time>
      </trkpt>
      <trkpt lat="47.33554" lon="-2.32302">
        <ele>-39.599998474121</ele>
        <time>2022-09-08T08:52:44.000Z</time>
      </trkpt>
      <trkpt lat="47.33578" lon="-2.32293">
        <ele>-39.599998474121</ele>
        <time>2022-09-08T08:52:48.000Z</time>
      </trkpt>
      <trkpt lat="47.33584" lon="-2.32291">
        <ele>-39.599998474121</ele>
        <time>2022-09-08T08:52:49.000Z</time>
      </trkpt>
      <trkpt lat="47.33591" lon="-2.3229">
        <ele>-39.200000762939</ele>
        <time>2022-09-08T08:52:50.000Z</time>
      </trkpt>
      <trkpt lat="47.33597" lon="-2.32288">
        <ele>-38.799999237061</ele>
        <time>2022-09-08T08:52:51.000Z</time>
      </trkpt>
      <trkpt lat="47.33603" lon="-2.32287">
        <ele>-38.400001525879</ele>
        <time>2022-09-08T08:52:52.000Z</time>
      </trkpt>
      <trkpt lat="47.33609" lon="-2.32286">
        <ele>-38</ele>
        <time>2022-09-08T08:52:53.000Z</time>
      </trkpt>
      <trkpt lat="47.33615" lon="-2.32285">
        <ele>-37.599998474121</ele>
        <time>2022-09-08T08:52:54.000Z</time>
      </trkpt>
      <trkpt lat="47.33621" lon="-2.32284">
        <ele>-37.599998474121</ele>
        <time>2022-09-08T08:52:55.000Z</time>
      </trkpt>
      <trkpt lat="47.33656" lon="-2.32274">
        <ele>-37.599998474121</ele>
        <time>2022-09-08T08:53:01.000Z</time>
      </trkpt>
      <trkpt lat="47.33662" lon="-2.32271">
        <ele>-37.599998474121</ele>
        <time>2022-09-08T08:53:02.000Z</time>
      </trkpt>
      <trkpt lat="47.33697" lon="-2.32252">
        <ele>-37.599998474121</ele>
        <time>2022-09-08T08:53:08.000Z</time>
      </trkpt>
      <trkpt lat="47.33718" lon="-2.32235">
        <ele>-37.599998474121</ele>
        <time>2022-09-08T08:53:12.000Z</time>
      </trkpt>
      <trkpt lat="47.33723" lon="-2.32232">
        <ele>-37.599998474121</ele>
        <time>2022-09-08T08:53:13.000Z</time>
      </trkpt>
      <trkpt lat="47.33752" lon="-2.32216">
        <ele>-37.599998474121</ele>
        <time>2022-09-08T08:53:18.000Z</time>
      </trkpt>
      <trkpt lat="47.33758" lon="-2.32214">
        <ele>-37.599998474121</ele>
        <time>2022-09-08T08:53:19.000Z</time>
      </trkpt>
      <trkpt lat="47.33769" lon="-2.32211">
        <ele>-37.599998474121</ele>
        <time>2022-09-08T08:53:21.000Z</time>
      </trkpt>
      <trkpt lat="47.33781" lon="-2.32211">
        <ele>-37.599998474121</ele>
        <time>2022-09-08T08:53:23.000Z</time>
      </trkpt>
      <trkpt lat="47.33798" lon="-2.32207">
        <ele>-37.599998474121</ele>
        <time>2022-09-08T08:53:26.000Z</time>
      </trkpt>
      <trkpt lat="47.33804" lon="-2.32206">
        <ele>-37.599998474121</ele>
        <time>2022-09-08T08:53:27.000Z</time>
      </trkpt>
      <trkpt lat="47.33818" lon="-2.32203">
        <ele>-37.599998474121</ele>
        <time>2022-09-08T08:53:29.000Z</time>
      </trkpt>
      <trkpt lat="47.33832" lon="-2.32201">
        <ele>-37.599998474121</ele>
        <time>2022-09-08T08:53:31.000Z</time>
      </trkpt>
      <trkpt lat="47.33873" lon="-2.32195">
        <ele>-37.599998474121</ele>
        <time>2022-09-08T08:53:37.000Z</time>
      </trkpt>
      <trkpt lat="47.33886" lon="-2.32196">
        <ele>-37.599998474121</ele>
        <time>2022-09-08T08:53:39.000Z</time>
      </trkpt>
      <trkpt lat="47.33893" lon="-2.32196">
        <ele>-38</ele>
        <time>2022-09-08T08:53:40.000Z</time>
      </trkpt>
      <trkpt lat="47.33899" lon="-2.32196">
        <ele>-38.400001525879</ele>
        <time>2022-09-08T08:53:41.000Z</time>
      </trkpt>
      <trkpt lat="47.33905" lon="-2.32196">
        <ele>-38.799999237061</ele>
        <time>2022-09-08T08:53:42.000Z</time>
      </trkpt>
      <trkpt lat="47.3391" lon="-2.32196">
        <ele>-39.200000762939</ele>
        <time>2022-09-08T08:53:43.000Z</time>
      </trkpt>
      <trkpt lat="47.33916" lon="-2.32197">
        <ele>-39.599998474121</ele>
        <time>2022-09-08T08:53:44.000Z</time>
      </trkpt>
      <trkpt lat="47.33926" lon="-2.32196">
        <ele>-39.599998474121</ele>
        <time>2022-09-08T08:53:46.000Z</time>
      </trkpt>
      <trkpt lat="47.33932" lon="-2.32197">
        <ele>-39.599998474121</ele>
        <time>2022-09-08T08:53:47.000Z</time>
      </trkpt>
      <trkpt lat="47.33949" lon="-2.32209">
        <ele>-39.599998474121</ele>
        <time>2022-09-08T08:53:50.000Z</time>
      </trkpt>
      <trkpt lat="47.33954" lon="-2.32213">
        <ele>-39.599998474121</ele>
        <time>2022-09-08T08:53:51.000Z</time>
      </trkpt>
      <trkpt lat="47.3396" lon="-2.32215">
        <ele>-39.599998474121</ele>
        <time>2022-09-08T08:53:52.000Z</time>
      </trkpt>
      <trkpt lat="47.33972" lon="-2.32215">
        <ele>-39.599998474121</ele>
        <time>2022-09-08T08:53:54.000Z</time>
      </trkpt>
      <trkpt lat="47.33989" lon="-2.32213">
        <ele>-39.599998474121</ele>
        <time>2022-09-08T08:53:57.000Z</time>
      </trkpt>
      <trkpt lat="47.33996" lon="-2.32213">
        <ele>-39.599998474121</ele>
        <time>2022-09-08T08:53:58.000Z</time>
      </trkpt>
      <trkpt lat="47.34036" lon="-2.32216">
        <ele>-39.599998474121</ele>
        <time>2022-09-08T08:54:04.000Z</time>
      </trkpt>
      <trkpt lat="47.34056" lon="-2.32218">
        <ele>-39.599998474121</ele>
        <time>2022-09-08T08:54:07.000Z</time>
      </trkpt>
      <trkpt lat="47.34067" lon="-2.32224">
        <ele>-39.599998474121</ele>
        <time>2022-09-08T08:54:09.000Z</time>
      </trkpt>
      <trkpt lat="47.34083" lon="-2.32246">
        <ele>-39.599998474121</ele>
        <time>2022-09-08T08:54:13.000Z</time>
      </trkpt>
      <trkpt lat="47.34087" lon="-2.32258">
        <ele>-39.200000762939</ele>
        <time>2022-09-08T08:54:15.000Z</time>
      </trkpt>
      <trkpt lat="47.34089" lon="-2.32265">
        <ele>-38.799999237061</ele>
        <time>2022-09-08T08:54:16.000Z</time>
      </trkpt>
      <trkpt lat="47.34092" lon="-2.32271">
        <ele>-38.400001525879</ele>
        <time>2022-09-08T08:54:17.000Z</time>
      </trkpt>
      <trkpt lat="47.34093" lon="-2.32277">
        <ele>-38</ele>
        <time>2022-09-08T08:54:18.000Z</time>
      </trkpt>
      <trkpt lat="47.34096" lon="-2.32283">
        <ele>-37.599998474121</ele>
        <time>2022-09-08T08:54:19.000Z</time>
      </trkpt>
      <trkpt lat="47.341" lon="-2.32303">
        <ele>-37.599998474121</ele>
        <time>2022-09-08T08:54:22.000Z</time>
      </trkpt>
      <trkpt lat="47.34102" lon="-2.3231">
        <ele>-37.599998474121</ele>
        <time>2022-09-08T08:54:23.000Z</time>
      </trkpt>
      <trkpt lat="47.34108" lon="-2.3233">
        <ele>-37.599998474121</ele>
        <time>2022-09-08T08:54:26.000Z</time>
      </trkpt>
      <trkpt lat="47.34112" lon="-2.32342">
        <ele>-37.200000762939</ele>
        <time>2022-09-08T08:54:28.000Z</time>
      </trkpt>
      <trkpt lat="47.34114" lon="-2.32348">
        <ele>-36.799999237061</ele>
        <time>2022-09-08T08:54:29.000Z</time>
      </trkpt>
      <trkpt lat="47.34115" lon="-2.32355">
        <ele>-36.200000762939</ele>
        <time>2022-09-08T08:54:30.000Z</time>
      </trkpt>
      <trkpt lat="47.34116" lon="-2.32361">
        <ele>-35.799999237061</ele>
        <time>2022-09-08T08:54:31.000Z</time>
      </trkpt>
      <trkpt lat="47.34117" lon="-2.32367">
        <ele>-35.400001525879</ele>
        <time>2022-09-08T08:54:32.000Z</time>
      </trkpt>
      <trkpt lat="47.34119" lon="-2.32373">
        <ele>-35.400001525879</ele>
        <time>2022-09-08T08:54:33.000Z</time>
      </trkpt>
      <trkpt lat="47.3413" lon="-2.32412">
        <ele>-35.400001525879</ele>
        <time>2022-09-08T08:54:39.000Z</time>
      </trkpt>
      <trkpt lat="47.34134" lon="-2.32424">
        <ele>-35.400001525879</ele>
        <time>2022-09-08T08:54:41.000Z</time>
      </trkpt>
      <trkpt lat="47.34139" lon="-2.32445">
        <ele>-35.400001525879</ele>
        <time>2022-09-08T08:54:44.000Z</time>
      </trkpt>
      <trkpt lat="47.34151" lon="-2.32484">
        <ele>-35.400001525879</ele>
        <time>2022-09-08T08:54:50.000Z</time>
      </trkpt>
      <trkpt lat="47.34155" lon="-2.32521">
        <ele>-35.400001525879</ele>
        <time>2022-09-08T08:54:55.000Z</time>
      </trkpt>
      <trkpt lat="47.34156" lon="-2.32543">
        <ele>-35</ele>
        <time>2022-09-08T08:54:58.000Z</time>
      </trkpt>
      <trkpt lat="47.34156" lon="-2.3255">
        <ele>-34.599998474121</ele>
        <time>2022-09-08T08:54:59.000Z</time>
      </trkpt>
      <trkpt lat="47.34157" lon="-2.32557">
        <ele>-34.200000762939</ele>
        <time>2022-09-08T08:55:00.000Z</time>
      </trkpt>
      <trkpt lat="47.34157" lon="-2.32564">
        <ele>-33.799999237061</ele>
        <time>2022-09-08T08:55:01.000Z</time>
      </trkpt>
      <trkpt lat="47.34158" lon="-2.32569">
        <ele>-33.400001525879</ele>
        <time>2022-09-08T08:55:02.000Z</time>
      </trkpt>
      <trkpt lat="47.34152" lon="-2.32598">
        <ele>-33.400001525879</ele>
        <time>2022-09-08T08:55:07.000Z</time>
      </trkpt>
      <trkpt lat="47.34154" lon="-2.32632">
        <ele>-33.400001525879</ele>
        <time>2022-09-08T08:55:12.000Z</time>
      </trkpt>
      <trkpt lat="47.34156" lon="-2.32654">
        <ele>-33.400001525879</ele>
        <time>2022-09-08T08:55:15.000Z</time>
      </trkpt>
      <trkpt lat="47.34157" lon="-2.32667">
        <ele>-33.400001525879</ele>
        <time>2022-09-08T08:55:17.000Z</time>
      </trkpt>
      <trkpt lat="47.34161" lon="-2.32721">
        <ele>-33.400001525879</ele>
        <time>2022-09-08T08:55:24.000Z</time>
      </trkpt>
      <trkpt lat="47.34161" lon="-2.32735">
        <ele>-33.400001525879</ele>
        <time>2022-09-08T08:55:26.000Z</time>
      </trkpt>
      <trkpt lat="47.34162" lon="-2.32756">
        <ele>-33.400001525879</ele>
        <time>2022-09-08T08:55:29.000Z</time>
      </trkpt>
      <trkpt lat="47.34162" lon="-2.32764">
        <ele>-33.400001525879</ele>
        <time>2022-09-08T08:55:30.000Z</time>
      </trkpt>
      <trkpt lat="47.34163" lon="-2.32771">
        <ele>-33.400001525879</ele>
        <time>2022-09-08T08:55:31.000Z</time>
      </trkpt>
      <trkpt lat="47.34167" lon="-2.32784">
        <ele>-33.400001525879</ele>
        <time>2022-09-08T08:55:33.000Z</time>
      </trkpt>
      <trkpt lat="47.34171" lon="-2.32797">
        <ele>-33.400001525879</ele>
        <time>2022-09-08T08:55:35.000Z</time>
      </trkpt>
      <trkpt lat="47.34174" lon="-2.32807">
        <ele>-33.799999237061</ele>
        <time>2022-09-08T08:55:37.000Z</time>
      </trkpt>
      <trkpt lat="47.34176" lon="-2.32813">
        <ele>-34.200000762939</ele>
        <time>2022-09-08T08:55:38.000Z</time>
      </trkpt>
      <trkpt lat="47.34178" lon="-2.32818">
        <ele>-34.599998474121</ele>
        <time>2022-09-08T08:55:39.000Z</time>
      </trkpt>
      <trkpt lat="47.34181" lon="-2.32823">
        <ele>-35</ele>
        <time>2022-09-08T08:55:40.000Z</time>
      </trkpt>
      <trkpt lat="47.34183" lon="-2.32827">
        <ele>-35.400001525879</ele>
        <time>2022-09-08T08:55:41.000Z</time>
      </trkpt>
      <trkpt lat="47.34185" lon="-2.32832">
        <ele>-35.400001525879</ele>
        <time>2022-09-08T08:55:42.000Z</time>
      </trkpt>
      <trkpt lat="47.34194" lon="-2.32851">
        <ele>-35.400001525879</ele>
        <time>2022-09-08T08:55:47.000Z</time>
      </trkpt>
      <trkpt lat="47.34206" lon="-2.32876">
        <ele>-35.400001525879</ele>
        <time>2022-09-08T08:55:52.000Z</time>
      </trkpt>
      <trkpt lat="47.34211" lon="-2.32887">
        <ele>-35.799999237061</ele>
        <time>2022-09-08T08:55:54.000Z</time>
      </trkpt>
      <trkpt lat="47.34213" lon="-2.3289">
        <ele>-36.400001525879</ele>
        <time>2022-09-08T08:55:55.000Z</time>
      </trkpt>
      <trkpt lat="47.34216" lon="-2.32892">
        <ele>-36.799999237061</ele>
        <time>2022-09-08T08:55:56.000Z</time>
      </trkpt>
      <trkpt lat="47.34219" lon="-2.32896">
        <ele>-37.200000762939</ele>
        <time>2022-09-08T08:55:57.000Z</time>
      </trkpt>
      <trkpt lat="47.34221" lon="-2.329">
        <ele>-37.599998474121</ele>
        <time>2022-09-08T08:55:58.000Z</time>
      </trkpt>
      <trkpt lat="47.34229" lon="-2.32913">
        <ele>-38</ele>
        <time>2022-09-08T08:56:01.000Z</time>
      </trkpt>
      <trkpt lat="47.34231" lon="-2.32916">
        <ele>-38.599998474121</ele>
        <time>2022-09-08T08:56:02.000Z</time>
      </trkpt>
      <trkpt lat="47.34234" lon="-2.32923">
        <ele>-39</ele>
        <time>2022-09-08T08:56:03.000Z</time>
      </trkpt>
      <trkpt lat="47.34237" lon="-2.3293">
        <ele>-39.400001525879</ele>
        <time>2022-09-08T08:56:04.000Z</time>
      </trkpt>
      <trkpt lat="47.34241" lon="-2.32936">
        <ele>-39.799999237061</ele>
        <time>2022-09-08T08:56:05.000Z</time>
      </trkpt>
      <trkpt lat="47.34249" lon="-2.32953">
        <ele>-39.799999237061</ele>
        <time>2022-09-08T08:56:08.000Z</time>
      </trkpt>
      <trkpt lat="47.34258" lon="-2.32972">
        <ele>-39.799999237061</ele>
        <time>2022-09-08T08:56:11.000Z</time>
      </trkpt>
      <trkpt lat="47.34264" lon="-2.32985">
        <ele>-39.799999237061</ele>
        <time>2022-09-08T08:56:13.000Z</time>
      </trkpt>
      <trkpt lat="47.34273" lon="-2.33003">
        <ele>-39.799999237061</ele>
        <time>2022-09-08T08:56:16.000Z</time>
      </trkpt>
      <trkpt lat="47.34288" lon="-2.33033">
        <ele>-39.799999237061</ele>
        <time>2022-09-08T08:56:23.000Z</time>
      </trkpt>
      <trkpt lat="47.34301" lon="-2.33045">
        <ele>-39.799999237061</ele>
        <time>2022-09-08T08:56:30.000Z</time>
      </trkpt>
      <trkpt lat="47.34306" lon="-2.33047">
        <ele>-39.799999237061</ele>
        <time>2022-09-08T08:56:34.000Z</time>
      </trkpt>
      <trkpt lat="47.34309" lon="-2.3305">
        <ele>-39.799999237061</ele>
        <time>2022-09-08T08:56:36.000Z</time>
      </trkpt>
      <trkpt lat="47.34314" lon="-2.33048">
        <ele>-39.799999237061</ele>
        <time>2022-09-08T08:56:40.000Z</time>
      </trkpt>
      <trkpt lat="47.34333" lon="-2.33043">
        <ele>-39.799999237061</ele>
        <time>2022-09-08T08:56:45.000Z</time>
      </trkpt>
      <trkpt lat="47.34353" lon="-2.33025">
        <ele>-39.799999237061</ele>
        <time>2022-09-08T08:56:49.000Z</time>
      </trkpt>
      <trkpt lat="47.34359" lon="-2.33005">
        <ele>-39.799999237061</ele>
        <time>2022-09-08T08:56:52.000Z</time>
      </trkpt>
      <trkpt lat="47.34359" lon="-2.32981">
        <ele>-39.799999237061</ele>
        <time>2022-09-08T08:56:56.000Z</time>
      </trkpt>
      <trkpt lat="47.34358" lon="-2.32975">
        <ele>-39.799999237061</ele>
        <time>2022-09-08T08:56:57.000Z</time>
      </trkpt>
      <trkpt lat="47.34357" lon="-2.32968">
        <ele>-39.799999237061</ele>
        <time>2022-09-08T08:56:58.000Z</time>
      </trkpt>
      <trkpt lat="47.34353" lon="-2.32948">
        <ele>-39.799999237061</ele>
        <time>2022-09-08T08:57:01.000Z</time>
      </trkpt>
      <trkpt lat="47.3435" lon="-2.32935">
        <ele>-39.799999237061</ele>
        <time>2022-09-08T08:57:03.000Z</time>
      </trkpt>
      <trkpt lat="47.34349" lon="-2.32917">
        <ele>-39.799999237061</ele>
        <time>2022-09-08T08:57:06.000Z</time>
      </trkpt>
      <trkpt lat="47.34353" lon="-2.32906">
        <ele>-39.799999237061</ele>
        <time>2022-09-08T08:57:08.000Z</time>
      </trkpt>
      <trkpt lat="47.34356" lon="-2.32903">
        <ele>-39.799999237061</ele>
        <time>2022-09-08T08:57:09.000Z</time>
      </trkpt>
      <trkpt lat="47.34377" lon="-2.32881">
        <ele>-39.799999237061</ele>
        <time>2022-09-08T08:57:14.000Z</time>
      </trkpt>
      <trkpt lat="47.34392" lon="-2.32868">
        <ele>-39.799999237061</ele>
        <time>2022-09-08T08:57:18.000Z</time>
      </trkpt>
      <trkpt lat="47.34406" lon="-2.32856">
        <ele>-39.799999237061</ele>
        <time>2022-09-08T08:57:22.000Z</time>
      </trkpt>
      <trkpt lat="47.34425" lon="-2.32843">
        <ele>-39.799999237061</ele>
        <time>2022-09-08T08:57:27.000Z</time>
      </trkpt>
      <trkpt lat="47.34429" lon="-2.3284">
        <ele>-39.799999237061</ele>
        <time>2022-09-08T08:57:28.000Z</time>
      </trkpt>
      <trkpt lat="47.34437" lon="-2.32825">
        <ele>-39.799999237061</ele>
        <time>2022-09-08T08:57:31.000Z</time>
      </trkpt>
      <trkpt lat="47.34437" lon="-2.32808">
        <ele>-39.799999237061</ele>
        <time>2022-09-08T08:57:34.000Z</time>
      </trkpt>
      <trkpt lat="47.34438" lon="-2.32802">
        <ele>-39.799999237061</ele>
        <time>2022-09-08T08:57:35.000Z</time>
      </trkpt>
      <trkpt lat="47.3444" lon="-2.32784">
        <ele>-39.400001525879</ele>
        <time>2022-09-08T08:57:38.000Z</time>
      </trkpt>
      <trkpt lat="47.34441" lon="-2.32779">
        <ele>-38.799999237061</ele>
        <time>2022-09-08T08:57:39.000Z</time>
      </trkpt>
      <trkpt lat="47.34443" lon="-2.32773">
        <ele>-38.400001525879</ele>
        <time>2022-09-08T08:57:40.000Z</time>
      </trkpt>
      <trkpt lat="47.34445" lon="-2.32768">
        <ele>-38</ele>
        <time>2022-09-08T08:57:41.000Z</time>
      </trkpt>
      <trkpt lat="47.34449" lon="-2.32763">
        <ele>-37.599998474121</ele>
        <time>2022-09-08T08:57:42.000Z</time>
      </trkpt>
      <trkpt lat="47.34462" lon="-2.3275">
        <ele>-37.599998474121</ele>
        <time>2022-09-08T08:57:45.000Z</time>
      </trkpt>
      <trkpt lat="47.34468" lon="-2.32745">
        <ele>-37.599998474121</ele>
        <time>2022-09-08T08:57:46.000Z</time>
      </trkpt>
      <trkpt lat="47.3449" lon="-2.32732">
        <ele>-37.599998474121</ele>
        <time>2022-09-08T08:57:50.000Z</time>
      </trkpt>
      <trkpt lat="47.34504" lon="-2.32725">
        <ele>-37.599998474121</ele>
        <time>2022-09-08T08:57:53.000Z</time>
      </trkpt>
      <trkpt lat="47.34517" lon="-2.32718">
        <ele>-37.599998474121</ele>
        <time>2022-09-08T08:57:56.000Z</time>
      </trkpt>
      <trkpt lat="47.34521" lon="-2.32716">
        <ele>-37.599998474121</ele>
        <time>2022-09-08T08:57:57.000Z</time>
      </trkpt>
      <trkpt lat="47.34536" lon="-2.32704">
        <ele>-37.599998474121</ele>
        <time>2022-09-08T08:58:00.000Z</time>
      </trkpt>
      <trkpt lat="47.3454" lon="-2.32702">
        <ele>-37.599998474121</ele>
        <time>2022-09-08T08:58:01.000Z</time>
      </trkpt>
      <trkpt lat="47.34545" lon="-2.32698">
        <ele>-37.599998474121</ele>
        <time>2022-09-08T08:58:02.000Z</time>
      </trkpt>
      <trkpt lat="47.34564" lon="-2.32685">
        <ele>-37.599998474121</ele>
        <time>2022-09-08T08:58:06.000Z</time>
      </trkpt>
      <trkpt lat="47.34573" lon="-2.32677">
        <ele>-37.599998474121</ele>
        <time>2022-09-08T08:58:08.000Z</time>
      </trkpt>
      <trkpt lat="47.34579" lon="-2.32669">
        <ele>-37.599998474121</ele>
        <time>2022-09-08T08:58:10.000Z</time>
      </trkpt>
      <trkpt lat="47.34602" lon="-2.32639">
        <ele>-37.599998474121</ele>
        <time>2022-09-08T08:58:15.000Z</time>
      </trkpt>
      <trkpt lat="47.34611" lon="-2.32627">
        <ele>-38</ele>
        <time>2022-09-08T08:58:17.000Z</time>
      </trkpt>
      <trkpt lat="47.34616" lon="-2.32621">
        <ele>-38.400001525879</ele>
        <time>2022-09-08T08:58:18.000Z</time>
      </trkpt>
      <trkpt lat="47.3462" lon="-2.32615">
        <ele>-38.799999237061</ele>
        <time>2022-09-08T08:58:19.000Z</time>
      </trkpt>
      <trkpt lat="47.34625" lon="-2.32608">
        <ele>-39.200000762939</ele>
        <time>2022-09-08T08:58:20.000Z</time>
      </trkpt>
      <trkpt lat="47.34629" lon="-2.32602">
        <ele>-39.599998474121</ele>
        <time>2022-09-08T08:58:21.000Z</time>
      </trkpt>
      <trkpt lat="47.34641" lon="-2.32582">
        <ele>-39.599998474121</ele>
        <time>2022-09-08T08:58:24.000Z</time>
      </trkpt>
      <trkpt lat="47.34648" lon="-2.32569">
        <ele>-39.599998474121</ele>
        <time>2022-09-08T08:58:26.000Z</time>
      </trkpt>
      <trkpt lat="47.34662" lon="-2.32536">
        <ele>-39.599998474121</ele>
        <time>2022-09-08T08:58:31.000Z</time>
      </trkpt>
      <trkpt lat="47.34671" lon="-2.32523">
        <ele>-39.599998474121</ele>
        <time>2022-09-08T08:58:34.000Z</time>
      </trkpt>
      <trkpt lat="47.34676" lon="-2.32521">
        <ele>-39.599998474121</ele>
        <time>2022-09-08T08:58:35.000Z</time>
      </trkpt>
      <trkpt lat="47.34692" lon="-2.32518">
        <ele>-39.599998474121</ele>
        <time>2022-09-08T08:58:38.000Z</time>
      </trkpt>
      <trkpt lat="47.34698" lon="-2.32517">
        <ele>-39.599998474121</ele>
        <time>2022-09-08T08:58:39.000Z</time>
      </trkpt>
      <trkpt lat="47.34703" lon="-2.32516">
        <ele>-39.599998474121</ele>
        <time>2022-09-08T08:58:40.000Z</time>
      </trkpt>
      <trkpt lat="47.34714" lon="-2.32513">
        <ele>-39.599998474121</ele>
        <time>2022-09-08T08:58:42.000Z</time>
      </trkpt>
      <trkpt lat="47.34719" lon="-2.32511">
        <ele>-39.599998474121</ele>
        <time>2022-09-08T08:58:43.000Z</time>
      </trkpt>
      <trkpt lat="47.34736" lon="-2.32501">
        <ele>-39.599998474121</ele>
        <time>2022-09-08T08:58:47.000Z</time>
      </trkpt>
      <trkpt lat="47.3474" lon="-2.32498">
        <ele>-39.599998474121</ele>
        <time>2022-09-08T08:58:48.000Z</time>
      </trkpt>
      <trkpt lat="47.34751" lon="-2.32488">
        <ele>-40</ele>
        <time>2022-09-08T08:58:51.000Z</time>
      </trkpt>
      <trkpt lat="47.34755" lon="-2.32484">
        <ele>-40.400001525879</ele>
        <time>2022-09-08T08:58:52.000Z</time>
      </trkpt>
      <trkpt lat="47.34758" lon="-2.3248">
        <ele>-40.799999237061</ele>
        <time>2022-09-08T08:58:53.000Z</time>
      </trkpt>
      <trkpt lat="47.34762" lon="-2.32476">
        <ele>-41.200000762939</ele>
        <time>2022-09-08T08:58:54.000Z</time>
      </trkpt>
      <trkpt lat="47.34766" lon="-2.32473">
        <ele>-41.599998474121</ele>
        <time>2022-09-08T08:58:55.000Z</time>
      </trkpt>
      <trkpt lat="47.34773" lon="-2.32465">
        <ele>-41.599998474121</ele>
        <time>2022-09-08T08:58:57.000Z</time>
      </trkpt>
      <trkpt lat="47.34786" lon="-2.32443">
        <ele>-41.599998474121</ele>
        <time>2022-09-08T08:59:01.000Z</time>
      </trkpt>
      <trkpt lat="47.34807" lon="-2.32411">
        <ele>-41.599998474121</ele>
        <time>2022-09-08T08:59:06.000Z</time>
      </trkpt>
      <trkpt lat="47.34829" lon="-2.32377">
        <ele>-41.599998474121</ele>
        <time>2022-09-08T08:59:12.000Z</time>
      </trkpt>
      <trkpt lat="47.34841" lon="-2.3236">
        <ele>-41.599998474121</ele>
        <time>2022-09-08T08:59:15.000Z</time>
      </trkpt>
      <trkpt lat="47.34849" lon="-2.32347">
        <ele>-41.599998474121</ele>
        <time>2022-09-08T08:59:17.000Z</time>
      </trkpt>
      <trkpt lat="47.34851" lon="-2.3234">
        <ele>-41.599998474121</ele>
        <time>2022-09-08T08:59:18.000Z</time>
      </trkpt>
      <trkpt lat="47.34854" lon="-2.32333">
        <ele>-41.599998474121</ele>
        <time>2022-09-08T08:59:19.000Z</time>
      </trkpt>
      <trkpt lat="47.34855" lon="-2.32321">
        <ele>-41.599998474121</ele>
        <time>2022-09-08T08:59:21.000Z</time>
      </trkpt>
      <trkpt lat="47.34847" lon="-2.32308">
        <ele>-41.599998474121</ele>
        <time>2022-09-08T08:59:24.000Z</time>
      </trkpt>
      <trkpt lat="47.34844" lon="-2.32304">
        <ele>-41.599998474121</ele>
        <time>2022-09-08T08:59:25.000Z</time>
      </trkpt>
      <trkpt lat="47.34825" lon="-2.32277">
        <ele>-41.599998474121</ele>
        <time>2022-09-08T08:59:30.000Z</time>
      </trkpt>
      <trkpt lat="47.34813" lon="-2.32253">
        <ele>-41.599998474121</ele>
        <time>2022-09-08T08:59:34.000Z</time>
      </trkpt>
      <trkpt lat="47.3481" lon="-2.32247">
        <ele>-41.599998474121</ele>
        <time>2022-09-08T08:59:35.000Z</time>
      </trkpt>
      <trkpt lat="47.34791" lon="-2.32218">
        <ele>-41.599998474121</ele>
        <time>2022-09-08T08:59:40.000Z</time>
      </trkpt>
      <trkpt lat="47.34785" lon="-2.32207">
        <ele>-41.599998474121</ele>
        <time>2022-09-08T08:59:42.000Z</time>
      </trkpt>
      <trkpt lat="47.34779" lon="-2.32197">
        <ele>-41.599998474121</ele>
        <time>2022-09-08T08:59:44.000Z</time>
      </trkpt>
      <trkpt lat="47.34774" lon="-2.32197">
        <ele>-41.599998474121</ele>
        <time>2022-09-08T08:59:46.000Z</time>
      </trkpt>
      <trkpt lat="47.34773" lon="-2.32204">
        <ele>-41.599998474121</ele>
        <time>2022-09-08T08:59:49.000Z</time>
      </trkpt>
      <trkpt lat="47.34772" lon="-2.32219">
        <ele>-41.599998474121</ele>
        <time>2022-09-08T08:59:52.000Z</time>
      </trkpt>
      <trkpt lat="47.34768" lon="-2.3223">
        <ele>-41.599998474121</ele>
        <time>2022-09-08T08:59:54.000Z</time>
      </trkpt>
      <trkpt lat="47.34763" lon="-2.32242">
        <ele>-41.599998474121</ele>
        <time>2022-09-08T08:59:56.000Z</time>
      </trkpt>
      <trkpt lat="47.34745" lon="-2.32282">
        <ele>-41.599998474121</ele>
        <time>2022-09-08T09:00:03.000Z</time>
      </trkpt>
      <trkpt lat="47.34735" lon="-2.32304">
        <ele>-41.599998474121</ele>
        <time>2022-09-08T09:00:07.000Z</time>
      </trkpt>
      <trkpt lat="47.34733" lon="-2.32309">
        <ele>-41.599998474121</ele>
        <time>2022-09-08T09:00:08.000Z</time>
      </trkpt>
      <trkpt lat="47.34725" lon="-2.32331">
        <ele>-41.200000762939</ele>
        <time>2022-09-08T09:00:12.000Z</time>
      </trkpt>
      <trkpt lat="47.34723" lon="-2.32337">
        <ele>-40.799999237061</ele>
        <time>2022-09-08T09:00:13.000Z</time>
      </trkpt>
      <trkpt lat="47.34721" lon="-2.32343">
        <ele>-40.200000762939</ele>
        <time>2022-09-08T09:00:14.000Z</time>
      </trkpt>
      <trkpt lat="47.34719" lon="-2.32348">
        <ele>-39.799999237061</ele>
        <time>2022-09-08T09:00:15.000Z</time>
      </trkpt>
      <trkpt lat="47.34718" lon="-2.32354">
        <ele>-39.400001525879</ele>
        <time>2022-09-08T09:00:16.000Z</time>
      </trkpt>
      <trkpt lat="47.34714" lon="-2.32364">
        <ele>-39.400001525879</ele>
        <time>2022-09-08T09:00:18.000Z</time>
      </trkpt>
      <trkpt lat="47.34705" lon="-2.32395">
        <ele>-39.400001525879</ele>
        <time>2022-09-08T09:00:23.000Z</time>
      </trkpt>
      <trkpt lat="47.34697" lon="-2.32418">
        <ele>-39.400001525879</ele>
        <time>2022-09-08T09:00:27.000Z</time>
      </trkpt>
      <trkpt lat="47.34694" lon="-2.32431">
        <ele>-39.400001525879</ele>
        <time>2022-09-08T09:00:29.000Z</time>
      </trkpt>
      <trkpt lat="47.34683" lon="-2.32468">
        <ele>-39.400001525879</ele>
        <time>2022-09-08T09:00:35.000Z</time>
      </trkpt>
      <trkpt lat="47.34668" lon="-2.32511">
        <ele>-39.400001525879</ele>
        <time>2022-09-08T09:00:40.000Z</time>
      </trkpt>
      <trkpt lat="47.34654" lon="-2.3255">
        <ele>-39.400001525879</ele>
        <time>2022-09-08T09:00:45.000Z</time>
      </trkpt>
      <trkpt lat="47.34648" lon="-2.32564">
        <ele>-39.400001525879</ele>
        <time>2022-09-08T09:00:47.000Z</time>
      </trkpt>
      <trkpt lat="47.34638" lon="-2.32584">
        <ele>-39.400001525879</ele>
        <time>2022-09-08T09:00:50.000Z</time>
      </trkpt>
      <trkpt lat="47.34629" lon="-2.32604">
        <ele>-39.400001525879</ele>
        <time>2022-09-08T09:00:53.000Z</time>
      </trkpt>
      <trkpt lat="47.34615" lon="-2.32624">
        <ele>-39.400001525879</ele>
        <time>2022-09-08T09:00:56.000Z</time>
      </trkpt>
      <trkpt lat="47.34588" lon="-2.32656">
        <ele>-39.400001525879</ele>
        <time>2022-09-08T09:01:02.000Z</time>
      </trkpt>
      <trkpt lat="47.34567" lon="-2.32677">
        <ele>-39.400001525879</ele>
        <time>2022-09-08T09:01:07.000Z</time>
      </trkpt>
      <trkpt lat="47.34558" lon="-2.32684">
        <ele>-39.400001525879</ele>
        <time>2022-09-08T09:01:09.000Z</time>
      </trkpt>
      <trkpt lat="47.34532" lon="-2.32704">
        <ele>-39</ele>
        <time>2022-09-08T09:01:15.000Z</time>
      </trkpt>
      <trkpt lat="47.34528" lon="-2.32707">
        <ele>-38.599998474121</ele>
        <time>2022-09-08T09:01:16.000Z</time>
      </trkpt>
      <trkpt lat="47.34524" lon="-2.32711">
        <ele>-38.200000762939</ele>
        <time>2022-09-08T09:01:17.000Z</time>
      </trkpt>
      <trkpt lat="47.34519" lon="-2.32714">
        <ele>-37.799999237061</ele>
        <time>2022-09-08T09:01:18.000Z</time>
      </trkpt>
      <trkpt lat="47.34515" lon="-2.32717">
        <ele>-37.400001525879</ele>
        <time>2022-09-08T09:01:19.000Z</time>
      </trkpt>
      <trkpt lat="47.34506" lon="-2.32722">
        <ele>-37.400001525879</ele>
        <time>2022-09-08T09:01:21.000Z</time>
      </trkpt>
      <trkpt lat="47.34488" lon="-2.32733">
        <ele>-37.400001525879</ele>
        <time>2022-09-08T09:01:25.000Z</time>
      </trkpt>
      <trkpt lat="47.34484" lon="-2.32736">
        <ele>-37.400001525879</ele>
        <time>2022-09-08T09:01:26.000Z</time>
      </trkpt>
      <trkpt lat="47.34466" lon="-2.32751">
        <ele>-37.400001525879</ele>
        <time>2022-09-08T09:01:31.000Z</time>
      </trkpt>
      <trkpt lat="47.3446" lon="-2.32759">
        <ele>-37.400001525879</ele>
        <time>2022-09-08T09:01:33.000Z</time>
      </trkpt>
      <trkpt lat="47.34456" lon="-2.3277">
        <ele>-37.400001525879</ele>
        <time>2022-09-08T09:01:35.000Z</time>
      </trkpt>
      <trkpt lat="47.34456" lon="-2.32801">
        <ele>-37.400001525879</ele>
        <time>2022-09-08T09:01:39.000Z</time>
      </trkpt>
      <trkpt lat="47.34457" lon="-2.32815">
        <ele>-37.799999237061</ele>
        <time>2022-09-08T09:01:41.000Z</time>
      </trkpt>
      <trkpt lat="47.34455" lon="-2.32821">
        <ele>-38.200000762939</ele>
        <time>2022-09-08T09:01:42.000Z</time>
      </trkpt>
      <trkpt lat="47.34452" lon="-2.32826">
        <ele>-38.599998474121</ele>
        <time>2022-09-08T09:01:43.000Z</time>
      </trkpt>
      <trkpt lat="47.34447" lon="-2.3283">
        <ele>-39.400001525879</ele>
        <time>2022-09-08T09:01:44.000Z</time>
      </trkpt>
      <trkpt lat="47.34442" lon="-2.32833">
        <ele>-39.400001525879</ele>
        <time>2022-09-08T09:01:45.000Z</time>
      </trkpt>
      <trkpt lat="47.34422" lon="-2.32847">
        <ele>-39.400001525879</ele>
        <time>2022-09-08T09:01:49.000Z</time>
      </trkpt>
      <trkpt lat="47.34418" lon="-2.32851">
        <ele>-39.400001525879</ele>
        <time>2022-09-08T09:01:50.000Z</time>
      </trkpt>
      <trkpt lat="47.34385" lon="-2.32884">
        <ele>-39.400001525879</ele>
        <time>2022-09-08T09:01:58.000Z</time>
      </trkpt>
      <trkpt lat="47.34372" lon="-2.32896">
        <ele>-39.799999237061</ele>
        <time>2022-09-08T09:02:01.000Z</time>
      </trkpt>
      <trkpt lat="47.34367" lon="-2.329">
        <ele>-40.200000762939</ele>
        <time>2022-09-08T09:02:02.000Z</time>
      </trkpt>
      <trkpt lat="47.34364" lon="-2.32906">
        <ele>-40.599998474121</ele>
        <time>2022-09-08T09:02:03.000Z</time>
      </trkpt>
      <trkpt lat="47.3436" lon="-2.32912">
        <ele>-41</ele>
        <time>2022-09-08T09:02:04.000Z</time>
      </trkpt>
      <trkpt lat="47.34358" lon="-2.32919">
        <ele>-41.400001525879</ele>
        <time>2022-09-08T09:02:05.000Z</time>
      </trkpt>
      <trkpt lat="47.34359" lon="-2.32935">
        <ele>-41.400001525879</ele>
        <time>2022-09-08T09:02:07.000Z</time>
      </trkpt>
      <trkpt lat="47.34364" lon="-2.32961">
        <ele>-41.400001525879</ele>
        <time>2022-09-08T09:02:10.000Z</time>
      </trkpt>
      <trkpt lat="47.34365" lon="-2.32969">
        <ele>-41.400001525879</ele>
        <time>2022-09-08T09:02:11.000Z</time>
      </trkpt>
      <trkpt lat="47.34367" lon="-2.32986">
        <ele>-41.400001525879</ele>
        <time>2022-09-08T09:02:13.000Z</time>
      </trkpt>
      <trkpt lat="47.34369" lon="-2.33004">
        <ele>-41.400001525879</ele>
        <time>2022-09-08T09:02:15.000Z</time>
      </trkpt>
      <trkpt lat="47.34369" lon="-2.33013">
        <ele>-41.400001525879</ele>
        <time>2022-09-08T09:02:16.000Z</time>
      </trkpt>
      <trkpt lat="47.3437" lon="-2.3302">
        <ele>-41.400001525879</ele>
        <time>2022-09-08T09:02:17.000Z</time>
      </trkpt>
      <trkpt lat="47.34374" lon="-2.33031">
        <ele>-41.400001525879</ele>
        <time>2022-09-08T09:02:19.000Z</time>
      </trkpt>
      <trkpt lat="47.34378" lon="-2.33048">
        <ele>-41.400001525879</ele>
        <time>2022-09-08T09:02:22.000Z</time>
      </trkpt>
      <trkpt lat="47.34379" lon="-2.33053">
        <ele>-41.400001525879</ele>
        <time>2022-09-08T09:02:23.000Z</time>
      </trkpt>
      <trkpt lat="47.34384" lon="-2.33077">
        <ele>-41.400001525879</ele>
        <time>2022-09-08T09:02:27.000Z</time>
      </trkpt>
      <trkpt lat="47.34385" lon="-2.33084">
        <ele>-41.400001525879</ele>
        <time>2022-09-08T09:02:28.000Z</time>
      </trkpt>
      <trkpt lat="47.34386" lon="-2.33097">
        <ele>-41.400001525879</ele>
        <time>2022-09-08T09:02:30.000Z</time>
      </trkpt>
      <trkpt lat="47.34391" lon="-2.33122">
        <ele>-41.400001525879</ele>
        <time>2022-09-08T09:02:34.000Z</time>
      </trkpt>
      <trkpt lat="47.34398" lon="-2.33154">
        <ele>-41.400001525879</ele>
        <time>2022-09-08T09:02:40.000Z</time>
      </trkpt>
      <trkpt lat="47.34405" lon="-2.33184">
        <ele>-41.400001525879</ele>
        <time>2022-09-08T09:02:45.000Z</time>
      </trkpt>
      <trkpt lat="47.3441" lon="-2.33212">
        <ele>-41.400001525879</ele>
        <time>2022-09-08T09:02:50.000Z</time>
      </trkpt>
      <trkpt lat="47.34418" lon="-2.33246">
        <ele>-41.400001525879</ele>
        <time>2022-09-08T09:02:56.000Z</time>
      </trkpt>
      <trkpt lat="47.34423" lon="-2.33265">
        <ele>-41</ele>
        <time>2022-09-08T09:02:59.000Z</time>
      </trkpt>
      <trkpt lat="47.34424" lon="-2.33271">
        <ele>-40.599998474121</ele>
        <time>2022-09-08T09:03:00.000Z</time>
      </trkpt>
      <trkpt lat="47.34426" lon="-2.33276">
        <ele>-40.200000762939</ele>
        <time>2022-09-08T09:03:01.000Z</time>
      </trkpt>
      <trkpt lat="47.34428" lon="-2.33281">
        <ele>-39.799999237061</ele>
        <time>2022-09-08T09:03:02.000Z</time>
      </trkpt>
      <trkpt lat="47.3443" lon="-2.33285">
        <ele>-39.400001525879</ele>
        <time>2022-09-08T09:03:03.000Z</time>
      </trkpt>
      <trkpt lat="47.34432" lon="-2.33288">
        <ele>-39.400001525879</ele>
        <time>2022-09-08T09:03:04.000Z</time>
      </trkpt>
      <trkpt lat="47.34437" lon="-2.33291">
        <ele>-39.400001525879</ele>
        <time>2022-09-08T09:03:06.000Z</time>
      </trkpt>
      <trkpt lat="47.34449" lon="-2.33306">
        <ele>-39.400001525879</ele>
        <time>2022-09-08T09:03:10.000Z</time>
      </trkpt>
      <trkpt lat="47.34453" lon="-2.33317">
        <ele>-39.400001525879</ele>
        <time>2022-09-08T09:03:12.000Z</time>
      </trkpt>
      <trkpt lat="47.34456" lon="-2.33332">
        <ele>-39.400001525879</ele>
        <time>2022-09-08T09:03:15.000Z</time>
      </trkpt>
      <trkpt lat="47.3446" lon="-2.33356">
        <ele>-39.400001525879</ele>
        <time>2022-09-08T09:03:20.000Z</time>
      </trkpt>
      <trkpt lat="47.34465" lon="-2.33388">
        <ele>-39.400001525879</ele>
        <time>2022-09-08T09:03:27.000Z</time>
      </trkpt>
      <trkpt lat="47.34467" lon="-2.33403">
        <ele>-39.400001525879</ele>
        <time>2022-09-08T09:03:31.000Z</time>
      </trkpt>
      <trkpt lat="47.3447" lon="-2.33422">
        <ele>-39.400001525879</ele>
        <time>2022-09-08T09:03:37.000Z</time>
      </trkpt>
      <trkpt lat="47.34474" lon="-2.33444">
        <ele>-39.400001525879</ele>
        <time>2022-09-08T09:03:42.000Z</time>
      </trkpt>
      <trkpt lat="47.34476" lon="-2.3347">
        <ele>-39.400001525879</ele>
        <time>2022-09-08T09:03:47.000Z</time>
      </trkpt>
      <trkpt lat="47.3448" lon="-2.33504">
        <ele>-39.400001525879</ele>
        <time>2022-09-08T09:03:53.000Z</time>
      </trkpt>
      <trkpt lat="47.34484" lon="-2.33533">
        <ele>-39.400001525879</ele>
        <time>2022-09-08T09:03:59.000Z</time>
      </trkpt>
      <trkpt lat="47.34486" lon="-2.33542">
        <ele>-39</ele>
        <time>2022-09-08T09:04:01.000Z</time>
      </trkpt>
      <trkpt lat="47.34487" lon="-2.33546">
        <ele>-38.599998474121</ele>
        <time>2022-09-08T09:04:02.000Z</time>
      </trkpt>
      <trkpt lat="47.34487" lon="-2.33552">
        <ele>-38.200000762939</ele>
        <time>2022-09-08T09:04:03.000Z</time>
      </trkpt>
      <trkpt lat="47.34487" lon="-2.33556">
        <ele>-37.799999237061</ele>
        <time>2022-09-08T09:04:04.000Z</time>
      </trkpt>
      <trkpt lat="47.34488" lon="-2.33561">
        <ele>-37.400001525879</ele>
        <time>2022-09-08T09:04:05.000Z</time>
      </trkpt>
      <trkpt lat="47.34496" lon="-2.33582">
        <ele>-37.400001525879</ele>
        <time>2022-09-08T09:04:11.000Z</time>
      </trkpt>
      <trkpt lat="47.34505" lon="-2.33607">
        <ele>-37.400001525879</ele>
        <time>2022-09-08T09:04:16.000Z</time>
      </trkpt>
      <trkpt lat="47.3451" lon="-2.33636">
        <ele>-37.400001525879</ele>
        <time>2022-09-08T09:04:21.000Z</time>
      </trkpt>
      <trkpt lat="47.34513" lon="-2.33655">
        <ele>-37</ele>
        <time>2022-09-08T09:04:25.000Z</time>
      </trkpt>
      <trkpt lat="47.34514" lon="-2.3366">
        <ele>-36.400001525879</ele>
        <time>2022-09-08T09:04:26.000Z</time>
      </trkpt>
      <trkpt lat="47.34516" lon="-2.33665">
        <ele>-36</ele>
        <time>2022-09-08T09:04:27.000Z</time>
      </trkpt>
      <trkpt lat="47.34517" lon="-2.3367">
        <ele>-35.599998474121</ele>
        <time>2022-09-08T09:04:28.000Z</time>
      </trkpt>
      <trkpt lat="47.34518" lon="-2.33675">
        <ele>-35.200000762939</ele>
        <time>2022-09-08T09:04:29.000Z</time>
      </trkpt>
      <trkpt lat="47.34519" lon="-2.3368">
        <ele>-35.200000762939</ele>
        <time>2022-09-08T09:04:30.000Z</time>
      </trkpt>
      <trkpt lat="47.34522" lon="-2.337">
        <ele>-35.200000762939</ele>
        <time>2022-09-08T09:04:34.000Z</time>
      </trkpt>
      <trkpt lat="47.3453" lon="-2.33734">
        <ele>-35.200000762939</ele>
        <time>2022-09-08T09:04:40.000Z</time>
      </trkpt>
      <trkpt lat="47.34536" lon="-2.33765">
        <ele>-35.200000762939</ele>
        <time>2022-09-08T09:04:46.000Z</time>
      </trkpt>
      <trkpt lat="47.3454" lon="-2.3379">
        <ele>-35.200000762939</ele>
        <time>2022-09-08T09:04:51.000Z</time>
      </trkpt>
      <trkpt lat="47.34545" lon="-2.33821">
        <ele>-35.200000762939</ele>
        <time>2022-09-08T09:04:56.000Z</time>
      </trkpt>
      <trkpt lat="47.34554" lon="-2.3387">
        <ele>-35.200000762939</ele>
        <time>2022-09-08T09:05:03.000Z</time>
      </trkpt>
      <trkpt lat="47.34555" lon="-2.33876">
        <ele>-35.200000762939</ele>
        <time>2022-09-08T09:05:04.000Z</time>
      </trkpt>
      <trkpt lat="47.34563" lon="-2.33896">
        <ele>-35.200000762939</ele>
        <time>2022-09-08T09:05:07.000Z</time>
      </trkpt>
      <trkpt lat="47.3457" lon="-2.33913">
        <ele>-35.200000762939</ele>
        <time>2022-09-08T09:05:10.000Z</time>
      </trkpt>
      <trkpt lat="47.34572" lon="-2.33917">
        <ele>-35.200000762939</ele>
        <time>2022-09-08T09:05:11.000Z</time>
      </trkpt>
      <trkpt lat="47.34574" lon="-2.33925">
        <ele>-35.200000762939</ele>
        <time>2022-09-08T09:05:15.000Z</time>
      </trkpt>
      <trkpt lat="47.34577" lon="-2.33935">
        <ele>-35.200000762939</ele>
        <time>2022-09-08T09:05:26.000Z</time>
      </trkpt>
      <trkpt lat="47.34577" lon="-2.33937">
        <ele>-35.200000762939</ele>
        <time>2022-09-08T09:05:27.000Z</time>
      </trkpt>
      <trkpt lat="47.34579" lon="-2.33941">
        <ele>-35.200000762939</ele>
        <time>2022-09-08T09:05:29.000Z</time>
      </trkpt>
      <trkpt lat="47.34583" lon="-2.33957">
        <ele>-35.200000762939</ele>
        <time>2022-09-08T09:05:36.000Z</time>
      </trkpt>
      <trkpt lat="47.34592" lon="-2.33974">
        <ele>-35.200000762939</ele>
        <time>2022-09-08T09:05:42.000Z</time>
      </trkpt>
      <trkpt lat="47.34599" lon="-2.33994">
        <ele>-35.200000762939</ele>
        <time>2022-09-08T09:05:48.000Z</time>
      </trkpt>
      <trkpt lat="47.34604" lon="-2.34014">
        <ele>-35.200000762939</ele>
        <time>2022-09-08T09:05:53.000Z</time>
      </trkpt>
      <trkpt lat="47.34608" lon="-2.34039">
        <ele>-35.200000762939</ele>
        <time>2022-09-08T09:06:00.000Z</time>
      </trkpt>
      <trkpt lat="47.34614" lon="-2.34069">
        <ele>-35.200000762939</ele>
        <time>2022-09-08T09:06:07.000Z</time>
      </trkpt>
      <trkpt lat="47.34619" lon="-2.34092">
        <ele>-35.200000762939</ele>
        <time>2022-09-08T09:06:13.000Z</time>
      </trkpt>
      <trkpt lat="47.34627" lon="-2.34117">
        <ele>-35.200000762939</ele>
        <time>2022-09-08T09:06:20.000Z</time>
      </trkpt>
      <trkpt lat="47.34637" lon="-2.34132">
        <ele>-35.200000762939</ele>
        <time>2022-09-08T09:06:25.000Z</time>
      </trkpt>
      <trkpt lat="47.34639" lon="-2.34135">
        <ele>-34.799999237061</ele>
        <time>2022-09-08T09:06:26.000Z</time>
      </trkpt>
      <trkpt lat="47.34641" lon="-2.34138">
        <ele>-34.400001525879</ele>
        <time>2022-09-08T09:06:27.000Z</time>
      </trkpt>
      <trkpt lat="47.34644" lon="-2.34141">
        <ele>-34</ele>
        <time>2022-09-08T09:06:28.000Z</time>
      </trkpt>
      <trkpt lat="47.34646" lon="-2.34144">
        <ele>-33.599998474121</ele>
        <time>2022-09-08T09:06:29.000Z</time>
      </trkpt>
      <trkpt lat="47.34647" lon="-2.34146">
        <ele>-33.200000762939</ele>
        <time>2022-09-08T09:06:30.000Z</time>
      </trkpt>
      <trkpt lat="47.34649" lon="-2.34147">
        <ele>-33.200000762939</ele>
        <time>2022-09-08T09:06:31.000Z</time>
      </trkpt>
      <trkpt lat="47.3466" lon="-2.3415">
        <ele>-33.200000762939</ele>
        <time>2022-09-08T09:06:38.000Z</time>
      </trkpt>
      <trkpt lat="47.34662" lon="-2.34151">
        <ele>-33.200000762939</ele>
        <time>2022-09-08T09:06:40.000Z</time>
      </trkpt>
      <trkpt lat="47.34664" lon="-2.3415">
        <ele>-33.200000762939</ele>
        <time>2022-09-08T09:07:02.000Z</time>
      </trkpt>
      <trkpt lat="47.34665" lon="-2.3415">
        <ele>-33.200000762939</ele>
        <time>2022-09-08T09:07:03.000Z</time>
      </trkpt>
      <trkpt lat="47.34677" lon="-2.34155">
        <ele>-33.200000762939</ele>
        <time>2022-09-08T09:07:09.000Z</time>
      </trkpt>
      <trkpt lat="47.34676" lon="-2.34174">
        <ele>-33.200000762939</ele>
        <time>2022-09-08T09:07:13.000Z</time>
      </trkpt>
      <trkpt lat="47.34674" lon="-2.34178">
        <ele>-33.200000762939</ele>
        <time>2022-09-08T09:07:14.000Z</time>
      </trkpt>
      <trkpt lat="47.34667" lon="-2.34206">
        <ele>-33.200000762939</ele>
        <time>2022-09-08T09:07:20.000Z</time>
      </trkpt>
      <trkpt lat="47.34666" lon="-2.34238">
        <ele>-33.200000762939</ele>
        <time>2022-09-08T09:07:26.000Z</time>
      </trkpt>
      <trkpt lat="47.34667" lon="-2.34261">
        <ele>-33.200000762939</ele>
        <time>2022-09-08T09:07:31.000Z</time>
      </trkpt>
      <trkpt lat="47.34676" lon="-2.34262">
        <ele>-33.200000762939</ele>
        <time>2022-09-08T09:07:34.000Z</time>
      </trkpt>
      <trkpt lat="47.34684" lon="-2.34261">
        <ele>-33.200000762939</ele>
        <time>2022-09-08T09:07:36.000Z</time>
      </trkpt>
      <trkpt lat="47.34689" lon="-2.34261">
        <ele>-32.799999237061</ele>
        <time>2022-09-08T09:07:37.000Z</time>
      </trkpt>
      <trkpt lat="47.34693" lon="-2.3426">
        <ele>-32.400001525879</ele>
        <time>2022-09-08T09:07:38.000Z</time>
      </trkpt>
      <trkpt lat="47.34698" lon="-2.3426">
        <ele>-32</ele>
        <time>2022-09-08T09:07:39.000Z</time>
      </trkpt>
      <trkpt lat="47.34702" lon="-2.34259">
        <ele>-31.60000038147</ele>
        <time>2022-09-08T09:07:40.000Z</time>
      </trkpt>
      <trkpt lat="47.34707" lon="-2.34257">
        <ele>-31.200000762939</ele>
        <time>2022-09-08T09:07:41.000Z</time>
      </trkpt>
      <trkpt lat="47.3473" lon="-2.34252">
        <ele>-31.200000762939</ele>
        <time>2022-09-08T09:07:46.000Z</time>
      </trkpt>
      <trkpt lat="47.34734" lon="-2.34251">
        <ele>-31.200000762939</ele>
        <time>2022-09-08T09:07:47.000Z</time>
      </trkpt>
      <trkpt lat="47.34758" lon="-2.34245">
        <ele>-31.200000762939</ele>
        <time>2022-09-08T09:07:53.000Z</time>
      </trkpt>
      <trkpt lat="47.3477" lon="-2.34241">
        <ele>-31.200000762939</ele>
        <time>2022-09-08T09:07:56.000Z</time>
      </trkpt>
      <trkpt lat="47.34783" lon="-2.34239">
        <ele>-31.200000762939</ele>
        <time>2022-09-08T09:07:59.000Z</time>
      </trkpt>
      <trkpt lat="47.34791" lon="-2.34236">
        <ele>-30.799999237061</ele>
        <time>2022-09-08T09:08:01.000Z</time>
      </trkpt>
      <trkpt lat="47.34796" lon="-2.34235">
        <ele>-30.200000762939</ele>
        <time>2022-09-08T09:08:02.000Z</time>
      </trkpt>
      <trkpt lat="47.348" lon="-2.34233">
        <ele>-29.799999237061</ele>
        <time>2022-09-08T09:08:03.000Z</time>
      </trkpt>
      <trkpt lat="47.34804" lon="-2.34233">
        <ele>-29.39999961853</ele>
        <time>2022-09-08T09:08:04.000Z</time>
      </trkpt>
      <trkpt lat="47.34808" lon="-2.34232">
        <ele>-29</ele>
        <time>2022-09-08T09:08:05.000Z</time>
      </trkpt>
      <trkpt lat="47.34828" lon="-2.34231">
        <ele>-29</ele>
        <time>2022-09-08T09:08:10.000Z</time>
      </trkpt>
      <trkpt lat="47.34835" lon="-2.34232">
        <ele>-28.60000038147</ele>
        <time>2022-09-08T09:08:12.000Z</time>
      </trkpt>
      <trkpt lat="47.34838" lon="-2.34231">
        <ele>-28.200000762939</ele>
        <time>2022-09-08T09:08:13.000Z</time>
      </trkpt>
      <trkpt lat="47.34841" lon="-2.34231">
        <ele>-27.799999237061</ele>
        <time>2022-09-08T09:08:14.000Z</time>
      </trkpt>
      <trkpt lat="47.34844" lon="-2.34231">
        <ele>-27.200000762939</ele>
        <time>2022-09-08T09:08:15.000Z</time>
      </trkpt>
      <trkpt lat="47.34847" lon="-2.34231">
        <ele>-26.799999237061</ele>
        <time>2022-09-08T09:08:16.000Z</time>
      </trkpt>
      <trkpt lat="47.34854" lon="-2.34235">
        <ele>-26.799999237061</ele>
        <time>2022-09-08T09:08:19.000Z</time>
      </trkpt>
      <trkpt lat="47.34856" lon="-2.34236">
        <ele>-26</ele>
        <time>2022-09-08T09:08:20.000Z</time>
      </trkpt>
      <trkpt lat="47.34858" lon="-2.34236">
        <ele>-25.60000038147</ele>
        <time>2022-09-08T09:08:21.000Z</time>
      </trkpt>
      <trkpt lat="47.3486" lon="-2.34235">
        <ele>-25.200000762939</ele>
        <time>2022-09-08T09:08:22.000Z</time>
      </trkpt>
      <trkpt lat="47.34862" lon="-2.34233">
        <ele>-24.799999237061</ele>
        <time>2022-09-08T09:08:23.000Z</time>
      </trkpt>
      <trkpt lat="47.34869" lon="-2.34225">
        <ele>-24.39999961853</ele>
        <time>2022-09-08T09:08:27.000Z</time>
      </trkpt>
      <trkpt lat="47.3487" lon="-2.34223">
        <ele>-24</ele>
        <time>2022-09-08T09:08:28.000Z</time>
      </trkpt>
      <trkpt lat="47.34871" lon="-2.3422">
        <ele>-23.60000038147</ele>
        <time>2022-09-08T09:08:29.000Z</time>
      </trkpt>
      <trkpt lat="47.34873" lon="-2.34218">
        <ele>-23.200000762939</ele>
        <time>2022-09-08T09:08:30.000Z</time>
      </trkpt>
      <trkpt lat="47.34874" lon="-2.34216">
        <ele>-22.60000038147</ele>
        <time>2022-09-08T09:08:31.000Z</time>
      </trkpt>
      <trkpt lat="47.34875" lon="-2.34213">
        <ele>-22.60000038147</ele>
        <time>2022-09-08T09:08:32.000Z</time>
      </trkpt>
      <trkpt lat="47.34876" lon="-2.34211">
        <ele>-22.60000038147</ele>
        <time>2022-09-08T09:08:33.000Z</time>
      </trkpt>
      <trkpt lat="47.34877" lon="-2.34208">
        <ele>-22.200000762939</ele>
        <time>2022-09-08T09:08:35.000Z</time>
      </trkpt>
      <trkpt lat="47.34878" lon="-2.34206">
        <ele>-21.799999237061</ele>
        <time>2022-09-08T09:08:36.000Z</time>
      </trkpt>
      <trkpt lat="47.34879" lon="-2.34206">
        <ele>-21.39999961853</ele>
        <time>2022-09-08T09:08:37.000Z</time>
      </trkpt>
      <trkpt lat="47.34879" lon="-2.34206">
        <ele>-21</ele>
        <time>2022-09-08T09:08:38.000Z</time>
      </trkpt>
      <trkpt lat="47.34875" lon="-2.34213">
        <ele>-20.60000038147</ele>
        <time>2022-09-08T09:08:55.000Z</time>
      </trkpt>
      <trkpt lat="47.34873" lon="-2.34218">
        <ele>-20.60000038147</ele>
        <time>2022-09-08T09:08:56.000Z</time>
      </trkpt>
      <trkpt lat="47.34869" lon="-2.34227">
        <ele>-20.60000038147</ele>
        <time>2022-09-08T09:08:59.000Z</time>
      </trkpt>
      <trkpt lat="47.34866" lon="-2.34231">
        <ele>-21</ele>
        <time>2022-09-08T09:09:01.000Z</time>
      </trkpt>
      <trkpt lat="47.34865" lon="-2.34233">
        <ele>-21.39999961853</ele>
        <time>2022-09-08T09:09:02.000Z</time>
      </trkpt>
      <trkpt lat="47.34864" lon="-2.34234">
        <ele>-22</ele>
        <time>2022-09-08T09:09:03.000Z</time>
      </trkpt>
      <trkpt lat="47.34864" lon="-2.34234">
        <ele>-22.39999961853</ele>
        <time>2022-09-08T09:09:04.000Z</time>
      </trkpt>
      <trkpt lat="47.34862" lon="-2.34238">
        <ele>-22.799999237061</ele>
        <time>2022-09-08T09:09:12.000Z</time>
      </trkpt>
      <trkpt lat="47.34861" lon="-2.34238">
        <ele>-22.799999237061</ele>
        <time>2022-09-08T09:09:13.000Z</time>
      </trkpt>
      <trkpt lat="47.3486" lon="-2.34243">
        <ele>-22.799999237061</ele>
        <time>2022-09-08T09:09:20.000Z</time>
      </trkpt>
      <trkpt lat="47.34859" lon="-2.34248">
        <ele>-22.799999237061</ele>
        <time>2022-09-08T09:09:21.000Z</time>
      </trkpt>
      <trkpt lat="47.34856" lon="-2.34257">
        <ele>-23.200000762939</ele>
        <time>2022-09-08T09:09:23.000Z</time>
      </trkpt>
      <trkpt lat="47.34854" lon="-2.34262">
        <ele>-23.799999237061</ele>
        <time>2022-09-08T09:09:24.000Z</time>
      </trkpt>
      <trkpt lat="47.34852" lon="-2.34267">
        <ele>-24.200000762939</ele>
        <time>2022-09-08T09:09:25.000Z</time>
      </trkpt>
      <trkpt lat="47.34851" lon="-2.34271">
        <ele>-24.60000038147</ele>
        <time>2022-09-08T09:09:26.000Z</time>
      </trkpt>
      <trkpt lat="47.34851" lon="-2.34275">
        <ele>-25.200000762939</ele>
        <time>2022-09-08T09:09:27.000Z</time>
      </trkpt>
      <trkpt lat="47.34851" lon="-2.34279">
        <ele>-25.200000762939</ele>
        <time>2022-09-08T09:09:28.000Z</time>
      </trkpt>
      <trkpt lat="47.34854" lon="-2.34299">
        <ele>-25.200000762939</ele>
        <time>2022-09-08T09:09:33.000Z</time>
      </trkpt>
      <trkpt lat="47.34856" lon="-2.34307">
        <ele>-25.60000038147</ele>
        <time>2022-09-08T09:09:35.000Z</time>
      </trkpt>
      <trkpt lat="47.34855" lon="-2.34311">
        <ele>-26</ele>
        <time>2022-09-08T09:09:36.000Z</time>
      </trkpt>
      <trkpt lat="47.34856" lon="-2.34315">
        <ele>-26.39999961853</ele>
        <time>2022-09-08T09:09:37.000Z</time>
      </trkpt>
      <trkpt lat="47.34856" lon="-2.34318">
        <ele>-26.799999237061</ele>
        <time>2022-09-08T09:09:38.000Z</time>
      </trkpt>
      <trkpt lat="47.34856" lon="-2.34319">
        <ele>-27.200000762939</ele>
        <time>2022-09-08T09:09:39.000Z</time>
      </trkpt>
      <trkpt lat="47.34856" lon="-2.3433">
        <ele>-27.200000762939</ele>
        <time>2022-09-08T09:10:30.000Z</time>
      </trkpt>
      <trkpt lat="47.34855" lon="-2.34334">
        <ele>-27.200000762939</ele>
        <time>2022-09-08T09:10:31.000Z</time>
      </trkpt>
      <trkpt lat="47.34857" lon="-2.34354">
        <ele>-27.200000762939</ele>
        <time>2022-09-08T09:10:36.000Z</time>
      </trkpt>
      <trkpt lat="47.34858" lon="-2.34357">
        <ele>-27.200000762939</ele>
        <time>2022-09-08T09:10:37.000Z</time>
      </trkpt>
      <trkpt lat="47.34859" lon="-2.34363">
        <ele>-27.200000762939</ele>
        <time>2022-09-08T09:10:40.000Z</time>
      </trkpt>
      <trkpt lat="47.34857" lon="-2.34367">
        <ele>-27.200000762939</ele>
        <time>2022-09-08T09:10:43.000Z</time>
      </trkpt>
      <trkpt lat="47.34855" lon="-2.34369">
        <ele>-27.200000762939</ele>
        <time>2022-09-08T09:10:45.000Z</time>
      </trkpt>
      <trkpt lat="47.34853" lon="-2.3437">
        <ele>-27.200000762939</ele>
        <time>2022-09-08T09:10:46.000Z</time>
      </trkpt>
      <trkpt lat="47.34844" lon="-2.34375">
        <ele>-27.200000762939</ele>
        <time>2022-09-08T09:10:51.000Z</time>
      </trkpt>
      <trkpt lat="47.34828" lon="-2.3438">
        <ele>-27.200000762939</ele>
        <time>2022-09-08T09:10:58.000Z</time>
      </trkpt>
      <trkpt lat="47.34823" lon="-2.34381">
        <ele>-27.200000762939</ele>
        <time>2022-09-08T09:11:02.000Z</time>
      </trkpt>
      <trkpt lat="47.34818" lon="-2.34383">
        <ele>-27.200000762939</ele>
        <time>2022-09-08T09:14:14.000Z</time>
      </trkpt>
      <trkpt lat="47.34806" lon="-2.34384">
        <ele>-27.200000762939</ele>
        <time>2022-09-08T09:14:20.000Z</time>
      </trkpt>
      <trkpt lat="47.34789" lon="-2.34387">
        <ele>-27.200000762939</ele>
        <time>2022-09-08T09:14:28.000Z</time>
      </trkpt>
      <trkpt lat="47.34784" lon="-2.3439">
        <ele>-27.60000038147</ele>
        <time>2022-09-08T09:14:30.000Z</time>
      </trkpt>
      <trkpt lat="47.34782" lon="-2.34393">
        <ele>-28.39999961853</ele>
        <time>2022-09-08T09:14:31.000Z</time>
      </trkpt>
      <trkpt lat="47.34781" lon="-2.34396">
        <ele>-28.799999237061</ele>
        <time>2022-09-08T09:14:32.000Z</time>
      </trkpt>
      <trkpt lat="47.34779" lon="-2.344">
        <ele>-29.200000762939</ele>
        <time>2022-09-08T09:14:33.000Z</time>
      </trkpt>
      <trkpt lat="47.34773" lon="-2.34408">
        <ele>-29.200000762939</ele>
        <time>2022-09-08T09:14:36.000Z</time>
      </trkpt>
      <trkpt lat="47.34772" lon="-2.34411">
        <ele>-29.200000762939</ele>
        <time>2022-09-08T09:14:37.000Z</time>
      </trkpt>
      <trkpt lat="47.34762" lon="-2.34429">
        <ele>-29.200000762939</ele>
        <time>2022-09-08T09:14:42.000Z</time>
      </trkpt>
      <trkpt lat="47.34752" lon="-2.34454">
        <ele>-29.200000762939</ele>
        <time>2022-09-08T09:14:47.000Z</time>
      </trkpt>
      <trkpt lat="47.3475" lon="-2.34458">
        <ele>-29.60000038147</ele>
        <time>2022-09-08T09:14:48.000Z</time>
      </trkpt>
      <trkpt lat="47.34749" lon="-2.34462">
        <ele>-30</ele>
        <time>2022-09-08T09:14:49.000Z</time>
      </trkpt>
      <trkpt lat="47.34749" lon="-2.34468">
        <ele>-30.39999961853</ele>
        <time>2022-09-08T09:14:50.000Z</time>
      </trkpt>
      <trkpt lat="47.34748" lon="-2.34473">
        <ele>-30.799999237061</ele>
        <time>2022-09-08T09:14:51.000Z</time>
      </trkpt>
      <trkpt lat="47.34746" lon="-2.34476">
        <ele>-31.200000762939</ele>
        <time>2022-09-08T09:14:52.000Z</time>
      </trkpt>
      <trkpt lat="47.34743" lon="-2.34479">
        <ele>-31.200000762939</ele>
        <time>2022-09-08T09:14:53.000Z</time>
      </trkpt>
      <trkpt lat="47.34734" lon="-2.34485">
        <ele>-31.200000762939</ele>
        <time>2022-09-08T09:14:56.000Z</time>
      </trkpt>
      <trkpt lat="47.34713" lon="-2.34493">
        <ele>-31.200000762939</ele>
        <time>2022-09-08T09:15:02.000Z</time>
      </trkpt>
      <trkpt lat="47.34695" lon="-2.34502">
        <ele>-31.200000762939</ele>
        <time>2022-09-08T09:15:08.000Z</time>
      </trkpt>
      <trkpt lat="47.34674" lon="-2.34509">
        <ele>-31.200000762939</ele>
        <time>2022-09-08T09:15:14.000Z</time>
      </trkpt>
      <trkpt lat="47.3465" lon="-2.34517">
        <ele>-30.799999237061</ele>
        <time>2022-09-08T09:15:22.000Z</time>
      </trkpt>
      <trkpt lat="47.34647" lon="-2.34518">
        <ele>-30.39999961853</ele>
        <time>2022-09-08T09:15:23.000Z</time>
      </trkpt>
      <trkpt lat="47.34644" lon="-2.34518">
        <ele>-30</ele>
        <time>2022-09-08T09:15:24.000Z</time>
      </trkpt>
      <trkpt lat="47.34641" lon="-2.34519">
        <ele>-29.60000038147</ele>
        <time>2022-09-08T09:15:25.000Z</time>
      </trkpt>
      <trkpt lat="47.34638" lon="-2.3452">
        <ele>-29.200000762939</ele>
        <time>2022-09-08T09:15:26.000Z</time>
      </trkpt>
      <trkpt lat="47.34631" lon="-2.34523">
        <ele>-29.200000762939</ele>
        <time>2022-09-08T09:15:29.000Z</time>
      </trkpt>
      <trkpt lat="47.34619" lon="-2.34527">
        <ele>-29.200000762939</ele>
        <time>2022-09-08T09:15:35.000Z</time>
      </trkpt>
      <trkpt lat="47.34614" lon="-2.34528">
        <ele>-29.200000762939</ele>
        <time>2022-09-08T09:15:40.000Z</time>
      </trkpt>
      <trkpt lat="47.34608" lon="-2.34533">
        <ele>-29.200000762939</ele>
        <time>2022-09-08T09:20:06.000Z</time>
      </trkpt>
      <trkpt lat="47.3461" lon="-2.34546">
        <ele>-29.200000762939</ele>
        <time>2022-09-08T09:20:10.000Z</time>
      </trkpt>
      <trkpt lat="47.34615" lon="-2.34574">
        <ele>-29.200000762939</ele>
        <time>2022-09-08T09:20:15.000Z</time>
      </trkpt>
      <trkpt lat="47.34623" lon="-2.34617">
        <ele>-29.200000762939</ele>
        <time>2022-09-08T09:20:21.000Z</time>
      </trkpt>
      <trkpt lat="47.34627" lon="-2.34632">
        <ele>-29.200000762939</ele>
        <time>2022-09-08T09:20:23.000Z</time>
      </trkpt>
      <trkpt lat="47.34628" lon="-2.3464">
        <ele>-29.60000038147</ele>
        <time>2022-09-08T09:20:24.000Z</time>
      </trkpt>
      <trkpt lat="47.34629" lon="-2.34648">
        <ele>-30</ele>
        <time>2022-09-08T09:20:25.000Z</time>
      </trkpt>
      <trkpt lat="47.34631" lon="-2.34657">
        <ele>-30.39999961853</ele>
        <time>2022-09-08T09:20:26.000Z</time>
      </trkpt>
      <trkpt lat="47.34633" lon="-2.34667">
        <ele>-30.799999237061</ele>
        <time>2022-09-08T09:20:27.000Z</time>
      </trkpt>
      <trkpt lat="47.34634" lon="-2.34676">
        <ele>-31.200000762939</ele>
        <time>2022-09-08T09:20:28.000Z</time>
      </trkpt>
      <trkpt lat="47.34638" lon="-2.34703">
        <ele>-31.60000038147</ele>
        <time>2022-09-08T09:20:31.000Z</time>
      </trkpt>
      <trkpt lat="47.34638" lon="-2.34712">
        <ele>-32</ele>
        <time>2022-09-08T09:20:32.000Z</time>
      </trkpt>
      <trkpt lat="47.34638" lon="-2.34721">
        <ele>-32.400001525879</ele>
        <time>2022-09-08T09:20:33.000Z</time>
      </trkpt>
      <trkpt lat="47.34638" lon="-2.34731">
        <ele>-32.799999237061</ele>
        <time>2022-09-08T09:20:34.000Z</time>
      </trkpt>
      <trkpt lat="47.34637" lon="-2.3474">
        <ele>-33.200000762939</ele>
        <time>2022-09-08T09:20:35.000Z</time>
      </trkpt>
      <trkpt lat="47.34634" lon="-2.34759">
        <ele>-33.200000762939</ele>
        <time>2022-09-08T09:20:37.000Z</time>
      </trkpt>
      <trkpt lat="47.3462" lon="-2.34801">
        <ele>-33.200000762939</ele>
        <time>2022-09-08T09:20:42.000Z</time>
      </trkpt>
      <trkpt lat="47.34598" lon="-2.34852">
        <ele>-33.200000762939</ele>
        <time>2022-09-08T09:20:49.000Z</time>
      </trkpt>
      <trkpt lat="47.34584" lon="-2.34886">
        <ele>-33.200000762939</ele>
        <time>2022-09-08T09:20:55.000Z</time>
      </trkpt>
      <trkpt lat="47.34577" lon="-2.34902">
        <ele>-33.200000762939</ele>
        <time>2022-09-08T09:21:00.000Z</time>
      </trkpt>
      <trkpt lat="47.34577" lon="-2.34904">
        <ele>-33.200000762939</ele>
        <time>2022-09-08T09:21:01.000Z</time>
      </trkpt>
      <trkpt lat="47.34577" lon="-2.34904">
        <ele>-33.200000762939</ele>
        <time>2022-09-08T09:21:02.000Z</time>
      </trkpt>
      <trkpt lat="47.3458" lon="-2.34913">
        <ele>-33.200000762939</ele>
        <time>2022-09-08T09:21:56.000Z</time>
      </trkpt>
      <trkpt lat="47.34586" lon="-2.34924">
        <ele>-33.200000762939</ele>
        <time>2022-09-08T09:22:02.000Z</time>
      </trkpt>
      <trkpt lat="47.34589" lon="-2.34931">
        <ele>-33.200000762939</ele>
        <time>2022-09-08T09:22:04.000Z</time>
      </trkpt>
      <trkpt lat="47.34594" lon="-2.3494">
        <ele>-33.200000762939</ele>
        <time>2022-09-08T09:22:06.000Z</time>
      </trkpt>
      <trkpt lat="47.34607" lon="-2.34964">
        <ele>-33.200000762939</ele>
        <time>2022-09-08T09:22:11.000Z</time>
      </trkpt>
      <trkpt lat="47.34617" lon="-2.34976">
        <ele>-33.200000762939</ele>
        <time>2022-09-08T09:22:14.000Z</time>
      </trkpt>
      <trkpt lat="47.3462" lon="-2.34982">
        <ele>-33.200000762939</ele>
        <time>2022-09-08T09:22:15.000Z</time>
      </trkpt>
      <trkpt lat="47.34633" lon="-2.35005">
        <ele>-33.200000762939</ele>
        <time>2022-09-08T09:22:19.000Z</time>
      </trkpt>
      <trkpt lat="47.34638" lon="-2.35016">
        <ele>-33.200000762939</ele>
        <time>2022-09-08T09:22:21.000Z</time>
      </trkpt>
      <trkpt lat="47.34642" lon="-2.3502">
        <ele>-33.200000762939</ele>
        <time>2022-09-08T09:22:22.000Z</time>
      </trkpt>
      <trkpt lat="47.34653" lon="-2.35028">
        <ele>-33.200000762939</ele>
        <time>2022-09-08T09:22:25.000Z</time>
      </trkpt>
      <trkpt lat="47.34664" lon="-2.35027">
        <ele>-33.200000762939</ele>
        <time>2022-09-08T09:22:29.000Z</time>
      </trkpt>
      <trkpt lat="47.34678" lon="-2.35033">
        <ele>-33.200000762939</ele>
        <time>2022-09-08T09:22:34.000Z</time>
      </trkpt>
      <trkpt lat="47.3469" lon="-2.35055">
        <ele>-33.200000762939</ele>
        <time>2022-09-08T09:22:40.000Z</time>
      </trkpt>
      <trkpt lat="47.3471" lon="-2.35077">
        <ele>-33.200000762939</ele>
        <time>2022-09-08T09:22:45.000Z</time>
      </trkpt>
      <trkpt lat="47.34725" lon="-2.35109">
        <ele>-33.200000762939</ele>
        <time>2022-09-08T09:22:50.000Z</time>
      </trkpt>
      <trkpt lat="47.34738" lon="-2.35125">
        <ele>-33.200000762939</ele>
        <time>2022-09-08T09:22:54.000Z</time>
      </trkpt>
      <trkpt lat="47.34741" lon="-2.35131">
        <ele>-33.200000762939</ele>
        <time>2022-09-08T09:22:55.000Z</time>
      </trkpt>
      <trkpt lat="47.34752" lon="-2.3515">
        <ele>-33.200000762939</ele>
        <time>2022-09-08T09:22:58.000Z</time>
      </trkpt>
      <trkpt lat="47.34756" lon="-2.35157">
        <ele>-33.200000762939</ele>
        <time>2022-09-08T09:22:59.000Z</time>
      </trkpt>
      <trkpt lat="47.34756" lon="-2.35165">
        <ele>-33.200000762939</ele>
        <time>2022-09-08T09:23:00.000Z</time>
      </trkpt>
      <trkpt lat="47.34757" lon="-2.35179">
        <ele>-33.200000762939</ele>
        <time>2022-09-08T09:23:02.000Z</time>
      </trkpt>
      <trkpt lat="47.34756" lon="-2.35192">
        <ele>-33.200000762939</ele>
        <time>2022-09-08T09:23:04.000Z</time>
      </trkpt>
      <trkpt lat="47.34755" lon="-2.35203">
        <ele>-33.200000762939</ele>
        <time>2022-09-08T09:23:06.000Z</time>
      </trkpt>
      <trkpt lat="47.34755" lon="-2.35226">
        <ele>-33.200000762939</ele>
        <time>2022-09-08T09:23:10.000Z</time>
      </trkpt>
      <trkpt lat="47.34754" lon="-2.35232">
        <ele>-33.200000762939</ele>
        <time>2022-09-08T09:23:11.000Z</time>
      </trkpt>
      <trkpt lat="47.3475" lon="-2.35251">
        <ele>-33.200000762939</ele>
        <time>2022-09-08T09:23:14.000Z</time>
      </trkpt>
      <trkpt lat="47.34749" lon="-2.35263">
        <ele>-33.200000762939</ele>
        <time>2022-09-08T09:23:16.000Z</time>
      </trkpt>
      <trkpt lat="47.34743" lon="-2.35285">
        <ele>-33.200000762939</ele>
        <time>2022-09-08T09:23:20.000Z</time>
      </trkpt>
      <trkpt lat="47.34733" lon="-2.35304">
        <ele>-33.200000762939</ele>
        <time>2022-09-08T09:23:25.000Z</time>
      </trkpt>
      <trkpt lat="47.34729" lon="-2.3532">
        <ele>-32.799999237061</ele>
        <time>2022-09-08T09:23:29.000Z</time>
      </trkpt>
      <trkpt lat="47.34729" lon="-2.35324">
        <ele>-32.400001525879</ele>
        <time>2022-09-08T09:23:30.000Z</time>
      </trkpt>
      <trkpt lat="47.34728" lon="-2.35329">
        <ele>-32</ele>
        <time>2022-09-08T09:23:31.000Z</time>
      </trkpt>
      <trkpt lat="47.34728" lon="-2.35335">
        <ele>-31.60000038147</ele>
        <time>2022-09-08T09:23:32.000Z</time>
      </trkpt>
      <trkpt lat="47.34727" lon="-2.35339">
        <ele>-31.200000762939</ele>
        <time>2022-09-08T09:23:33.000Z</time>
      </trkpt>
      <trkpt lat="47.34725" lon="-2.35352">
        <ele>-31.200000762939</ele>
        <time>2022-09-08T09:23:37.000Z</time>
      </trkpt>
      <trkpt lat="47.34724" lon="-2.35355">
        <ele>-31.200000762939</ele>
        <time>2022-09-08T09:23:38.000Z</time>
      </trkpt>
      <trkpt lat="47.34714" lon="-2.35375">
        <ele>-31.200000762939</ele>
        <time>2022-09-08T09:23:43.000Z</time>
      </trkpt>
      <trkpt lat="47.34701" lon="-2.3539">
        <ele>-31.200000762939</ele>
        <time>2022-09-08T09:23:47.000Z</time>
      </trkpt>
      <trkpt lat="47.34693" lon="-2.35394">
        <ele>-31.60000038147</ele>
        <time>2022-09-08T09:23:49.000Z</time>
      </trkpt>
      <trkpt lat="47.34691" lon="-2.35394">
        <ele>-32</ele>
        <time>2022-09-08T09:23:50.000Z</time>
      </trkpt>
      <trkpt lat="47.34688" lon="-2.35395">
        <ele>-32.400001525879</ele>
        <time>2022-09-08T09:23:51.000Z</time>
      </trkpt>
      <trkpt lat="47.34684" lon="-2.35395">
        <ele>-33</ele>
        <time>2022-09-08T09:23:52.000Z</time>
      </trkpt>
      <trkpt lat="47.34681" lon="-2.35397">
        <ele>-33.400001525879</ele>
        <time>2022-09-08T09:23:53.000Z</time>
      </trkpt>
      <trkpt lat="47.34672" lon="-2.35399">
        <ele>-33.400001525879</ele>
        <time>2022-09-08T09:23:56.000Z</time>
      </trkpt>
      <trkpt lat="47.34664" lon="-2.35403">
        <ele>-33.400001525879</ele>
        <time>2022-09-08T09:23:59.000Z</time>
      </trkpt>
      <trkpt lat="47.34661" lon="-2.35403">
        <ele>-33.400001525879</ele>
        <time>2022-09-08T09:24:00.000Z</time>
      </trkpt>
      <trkpt lat="47.34655" lon="-2.35402">
        <ele>-33.400001525879</ele>
        <time>2022-09-08T09:24:03.000Z</time>
      </trkpt>
      <trkpt lat="47.34653" lon="-2.354">
        <ele>-33.400001525879</ele>
        <time>2022-09-08T09:24:04.000Z</time>
      </trkpt>
      <trkpt lat="47.34651" lon="-2.35398">
        <ele>-33.400001525879</ele>
        <time>2022-09-08T09:24:07.000Z</time>
      </trkpt>
      <trkpt lat="47.34641" lon="-2.35401">
        <ele>-33.400001525879</ele>
        <time>2022-09-08T09:24:34.000Z</time>
      </trkpt>
      <trkpt lat="47.34635" lon="-2.35397">
        <ele>-33.400001525879</ele>
        <time>2022-09-08T09:24:39.000Z</time>
      </trkpt>
      <trkpt lat="47.34634" lon="-2.35396">
        <ele>-33.400001525879</ele>
        <time>2022-09-08T09:24:40.000Z</time>
      </trkpt>
      <trkpt lat="47.34628" lon="-2.35392">
        <ele>-33.400001525879</ele>
        <time>2022-09-08T09:24:44.000Z</time>
      </trkpt>
      <trkpt lat="47.34628" lon="-2.35384">
        <ele>-33.400001525879</ele>
        <time>2022-09-08T09:24:49.000Z</time>
      </trkpt>
      <trkpt lat="47.34633" lon="-2.35376">
        <ele>-33.400001525879</ele>
        <time>2022-09-08T09:24:53.000Z</time>
      </trkpt>
      <trkpt lat="47.34635" lon="-2.35366">
        <ele>-33.400001525879</ele>
        <time>2022-09-08T09:24:56.000Z</time>
      </trkpt>
      <trkpt lat="47.34637" lon="-2.35363">
        <ele>-33.400001525879</ele>
        <time>2022-09-08T09:24:57.000Z</time>
      </trkpt>
      <trkpt lat="47.3464" lon="-2.35363">
        <ele>-33.400001525879</ele>
        <time>2022-09-08T09:24:58.000Z</time>
      </trkpt>
      <trkpt lat="47.34647" lon="-2.35365">
        <ele>-33.400001525879</ele>
        <time>2022-09-08T09:25:01.000Z</time>
      </trkpt>
      <trkpt lat="47.34653" lon="-2.35368">
        <ele>-33.400001525879</ele>
        <time>2022-09-08T09:25:03.000Z</time>
      </trkpt>
      <trkpt lat="47.34671" lon="-2.3537">
        <ele>-33.400001525879</ele>
        <time>2022-09-08T09:25:08.000Z</time>
      </trkpt>
      <trkpt lat="47.34687" lon="-2.35366">
        <ele>-33.400001525879</ele>
        <time>2022-09-08T09:25:13.000Z</time>
      </trkpt>
      <trkpt lat="47.34693" lon="-2.35364">
        <ele>-33.400001525879</ele>
        <time>2022-09-08T09:25:16.000Z</time>
      </trkpt>
      <trkpt lat="47.34693" lon="-2.35362">
        <ele>-33.400001525879</ele>
        <time>2022-09-08T09:25:17.000Z</time>
      </trkpt>
      <trkpt lat="47.34684" lon="-2.35361">
        <ele>-33.400001525879</ele>
        <time>2022-09-08T09:25:21.000Z</time>
      </trkpt>
      <trkpt lat="47.3468" lon="-2.35368">
        <ele>-33.400001525879</ele>
        <time>2022-09-08T09:25:23.000Z</time>
      </trkpt>
      <trkpt lat="47.34674" lon="-2.35372">
        <ele>-33.400001525879</ele>
        <time>2022-09-08T09:25:25.000Z</time>
      </trkpt>
      <trkpt lat="47.34662" lon="-2.35373">
        <ele>-33.400001525879</ele>
        <time>2022-09-08T09:25:28.000Z</time>
      </trkpt>
      <trkpt lat="47.34658" lon="-2.3537">
        <ele>-33.400001525879</ele>
        <time>2022-09-08T09:25:29.000Z</time>
      </trkpt>
      <trkpt lat="47.34637" lon="-2.35367">
        <ele>-33.400001525879</ele>
        <time>2022-09-08T09:25:35.000Z</time>
      </trkpt>
      <trkpt lat="47.34633" lon="-2.35379">
        <ele>-33.400001525879</ele>
        <time>2022-09-08T09:25:39.000Z</time>
      </trkpt>
      <trkpt lat="47.3463" lon="-2.35385">
        <ele>-33.400001525879</ele>
        <time>2022-09-08T09:25:44.000Z</time>
      </trkpt>
      <trkpt lat="47.34628" lon="-2.35389">
        <ele>-33.400001525879</ele>
        <time>2022-09-08T09:25:49.000Z</time>
      </trkpt>
      <trkpt lat="47.34625" lon="-2.3539">
        <ele>-33.400001525879</ele>
        <time>2022-09-08T09:25:51.000Z</time>
      </trkpt>
      <trkpt lat="47.34623" lon="-2.35389">
        <ele>-33.400001525879</ele>
        <time>2022-09-08T09:25:52.000Z</time>
      </trkpt>
      <trkpt lat="47.34614" lon="-2.35392">
        <ele>-33.400001525879</ele>
        <time>2022-09-08T09:25:56.000Z</time>
      </trkpt>
      <trkpt lat="47.34607" lon="-2.35389">
        <ele>-33.400001525879</ele>
        <time>2022-09-08T09:25:59.000Z</time>
      </trkpt>
      <trkpt lat="47.34605" lon="-2.35388">
        <ele>-33.400001525879</ele>
        <time>2022-09-08T09:26:00.000Z</time>
      </trkpt>
      <trkpt lat="47.34593" lon="-2.35384">
        <ele>-33.400001525879</ele>
        <time>2022-09-08T09:26:05.000Z</time>
      </trkpt>
      <trkpt lat="47.34576" lon="-2.35373">
        <ele>-33.400001525879</ele>
        <time>2022-09-08T09:26:11.000Z</time>
      </trkpt>
      <trkpt lat="47.34562" lon="-2.35368">
        <ele>-33.400001525879</ele>
        <time>2022-09-08T09:26:15.000Z</time>
      </trkpt>
      <trkpt lat="47.34554" lon="-2.35369">
        <ele>-33.400001525879</ele>
        <time>2022-09-08T09:26:17.000Z</time>
      </trkpt>
      <trkpt lat="47.34545" lon="-2.35373">
        <ele>-33.400001525879</ele>
        <time>2022-09-08T09:26:19.000Z</time>
      </trkpt>
      <trkpt lat="47.34535" lon="-2.35376">
        <ele>-33.400001525879</ele>
        <time>2022-09-08T09:26:21.000Z</time>
      </trkpt>
      <trkpt lat="47.34522" lon="-2.35376">
        <ele>-33.400001525879</ele>
        <time>2022-09-08T09:26:24.000Z</time>
      </trkpt>
      <trkpt lat="47.34513" lon="-2.35379">
        <ele>-33.400001525879</ele>
        <time>2022-09-08T09:26:27.000Z</time>
      </trkpt>
      <trkpt lat="47.34509" lon="-2.35382">
        <ele>-33.400001525879</ele>
        <time>2022-09-08T09:26:28.000Z</time>
      </trkpt>
      <trkpt lat="47.34492" lon="-2.35389">
        <ele>-33.400001525879</ele>
        <time>2022-09-08T09:26:33.000Z</time>
      </trkpt>
      <trkpt lat="47.34478" lon="-2.35401">
        <ele>-33.400001525879</ele>
        <time>2022-09-08T09:26:40.000Z</time>
      </trkpt>
      <trkpt lat="47.34471" lon="-2.35404">
        <ele>-33.400001525879</ele>
        <time>2022-09-08T09:26:43.000Z</time>
      </trkpt>
      <trkpt lat="47.34466" lon="-2.35401">
        <ele>-33.400001525879</ele>
        <time>2022-09-08T09:26:45.000Z</time>
      </trkpt>
      <trkpt lat="47.34459" lon="-2.35399">
        <ele>-33.400001525879</ele>
        <time>2022-09-08T09:26:47.000Z</time>
      </trkpt>
      <trkpt lat="47.34449" lon="-2.35398">
        <ele>-33.400001525879</ele>
        <time>2022-09-08T09:26:50.000Z</time>
      </trkpt>
      <trkpt lat="47.34438" lon="-2.35397">
        <ele>-33.400001525879</ele>
        <time>2022-09-08T09:26:54.000Z</time>
      </trkpt>
      <trkpt lat="47.34429" lon="-2.35402">
        <ele>-33.400001525879</ele>
        <time>2022-09-08T09:26:58.000Z</time>
      </trkpt>
      <trkpt lat="47.34427" lon="-2.35407">
        <ele>-33.400001525879</ele>
        <time>2022-09-08T09:26:59.000Z</time>
      </trkpt>
      <trkpt lat="47.34417" lon="-2.35437">
        <ele>-33.400001525879</ele>
        <time>2022-09-08T09:27:03.000Z</time>
      </trkpt>
      <trkpt lat="47.34401" lon="-2.35476">
        <ele>-33.400001525879</ele>
        <time>2022-09-08T09:27:08.000Z</time>
      </trkpt>
      <trkpt lat="47.34396" lon="-2.35481">
        <ele>-33.400001525879</ele>
        <time>2022-09-08T09:27:09.000Z</time>
      </trkpt>
      <trkpt lat="47.34372" lon="-2.35519">
        <ele>-33.400001525879</ele>
        <time>2022-09-08T09:27:15.000Z</time>
      </trkpt>
      <trkpt lat="47.34349" lon="-2.35552">
        <ele>-33.400001525879</ele>
        <time>2022-09-08T09:27:21.000Z</time>
      </trkpt>
      <trkpt lat="47.34323" lon="-2.35588">
        <ele>-33.400001525879</ele>
        <time>2022-09-08T09:27:27.000Z</time>
      </trkpt>
      <trkpt lat="47.34291" lon="-2.35632">
        <ele>-33.400001525879</ele>
        <time>2022-09-08T09:27:35.000Z</time>
      </trkpt>
      <trkpt lat="47.34267" lon="-2.35667">
        <ele>-33.400001525879</ele>
        <time>2022-09-08T09:27:42.000Z</time>
      </trkpt>
      <trkpt lat="47.3425" lon="-2.3569">
        <ele>-33.400001525879</ele>
        <time>2022-09-08T09:27:47.000Z</time>
      </trkpt>
      <trkpt lat="47.34247" lon="-2.35695">
        <ele>-33.400001525879</ele>
        <time>2022-09-08T09:27:48.000Z</time>
      </trkpt>
      <trkpt lat="47.34225" lon="-2.35732">
        <ele>-33.400001525879</ele>
        <time>2022-09-08T09:27:55.000Z</time>
      </trkpt>
      <trkpt lat="47.34217" lon="-2.35733">
        <ele>-33.400001525879</ele>
        <time>2022-09-08T09:27:58.000Z</time>
      </trkpt>
      <trkpt lat="47.34207" lon="-2.35722">
        <ele>-33.400001525879</ele>
        <time>2022-09-08T09:28:03.000Z</time>
      </trkpt>
      <trkpt lat="47.34203" lon="-2.35715">
        <ele>-33</ele>
        <time>2022-09-08T09:28:06.000Z</time>
      </trkpt>
      <trkpt lat="47.34202" lon="-2.35713">
        <ele>-32.599998474121</ele>
        <time>2022-09-08T09:28:07.000Z</time>
      </trkpt>
      <trkpt lat="47.34201" lon="-2.3571">
        <ele>-31.799999237061</ele>
        <time>2022-09-08T09:28:08.000Z</time>
      </trkpt>
      <trkpt lat="47.342" lon="-2.35707">
        <ele>-31.39999961853</ele>
        <time>2022-09-08T09:28:09.000Z</time>
      </trkpt>
      <trkpt lat="47.34195" lon="-2.35697">
        <ele>-31</ele>
        <time>2022-09-08T09:28:12.000Z</time>
      </trkpt>
      <trkpt lat="47.34193" lon="-2.35694">
        <ele>-30.60000038147</ele>
        <time>2022-09-08T09:28:13.000Z</time>
      </trkpt>
      <trkpt lat="47.34191" lon="-2.35692">
        <ele>-30.200000762939</ele>
        <time>2022-09-08T09:28:14.000Z</time>
      </trkpt>
      <trkpt lat="47.34188" lon="-2.35689">
        <ele>-29.60000038147</ele>
        <time>2022-09-08T09:28:15.000Z</time>
      </trkpt>
      <trkpt lat="47.34186" lon="-2.35685">
        <ele>-29.200000762939</ele>
        <time>2022-09-08T09:28:16.000Z</time>
      </trkpt>
      <trkpt lat="47.34182" lon="-2.35678">
        <ele>-28.799999237061</ele>
        <time>2022-09-08T09:28:18.000Z</time>
      </trkpt>
      <trkpt lat="47.3418" lon="-2.35674">
        <ele>-28.39999961853</ele>
        <time>2022-09-08T09:28:19.000Z</time>
      </trkpt>
      <trkpt lat="47.34178" lon="-2.35672">
        <ele>-28</ele>
        <time>2022-09-08T09:28:20.000Z</time>
      </trkpt>
      <trkpt lat="47.34177" lon="-2.35669">
        <ele>-27.60000038147</ele>
        <time>2022-09-08T09:28:21.000Z</time>
      </trkpt>
      <trkpt lat="47.34175" lon="-2.35666">
        <ele>-27.200000762939</ele>
        <time>2022-09-08T09:28:22.000Z</time>
      </trkpt>
      <trkpt lat="47.3416" lon="-2.35643">
        <ele>-27.200000762939</ele>
        <time>2022-09-08T09:28:29.000Z</time>
      </trkpt>
      <trkpt lat="47.34149" lon="-2.35622">
        <ele>-27.200000762939</ele>
        <time>2022-09-08T09:28:35.000Z</time>
      </trkpt>
      <trkpt lat="47.34142" lon="-2.35608">
        <ele>-27.200000762939</ele>
        <time>2022-09-08T09:28:38.000Z</time>
      </trkpt>
      <trkpt lat="47.34138" lon="-2.35597">
        <ele>-27.200000762939</ele>
        <time>2022-09-08T09:28:40.000Z</time>
      </trkpt>
      <trkpt lat="47.34124" lon="-2.35553">
        <ele>-26.799999237061</ele>
        <time>2022-09-08T09:28:47.000Z</time>
      </trkpt>
      <trkpt lat="47.34121" lon="-2.35546">
        <ele>-26.39999961853</ele>
        <time>2022-09-08T09:28:48.000Z</time>
      </trkpt>
      <trkpt lat="47.34119" lon="-2.35539">
        <ele>-26</ele>
        <time>2022-09-08T09:28:49.000Z</time>
      </trkpt>
      <trkpt lat="47.34117" lon="-2.35531">
        <ele>-25.60000038147</ele>
        <time>2022-09-08T09:28:50.000Z</time>
      </trkpt>
      <trkpt lat="47.34114" lon="-2.35524">
        <ele>-25.200000762939</ele>
        <time>2022-09-08T09:28:51.000Z</time>
      </trkpt>
      <trkpt lat="47.34107" lon="-2.35504">
        <ele>-25.200000762939</ele>
        <time>2022-09-08T09:28:54.000Z</time>
      </trkpt>
      <trkpt lat="47.3409" lon="-2.35456">
        <ele>-25.200000762939</ele>
        <time>2022-09-08T09:29:01.000Z</time>
      </trkpt>
      <trkpt lat="47.34084" lon="-2.35441">
        <ele>-25.200000762939</ele>
        <time>2022-09-08T09:29:03.000Z</time>
      </trkpt>
      <trkpt lat="47.34076" lon="-2.35419">
        <ele>-25.200000762939</ele>
        <time>2022-09-08T09:29:06.000Z</time>
      </trkpt>
      <trkpt lat="47.34056" lon="-2.35373">
        <ele>-25.200000762939</ele>
        <time>2022-09-08T09:29:13.000Z</time>
      </trkpt>
      <trkpt lat="47.34033" lon="-2.35343">
        <ele>-25.200000762939</ele>
        <time>2022-09-08T09:29:19.000Z</time>
      </trkpt>
      <trkpt lat="47.33996" lon="-2.35307">
        <ele>-25.200000762939</ele>
        <time>2022-09-08T09:29:27.000Z</time>
      </trkpt>
      <trkpt lat="47.33992" lon="-2.35303">
        <ele>-25.200000762939</ele>
        <time>2022-09-08T09:29:28.000Z</time>
      </trkpt>
      <trkpt lat="47.33975" lon="-2.35285">
        <ele>-24.799999237061</ele>
        <time>2022-09-08T09:29:32.000Z</time>
      </trkpt>
      <trkpt lat="47.33972" lon="-2.35281">
        <ele>-24.39999961853</ele>
        <time>2022-09-08T09:29:33.000Z</time>
      </trkpt>
      <trkpt lat="47.33968" lon="-2.35277">
        <ele>-24</ele>
        <time>2022-09-08T09:29:34.000Z</time>
      </trkpt>
      <trkpt lat="47.33965" lon="-2.35274">
        <ele>-23.60000038147</ele>
        <time>2022-09-08T09:29:35.000Z</time>
      </trkpt>
      <trkpt lat="47.33961" lon="-2.3527">
        <ele>-23</ele>
        <time>2022-09-08T09:29:36.000Z</time>
      </trkpt>
      <trkpt lat="47.33957" lon="-2.35265">
        <ele>-23</ele>
        <time>2022-09-08T09:29:37.000Z</time>
      </trkpt>
      <trkpt lat="47.33954" lon="-2.3526">
        <ele>-23</ele>
        <time>2022-09-08T09:29:38.000Z</time>
      </trkpt>
      <trkpt lat="47.33946" lon="-2.35242">
        <ele>-22.60000038147</ele>
        <time>2022-09-08T09:29:41.000Z</time>
      </trkpt>
      <trkpt lat="47.33944" lon="-2.35236">
        <ele>-22.200000762939</ele>
        <time>2022-09-08T09:29:42.000Z</time>
      </trkpt>
      <trkpt lat="47.33942" lon="-2.35229">
        <ele>-21.799999237061</ele>
        <time>2022-09-08T09:29:43.000Z</time>
      </trkpt>
      <trkpt lat="47.33939" lon="-2.35223">
        <ele>-21.39999961853</ele>
        <time>2022-09-08T09:29:44.000Z</time>
      </trkpt>
      <trkpt lat="47.33937" lon="-2.35217">
        <ele>-21</ele>
        <time>2022-09-08T09:29:45.000Z</time>
      </trkpt>
      <trkpt lat="47.33931" lon="-2.35205">
        <ele>-21</ele>
        <time>2022-09-08T09:29:47.000Z</time>
      </trkpt>
      <trkpt lat="47.33924" lon="-2.35195">
        <ele>-21</ele>
        <time>2022-09-08T09:29:49.000Z</time>
      </trkpt>
      <trkpt lat="47.33899" lon="-2.3517">
        <ele>-21</ele>
        <time>2022-09-08T09:29:55.000Z</time>
      </trkpt>
      <trkpt lat="47.33865" lon="-2.35142">
        <ele>-21</ele>
        <time>2022-09-08T09:30:02.000Z</time>
      </trkpt>
      <trkpt lat="47.33828" lon="-2.35115">
        <ele>-21</ele>
        <time>2022-09-08T09:30:09.000Z</time>
      </trkpt>
      <trkpt lat="47.33793" lon="-2.35093">
        <ele>-21</ele>
        <time>2022-09-08T09:30:15.000Z</time>
      </trkpt>
      <trkpt lat="47.33768" lon="-2.35079">
        <ele>-21</ele>
        <time>2022-09-08T09:30:19.000Z</time>
      </trkpt>
      <trkpt lat="47.33761" lon="-2.35074">
        <ele>-21</ele>
        <time>2022-09-08T09:30:20.000Z</time>
      </trkpt>
      <trkpt lat="47.33733" lon="-2.35049">
        <ele>-21</ele>
        <time>2022-09-08T09:30:25.000Z</time>
      </trkpt>
      <trkpt lat="47.33706" lon="-2.35009">
        <ele>-21</ele>
        <time>2022-09-08T09:30:31.000Z</time>
      </trkpt>
      <trkpt lat="47.33682" lon="-2.34975">
        <ele>-21</ele>
        <time>2022-09-08T09:30:37.000Z</time>
      </trkpt>
      <trkpt lat="47.33664" lon="-2.34964">
        <ele>-21</ele>
        <time>2022-09-08T09:30:41.000Z</time>
      </trkpt>
      <trkpt lat="47.33656" lon="-2.34967">
        <ele>-21</ele>
        <time>2022-09-08T09:30:43.000Z</time>
      </trkpt>
      <trkpt lat="47.33653" lon="-2.34968">
        <ele>-21</ele>
        <time>2022-09-08T09:30:44.000Z</time>
      </trkpt>
      <trkpt lat="47.33645" lon="-2.34965">
        <ele>-21</ele>
        <time>2022-09-08T09:30:46.000Z</time>
      </trkpt>
      <trkpt lat="47.33637" lon="-2.34961">
        <ele>-21</ele>
        <time>2022-09-08T09:30:48.000Z</time>
      </trkpt>
      <trkpt lat="47.33623" lon="-2.34951">
        <ele>-21</ele>
        <time>2022-09-08T09:30:52.000Z</time>
      </trkpt>
      <trkpt lat="47.33619" lon="-2.34949">
        <ele>-21</ele>
        <time>2022-09-08T09:30:53.000Z</time>
      </trkpt>
      <trkpt lat="47.33599" lon="-2.34937">
        <ele>-21</ele>
        <time>2022-09-08T09:30:58.000Z</time>
      </trkpt>
      <trkpt lat="47.33574" lon="-2.34927">
        <ele>-21</ele>
        <time>2022-09-08T09:31:04.000Z</time>
      </trkpt>
      <trkpt lat="47.33554" lon="-2.34919">
        <ele>-21</ele>
        <time>2022-09-08T09:31:09.000Z</time>
      </trkpt>
      <trkpt lat="47.33534" lon="-2.34907">
        <ele>-20.60000038147</ele>
        <time>2022-09-08T09:31:14.000Z</time>
      </trkpt>
      <trkpt lat="47.3353" lon="-2.34903">
        <ele>-20.200000762939</ele>
        <time>2022-09-08T09:31:15.000Z</time>
      </trkpt>
      <trkpt lat="47.33525" lon="-2.349">
        <ele>-19.799999237061</ele>
        <time>2022-09-08T09:31:16.000Z</time>
      </trkpt>
      <trkpt lat="47.3352" lon="-2.34898">
        <ele>-19.39999961853</ele>
        <time>2022-09-08T09:31:17.000Z</time>
      </trkpt>
      <trkpt lat="47.33516" lon="-2.34896">
        <ele>-19</ele>
        <time>2022-09-08T09:31:18.000Z</time>
      </trkpt>
      <trkpt lat="47.335" lon="-2.34892">
        <ele>-19</ele>
        <time>2022-09-08T09:31:22.000Z</time>
      </trkpt>
      <trkpt lat="47.33483" lon="-2.34898">
        <ele>-19</ele>
        <time>2022-09-08T09:31:26.000Z</time>
      </trkpt>
      <trkpt lat="47.33465" lon="-2.34904">
        <ele>-19</ele>
        <time>2022-09-08T09:31:31.000Z</time>
      </trkpt>
      <trkpt lat="47.33445" lon="-2.34913">
        <ele>-19</ele>
        <time>2022-09-08T09:31:35.000Z</time>
      </trkpt>
      <trkpt lat="47.33441" lon="-2.34915">
        <ele>-19</ele>
        <time>2022-09-08T09:31:36.000Z</time>
      </trkpt>
      <trkpt lat="47.33431" lon="-2.3492">
        <ele>-19</ele>
        <time>2022-09-08T09:31:38.000Z</time>
      </trkpt>
      <trkpt lat="47.33417" lon="-2.34929">
        <ele>-19</ele>
        <time>2022-09-08T09:31:41.000Z</time>
      </trkpt>
      <trkpt lat="47.33408" lon="-2.34936">
        <ele>-19</ele>
        <time>2022-09-08T09:31:43.000Z</time>
      </trkpt>
      <trkpt lat="47.33392" lon="-2.34941">
        <ele>-19</ele>
        <time>2022-09-08T09:31:46.000Z</time>
      </trkpt>
      <trkpt lat="47.33362" lon="-2.34946">
        <ele>-19</ele>
        <time>2022-09-08T09:31:52.000Z</time>
      </trkpt>
      <trkpt lat="47.33357" lon="-2.34947">
        <ele>-19</ele>
        <time>2022-09-08T09:31:53.000Z</time>
      </trkpt>
      <trkpt lat="47.33347" lon="-2.34947">
        <ele>-19</ele>
        <time>2022-09-08T09:31:55.000Z</time>
      </trkpt>
      <trkpt lat="47.33342" lon="-2.34946">
        <ele>-19.39999961853</ele>
        <time>2022-09-08T09:31:56.000Z</time>
      </trkpt>
      <trkpt lat="47.33338" lon="-2.34947">
        <ele>-19.799999237061</ele>
        <time>2022-09-08T09:31:57.000Z</time>
      </trkpt>
      <trkpt lat="47.33335" lon="-2.34948">
        <ele>-20.200000762939</ele>
        <time>2022-09-08T09:31:58.000Z</time>
      </trkpt>
      <trkpt lat="47.33332" lon="-2.3495">
        <ele>-20.60000038147</ele>
        <time>2022-09-08T09:31:59.000Z</time>
      </trkpt>
      <trkpt lat="47.33329" lon="-2.34949">
        <ele>-21</ele>
        <time>2022-09-08T09:32:00.000Z</time>
      </trkpt>
      <trkpt lat="47.33318" lon="-2.34948">
        <ele>-21</ele>
        <time>2022-09-08T09:32:03.000Z</time>
      </trkpt>
      <trkpt lat="47.33305" lon="-2.3495">
        <ele>-21</ele>
        <time>2022-09-08T09:32:06.000Z</time>
      </trkpt>
      <trkpt lat="47.333" lon="-2.34951">
        <ele>-21</ele>
        <time>2022-09-08T09:32:07.000Z</time>
      </trkpt>
      <trkpt lat="47.33296" lon="-2.34952">
        <ele>-21</ele>
        <time>2022-09-08T09:32:08.000Z</time>
      </trkpt>
      <trkpt lat="47.33286" lon="-2.34953">
        <ele>-21</ele>
        <time>2022-09-08T09:32:10.000Z</time>
      </trkpt>
      <trkpt lat="47.33272" lon="-2.34958">
        <ele>-21</ele>
        <time>2022-09-08T09:32:13.000Z</time>
      </trkpt>
      <trkpt lat="47.3325" lon="-2.34965">
        <ele>-21</ele>
        <time>2022-09-08T09:32:18.000Z</time>
      </trkpt>
      <trkpt lat="47.33239" lon="-2.34966">
        <ele>-21</ele>
        <time>2022-09-08T09:32:20.000Z</time>
      </trkpt>
      <trkpt lat="47.33224" lon="-2.34971">
        <ele>-21</ele>
        <time>2022-09-08T09:32:23.000Z</time>
      </trkpt>
      <trkpt lat="47.3321" lon="-2.34981">
        <ele>-21</ele>
        <time>2022-09-08T09:32:26.000Z</time>
      </trkpt>
      <trkpt lat="47.33205" lon="-2.34984">
        <ele>-21</ele>
        <time>2022-09-08T09:32:27.000Z</time>
      </trkpt>
      <trkpt lat="47.33194" lon="-2.34995">
        <ele>-21.39999961853</ele>
        <time>2022-09-08T09:32:30.000Z</time>
      </trkpt>
      <trkpt lat="47.3319" lon="-2.34998">
        <ele>-21.799999237061</ele>
        <time>2022-09-08T09:32:31.000Z</time>
      </trkpt>
      <trkpt lat="47.33187" lon="-2.35002">
        <ele>-22.200000762939</ele>
        <time>2022-09-08T09:32:32.000Z</time>
      </trkpt>
      <trkpt lat="47.33184" lon="-2.35006">
        <ele>-22.60000038147</ele>
        <time>2022-09-08T09:32:33.000Z</time>
      </trkpt>
      <trkpt lat="47.33181" lon="-2.35009">
        <ele>-23</ele>
        <time>2022-09-08T09:32:34.000Z</time>
      </trkpt>
      <trkpt lat="47.33176" lon="-2.35014">
        <ele>-23</ele>
        <time>2022-09-08T09:32:36.000Z</time>
      </trkpt>
      <trkpt lat="47.33174" lon="-2.35013">
        <ele>-23</ele>
        <time>2022-09-08T09:32:37.000Z</time>
      </trkpt>
      <trkpt lat="47.33162" lon="-2.35005">
        <ele>-23</ele>
        <time>2022-09-08T09:32:41.000Z</time>
      </trkpt>
      <trkpt lat="47.33159" lon="-2.35004">
        <ele>-23</ele>
        <time>2022-09-08T09:32:42.000Z</time>
      </trkpt>
      <trkpt lat="47.33152" lon="-2.35008">
        <ele>-23</ele>
        <time>2022-09-08T09:32:44.000Z</time>
      </trkpt>
      <trkpt lat="47.33148" lon="-2.35013">
        <ele>-23</ele>
        <time>2022-09-08T09:32:46.000Z</time>
      </trkpt>
      <trkpt lat="47.33141" lon="-2.35024">
        <ele>-23</ele>
        <time>2022-09-08T09:32:49.000Z</time>
      </trkpt>
      <trkpt lat="47.33124" lon="-2.35042">
        <ele>-23</ele>
        <time>2022-09-08T09:32:54.000Z</time>
      </trkpt>
      <trkpt lat="47.33112" lon="-2.35061">
        <ele>-23</ele>
        <time>2022-09-08T09:32:59.000Z</time>
      </trkpt>
      <trkpt lat="47.33102" lon="-2.35084">
        <ele>-23</ele>
        <time>2022-09-08T09:33:04.000Z</time>
      </trkpt>
      <trkpt lat="47.331" lon="-2.35089">
        <ele>-23</ele>
        <time>2022-09-08T09:33:05.000Z</time>
      </trkpt>
      <trkpt lat="47.33094" lon="-2.35098">
        <ele>-23</ele>
        <time>2022-09-08T09:33:07.000Z</time>
      </trkpt>
      <trkpt lat="47.33088" lon="-2.35105">
        <ele>-23</ele>
        <time>2022-09-08T09:33:09.000Z</time>
      </trkpt>
      <trkpt lat="47.33081" lon="-2.35115">
        <ele>-23</ele>
        <time>2022-09-08T09:33:12.000Z</time>
      </trkpt>
      <trkpt lat="47.33079" lon="-2.35119">
        <ele>-23</ele>
        <time>2022-09-08T09:33:13.000Z</time>
      </trkpt>
      <trkpt lat="47.33069" lon="-2.35135">
        <ele>-23</ele>
        <time>2022-09-08T09:33:17.000Z</time>
      </trkpt>
      <trkpt lat="47.33055" lon="-2.35161">
        <ele>-23</ele>
        <time>2022-09-08T09:33:22.000Z</time>
      </trkpt>
      <trkpt lat="47.33053" lon="-2.35166">
        <ele>-22.60000038147</ele>
        <time>2022-09-08T09:33:23.000Z</time>
      </trkpt>
      <trkpt lat="47.3305" lon="-2.35171">
        <ele>-22.200000762939</ele>
        <time>2022-09-08T09:33:24.000Z</time>
      </trkpt>
      <trkpt lat="47.33047" lon="-2.35176">
        <ele>-21.799999237061</ele>
        <time>2022-09-08T09:33:25.000Z</time>
      </trkpt>
      <trkpt lat="47.33044" lon="-2.3518">
        <ele>-21.39999961853</ele>
        <time>2022-09-08T09:33:26.000Z</time>
      </trkpt>
      <trkpt lat="47.33039" lon="-2.35182">
        <ele>-21</ele>
        <time>2022-09-08T09:33:27.000Z</time>
      </trkpt>
      <trkpt lat="47.33028" lon="-2.35174">
        <ele>-21</ele>
        <time>2022-09-08T09:33:31.000Z</time>
      </trkpt>
      <trkpt lat="47.3302" lon="-2.35156">
        <ele>-21</ele>
        <time>2022-09-08T09:33:36.000Z</time>
      </trkpt>
      <trkpt lat="47.33019" lon="-2.35132">
        <ele>-21</ele>
        <time>2022-09-08T09:33:40.000Z</time>
      </trkpt>
      <trkpt lat="47.33016" lon="-2.3512">
        <ele>-21</ele>
        <time>2022-09-08T09:33:42.000Z</time>
      </trkpt>
      <trkpt lat="47.33016" lon="-2.35101">
        <ele>-21</ele>
        <time>2022-09-08T09:33:46.000Z</time>
      </trkpt>
      <trkpt lat="47.33012" lon="-2.35086">
        <ele>-21</ele>
        <time>2022-09-08T09:33:50.000Z</time>
      </trkpt>
      <trkpt lat="47.33008" lon="-2.35062">
        <ele>-21</ele>
        <time>2022-09-08T09:33:55.000Z</time>
      </trkpt>
      <trkpt lat="47.33004" lon="-2.35049">
        <ele>-21</ele>
        <time>2022-09-08T09:33:57.000Z</time>
      </trkpt>
      <trkpt lat="47.32999" lon="-2.35035">
        <ele>-21</ele>
        <time>2022-09-08T09:33:59.000Z</time>
      </trkpt>
      <trkpt lat="47.32998" lon="-2.35029">
        <ele>-21</ele>
        <time>2022-09-08T09:34:00.000Z</time>
      </trkpt>
      <trkpt lat="47.32994" lon="-2.35017">
        <ele>-21.39999961853</ele>
        <time>2022-09-08T09:34:02.000Z</time>
      </trkpt>
      <trkpt lat="47.32993" lon="-2.35011">
        <ele>-22</ele>
        <time>2022-09-08T09:34:03.000Z</time>
      </trkpt>
      <trkpt lat="47.32991" lon="-2.35007">
        <ele>-22.39999961853</ele>
        <time>2022-09-08T09:34:04.000Z</time>
      </trkpt>
      <trkpt lat="47.32988" lon="-2.35002">
        <ele>-22.799999237061</ele>
        <time>2022-09-08T09:34:05.000Z</time>
      </trkpt>
      <trkpt lat="47.32986" lon="-2.34997">
        <ele>-23.200000762939</ele>
        <time>2022-09-08T09:34:06.000Z</time>
      </trkpt>
      <trkpt lat="47.32983" lon="-2.34991">
        <ele>-23.200000762939</ele>
        <time>2022-09-08T09:34:07.000Z</time>
      </trkpt>
      <trkpt lat="47.32973" lon="-2.34959">
        <ele>-23.200000762939</ele>
        <time>2022-09-08T09:34:12.000Z</time>
      </trkpt>
      <trkpt lat="47.32959" lon="-2.34918">
        <ele>-23.200000762939</ele>
        <time>2022-09-08T09:34:18.000Z</time>
      </trkpt>
      <trkpt lat="47.32956" lon="-2.34911">
        <ele>-23.200000762939</ele>
        <time>2022-09-08T09:34:19.000Z</time>
      </trkpt>
      <trkpt lat="47.32948" lon="-2.3489">
        <ele>-23.200000762939</ele>
        <time>2022-09-08T09:34:22.000Z</time>
      </trkpt>
      <trkpt lat="47.32943" lon="-2.34877">
        <ele>-23.200000762939</ele>
        <time>2022-09-08T09:34:24.000Z</time>
      </trkpt>
      <trkpt lat="47.32935" lon="-2.34853">
        <ele>-23.200000762939</ele>
        <time>2022-09-08T09:34:27.000Z</time>
      </trkpt>
      <trkpt lat="47.32929" lon="-2.34837">
        <ele>-23.60000038147</ele>
        <time>2022-09-08T09:34:29.000Z</time>
      </trkpt>
      <trkpt lat="47.32926" lon="-2.34831">
        <ele>-24</ele>
        <time>2022-09-08T09:34:30.000Z</time>
      </trkpt>
      <trkpt lat="47.32923" lon="-2.34824">
        <ele>-24.39999961853</ele>
        <time>2022-09-08T09:34:31.000Z</time>
      </trkpt>
      <trkpt lat="47.32921" lon="-2.34818">
        <ele>-24.799999237061</ele>
        <time>2022-09-08T09:34:32.000Z</time>
      </trkpt>
      <trkpt lat="47.32919" lon="-2.34811">
        <ele>-25.200000762939</ele>
        <time>2022-09-08T09:34:33.000Z</time>
      </trkpt>
      <trkpt lat="47.32916" lon="-2.34805">
        <ele>-25.200000762939</ele>
        <time>2022-09-08T09:34:34.000Z</time>
      </trkpt>
      <trkpt lat="47.32911" lon="-2.34797">
        <ele>-25.200000762939</ele>
        <time>2022-09-08T09:34:36.000Z</time>
      </trkpt>
      <trkpt lat="47.32904" lon="-2.34793">
        <ele>-25.200000762939</ele>
        <time>2022-09-08T09:34:38.000Z</time>
      </trkpt>
      <trkpt lat="47.32899" lon="-2.34794">
        <ele>-25.200000762939</ele>
        <time>2022-09-08T09:34:39.000Z</time>
      </trkpt>
      <trkpt lat="47.32885" lon="-2.34801">
        <ele>-25.200000762939</ele>
        <time>2022-09-08T09:34:42.000Z</time>
      </trkpt>
      <trkpt lat="47.32872" lon="-2.34809">
        <ele>-25.200000762939</ele>
        <time>2022-09-08T09:34:45.000Z</time>
      </trkpt>
      <trkpt lat="47.32844" lon="-2.34827">
        <ele>-25.200000762939</ele>
        <time>2022-09-08T09:34:51.000Z</time>
      </trkpt>
      <trkpt lat="47.32825" lon="-2.3484">
        <ele>-25.200000762939</ele>
        <time>2022-09-08T09:34:55.000Z</time>
      </trkpt>
      <trkpt lat="47.32815" lon="-2.34847">
        <ele>-25.200000762939</ele>
        <time>2022-09-08T09:34:57.000Z</time>
      </trkpt>
      <trkpt lat="47.32793" lon="-2.34862">
        <ele>-25.200000762939</ele>
        <time>2022-09-08T09:35:02.000Z</time>
      </trkpt>
      <trkpt lat="47.32779" lon="-2.34872">
        <ele>-25.200000762939</ele>
        <time>2022-09-08T09:35:05.000Z</time>
      </trkpt>
      <trkpt lat="47.3277" lon="-2.34879">
        <ele>-25.200000762939</ele>
        <time>2022-09-08T09:35:07.000Z</time>
      </trkpt>
      <trkpt lat="47.32747" lon="-2.34895">
        <ele>-25.200000762939</ele>
        <time>2022-09-08T09:35:12.000Z</time>
      </trkpt>
      <trkpt lat="47.32724" lon="-2.3491">
        <ele>-24.799999237061</ele>
        <time>2022-09-08T09:35:17.000Z</time>
      </trkpt>
      <trkpt lat="47.32719" lon="-2.34913">
        <ele>-24.39999961853</ele>
        <time>2022-09-08T09:35:18.000Z</time>
      </trkpt>
      <trkpt lat="47.32715" lon="-2.34916">
        <ele>-24</ele>
        <time>2022-09-08T09:35:19.000Z</time>
      </trkpt>
      <trkpt lat="47.3271" lon="-2.34919">
        <ele>-23.60000038147</ele>
        <time>2022-09-08T09:35:20.000Z</time>
      </trkpt>
      <trkpt lat="47.32706" lon="-2.34922">
        <ele>-23.200000762939</ele>
        <time>2022-09-08T09:35:21.000Z</time>
      </trkpt>
      <trkpt lat="47.32691" lon="-2.34935">
        <ele>-23.200000762939</ele>
        <time>2022-09-08T09:35:25.000Z</time>
      </trkpt>
      <trkpt lat="47.32674" lon="-2.34948">
        <ele>-23.200000762939</ele>
        <time>2022-09-08T09:35:30.000Z</time>
      </trkpt>
      <trkpt lat="47.32654" lon="-2.34962">
        <ele>-23.200000762939</ele>
        <time>2022-09-08T09:35:36.000Z</time>
      </trkpt>
      <trkpt lat="47.32647" lon="-2.34967">
        <ele>-23.200000762939</ele>
        <time>2022-09-08T09:35:38.000Z</time>
      </trkpt>
      <trkpt lat="47.32632" lon="-2.34974">
        <ele>-23.200000762939</ele>
        <time>2022-09-08T09:35:42.000Z</time>
      </trkpt>
      <trkpt lat="47.32621" lon="-2.34979">
        <ele>-22.799999237061</ele>
        <time>2022-09-08T09:35:45.000Z</time>
      </trkpt>
      <trkpt lat="47.32617" lon="-2.34981">
        <ele>-22.39999961853</ele>
        <time>2022-09-08T09:35:46.000Z</time>
      </trkpt>
      <trkpt lat="47.32614" lon="-2.34983">
        <ele>-22</ele>
        <time>2022-09-08T09:35:47.000Z</time>
      </trkpt>
      <trkpt lat="47.3261" lon="-2.34986">
        <ele>-21.60000038147</ele>
        <time>2022-09-08T09:35:48.000Z</time>
      </trkpt>
      <trkpt lat="47.32606" lon="-2.34988">
        <ele>-21.200000762939</ele>
        <time>2022-09-08T09:35:49.000Z</time>
      </trkpt>
      <trkpt lat="47.32583" lon="-2.35001">
        <ele>-21.200000762939</ele>
        <time>2022-09-08T09:35:55.000Z</time>
      </trkpt>
      <trkpt lat="47.32574" lon="-2.35004">
        <ele>-21.200000762939</ele>
        <time>2022-09-08T09:35:57.000Z</time>
      </trkpt>
      <trkpt lat="47.32561" lon="-2.3501">
        <ele>-21.200000762939</ele>
        <time>2022-09-08T09:36:00.000Z</time>
      </trkpt>
      <trkpt lat="47.32553" lon="-2.35013">
        <ele>-21.200000762939</ele>
        <time>2022-09-08T09:36:02.000Z</time>
      </trkpt>
      <trkpt lat="47.3254" lon="-2.35017">
        <ele>-21.200000762939</ele>
        <time>2022-09-08T09:36:05.000Z</time>
      </trkpt>
      <trkpt lat="47.32514" lon="-2.35025">
        <ele>-21.200000762939</ele>
        <time>2022-09-08T09:36:11.000Z</time>
      </trkpt>
      <trkpt lat="47.32509" lon="-2.35025">
        <ele>-21.200000762939</ele>
        <time>2022-09-08T09:36:12.000Z</time>
      </trkpt>
      <trkpt lat="47.32496" lon="-2.35025">
        <ele>-21.200000762939</ele>
        <time>2022-09-08T09:36:15.000Z</time>
      </trkpt>
      <trkpt lat="47.32491" lon="-2.35027">
        <ele>-21.200000762939</ele>
        <time>2022-09-08T09:36:16.000Z</time>
      </trkpt>
      <trkpt lat="47.32486" lon="-2.35029">
        <ele>-20.799999237061</ele>
        <time>2022-09-08T09:36:17.000Z</time>
      </trkpt>
      <trkpt lat="47.32481" lon="-2.3503">
        <ele>-20.39999961853</ele>
        <time>2022-09-08T09:36:18.000Z</time>
      </trkpt>
      <trkpt lat="47.32476" lon="-2.35032">
        <ele>-20</ele>
        <time>2022-09-08T09:36:19.000Z</time>
      </trkpt>
      <trkpt lat="47.32471" lon="-2.35033">
        <ele>-19.60000038147</ele>
        <time>2022-09-08T09:36:20.000Z</time>
      </trkpt>
      <trkpt lat="47.32467" lon="-2.35035">
        <ele>-19.200000762939</ele>
        <time>2022-09-08T09:36:21.000Z</time>
      </trkpt>
      <trkpt lat="47.32458" lon="-2.35037">
        <ele>-19.200000762939</ele>
        <time>2022-09-08T09:36:23.000Z</time>
      </trkpt>
      <trkpt lat="47.32442" lon="-2.35041">
        <ele>-19.200000762939</ele>
        <time>2022-09-08T09:36:26.000Z</time>
      </trkpt>
      <trkpt lat="47.32424" lon="-2.35045">
        <ele>-19.200000762939</ele>
        <time>2022-09-08T09:36:29.000Z</time>
      </trkpt>
      <trkpt lat="47.32406" lon="-2.35046">
        <ele>-19.200000762939</ele>
        <time>2022-09-08T09:36:32.000Z</time>
      </trkpt>
      <trkpt lat="47.32371" lon="-2.35047">
        <ele>-19.200000762939</ele>
        <time>2022-09-08T09:36:38.000Z</time>
      </trkpt>
      <trkpt lat="47.32344" lon="-2.35048">
        <ele>-19.200000762939</ele>
        <time>2022-09-08T09:36:43.000Z</time>
      </trkpt>
      <trkpt lat="47.32311" lon="-2.35048">
        <ele>-19.200000762939</ele>
        <time>2022-09-08T09:36:49.000Z</time>
      </trkpt>
      <trkpt lat="47.32282" lon="-2.35045">
        <ele>-19.60000038147</ele>
        <time>2022-09-08T09:36:54.000Z</time>
      </trkpt>
      <trkpt lat="47.32276" lon="-2.35045">
        <ele>-20</ele>
        <time>2022-09-08T09:36:55.000Z</time>
      </trkpt>
      <trkpt lat="47.3227" lon="-2.35045">
        <ele>-20.39999961853</ele>
        <time>2022-09-08T09:36:56.000Z</time>
      </trkpt>
      <trkpt lat="47.32264" lon="-2.35046">
        <ele>-20.799999237061</ele>
        <time>2022-09-08T09:36:57.000Z</time>
      </trkpt>
      <trkpt lat="47.32259" lon="-2.35046">
        <ele>-21.200000762939</ele>
        <time>2022-09-08T09:36:58.000Z</time>
      </trkpt>
      <trkpt lat="47.32254" lon="-2.35047">
        <ele>-21.200000762939</ele>
        <time>2022-09-08T09:36:59.000Z</time>
      </trkpt>
      <trkpt lat="47.32249" lon="-2.35048">
        <ele>-21.200000762939</ele>
        <time>2022-09-08T09:37:00.000Z</time>
      </trkpt>
      <trkpt lat="47.32214" lon="-2.35052">
        <ele>-21.200000762939</ele>
        <time>2022-09-08T09:37:06.000Z</time>
      </trkpt>
      <trkpt lat="47.32171" lon="-2.35057">
        <ele>-21.200000762939</ele>
        <time>2022-09-08T09:37:13.000Z</time>
      </trkpt>
      <trkpt lat="47.32137" lon="-2.3506">
        <ele>-21.200000762939</ele>
        <time>2022-09-08T09:37:19.000Z</time>
      </trkpt>
      <trkpt lat="47.32132" lon="-2.3506">
        <ele>-21.60000038147</ele>
        <time>2022-09-08T09:37:20.000Z</time>
      </trkpt>
      <trkpt lat="47.32126" lon="-2.35061">
        <ele>-22</ele>
        <time>2022-09-08T09:37:21.000Z</time>
      </trkpt>
      <trkpt lat="47.3212" lon="-2.35062">
        <ele>-22.39999961853</ele>
        <time>2022-09-08T09:37:22.000Z</time>
      </trkpt>
      <trkpt lat="47.32113" lon="-2.35062">
        <ele>-22.799999237061</ele>
        <time>2022-09-08T09:37:23.000Z</time>
      </trkpt>
      <trkpt lat="47.32107" lon="-2.35062">
        <ele>-23.200000762939</ele>
        <time>2022-09-08T09:37:24.000Z</time>
      </trkpt>
      <trkpt lat="47.321" lon="-2.35062">
        <ele>-23.200000762939</ele>
        <time>2022-09-08T09:37:25.000Z</time>
      </trkpt>
      <trkpt lat="47.32077" lon="-2.35063">
        <ele>-23.200000762939</ele>
        <time>2022-09-08T09:37:29.000Z</time>
      </trkpt>
      <trkpt lat="47.32072" lon="-2.35063">
        <ele>-23.200000762939</ele>
        <time>2022-09-08T09:37:30.000Z</time>
      </trkpt>
      <trkpt lat="47.32043" lon="-2.35061">
        <ele>-23.200000762939</ele>
        <time>2022-09-08T09:37:36.000Z</time>
      </trkpt>
      <trkpt lat="47.32038" lon="-2.35064">
        <ele>-23.200000762939</ele>
        <time>2022-09-08T09:37:38.000Z</time>
      </trkpt>
      <trkpt lat="47.32037" lon="-2.35067">
        <ele>-23.200000762939</ele>
        <time>2022-09-08T09:37:39.000Z</time>
      </trkpt>
      <trkpt lat="47.32039" lon="-2.35078">
        <ele>-23.200000762939</ele>
        <time>2022-09-08T09:37:42.000Z</time>
      </trkpt>
      <trkpt lat="47.3204" lon="-2.35087">
        <ele>-23.200000762939</ele>
        <time>2022-09-08T09:37:44.000Z</time>
      </trkpt>
      <trkpt lat="47.32041" lon="-2.35099">
        <ele>-23.200000762939</ele>
        <time>2022-09-08T09:37:46.000Z</time>
      </trkpt>
      <trkpt lat="47.32039" lon="-2.35112">
        <ele>-23.200000762939</ele>
        <time>2022-09-08T09:37:48.000Z</time>
      </trkpt>
      <trkpt lat="47.32031" lon="-2.35128">
        <ele>-23.200000762939</ele>
        <time>2022-09-08T09:37:51.000Z</time>
      </trkpt>
      <trkpt lat="47.32022" lon="-2.35136">
        <ele>-23.200000762939</ele>
        <time>2022-09-08T09:37:53.000Z</time>
      </trkpt>
      <trkpt lat="47.32014" lon="-2.35144">
        <ele>-23.200000762939</ele>
        <time>2022-09-08T09:37:55.000Z</time>
      </trkpt>
      <trkpt lat="47.32011" lon="-2.35148">
        <ele>-23.200000762939</ele>
        <time>2022-09-08T09:37:56.000Z</time>
      </trkpt>
      <trkpt lat="47.31999" lon="-2.35161">
        <ele>-23.200000762939</ele>
        <time>2022-09-08T09:37:59.000Z</time>
      </trkpt>
      <trkpt lat="47.31991" lon="-2.35169">
        <ele>-23.200000762939</ele>
        <time>2022-09-08T09:38:01.000Z</time>
      </trkpt>
      <trkpt lat="47.31987" lon="-2.35174">
        <ele>-23.200000762939</ele>
        <time>2022-09-08T09:38:02.000Z</time>
      </trkpt>
      <trkpt lat="47.31965" lon="-2.35193">
        <ele>-23.200000762939</ele>
        <time>2022-09-08T09:38:07.000Z</time>
      </trkpt>
      <trkpt lat="47.31962" lon="-2.35197">
        <ele>-23.200000762939</ele>
        <time>2022-09-08T09:38:08.000Z</time>
      </trkpt>
      <trkpt lat="47.31936" lon="-2.35219">
        <ele>-23.200000762939</ele>
        <time>2022-09-08T09:38:14.000Z</time>
      </trkpt>
      <trkpt lat="47.3192" lon="-2.35233">
        <ele>-23.200000762939</ele>
        <time>2022-09-08T09:38:18.000Z</time>
      </trkpt>
      <trkpt lat="47.31911" lon="-2.35241">
        <ele>-23.200000762939</ele>
        <time>2022-09-08T09:38:20.000Z</time>
      </trkpt>
      <trkpt lat="47.31904" lon="-2.3525">
        <ele>-23.200000762939</ele>
        <time>2022-09-08T09:38:22.000Z</time>
      </trkpt>
      <trkpt lat="47.31892" lon="-2.35262">
        <ele>-23.200000762939</ele>
        <time>2022-09-08T09:38:25.000Z</time>
      </trkpt>
      <trkpt lat="47.31888" lon="-2.35267">
        <ele>-23.200000762939</ele>
        <time>2022-09-08T09:38:26.000Z</time>
      </trkpt>
      <trkpt lat="47.31879" lon="-2.35274">
        <ele>-22.799999237061</ele>
        <time>2022-09-08T09:38:28.000Z</time>
      </trkpt>
      <trkpt lat="47.31875" lon="-2.35279">
        <ele>-22.39999961853</ele>
        <time>2022-09-08T09:38:29.000Z</time>
      </trkpt>
      <trkpt lat="47.3187" lon="-2.35282">
        <ele>-22</ele>
        <time>2022-09-08T09:38:30.000Z</time>
      </trkpt>
      <trkpt lat="47.31866" lon="-2.35285">
        <ele>-21.60000038147</ele>
        <time>2022-09-08T09:38:31.000Z</time>
      </trkpt>
      <trkpt lat="47.31861" lon="-2.35289">
        <ele>-21.200000762939</ele>
        <time>2022-09-08T09:38:32.000Z</time>
      </trkpt>
      <trkpt lat="47.31852" lon="-2.35296">
        <ele>-21.200000762939</ele>
        <time>2022-09-08T09:38:34.000Z</time>
      </trkpt>
      <trkpt lat="47.31834" lon="-2.35307">
        <ele>-21.200000762939</ele>
        <time>2022-09-08T09:38:38.000Z</time>
      </trkpt>
      <trkpt lat="47.31814" lon="-2.35321">
        <ele>-21.200000762939</ele>
        <time>2022-09-08T09:38:43.000Z</time>
      </trkpt>
      <trkpt lat="47.3181" lon="-2.35323">
        <ele>-20.799999237061</ele>
        <time>2022-09-08T09:38:44.000Z</time>
      </trkpt>
      <trkpt lat="47.31807" lon="-2.35326">
        <ele>-20.39999961853</ele>
        <time>2022-09-08T09:38:45.000Z</time>
      </trkpt>
      <trkpt lat="47.31803" lon="-2.35328">
        <ele>-20</ele>
        <time>2022-09-08T09:38:46.000Z</time>
      </trkpt>
      <trkpt lat="47.31799" lon="-2.35331">
        <ele>-19.60000038147</ele>
        <time>2022-09-08T09:38:47.000Z</time>
      </trkpt>
      <trkpt lat="47.31795" lon="-2.35333">
        <ele>-19.200000762939</ele>
        <time>2022-09-08T09:38:48.000Z</time>
      </trkpt>
      <trkpt lat="47.31783" lon="-2.35343">
        <ele>-19.200000762939</ele>
        <time>2022-09-08T09:38:52.000Z</time>
      </trkpt>
      <trkpt lat="47.31766" lon="-2.35359">
        <ele>-19.200000762939</ele>
        <time>2022-09-08T09:38:57.000Z</time>
      </trkpt>
      <trkpt lat="47.31762" lon="-2.35366">
        <ele>-19.200000762939</ele>
        <time>2022-09-08T09:38:59.000Z</time>
      </trkpt>
      <trkpt lat="47.31762" lon="-2.35373">
        <ele>-19.200000762939</ele>
        <time>2022-09-08T09:39:01.000Z</time>
      </trkpt>
      <trkpt lat="47.31768" lon="-2.35386">
        <ele>-19.200000762939</ele>
        <time>2022-09-08T09:39:05.000Z</time>
      </trkpt>
      <trkpt lat="47.3178" lon="-2.35406">
        <ele>-19.200000762939</ele>
        <time>2022-09-08T09:39:09.000Z</time>
      </trkpt>
      <trkpt lat="47.31785" lon="-2.35414">
        <ele>-19.200000762939</ele>
        <time>2022-09-08T09:39:11.000Z</time>
      </trkpt>
      <trkpt lat="47.31787" lon="-2.35419">
        <ele>-19.200000762939</ele>
        <time>2022-09-08T09:39:12.000Z</time>
      </trkpt>
      <trkpt lat="47.31797" lon="-2.35441">
        <ele>-19.200000762939</ele>
        <time>2022-09-08T09:39:16.000Z</time>
      </trkpt>
      <trkpt lat="47.318" lon="-2.35448">
        <ele>-19.200000762939</ele>
        <time>2022-09-08T09:39:17.000Z</time>
      </trkpt>
      <trkpt lat="47.31807" lon="-2.35459">
        <ele>-19.60000038147</ele>
        <time>2022-09-08T09:39:19.000Z</time>
      </trkpt>
      <trkpt lat="47.3181" lon="-2.35466">
        <ele>-20</ele>
        <time>2022-09-08T09:39:20.000Z</time>
      </trkpt>
      <trkpt lat="47.31814" lon="-2.35472">
        <ele>-20.39999961853</ele>
        <time>2022-09-08T09:39:21.000Z</time>
      </trkpt>
      <trkpt lat="47.31817" lon="-2.35479">
        <ele>-20.799999237061</ele>
        <time>2022-09-08T09:39:22.000Z</time>
      </trkpt>
      <trkpt lat="47.3182" lon="-2.35485">
        <ele>-21.200000762939</ele>
        <time>2022-09-08T09:39:23.000Z</time>
      </trkpt>
      <trkpt lat="47.31824" lon="-2.35495">
        <ele>-21.200000762939</ele>
        <time>2022-09-08T09:39:25.000Z</time>
      </trkpt>
      <trkpt lat="47.31825" lon="-2.355">
        <ele>-21.200000762939</ele>
        <time>2022-09-08T09:39:26.000Z</time>
      </trkpt>
      <trkpt lat="47.31833" lon="-2.35536">
        <ele>-21.200000762939</ele>
        <time>2022-09-08T09:39:31.000Z</time>
      </trkpt>
      <trkpt lat="47.31828" lon="-2.35555">
        <ele>-21.200000762939</ele>
        <time>2022-09-08T09:39:34.000Z</time>
      </trkpt>
      <trkpt lat="47.31819" lon="-2.35569">
        <ele>-21.200000762939</ele>
        <time>2022-09-08T09:39:37.000Z</time>
      </trkpt>
      <trkpt lat="47.31816" lon="-2.35574">
        <ele>-21.200000762939</ele>
        <time>2022-09-08T09:39:38.000Z</time>
      </trkpt>
      <trkpt lat="47.31807" lon="-2.35594">
        <ele>-21.200000762939</ele>
        <time>2022-09-08T09:39:42.000Z</time>
      </trkpt>
      <trkpt lat="47.31801" lon="-2.35601">
        <ele>-21.200000762939</ele>
        <time>2022-09-08T09:39:44.000Z</time>
      </trkpt>
      <trkpt lat="47.31797" lon="-2.35608">
        <ele>-21.200000762939</ele>
        <time>2022-09-08T09:39:46.000Z</time>
      </trkpt>
      <trkpt lat="47.31787" lon="-2.35636">
        <ele>-21.200000762939</ele>
        <time>2022-09-08T09:39:51.000Z</time>
      </trkpt>
      <trkpt lat="47.31787" lon="-2.35649">
        <ele>-20.799999237061</ele>
        <time>2022-09-08T09:39:53.000Z</time>
      </trkpt>
      <trkpt lat="47.31787" lon="-2.35655">
        <ele>-20.39999961853</ele>
        <time>2022-09-08T09:39:54.000Z</time>
      </trkpt>
      <trkpt lat="47.31786" lon="-2.35661">
        <ele>-20</ele>
        <time>2022-09-08T09:39:55.000Z</time>
      </trkpt>
      <trkpt lat="47.31785" lon="-2.35667">
        <ele>-19.60000038147</ele>
        <time>2022-09-08T09:39:56.000Z</time>
      </trkpt>
      <trkpt lat="47.31785" lon="-2.35672">
        <ele>-19.200000762939</ele>
        <time>2022-09-08T09:39:57.000Z</time>
      </trkpt>
      <trkpt lat="47.31784" lon="-2.35684">
        <ele>-19.200000762939</ele>
        <time>2022-09-08T09:39:59.000Z</time>
      </trkpt>
      <trkpt lat="47.31782" lon="-2.35715">
        <ele>-19.200000762939</ele>
        <time>2022-09-08T09:40:05.000Z</time>
      </trkpt>
      <trkpt lat="47.31782" lon="-2.35721">
        <ele>-18.799999237061</ele>
        <time>2022-09-08T09:40:06.000Z</time>
      </trkpt>
      <trkpt lat="47.31781" lon="-2.35726">
        <ele>-18.39999961853</ele>
        <time>2022-09-08T09:40:07.000Z</time>
      </trkpt>
      <trkpt lat="47.31781" lon="-2.35731">
        <ele>-18</ele>
        <time>2022-09-08T09:40:08.000Z</time>
      </trkpt>
      <trkpt lat="47.31781" lon="-2.35735">
        <ele>-17.60000038147</ele>
        <time>2022-09-08T09:40:09.000Z</time>
      </trkpt>
      <trkpt lat="47.31781" lon="-2.3574">
        <ele>-17.200000762939</ele>
        <time>2022-09-08T09:40:10.000Z</time>
      </trkpt>
      <trkpt lat="47.31781" lon="-2.35745">
        <ele>-17.200000762939</ele>
        <time>2022-09-08T09:40:11.000Z</time>
      </trkpt>
      <trkpt lat="47.31781" lon="-2.3577">
        <ele>-17.200000762939</ele>
        <time>2022-09-08T09:40:16.000Z</time>
      </trkpt>
      <trkpt lat="47.31783" lon="-2.35788">
        <ele>-17.200000762939</ele>
        <time>2022-09-08T09:40:20.000Z</time>
      </trkpt>
      <trkpt lat="47.31787" lon="-2.35797">
        <ele>-17.200000762939</ele>
        <time>2022-09-08T09:40:22.000Z</time>
      </trkpt>
      <trkpt lat="47.31797" lon="-2.35808">
        <ele>-17.200000762939</ele>
        <time>2022-09-08T09:40:25.000Z</time>
      </trkpt>
      <trkpt lat="47.31812" lon="-2.35829">
        <ele>-17.200000762939</ele>
        <time>2022-09-08T09:40:31.000Z</time>
      </trkpt>
      <trkpt lat="47.3182" lon="-2.35849">
        <ele>-16.799999237061</ele>
        <time>2022-09-08T09:40:35.000Z</time>
      </trkpt>
      <trkpt lat="47.31821" lon="-2.35855">
        <ele>-16.39999961853</ele>
        <time>2022-09-08T09:40:36.000Z</time>
      </trkpt>
      <trkpt lat="47.31821" lon="-2.35861">
        <ele>-16</ele>
        <time>2022-09-08T09:40:37.000Z</time>
      </trkpt>
      <trkpt lat="47.3182" lon="-2.35867">
        <ele>-15.60000038147</ele>
        <time>2022-09-08T09:40:38.000Z</time>
      </trkpt>
      <trkpt lat="47.31817" lon="-2.35872">
        <ele>-15.199999809265</ele>
        <time>2022-09-08T09:40:39.000Z</time>
      </trkpt>
      <trkpt lat="47.31804" lon="-2.35885">
        <ele>-15.199999809265</ele>
        <time>2022-09-08T09:40:43.000Z</time>
      </trkpt>
      <trkpt lat="47.318" lon="-2.35887">
        <ele>-15.199999809265</ele>
        <time>2022-09-08T09:40:44.000Z</time>
      </trkpt>
      <trkpt lat="47.31787" lon="-2.35894">
        <ele>-15.199999809265</ele>
        <time>2022-09-08T09:40:47.000Z</time>
      </trkpt>
      <trkpt lat="47.31783" lon="-2.35896">
        <ele>-15.199999809265</ele>
        <time>2022-09-08T09:40:48.000Z</time>
      </trkpt>
      <trkpt lat="47.31771" lon="-2.35905">
        <ele>-15.199999809265</ele>
        <time>2022-09-08T09:40:51.000Z</time>
      </trkpt>
      <trkpt lat="47.31764" lon="-2.3591">
        <ele>-15.199999809265</ele>
        <time>2022-09-08T09:40:53.000Z</time>
      </trkpt>
      <trkpt lat="47.31741" lon="-2.35924">
        <ele>-15.199999809265</ele>
        <time>2022-09-08T09:40:59.000Z</time>
      </trkpt>
      <trkpt lat="47.31723" lon="-2.35937">
        <ele>-14.800000190735</ele>
        <time>2022-09-08T09:41:04.000Z</time>
      </trkpt>
      <trkpt lat="47.31719" lon="-2.35939">
        <ele>-14.39999961853</ele>
        <time>2022-09-08T09:41:05.000Z</time>
      </trkpt>
      <trkpt lat="47.31715" lon="-2.35941">
        <ele>-14</ele>
        <time>2022-09-08T09:41:06.000Z</time>
      </trkpt>
      <trkpt lat="47.31711" lon="-2.35944">
        <ele>-13.60000038147</ele>
        <time>2022-09-08T09:41:07.000Z</time>
      </trkpt>
      <trkpt lat="47.31707" lon="-2.35945">
        <ele>-13</ele>
        <time>2022-09-08T09:41:08.000Z</time>
      </trkpt>
      <trkpt lat="47.3169" lon="-2.35955">
        <ele>-13</ele>
        <time>2022-09-08T09:41:13.000Z</time>
      </trkpt>
      <trkpt lat="47.31667" lon="-2.35967">
        <ele>-13</ele>
        <time>2022-09-08T09:41:20.000Z</time>
      </trkpt>
      <trkpt lat="47.31651" lon="-2.35978">
        <ele>-13</ele>
        <time>2022-09-08T09:41:25.000Z</time>
      </trkpt>
      <trkpt lat="47.31633" lon="-2.35996">
        <ele>-13</ele>
        <time>2022-09-08T09:41:31.000Z</time>
      </trkpt>
      <trkpt lat="47.3163" lon="-2.35999">
        <ele>-12.60000038147</ele>
        <time>2022-09-08T09:41:32.000Z</time>
      </trkpt>
      <trkpt lat="47.31626" lon="-2.36003">
        <ele>-12.199999809265</ele>
        <time>2022-09-08T09:41:33.000Z</time>
      </trkpt>
      <trkpt lat="47.31623" lon="-2.36006">
        <ele>-11.800000190735</ele>
        <time>2022-09-08T09:41:34.000Z</time>
      </trkpt>
      <trkpt lat="47.3162" lon="-2.36009">
        <ele>-11.39999961853</ele>
        <time>2022-09-08T09:41:35.000Z</time>
      </trkpt>
      <trkpt lat="47.31617" lon="-2.36012">
        <ele>-11</ele>
        <time>2022-09-08T09:41:36.000Z</time>
      </trkpt>
      <trkpt lat="47.31614" lon="-2.36015">
        <ele>-11</ele>
        <time>2022-09-08T09:41:37.000Z</time>
      </trkpt>
      <trkpt lat="47.31596" lon="-2.36031">
        <ele>-11</ele>
        <time>2022-09-08T09:41:43.000Z</time>
      </trkpt>
      <trkpt lat="47.31579" lon="-2.36047">
        <ele>-11</ele>
        <time>2022-09-08T09:41:48.000Z</time>
      </trkpt>
      <trkpt lat="47.31569" lon="-2.36057">
        <ele>-11</ele>
        <time>2022-09-08T09:41:51.000Z</time>
      </trkpt>
      <trkpt lat="47.31558" lon="-2.36068">
        <ele>-11</ele>
        <time>2022-09-08T09:41:54.000Z</time>
      </trkpt>
      <trkpt lat="47.31548" lon="-2.36079">
        <ele>-11</ele>
        <time>2022-09-08T09:41:57.000Z</time>
      </trkpt>
      <trkpt lat="47.31543" lon="-2.36085">
        <ele>-11</ele>
        <time>2022-09-08T09:41:59.000Z</time>
      </trkpt>
      <trkpt lat="47.31537" lon="-2.36092">
        <ele>-10.60000038147</ele>
        <time>2022-09-08T09:42:01.000Z</time>
      </trkpt>
      <trkpt lat="47.31534" lon="-2.36095">
        <ele>-10</ele>
        <time>2022-09-08T09:42:02.000Z</time>
      </trkpt>
      <trkpt lat="47.31531" lon="-2.36098">
        <ele>-9.6000003814697</ele>
        <time>2022-09-08T09:42:03.000Z</time>
      </trkpt>
      <trkpt lat="47.31528" lon="-2.36101">
        <ele>-9.1999998092651</ele>
        <time>2022-09-08T09:42:04.000Z</time>
      </trkpt>
      <trkpt lat="47.31525" lon="-2.36104">
        <ele>-8.6000003814697</ele>
        <time>2022-09-08T09:42:05.000Z</time>
      </trkpt>
      <trkpt lat="47.31514" lon="-2.36119">
        <ele>-8.6000003814697</ele>
        <time>2022-09-08T09:42:10.000Z</time>
      </trkpt>
      <trkpt lat="47.31494" lon="-2.36139">
        <ele>-8.6000003814697</ele>
        <time>2022-09-08T09:42:16.000Z</time>
      </trkpt>
      <trkpt lat="47.31479" lon="-2.36154">
        <ele>-8.6000003814697</ele>
        <time>2022-09-08T09:42:22.000Z</time>
      </trkpt>
      <trkpt lat="47.31468" lon="-2.36162">
        <ele>-8.6000003814697</ele>
        <time>2022-09-08T09:42:28.000Z</time>
      </trkpt>
      <trkpt lat="47.31466" lon="-2.36164">
        <ele>-8.6000003814697</ele>
        <time>2022-09-08T09:42:30.000Z</time>
      </trkpt>
      <trkpt lat="47.31462" lon="-2.36161">
        <ele>-8.6000003814697</ele>
        <time>2022-09-08T09:42:42.000Z</time>
      </trkpt>
      <trkpt lat="47.3146" lon="-2.36159">
        <ele>-8.6000003814697</ele>
        <time>2022-09-08T09:42:43.000Z</time>
      </trkpt>
      <trkpt lat="47.31455" lon="-2.36149">
        <ele>-8.6000003814697</ele>
        <time>2022-09-08T09:42:47.000Z</time>
      </trkpt>
      <trkpt lat="47.31453" lon="-2.36146">
        <ele>-8.6000003814697</ele>
        <time>2022-09-08T09:42:48.000Z</time>
      </trkpt>
      <trkpt lat="47.31449" lon="-2.36132">
        <ele>-8.6000003814697</ele>
        <time>2022-09-08T09:42:51.000Z</time>
      </trkpt>
      <trkpt lat="47.31442" lon="-2.36106">
        <ele>-8.6000003814697</ele>
        <time>2022-09-08T09:42:56.000Z</time>
      </trkpt>
      <trkpt lat="47.31437" lon="-2.36089">
        <ele>-8.6000003814697</ele>
        <time>2022-09-08T09:42:59.000Z</time>
      </trkpt>
      <trkpt lat="47.31434" lon="-2.36077">
        <ele>-8.6000003814697</ele>
        <time>2022-09-08T09:43:01.000Z</time>
      </trkpt>
      <trkpt lat="47.31431" lon="-2.36071">
        <ele>-8.6000003814697</ele>
        <time>2022-09-08T09:43:02.000Z</time>
      </trkpt>
      <trkpt lat="47.31424" lon="-2.36047">
        <ele>-8.6000003814697</ele>
        <time>2022-09-08T09:43:06.000Z</time>
      </trkpt>
      <trkpt lat="47.31422" lon="-2.3604">
        <ele>-9</ele>
        <time>2022-09-08T09:43:07.000Z</time>
      </trkpt>
      <trkpt lat="47.3142" lon="-2.36034">
        <ele>-9.3999996185303</ele>
        <time>2022-09-08T09:43:08.000Z</time>
      </trkpt>
      <trkpt lat="47.31418" lon="-2.36028">
        <ele>-9.8000001907349</ele>
        <time>2022-09-08T09:43:09.000Z</time>
      </trkpt>
      <trkpt lat="47.31416" lon="-2.36022">
        <ele>-10.199999809265</ele>
        <time>2022-09-08T09:43:10.000Z</time>
      </trkpt>
      <trkpt lat="47.31413" lon="-2.36017">
        <ele>-10.60000038147</ele>
        <time>2022-09-08T09:43:11.000Z</time>
      </trkpt>
      <trkpt lat="47.3141" lon="-2.36011">
        <ele>-10.60000038147</ele>
        <time>2022-09-08T09:43:12.000Z</time>
      </trkpt>
      <trkpt lat="47.31402" lon="-2.35996">
        <ele>-11.199999809265</ele>
        <time>2022-09-08T09:43:15.000Z</time>
      </trkpt>
      <trkpt lat="47.314" lon="-2.35989">
        <ele>-11.60000038147</ele>
        <time>2022-09-08T09:43:16.000Z</time>
      </trkpt>
      <trkpt lat="47.31398" lon="-2.35982">
        <ele>-12</ele>
        <time>2022-09-08T09:43:17.000Z</time>
      </trkpt>
      <trkpt lat="47.31395" lon="-2.35975">
        <ele>-12.39999961853</ele>
        <time>2022-09-08T09:43:18.000Z</time>
      </trkpt>
      <trkpt lat="47.31393" lon="-2.35969">
        <ele>-12.800000190735</ele>
        <time>2022-09-08T09:43:19.000Z</time>
      </trkpt>
      <trkpt lat="47.31382" lon="-2.35948">
        <ele>-12.800000190735</ele>
        <time>2022-09-08T09:43:22.000Z</time>
      </trkpt>
      <trkpt lat="47.31371" lon="-2.35923">
        <ele>-12.800000190735</ele>
        <time>2022-09-08T09:43:26.000Z</time>
      </trkpt>
      <trkpt lat="47.31356" lon="-2.35889">
        <ele>-12.800000190735</ele>
        <time>2022-09-08T09:43:32.000Z</time>
      </trkpt>
      <trkpt lat="47.31347" lon="-2.35866">
        <ele>-12.800000190735</ele>
        <time>2022-09-08T09:43:37.000Z</time>
      </trkpt>
      <trkpt lat="47.31342" lon="-2.35825">
        <ele>-12.800000190735</ele>
        <time>2022-09-08T09:43:43.000Z</time>
      </trkpt>
      <trkpt lat="47.31336" lon="-2.35791">
        <ele>-12.800000190735</ele>
        <time>2022-09-08T09:43:47.000Z</time>
      </trkpt>
      <trkpt lat="47.31334" lon="-2.35777">
        <ele>-12.39999961853</ele>
        <time>2022-09-08T09:43:49.000Z</time>
      </trkpt>
      <trkpt lat="47.31334" lon="-2.3577">
        <ele>-12</ele>
        <time>2022-09-08T09:43:50.000Z</time>
      </trkpt>
      <trkpt lat="47.31334" lon="-2.35762">
        <ele>-11.60000038147</ele>
        <time>2022-09-08T09:43:51.000Z</time>
      </trkpt>
      <trkpt lat="47.31333" lon="-2.35754">
        <ele>-11.199999809265</ele>
        <time>2022-09-08T09:43:52.000Z</time>
      </trkpt>
      <trkpt lat="47.31332" lon="-2.35746">
        <ele>-10.800000190735</ele>
        <time>2022-09-08T09:43:53.000Z</time>
      </trkpt>
      <trkpt lat="47.31332" lon="-2.35738">
        <ele>-10.800000190735</ele>
        <time>2022-09-08T09:43:54.000Z</time>
      </trkpt>
      <trkpt lat="47.31331" lon="-2.3571">
        <ele>-10.800000190735</ele>
        <time>2022-09-08T09:43:58.000Z</time>
      </trkpt>
      <trkpt lat="47.31331" lon="-2.35673">
        <ele>-10.800000190735</ele>
        <time>2022-09-08T09:44:03.000Z</time>
      </trkpt>
      <trkpt lat="47.31328" lon="-2.35621">
        <ele>-10.800000190735</ele>
        <time>2022-09-08T09:44:10.000Z</time>
      </trkpt>
      <trkpt lat="47.31327" lon="-2.35564">
        <ele>-11.199999809265</ele>
        <time>2022-09-08T09:44:17.000Z</time>
      </trkpt>
      <trkpt lat="47.31328" lon="-2.35557">
        <ele>-11.60000038147</ele>
        <time>2022-09-08T09:44:18.000Z</time>
      </trkpt>
      <trkpt lat="47.31329" lon="-2.35549">
        <ele>-12</ele>
        <time>2022-09-08T09:44:19.000Z</time>
      </trkpt>
      <trkpt lat="47.31329" lon="-2.35541">
        <ele>-12.39999961853</ele>
        <time>2022-09-08T09:44:20.000Z</time>
      </trkpt>
      <trkpt lat="47.31329" lon="-2.35533">
        <ele>-12.800000190735</ele>
        <time>2022-09-08T09:44:21.000Z</time>
      </trkpt>
      <trkpt lat="47.31329" lon="-2.35508">
        <ele>-12.800000190735</ele>
        <time>2022-09-08T09:44:24.000Z</time>
      </trkpt>
      <trkpt lat="47.31329" lon="-2.3545">
        <ele>-12.800000190735</ele>
        <time>2022-09-08T09:44:31.000Z</time>
      </trkpt>
      <trkpt lat="47.3133" lon="-2.35387">
        <ele>-12.800000190735</ele>
        <time>2022-09-08T09:44:38.000Z</time>
      </trkpt>
      <trkpt lat="47.31333" lon="-2.35321">
        <ele>-12.800000190735</ele>
        <time>2022-09-08T09:44:46.000Z</time>
      </trkpt>
      <trkpt lat="47.31337" lon="-2.35246">
        <ele>-12.800000190735</ele>
        <time>2022-09-08T09:44:54.000Z</time>
      </trkpt>
      <trkpt lat="47.3134" lon="-2.35173">
        <ele>-12.800000190735</ele>
        <time>2022-09-08T09:45:02.000Z</time>
      </trkpt>
      <trkpt lat="47.31342" lon="-2.35118">
        <ele>-12.800000190735</ele>
        <time>2022-09-08T09:45:08.000Z</time>
      </trkpt>
      <trkpt lat="47.31342" lon="-2.35099">
        <ele>-12.800000190735</ele>
        <time>2022-09-08T09:45:10.000Z</time>
      </trkpt>
      <trkpt lat="47.31341" lon="-2.35026">
        <ele>-12.800000190735</ele>
        <time>2022-09-08T09:45:18.000Z</time>
      </trkpt>
      <trkpt lat="47.3134" lon="-2.35">
        <ele>-12.800000190735</ele>
        <time>2022-09-08T09:45:21.000Z</time>
      </trkpt>
      <trkpt lat="47.31335" lon="-2.34974">
        <ele>-12.800000190735</ele>
        <time>2022-09-08T09:45:24.000Z</time>
      </trkpt>
      <trkpt lat="47.31323" lon="-2.34926">
        <ele>-12.800000190735</ele>
        <time>2022-09-08T09:45:30.000Z</time>
      </trkpt>
      <trkpt lat="47.31308" lon="-2.34874">
        <ele>-12.800000190735</ele>
        <time>2022-09-08T09:45:37.000Z</time>
      </trkpt>
      <trkpt lat="47.31305" lon="-2.34859">
        <ele>-12.800000190735</ele>
        <time>2022-09-08T09:45:39.000Z</time>
      </trkpt>
      <trkpt lat="47.31298" lon="-2.34828">
        <ele>-12.800000190735</ele>
        <time>2022-09-08T09:45:43.000Z</time>
      </trkpt>
      <trkpt lat="47.31296" lon="-2.3482">
        <ele>-12.800000190735</ele>
        <time>2022-09-08T09:45:44.000Z</time>
      </trkpt>
      <trkpt lat="47.31287" lon="-2.34772">
        <ele>-12.800000190735</ele>
        <time>2022-09-08T09:45:50.000Z</time>
      </trkpt>
      <trkpt lat="47.31276" lon="-2.34714">
        <ele>-12.800000190735</ele>
        <time>2022-09-08T09:45:57.000Z</time>
      </trkpt>
      <trkpt lat="47.31274" lon="-2.34702">
        <ele>-12.800000190735</ele>
        <time>2022-09-08T09:45:59.000Z</time>
      </trkpt>
      <trkpt lat="47.31277" lon="-2.3469">
        <ele>-12.800000190735</ele>
        <time>2022-09-08T09:46:01.000Z</time>
      </trkpt>
      <trkpt lat="47.31283" lon="-2.34669">
        <ele>-12.800000190735</ele>
        <time>2022-09-08T09:46:04.000Z</time>
      </trkpt>
      <trkpt lat="47.31285" lon="-2.34662">
        <ele>-12.800000190735</ele>
        <time>2022-09-08T09:46:05.000Z</time>
      </trkpt>
      <trkpt lat="47.31286" lon="-2.34654">
        <ele>-12.800000190735</ele>
        <time>2022-09-08T09:46:06.000Z</time>
      </trkpt>
      <trkpt lat="47.31288" lon="-2.34637">
        <ele>-12.800000190735</ele>
        <time>2022-09-08T09:46:08.000Z</time>
      </trkpt>
      <trkpt lat="47.31288" lon="-2.34627">
        <ele>-12.800000190735</ele>
        <time>2022-09-08T09:46:09.000Z</time>
      </trkpt>
      <trkpt lat="47.31288" lon="-2.34616">
        <ele>-13.199999809265</ele>
        <time>2022-09-08T09:46:10.000Z</time>
      </trkpt>
      <trkpt lat="47.31287" lon="-2.34606">
        <ele>-13.800000190735</ele>
        <time>2022-09-08T09:46:11.000Z</time>
      </trkpt>
      <trkpt lat="47.31285" lon="-2.34596">
        <ele>-14.199999809265</ele>
        <time>2022-09-08T09:46:12.000Z</time>
      </trkpt>
      <trkpt lat="47.31284" lon="-2.34586">
        <ele>-14.60000038147</ele>
        <time>2022-09-08T09:46:13.000Z</time>
      </trkpt>
      <trkpt lat="47.31283" lon="-2.34576">
        <ele>-15.199999809265</ele>
        <time>2022-09-08T09:46:14.000Z</time>
      </trkpt>
      <trkpt lat="47.3128" lon="-2.34543">
        <ele>-15.60000038147</ele>
        <time>2022-09-08T09:46:17.000Z</time>
      </trkpt>
      <trkpt lat="47.31279" lon="-2.34533">
        <ele>-16</ele>
        <time>2022-09-08T09:46:18.000Z</time>
      </trkpt>
      <trkpt lat="47.31278" lon="-2.34523">
        <ele>-16.39999961853</ele>
        <time>2022-09-08T09:46:19.000Z</time>
      </trkpt>
      <trkpt lat="47.31277" lon="-2.34512">
        <ele>-16.799999237061</ele>
        <time>2022-09-08T09:46:20.000Z</time>
      </trkpt>
      <trkpt lat="47.31276" lon="-2.34502">
        <ele>-17.39999961853</ele>
        <time>2022-09-08T09:46:21.000Z</time>
      </trkpt>
      <trkpt lat="47.31274" lon="-2.3448">
        <ele>-17.799999237061</ele>
        <time>2022-09-08T09:46:23.000Z</time>
      </trkpt>
      <trkpt lat="47.31273" lon="-2.34468">
        <ele>-18.200000762939</ele>
        <time>2022-09-08T09:46:24.000Z</time>
      </trkpt>
      <trkpt lat="47.31272" lon="-2.34456">
        <ele>-18.60000038147</ele>
        <time>2022-09-08T09:46:25.000Z</time>
      </trkpt>
      <trkpt lat="47.3127" lon="-2.34445">
        <ele>-19</ele>
        <time>2022-09-08T09:46:26.000Z</time>
      </trkpt>
      <trkpt lat="47.31269" lon="-2.34433">
        <ele>-19.60000038147</ele>
        <time>2022-09-08T09:46:27.000Z</time>
      </trkpt>
      <trkpt lat="47.31259" lon="-2.34375">
        <ele>-20</ele>
        <time>2022-09-08T09:46:32.000Z</time>
      </trkpt>
      <trkpt lat="47.31254" lon="-2.34365">
        <ele>-20.39999961853</ele>
        <time>2022-09-08T09:46:33.000Z</time>
      </trkpt>
      <trkpt lat="47.31248" lon="-2.34358">
        <ele>-20.799999237061</ele>
        <time>2022-09-08T09:46:34.000Z</time>
      </trkpt>
      <trkpt lat="47.3124" lon="-2.34352">
        <ele>-21.200000762939</ele>
        <time>2022-09-08T09:46:35.000Z</time>
      </trkpt>
      <trkpt lat="47.31233" lon="-2.34348">
        <ele>-21.60000038147</ele>
        <time>2022-09-08T09:46:36.000Z</time>
      </trkpt>
      <trkpt lat="47.31218" lon="-2.34343">
        <ele>-21.60000038147</ele>
        <time>2022-09-08T09:46:38.000Z</time>
      </trkpt>
      <trkpt lat="47.31211" lon="-2.34338">
        <ele>-21.60000038147</ele>
        <time>2022-09-08T09:46:39.000Z</time>
      </trkpt>
      <trkpt lat="47.31193" lon="-2.34318">
        <ele>-21.60000038147</ele>
        <time>2022-09-08T09:46:42.000Z</time>
      </trkpt>
      <trkpt lat="47.31178" lon="-2.34291">
        <ele>-21.60000038147</ele>
        <time>2022-09-08T09:46:45.000Z</time>
      </trkpt>
      <trkpt lat="47.31174" lon="-2.34281">
        <ele>-21.60000038147</ele>
        <time>2022-09-08T09:46:46.000Z</time>
      </trkpt>
      <trkpt lat="47.31153" lon="-2.34238">
        <ele>-21.60000038147</ele>
        <time>2022-09-08T09:46:51.000Z</time>
      </trkpt>
      <trkpt lat="47.31132" lon="-2.34202">
        <ele>-21.60000038147</ele>
        <time>2022-09-08T09:46:56.000Z</time>
      </trkpt>
      <trkpt lat="47.31109" lon="-2.34157">
        <ele>-21.200000762939</ele>
        <time>2022-09-08T09:47:03.000Z</time>
      </trkpt>
      <trkpt lat="47.31106" lon="-2.34152">
        <ele>-20.799999237061</ele>
        <time>2022-09-08T09:47:04.000Z</time>
      </trkpt>
      <trkpt lat="47.31103" lon="-2.34146">
        <ele>-19.799999237061</ele>
        <time>2022-09-08T09:47:05.000Z</time>
      </trkpt>
      <trkpt lat="47.311" lon="-2.3414">
        <ele>-19.39999961853</ele>
        <time>2022-09-08T09:47:06.000Z</time>
      </trkpt>
      <trkpt lat="47.31089" lon="-2.34117">
        <ele>-19</ele>
        <time>2022-09-08T09:47:10.000Z</time>
      </trkpt>
      <trkpt lat="47.31086" lon="-2.34112">
        <ele>-18.60000038147</ele>
        <time>2022-09-08T09:47:11.000Z</time>
      </trkpt>
      <trkpt lat="47.31083" lon="-2.34106">
        <ele>-18</ele>
        <time>2022-09-08T09:47:12.000Z</time>
      </trkpt>
      <trkpt lat="47.31081" lon="-2.341">
        <ele>-17.60000038147</ele>
        <time>2022-09-08T09:47:13.000Z</time>
      </trkpt>
      <trkpt lat="47.31078" lon="-2.34094">
        <ele>-17.200000762939</ele>
        <time>2022-09-08T09:47:14.000Z</time>
      </trkpt>
      <trkpt lat="47.31074" lon="-2.34082">
        <ele>-17.200000762939</ele>
        <time>2022-09-08T09:47:16.000Z</time>
      </trkpt>
      <trkpt lat="47.31072" lon="-2.34076">
        <ele>-17.200000762939</ele>
        <time>2022-09-08T09:47:17.000Z</time>
      </trkpt>
      <trkpt lat="47.31067" lon="-2.34057">
        <ele>-17.200000762939</ele>
        <time>2022-09-08T09:47:20.000Z</time>
      </trkpt>
      <trkpt lat="47.31065" lon="-2.34044">
        <ele>-16.799999237061</ele>
        <time>2022-09-08T09:47:22.000Z</time>
      </trkpt>
      <trkpt lat="47.31064" lon="-2.34037">
        <ele>-16.39999961853</ele>
        <time>2022-09-08T09:47:23.000Z</time>
      </trkpt>
      <trkpt lat="47.31063" lon="-2.3403">
        <ele>-16</ele>
        <time>2022-09-08T09:47:24.000Z</time>
      </trkpt>
      <trkpt lat="47.31063" lon="-2.34023">
        <ele>-15.60000038147</ele>
        <time>2022-09-08T09:47:25.000Z</time>
      </trkpt>
      <trkpt lat="47.31062" lon="-2.34016">
        <ele>-15.199999809265</ele>
        <time>2022-09-08T09:47:26.000Z</time>
      </trkpt>
      <trkpt lat="47.3106" lon="-2.33972">
        <ele>-15.199999809265</ele>
        <time>2022-09-08T09:47:32.000Z</time>
      </trkpt>
      <trkpt lat="47.31059" lon="-2.33958">
        <ele>-15.199999809265</ele>
        <time>2022-09-08T09:47:34.000Z</time>
      </trkpt>
      <trkpt lat="47.31053" lon="-2.33947">
        <ele>-15.199999809265</ele>
        <time>2022-09-08T09:47:36.000Z</time>
      </trkpt>
      <trkpt lat="47.31039" lon="-2.33948">
        <ele>-15.199999809265</ele>
        <time>2022-09-08T09:47:39.000Z</time>
      </trkpt>
      <trkpt lat="47.31035" lon="-2.33949">
        <ele>-15.199999809265</ele>
        <time>2022-09-08T09:47:40.000Z</time>
      </trkpt>
      <trkpt lat="47.31025" lon="-2.33952">
        <ele>-15.199999809265</ele>
        <time>2022-09-08T09:47:42.000Z</time>
      </trkpt>
      <trkpt lat="47.31011" lon="-2.33953">
        <ele>-15.199999809265</ele>
        <time>2022-09-08T09:47:45.000Z</time>
      </trkpt>
      <trkpt lat="47.30998" lon="-2.33954">
        <ele>-14.800000190735</ele>
        <time>2022-09-08T09:47:48.000Z</time>
      </trkpt>
      <trkpt lat="47.30993" lon="-2.33954">
        <ele>-14.199999809265</ele>
        <time>2022-09-08T09:47:49.000Z</time>
      </trkpt>
      <trkpt lat="47.30989" lon="-2.33954">
        <ele>-13.800000190735</ele>
        <time>2022-09-08T09:47:50.000Z</time>
      </trkpt>
      <trkpt lat="47.30984" lon="-2.33955">
        <ele>-13.39999961853</ele>
        <time>2022-09-08T09:47:51.000Z</time>
      </trkpt>
      <trkpt lat="47.3098" lon="-2.33955">
        <ele>-13</ele>
        <time>2022-09-08T09:47:52.000Z</time>
      </trkpt>
      <trkpt lat="47.30948" lon="-2.33952">
        <ele>-13</ele>
        <time>2022-09-08T09:47:59.000Z</time>
      </trkpt>
      <trkpt lat="47.30915" lon="-2.33947">
        <ele>-13</ele>
        <time>2022-09-08T09:48:06.000Z</time>
      </trkpt>
      <trkpt lat="47.30905" lon="-2.33947">
        <ele>-13</ele>
        <time>2022-09-08T09:48:08.000Z</time>
      </trkpt>
      <trkpt lat="47.30891" lon="-2.3395">
        <ele>-13</ele>
        <time>2022-09-08T09:48:11.000Z</time>
      </trkpt>
      <trkpt lat="47.30886" lon="-2.3395">
        <ele>-13</ele>
        <time>2022-09-08T09:48:12.000Z</time>
      </trkpt>
      <trkpt lat="47.30846" lon="-2.33955">
        <ele>-13</ele>
        <time>2022-09-08T09:48:20.000Z</time>
      </trkpt>
      <trkpt lat="47.30831" lon="-2.33959">
        <ele>-13</ele>
        <time>2022-09-08T09:48:23.000Z</time>
      </trkpt>
      <trkpt lat="47.30822" lon="-2.33961">
        <ele>-13</ele>
        <time>2022-09-08T09:48:25.000Z</time>
      </trkpt>
      <trkpt lat="47.30817" lon="-2.33962">
        <ele>-13</ele>
        <time>2022-09-08T09:48:26.000Z</time>
      </trkpt>
      <trkpt lat="47.30784" lon="-2.33976">
        <ele>-13</ele>
        <time>2022-09-08T09:48:33.000Z</time>
      </trkpt>
      <trkpt lat="47.30782" lon="-2.33993">
        <ele>-13</ele>
        <time>2022-09-08T09:48:36.000Z</time>
      </trkpt>
      <trkpt lat="47.30782" lon="-2.34003">
        <ele>-13</ele>
        <time>2022-09-08T09:48:38.000Z</time>
      </trkpt>
      <trkpt lat="47.30781" lon="-2.34022">
        <ele>-13</ele>
        <time>2022-09-08T09:48:41.000Z</time>
      </trkpt>
      <trkpt lat="47.3078" lon="-2.34029">
        <ele>-13</ele>
        <time>2022-09-08T09:48:42.000Z</time>
      </trkpt>
      <trkpt lat="47.30782" lon="-2.34048">
        <ele>-13</ele>
        <time>2022-09-08T09:48:45.000Z</time>
      </trkpt>
      <trkpt lat="47.30781" lon="-2.34055">
        <ele>-13</ele>
        <time>2022-09-08T09:48:46.000Z</time>
      </trkpt>
      <trkpt lat="47.30779" lon="-2.34076">
        <ele>-13</ele>
        <time>2022-09-08T09:48:49.000Z</time>
      </trkpt>
      <trkpt lat="47.30779" lon="-2.34083">
        <ele>-13</ele>
        <time>2022-09-08T09:48:50.000Z</time>
      </trkpt>
      <trkpt lat="47.30779" lon="-2.34107">
        <ele>-13</ele>
        <time>2022-09-08T09:48:54.000Z</time>
      </trkpt>
      <trkpt lat="47.30778" lon="-2.34113">
        <ele>-12.60000038147</ele>
        <time>2022-09-08T09:48:55.000Z</time>
      </trkpt>
      <trkpt lat="47.30778" lon="-2.3412">
        <ele>-12.199999809265</ele>
        <time>2022-09-08T09:48:56.000Z</time>
      </trkpt>
      <trkpt lat="47.30778" lon="-2.34127">
        <ele>-11.800000190735</ele>
        <time>2022-09-08T09:48:57.000Z</time>
      </trkpt>
      <trkpt lat="47.30777" lon="-2.34134">
        <ele>-11.39999961853</ele>
        <time>2022-09-08T09:48:58.000Z</time>
      </trkpt>
      <trkpt lat="47.30777" lon="-2.34141">
        <ele>-11</ele>
        <time>2022-09-08T09:48:59.000Z</time>
      </trkpt>
      <trkpt lat="47.30775" lon="-2.3418">
        <ele>-11</ele>
        <time>2022-09-08T09:49:05.000Z</time>
      </trkpt>
      <trkpt lat="47.30768" lon="-2.3421">
        <ele>-11</ele>
        <time>2022-09-08T09:49:10.000Z</time>
      </trkpt>
      <trkpt lat="47.30752" lon="-2.34216">
        <ele>-11</ele>
        <time>2022-09-08T09:49:13.000Z</time>
      </trkpt>
      <trkpt lat="47.30734" lon="-2.34223">
        <ele>-11</ele>
        <time>2022-09-08T09:49:17.000Z</time>
      </trkpt>
      <trkpt lat="47.30732" lon="-2.34233">
        <ele>-11</ele>
        <time>2022-09-08T09:49:19.000Z</time>
      </trkpt>
      <trkpt lat="47.30729" lon="-2.34258">
        <ele>-11</ele>
        <time>2022-09-08T09:49:23.000Z</time>
      </trkpt>
      <trkpt lat="47.30727" lon="-2.34265">
        <ele>-11</ele>
        <time>2022-09-08T09:49:24.000Z</time>
      </trkpt>
      <trkpt lat="47.30718" lon="-2.34283">
        <ele>-11</ele>
        <time>2022-09-08T09:49:27.000Z</time>
      </trkpt>
      <trkpt lat="47.30709" lon="-2.34303">
        <ele>-11</ele>
        <time>2022-09-08T09:49:31.000Z</time>
      </trkpt>
      <trkpt lat="47.307" lon="-2.34325">
        <ele>-11</ele>
        <time>2022-09-08T09:49:35.000Z</time>
      </trkpt>
      <trkpt lat="47.30694" lon="-2.34336">
        <ele>-11</ele>
        <time>2022-09-08T09:49:37.000Z</time>
      </trkpt>
      <trkpt lat="47.30689" lon="-2.34347">
        <ele>-11</ele>
        <time>2022-09-08T09:49:39.000Z</time>
      </trkpt>
      <trkpt lat="47.30678" lon="-2.34364">
        <ele>-11</ele>
        <time>2022-09-08T09:49:42.000Z</time>
      </trkpt>
      <trkpt lat="47.30659" lon="-2.34394">
        <ele>-11</ele>
        <time>2022-09-08T09:49:48.000Z</time>
      </trkpt>
      <trkpt lat="47.30651" lon="-2.34405">
        <ele>-11</ele>
        <time>2022-09-08T09:49:50.000Z</time>
      </trkpt>
      <trkpt lat="47.30645" lon="-2.34415">
        <ele>-10.60000038147</ele>
        <time>2022-09-08T09:49:52.000Z</time>
      </trkpt>
      <trkpt lat="47.30642" lon="-2.34419">
        <ele>-10.199999809265</ele>
        <time>2022-09-08T09:49:53.000Z</time>
      </trkpt>
      <trkpt lat="47.30639" lon="-2.34424">
        <ele>-9.8000001907349</ele>
        <time>2022-09-08T09:49:54.000Z</time>
      </trkpt>
      <trkpt lat="47.30636" lon="-2.34429">
        <ele>-9.3999996185303</ele>
        <time>2022-09-08T09:49:55.000Z</time>
      </trkpt>
      <trkpt lat="47.30632" lon="-2.34434">
        <ele>-9</ele>
        <time>2022-09-08T09:49:56.000Z</time>
      </trkpt>
      <trkpt lat="47.30629" lon="-2.34439">
        <ele>-9</ele>
        <time>2022-09-08T09:49:57.000Z</time>
      </trkpt>
      <trkpt lat="47.30626" lon="-2.34443">
        <ele>-9</ele>
        <time>2022-09-08T09:49:58.000Z</time>
      </trkpt>
      <trkpt lat="47.30616" lon="-2.34457">
        <ele>-9</ele>
        <time>2022-09-08T09:50:01.000Z</time>
      </trkpt>
      <trkpt lat="47.3061" lon="-2.34468">
        <ele>-9</ele>
        <time>2022-09-08T09:50:03.000Z</time>
      </trkpt>
      <trkpt lat="47.30599" lon="-2.34485">
        <ele>-9</ele>
        <time>2022-09-08T09:50:06.000Z</time>
      </trkpt>
      <trkpt lat="47.30595" lon="-2.34491">
        <ele>-9</ele>
        <time>2022-09-08T09:50:07.000Z</time>
      </trkpt>
      <trkpt lat="47.30573" lon="-2.34527">
        <ele>-9</ele>
        <time>2022-09-08T09:50:12.000Z</time>
      </trkpt>
      <trkpt lat="47.3056" lon="-2.34548">
        <ele>-9</ele>
        <time>2022-09-08T09:50:15.000Z</time>
      </trkpt>
      <trkpt lat="47.3055" lon="-2.34561">
        <ele>-9.3999996185303</ele>
        <time>2022-09-08T09:50:17.000Z</time>
      </trkpt>
      <trkpt lat="47.30545" lon="-2.34568">
        <ele>-9.8000001907349</ele>
        <time>2022-09-08T09:50:18.000Z</time>
      </trkpt>
      <trkpt lat="47.30541" lon="-2.34574">
        <ele>-10.199999809265</ele>
        <time>2022-09-08T09:50:19.000Z</time>
      </trkpt>
      <trkpt lat="47.30537" lon="-2.3458">
        <ele>-10.60000038147</ele>
        <time>2022-09-08T09:50:20.000Z</time>
      </trkpt>
      <trkpt lat="47.30532" lon="-2.34586">
        <ele>-11</ele>
        <time>2022-09-08T09:50:21.000Z</time>
      </trkpt>
      <trkpt lat="47.30528" lon="-2.34591">
        <ele>-11</ele>
        <time>2022-09-08T09:50:22.000Z</time>
      </trkpt>
      <trkpt lat="47.30522" lon="-2.34596">
        <ele>-11</ele>
        <time>2022-09-08T09:50:23.000Z</time>
      </trkpt>
      <trkpt lat="47.30513" lon="-2.34607">
        <ele>-11</ele>
        <time>2022-09-08T09:50:25.000Z</time>
      </trkpt>
      <trkpt lat="47.30506" lon="-2.34619">
        <ele>-11</ele>
        <time>2022-09-08T09:50:27.000Z</time>
      </trkpt>
      <trkpt lat="47.305" lon="-2.34631">
        <ele>-11</ele>
        <time>2022-09-08T09:50:29.000Z</time>
      </trkpt>
      <trkpt lat="47.30496" lon="-2.34636">
        <ele>-11</ele>
        <time>2022-09-08T09:50:30.000Z</time>
      </trkpt>
      <trkpt lat="47.30488" lon="-2.34647">
        <ele>-11</ele>
        <time>2022-09-08T09:50:32.000Z</time>
      </trkpt>
      <trkpt lat="47.30479" lon="-2.34658">
        <ele>-11</ele>
        <time>2022-09-08T09:50:34.000Z</time>
      </trkpt>
      <trkpt lat="47.30454" lon="-2.34687">
        <ele>-11</ele>
        <time>2022-09-08T09:50:40.000Z</time>
      </trkpt>
      <trkpt lat="47.30449" lon="-2.34691">
        <ele>-11</ele>
        <time>2022-09-08T09:50:41.000Z</time>
      </trkpt>
      <trkpt lat="47.30441" lon="-2.34698">
        <ele>-11</ele>
        <time>2022-09-08T09:50:43.000Z</time>
      </trkpt>
      <trkpt lat="47.30432" lon="-2.34707">
        <ele>-11</ele>
        <time>2022-09-08T09:50:45.000Z</time>
      </trkpt>
      <trkpt lat="47.30429" lon="-2.34709">
        <ele>-11</ele>
        <time>2022-09-08T09:50:46.000Z</time>
      </trkpt>
      <trkpt lat="47.30415" lon="-2.34721">
        <ele>-11</ele>
        <time>2022-09-08T09:50:49.000Z</time>
      </trkpt>
      <trkpt lat="47.30406" lon="-2.34728">
        <ele>-11</ele>
        <time>2022-09-08T09:50:51.000Z</time>
      </trkpt>
      <trkpt lat="47.30397" lon="-2.34733">
        <ele>-11</ele>
        <time>2022-09-08T09:50:53.000Z</time>
      </trkpt>
      <trkpt lat="47.30375" lon="-2.34748">
        <ele>-11</ele>
        <time>2022-09-08T09:50:58.000Z</time>
      </trkpt>
      <trkpt lat="47.30352" lon="-2.34763">
        <ele>-11</ele>
        <time>2022-09-08T09:51:03.000Z</time>
      </trkpt>
      <trkpt lat="47.30343" lon="-2.3477">
        <ele>-11</ele>
        <time>2022-09-08T09:51:05.000Z</time>
      </trkpt>
      <trkpt lat="47.30335" lon="-2.3478">
        <ele>-11</ele>
        <time>2022-09-08T09:51:07.000Z</time>
      </trkpt>
      <trkpt lat="47.30332" lon="-2.34786">
        <ele>-11</ele>
        <time>2022-09-08T09:51:08.000Z</time>
      </trkpt>
      <trkpt lat="47.30319" lon="-2.34811">
        <ele>-11</ele>
        <time>2022-09-08T09:51:12.000Z</time>
      </trkpt>
      <trkpt lat="47.30316" lon="-2.34815">
        <ele>-11</ele>
        <time>2022-09-08T09:51:13.000Z</time>
      </trkpt>
      <trkpt lat="47.30304" lon="-2.3483">
        <ele>-11</ele>
        <time>2022-09-08T09:51:16.000Z</time>
      </trkpt>
      <trkpt lat="47.30295" lon="-2.3484">
        <ele>-11</ele>
        <time>2022-09-08T09:51:18.000Z</time>
      </trkpt>
      <trkpt lat="47.30291" lon="-2.34843">
        <ele>-11</ele>
        <time>2022-09-08T09:51:19.000Z</time>
      </trkpt>
      <trkpt lat="47.30276" lon="-2.34851">
        <ele>-11</ele>
        <time>2022-09-08T09:51:22.000Z</time>
      </trkpt>
      <trkpt lat="47.30271" lon="-2.34854">
        <ele>-11</ele>
        <time>2022-09-08T09:51:23.000Z</time>
      </trkpt>
      <trkpt lat="47.30249" lon="-2.34868">
        <ele>-11</ele>
        <time>2022-09-08T09:51:27.000Z</time>
      </trkpt>
      <trkpt lat="47.30227" lon="-2.34887">
        <ele>-11</ele>
        <time>2022-09-08T09:51:32.000Z</time>
      </trkpt>
      <trkpt lat="47.30219" lon="-2.34895">
        <ele>-11</ele>
        <time>2022-09-08T09:51:34.000Z</time>
      </trkpt>
      <trkpt lat="47.30211" lon="-2.34905">
        <ele>-11</ele>
        <time>2022-09-08T09:51:36.000Z</time>
      </trkpt>
      <trkpt lat="47.3021" lon="-2.34913">
        <ele>-11</ele>
        <time>2022-09-08T09:51:37.000Z</time>
      </trkpt>
      <trkpt lat="47.3021" lon="-2.34953">
        <ele>-11</ele>
        <time>2022-09-08T09:51:42.000Z</time>
      </trkpt>
      <trkpt lat="47.30209" lon="-2.34977">
        <ele>-11.39999961853</ele>
        <time>2022-09-08T09:51:45.000Z</time>
      </trkpt>
      <trkpt lat="47.30209" lon="-2.34985">
        <ele>-11.800000190735</ele>
        <time>2022-09-08T09:51:46.000Z</time>
      </trkpt>
      <trkpt lat="47.30209" lon="-2.34994">
        <ele>-12.199999809265</ele>
        <time>2022-09-08T09:51:47.000Z</time>
      </trkpt>
      <trkpt lat="47.30209" lon="-2.35003">
        <ele>-12.800000190735</ele>
        <time>2022-09-08T09:51:48.000Z</time>
      </trkpt>
      <trkpt lat="47.3021" lon="-2.35012">
        <ele>-13.199999809265</ele>
        <time>2022-09-08T09:51:49.000Z</time>
      </trkpt>
      <trkpt lat="47.3021" lon="-2.35029">
        <ele>-13.199999809265</ele>
        <time>2022-09-08T09:51:51.000Z</time>
      </trkpt>
      <trkpt lat="47.3021" lon="-2.35037">
        <ele>-13.199999809265</ele>
        <time>2022-09-08T09:51:52.000Z</time>
      </trkpt>
      <trkpt lat="47.30211" lon="-2.35054">
        <ele>-13.199999809265</ele>
        <time>2022-09-08T09:51:54.000Z</time>
      </trkpt>
      <trkpt lat="47.30211" lon="-2.35088">
        <ele>-13.199999809265</ele>
        <time>2022-09-08T09:51:58.000Z</time>
      </trkpt>
      <trkpt lat="47.3021" lon="-2.35104">
        <ele>-14</ele>
        <time>2022-09-08T09:52:00.000Z</time>
      </trkpt>
      <trkpt lat="47.30209" lon="-2.35112">
        <ele>-14.39999961853</ele>
        <time>2022-09-08T09:52:01.000Z</time>
      </trkpt>
      <trkpt lat="47.30209" lon="-2.3512">
        <ele>-15</ele>
        <time>2022-09-08T09:52:02.000Z</time>
      </trkpt>
      <trkpt lat="47.30209" lon="-2.35129">
        <ele>-15.39999961853</ele>
        <time>2022-09-08T09:52:03.000Z</time>
      </trkpt>
      <trkpt lat="47.30209" lon="-2.35156">
        <ele>-15.39999961853</ele>
        <time>2022-09-08T09:52:06.000Z</time>
      </trkpt>
      <trkpt lat="47.30206" lon="-2.35162">
        <ele>-15.39999961853</ele>
        <time>2022-09-08T09:52:07.000Z</time>
      </trkpt>
      <trkpt lat="47.30195" lon="-2.35173">
        <ele>-15.39999961853</ele>
        <time>2022-09-08T09:52:10.000Z</time>
      </trkpt>
      <trkpt lat="47.3019" lon="-2.35174">
        <ele>-15.39999961853</ele>
        <time>2022-09-08T09:52:11.000Z</time>
      </trkpt>
      <trkpt lat="47.30185" lon="-2.35175">
        <ele>-15.800000190735</ele>
        <time>2022-09-08T09:52:12.000Z</time>
      </trkpt>
      <trkpt lat="47.30181" lon="-2.35176">
        <ele>-16.200000762939</ele>
        <time>2022-09-08T09:52:13.000Z</time>
      </trkpt>
      <trkpt lat="47.30177" lon="-2.35176">
        <ele>-16.60000038147</ele>
        <time>2022-09-08T09:52:14.000Z</time>
      </trkpt>
      <trkpt lat="47.30173" lon="-2.35178">
        <ele>-17</ele>
        <time>2022-09-08T09:52:15.000Z</time>
      </trkpt>
      <trkpt lat="47.30168" lon="-2.35182">
        <ele>-17.39999961853</ele>
        <time>2022-09-08T09:52:16.000Z</time>
      </trkpt>
      <trkpt lat="47.30164" lon="-2.35186">
        <ele>-17.39999961853</ele>
        <time>2022-09-08T09:52:17.000Z</time>
      </trkpt>
      <trkpt lat="47.3016" lon="-2.35191">
        <ele>-17.39999961853</ele>
        <time>2022-09-08T09:52:18.000Z</time>
      </trkpt>
      <trkpt lat="47.30149" lon="-2.35194">
        <ele>-17.39999961853</ele>
        <time>2022-09-08T09:52:21.000Z</time>
      </trkpt>
      <trkpt lat="47.30136" lon="-2.35196">
        <ele>-17.39999961853</ele>
        <time>2022-09-08T09:52:24.000Z</time>
      </trkpt>
      <trkpt lat="47.30121" lon="-2.352">
        <ele>-17.39999961853</ele>
        <time>2022-09-08T09:52:27.000Z</time>
      </trkpt>
      <trkpt lat="47.30102" lon="-2.3521">
        <ele>-17.39999961853</ele>
        <time>2022-09-08T09:52:31.000Z</time>
      </trkpt>
      <trkpt lat="47.30092" lon="-2.35215">
        <ele>-17.39999961853</ele>
        <time>2022-09-08T09:52:33.000Z</time>
      </trkpt>
      <trkpt lat="47.30087" lon="-2.35216">
        <ele>-17.39999961853</ele>
        <time>2022-09-08T09:52:34.000Z</time>
      </trkpt>
      <trkpt lat="47.30077" lon="-2.35219">
        <ele>-17.39999961853</ele>
        <time>2022-09-08T09:52:36.000Z</time>
      </trkpt>
      <trkpt lat="47.30073" lon="-2.35223">
        <ele>-17.39999961853</ele>
        <time>2022-09-08T09:52:37.000Z</time>
      </trkpt>
      <trkpt lat="47.3006" lon="-2.3523">
        <ele>-17.39999961853</ele>
        <time>2022-09-08T09:52:40.000Z</time>
      </trkpt>
      <trkpt lat="47.30055" lon="-2.35231">
        <ele>-17.39999961853</ele>
        <time>2022-09-08T09:52:41.000Z</time>
      </trkpt>
      <trkpt lat="47.3003" lon="-2.35246">
        <ele>-17.39999961853</ele>
        <time>2022-09-08T09:52:47.000Z</time>
      </trkpt>
      <trkpt lat="47.30026" lon="-2.35246">
        <ele>-17.39999961853</ele>
        <time>2022-09-08T09:52:49.000Z</time>
      </trkpt>
      <trkpt lat="47.30024" lon="-2.35246">
        <ele>-17.39999961853</ele>
        <time>2022-09-08T09:52:50.000Z</time>
      </trkpt>
      <trkpt lat="47.30013" lon="-2.35254">
        <ele>-17.39999961853</ele>
        <time>2022-09-08T09:52:54.000Z</time>
      </trkpt>
      <trkpt lat="47.30001" lon="-2.35258">
        <ele>-17.39999961853</ele>
        <time>2022-09-08T09:52:59.000Z</time>
      </trkpt>
      <trkpt lat="47.29998" lon="-2.35259">
        <ele>-17.39999961853</ele>
        <time>2022-09-08T09:53:01.000Z</time>
      </trkpt>
      <trkpt lat="47.29997" lon="-2.35259">
        <ele>-17.39999961853</ele>
        <time>2022-09-08T09:53:03.000Z</time>
      </trkpt>
      <trkpt lat="47.29994" lon="-2.35262">
        <ele>-17.39999961853</ele>
        <time>2022-09-08T09:53:20.000Z</time>
      </trkpt>
      <trkpt lat="47.29992" lon="-2.35266">
        <ele>-17.39999961853</ele>
        <time>2022-09-08T09:53:22.000Z</time>
      </trkpt>
      <trkpt lat="47.2998" lon="-2.35279">
        <ele>-17.39999961853</ele>
        <time>2022-09-08T09:53:27.000Z</time>
      </trkpt>
      <trkpt lat="47.29963" lon="-2.35301">
        <ele>-17.39999961853</ele>
        <time>2022-09-08T09:53:34.000Z</time>
      </trkpt>
      <trkpt lat="47.29944" lon="-2.35325">
        <ele>-17.39999961853</ele>
        <time>2022-09-08T09:53:41.000Z</time>
      </trkpt>
      <trkpt lat="47.29923" lon="-2.35352">
        <ele>-17.39999961853</ele>
        <time>2022-09-08T09:53:48.000Z</time>
      </trkpt>
      <trkpt lat="47.29894" lon="-2.35386">
        <ele>-17.39999961853</ele>
        <time>2022-09-08T09:53:57.000Z</time>
      </trkpt>
      <trkpt lat="47.29871" lon="-2.35409">
        <ele>-17.39999961853</ele>
        <time>2022-09-08T09:54:04.000Z</time>
      </trkpt>
      <trkpt lat="47.29859" lon="-2.35421">
        <ele>-17.39999961853</ele>
        <time>2022-09-08T09:54:08.000Z</time>
      </trkpt>
      <trkpt lat="47.29852" lon="-2.35428">
        <ele>-17.39999961853</ele>
        <time>2022-09-08T09:54:10.000Z</time>
      </trkpt>
      <trkpt lat="47.29831" lon="-2.35452">
        <ele>-17.39999961853</ele>
        <time>2022-09-08T09:54:17.000Z</time>
      </trkpt>
      <trkpt lat="47.29828" lon="-2.35474">
        <ele>-17.39999961853</ele>
        <time>2022-09-08T09:54:21.000Z</time>
      </trkpt>
      <trkpt lat="47.29832" lon="-2.35487">
        <ele>-17</ele>
        <time>2022-09-08T09:54:24.000Z</time>
      </trkpt>
      <trkpt lat="47.29833" lon="-2.35492">
        <ele>-16.60000038147</ele>
        <time>2022-09-08T09:54:25.000Z</time>
      </trkpt>
      <trkpt lat="47.29834" lon="-2.35496">
        <ele>-16.200000762939</ele>
        <time>2022-09-08T09:54:26.000Z</time>
      </trkpt>
      <trkpt lat="47.29835" lon="-2.35501">
        <ele>-15.800000190735</ele>
        <time>2022-09-08T09:54:27.000Z</time>
      </trkpt>
      <trkpt lat="47.29837" lon="-2.35505">
        <ele>-15.39999961853</ele>
        <time>2022-09-08T09:54:28.000Z</time>
      </trkpt>
      <trkpt lat="47.29841" lon="-2.35524">
        <ele>-15.39999961853</ele>
        <time>2022-09-08T09:54:32.000Z</time>
      </trkpt>
      <trkpt lat="47.29852" lon="-2.35557">
        <ele>-15.39999961853</ele>
        <time>2022-09-08T09:54:38.000Z</time>
      </trkpt>
      <trkpt lat="47.29865" lon="-2.35602">
        <ele>-15.39999961853</ele>
        <time>2022-09-08T09:54:46.000Z</time>
      </trkpt>
      <trkpt lat="47.29873" lon="-2.35629">
        <ele>-15</ele>
        <time>2022-09-08T09:54:51.000Z</time>
      </trkpt>
      <trkpt lat="47.29873" lon="-2.35634">
        <ele>-14.60000038147</ele>
        <time>2022-09-08T09:54:52.000Z</time>
      </trkpt>
      <trkpt lat="47.29874" lon="-2.3564">
        <ele>-13.800000190735</ele>
        <time>2022-09-08T09:54:53.000Z</time>
      </trkpt>
      <trkpt lat="47.29875" lon="-2.35645">
        <ele>-13.39999961853</ele>
        <time>2022-09-08T09:54:54.000Z</time>
      </trkpt>
      <trkpt lat="47.29881" lon="-2.35678">
        <ele>-13.39999961853</ele>
        <time>2022-09-08T09:55:00.000Z</time>
      </trkpt>
      <trkpt lat="47.29886" lon="-2.35705">
        <ele>-13</ele>
        <time>2022-09-08T09:55:05.000Z</time>
      </trkpt>
      <trkpt lat="47.29887" lon="-2.3571">
        <ele>-12.60000038147</ele>
        <time>2022-09-08T09:55:06.000Z</time>
      </trkpt>
      <trkpt lat="47.29888" lon="-2.35715">
        <ele>-12.199999809265</ele>
        <time>2022-09-08T09:55:07.000Z</time>
      </trkpt>
      <trkpt lat="47.2989" lon="-2.35719">
        <ele>-11.800000190735</ele>
        <time>2022-09-08T09:55:08.000Z</time>
      </trkpt>
      <trkpt lat="47.29891" lon="-2.35724">
        <ele>-11.39999961853</ele>
        <time>2022-09-08T09:55:09.000Z</time>
      </trkpt>
      <trkpt lat="47.29896" lon="-2.35739">
        <ele>-11.39999961853</ele>
        <time>2022-09-08T09:55:13.000Z</time>
      </trkpt>
      <trkpt lat="47.29899" lon="-2.35743">
        <ele>-11.39999961853</ele>
        <time>2022-09-08T09:55:17.000Z</time>
      </trkpt>
      <trkpt lat="47.29902" lon="-2.35748">
        <ele>-11.39999961853</ele>
        <time>2022-09-08T09:55:34.000Z</time>
      </trkpt>
      <trkpt lat="47.29905" lon="-2.35753">
        <ele>-11.39999961853</ele>
        <time>2022-09-08T09:55:36.000Z</time>
      </trkpt>
      <trkpt lat="47.29912" lon="-2.35773">
        <ele>-11.39999961853</ele>
        <time>2022-09-08T09:55:42.000Z</time>
      </trkpt>
      <trkpt lat="47.29918" lon="-2.358">
        <ele>-11.39999961853</ele>
        <time>2022-09-08T09:55:49.000Z</time>
      </trkpt>
      <trkpt lat="47.29924" lon="-2.35831">
        <ele>-11.39999961853</ele>
        <time>2022-09-08T09:55:57.000Z</time>
      </trkpt>
      <trkpt lat="47.29927" lon="-2.3584">
        <ele>-11.800000190735</ele>
        <time>2022-09-08T09:56:00.000Z</time>
      </trkpt>
      <trkpt lat="47.29929" lon="-2.3584">
        <ele>-12.199999809265</ele>
        <time>2022-09-08T09:56:01.000Z</time>
      </trkpt>
      <trkpt lat="47.2993" lon="-2.35839">
        <ele>-12.60000038147</ele>
        <time>2022-09-08T09:56:02.000Z</time>
      </trkpt>
      <trkpt lat="47.29932" lon="-2.35838">
        <ele>-13</ele>
        <time>2022-09-08T09:56:03.000Z</time>
      </trkpt>
      <trkpt lat="47.29934" lon="-2.35837">
        <ele>-13.39999961853</ele>
        <time>2022-09-08T09:56:04.000Z</time>
      </trkpt>
      <trkpt lat="47.29941" lon="-2.35835">
        <ele>-13.39999961853</ele>
        <time>2022-09-08T09:56:07.000Z</time>
      </trkpt>
      <trkpt lat="47.29947" lon="-2.35834">
        <ele>-13.39999961853</ele>
        <time>2022-09-08T09:56:10.000Z</time>
      </trkpt>
      <trkpt lat="47.2995" lon="-2.35833">
        <ele>-13.39999961853</ele>
        <time>2022-09-08T09:56:13.000Z</time>
      </trkpt>
      <trkpt lat="47.29972" lon="-2.35836">
        <ele>-11.800000190735</ele>
        <time>2022-09-08T10:53:55.000Z</time>
      </trkpt>
      <trkpt lat="47.29969" lon="-2.35838">
        <ele>-11.800000190735</ele>
        <time>2022-09-08T10:53:57.000Z</time>
      </trkpt>
      <trkpt lat="47.29964" lon="-2.35838">
        <ele>-11.800000190735</ele>
        <time>2022-09-08T10:53:59.000Z</time>
      </trkpt>
      <trkpt lat="47.29955" lon="-2.35838">
        <ele>-11.800000190735</ele>
        <time>2022-09-08T10:54:02.000Z</time>
      </trkpt>
      <trkpt lat="47.29944" lon="-2.35835">
        <ele>-11.800000190735</ele>
        <time>2022-09-08T10:54:06.000Z</time>
      </trkpt>
      <trkpt lat="47.29928" lon="-2.35841">
        <ele>-11.800000190735</ele>
        <time>2022-09-08T10:54:12.000Z</time>
      </trkpt>
      <trkpt lat="47.29926" lon="-2.3584">
        <ele>-11.800000190735</ele>
        <time>2022-09-08T10:54:13.000Z</time>
      </trkpt>
      <trkpt lat="47.29923" lon="-2.35829">
        <ele>-11.800000190735</ele>
        <time>2022-09-08T10:54:16.000Z</time>
      </trkpt>
      <trkpt lat="47.2992" lon="-2.35816">
        <ele>-11.800000190735</ele>
        <time>2022-09-08T10:54:19.000Z</time>
      </trkpt>
      <trkpt lat="47.29916" lon="-2.35798">
        <ele>-11.800000190735</ele>
        <time>2022-09-08T10:54:23.000Z</time>
      </trkpt>
      <trkpt lat="47.29907" lon="-2.35764">
        <ele>-11.800000190735</ele>
        <time>2022-09-08T10:54:30.000Z</time>
      </trkpt>
      <trkpt lat="47.29903" lon="-2.35757">
        <ele>-11.800000190735</ele>
        <time>2022-09-08T10:54:33.000Z</time>
      </trkpt>
      <trkpt lat="47.29898" lon="-2.35758">
        <ele>-11.800000190735</ele>
        <time>2022-09-08T10:54:35.000Z</time>
      </trkpt>
      <trkpt lat="47.29891" lon="-2.35761">
        <ele>-11.800000190735</ele>
        <time>2022-09-08T10:54:37.000Z</time>
      </trkpt>
      <trkpt lat="47.29876" lon="-2.35768">
        <ele>-11.800000190735</ele>
        <time>2022-09-08T10:54:41.000Z</time>
      </trkpt>
      <trkpt lat="47.29864" lon="-2.35773">
        <ele>-11.39999961853</ele>
        <time>2022-09-08T10:54:44.000Z</time>
      </trkpt>
      <trkpt lat="47.29859" lon="-2.35775">
        <ele>-10.800000190735</ele>
        <time>2022-09-08T10:54:45.000Z</time>
      </trkpt>
      <trkpt lat="47.29856" lon="-2.35776">
        <ele>-10.39999961853</ele>
        <time>2022-09-08T10:54:46.000Z</time>
      </trkpt>
      <trkpt lat="47.29852" lon="-2.35778">
        <ele>-10</ele>
        <time>2022-09-08T10:54:47.000Z</time>
      </trkpt>
      <trkpt lat="47.29848" lon="-2.35779">
        <ele>-9.6000003814697</ele>
        <time>2022-09-08T10:54:48.000Z</time>
      </trkpt>
      <trkpt lat="47.29844" lon="-2.35781">
        <ele>-9.6000003814697</ele>
        <time>2022-09-08T10:54:49.000Z</time>
      </trkpt>
      <trkpt lat="47.29812" lon="-2.35791">
        <ele>-9.6000003814697</ele>
        <time>2022-09-08T10:54:58.000Z</time>
      </trkpt>
      <trkpt lat="47.29801" lon="-2.35795">
        <ele>-9.1999998092651</ele>
        <time>2022-09-08T10:55:01.000Z</time>
      </trkpt>
      <trkpt lat="47.29797" lon="-2.35796">
        <ele>-8.8000001907349</ele>
        <time>2022-09-08T10:55:02.000Z</time>
      </trkpt>
      <trkpt lat="47.29793" lon="-2.35798">
        <ele>-8.3999996185303</ele>
        <time>2022-09-08T10:55:03.000Z</time>
      </trkpt>
      <trkpt lat="47.29789" lon="-2.35799">
        <ele>-8</ele>
        <time>2022-09-08T10:55:04.000Z</time>
      </trkpt>
      <trkpt lat="47.29785" lon="-2.358">
        <ele>-7.5999999046326</ele>
        <time>2022-09-08T10:55:05.000Z</time>
      </trkpt>
      <trkpt lat="47.29751" lon="-2.35812">
        <ele>-7.5999999046326</ele>
        <time>2022-09-08T10:55:13.000Z</time>
      </trkpt>
      <trkpt lat="47.29721" lon="-2.35829">
        <ele>-7.5999999046326</ele>
        <time>2022-09-08T10:55:19.000Z</time>
      </trkpt>
      <trkpt lat="47.29706" lon="-2.35838">
        <ele>-8</ele>
        <time>2022-09-08T10:55:22.000Z</time>
      </trkpt>
      <trkpt lat="47.29701" lon="-2.35841">
        <ele>-8.6000003814697</ele>
        <time>2022-09-08T10:55:23.000Z</time>
      </trkpt>
      <trkpt lat="47.29696" lon="-2.35843">
        <ele>-9</ele>
        <time>2022-09-08T10:55:24.000Z</time>
      </trkpt>
      <trkpt lat="47.29691" lon="-2.35845">
        <ele>-9.3999996185303</ele>
        <time>2022-09-08T10:55:25.000Z</time>
      </trkpt>
      <trkpt lat="47.29686" lon="-2.35847">
        <ele>-10</ele>
        <time>2022-09-08T10:55:26.000Z</time>
      </trkpt>
      <trkpt lat="47.29672" lon="-2.35853">
        <ele>-10</ele>
        <time>2022-09-08T10:55:29.000Z</time>
      </trkpt>
      <trkpt lat="47.29665" lon="-2.35861">
        <ele>-10</ele>
        <time>2022-09-08T10:55:31.000Z</time>
      </trkpt>
      <trkpt lat="47.29657" lon="-2.35867">
        <ele>-10</ele>
        <time>2022-09-08T10:55:33.000Z</time>
      </trkpt>
      <trkpt lat="47.29648" lon="-2.35871">
        <ele>-10</ele>
        <time>2022-09-08T10:55:35.000Z</time>
      </trkpt>
      <trkpt lat="47.29643" lon="-2.35873">
        <ele>-10</ele>
        <time>2022-09-08T10:55:36.000Z</time>
      </trkpt>
      <trkpt lat="47.29611" lon="-2.35891">
        <ele>-10</ele>
        <time>2022-09-08T10:55:44.000Z</time>
      </trkpt>
      <trkpt lat="47.29598" lon="-2.35899">
        <ele>-10</ele>
        <time>2022-09-08T10:55:47.000Z</time>
      </trkpt>
      <trkpt lat="47.29585" lon="-2.35908">
        <ele>-10</ele>
        <time>2022-09-08T10:55:50.000Z</time>
      </trkpt>
      <trkpt lat="47.29545" lon="-2.3593">
        <ele>-10</ele>
        <time>2022-09-08T10:55:59.000Z</time>
      </trkpt>
      <trkpt lat="47.29536" lon="-2.35934">
        <ele>-10</ele>
        <time>2022-09-08T10:56:01.000Z</time>
      </trkpt>
      <trkpt lat="47.29518" lon="-2.3594">
        <ele>-10</ele>
        <time>2022-09-08T10:56:05.000Z</time>
      </trkpt>
      <trkpt lat="47.29514" lon="-2.3594">
        <ele>-10</ele>
        <time>2022-09-08T10:56:06.000Z</time>
      </trkpt>
      <trkpt lat="47.29504" lon="-2.3593">
        <ele>-10</ele>
        <time>2022-09-08T10:56:09.000Z</time>
      </trkpt>
      <trkpt lat="47.29503" lon="-2.35925">
        <ele>-10</ele>
        <time>2022-09-08T10:56:10.000Z</time>
      </trkpt>
      <trkpt lat="47.29495" lon="-2.35904">
        <ele>-10</ele>
        <time>2022-09-08T10:56:14.000Z</time>
      </trkpt>
      <trkpt lat="47.29484" lon="-2.35899">
        <ele>-10</ele>
        <time>2022-09-08T10:56:17.000Z</time>
      </trkpt>
      <trkpt lat="47.29476" lon="-2.35899">
        <ele>-10</ele>
        <time>2022-09-08T10:56:19.000Z</time>
      </trkpt>
      <trkpt lat="47.29472" lon="-2.35899">
        <ele>-10</ele>
        <time>2022-09-08T10:56:20.000Z</time>
      </trkpt>
      <trkpt lat="47.29463" lon="-2.35899">
        <ele>-10</ele>
        <time>2022-09-08T10:56:22.000Z</time>
      </trkpt>
      <trkpt lat="47.29448" lon="-2.35911">
        <ele>-10</ele>
        <time>2022-09-08T10:56:26.000Z</time>
      </trkpt>
      <trkpt lat="47.29444" lon="-2.35915">
        <ele>-10</ele>
        <time>2022-09-08T10:56:27.000Z</time>
      </trkpt>
      <trkpt lat="47.29436" lon="-2.35912">
        <ele>-10</ele>
        <time>2022-09-08T10:56:29.000Z</time>
      </trkpt>
      <trkpt lat="47.29433" lon="-2.35907">
        <ele>-10</ele>
        <time>2022-09-08T10:56:30.000Z</time>
      </trkpt>
      <trkpt lat="47.29428" lon="-2.35895">
        <ele>-10</ele>
        <time>2022-09-08T10:56:32.000Z</time>
      </trkpt>
      <trkpt lat="47.2942" lon="-2.35886">
        <ele>-10</ele>
        <time>2022-09-08T10:56:34.000Z</time>
      </trkpt>
      <trkpt lat="47.29409" lon="-2.35872">
        <ele>-10</ele>
        <time>2022-09-08T10:56:37.000Z</time>
      </trkpt>
      <trkpt lat="47.29382" lon="-2.35843">
        <ele>-10</ele>
        <time>2022-09-08T10:56:44.000Z</time>
      </trkpt>
      <trkpt lat="47.29352" lon="-2.35816">
        <ele>-10</ele>
        <time>2022-09-08T10:56:51.000Z</time>
      </trkpt>
      <trkpt lat="47.29325" lon="-2.35793">
        <ele>-10</ele>
        <time>2022-09-08T10:56:57.000Z</time>
      </trkpt>
      <trkpt lat="47.29296" lon="-2.35766">
        <ele>-10</ele>
        <time>2022-09-08T10:57:04.000Z</time>
      </trkpt>
      <trkpt lat="47.29291" lon="-2.35762">
        <ele>-10</ele>
        <time>2022-09-08T10:57:05.000Z</time>
      </trkpt>
      <trkpt lat="47.29266" lon="-2.3574">
        <ele>-10</ele>
        <time>2022-09-08T10:57:11.000Z</time>
      </trkpt>
      <trkpt lat="47.29255" lon="-2.35733">
        <ele>-10</ele>
        <time>2022-09-08T10:57:14.000Z</time>
      </trkpt>
      <trkpt lat="47.29252" lon="-2.35737">
        <ele>-10</ele>
        <time>2022-09-08T10:57:15.000Z</time>
      </trkpt>
      <trkpt lat="47.29243" lon="-2.35753">
        <ele>-10</ele>
        <time>2022-09-08T10:57:18.000Z</time>
      </trkpt>
      <trkpt lat="47.29221" lon="-2.3578">
        <ele>-10</ele>
        <time>2022-09-08T10:57:24.000Z</time>
      </trkpt>
      <trkpt lat="47.29183" lon="-2.35812">
        <ele>-10</ele>
        <time>2022-09-08T10:57:33.000Z</time>
      </trkpt>
      <trkpt lat="47.29148" lon="-2.35837">
        <ele>-10</ele>
        <time>2022-09-08T10:57:41.000Z</time>
      </trkpt>
      <trkpt lat="47.29136" lon="-2.35849">
        <ele>-10</ele>
        <time>2022-09-08T10:57:44.000Z</time>
      </trkpt>
      <trkpt lat="47.29118" lon="-2.35867">
        <ele>-10</ele>
        <time>2022-09-08T10:57:48.000Z</time>
      </trkpt>
      <trkpt lat="47.29087" lon="-2.35906">
        <ele>-10</ele>
        <time>2022-09-08T10:57:56.000Z</time>
      </trkpt>
      <trkpt lat="47.29059" lon="-2.35939">
        <ele>-10</ele>
        <time>2022-09-08T10:58:03.000Z</time>
      </trkpt>
      <trkpt lat="47.29022" lon="-2.35981">
        <ele>-10</ele>
        <time>2022-09-08T10:58:12.000Z</time>
      </trkpt>
      <trkpt lat="47.28992" lon="-2.36011">
        <ele>-10</ele>
        <time>2022-09-08T10:58:19.000Z</time>
      </trkpt>
      <trkpt lat="47.28956" lon="-2.36044">
        <ele>-10</ele>
        <time>2022-09-08T10:58:27.000Z</time>
      </trkpt>
      <trkpt lat="47.28922" lon="-2.36066">
        <ele>-10</ele>
        <time>2022-09-08T10:58:34.000Z</time>
      </trkpt>
      <trkpt lat="47.28899" lon="-2.36087">
        <ele>-10</ele>
        <time>2022-09-08T10:58:39.000Z</time>
      </trkpt>
      <trkpt lat="47.2889" lon="-2.36096">
        <ele>-10</ele>
        <time>2022-09-08T10:58:41.000Z</time>
      </trkpt>
      <trkpt lat="47.28854" lon="-2.36132">
        <ele>-10</ele>
        <time>2022-09-08T10:58:49.000Z</time>
      </trkpt>
      <trkpt lat="47.2883" lon="-2.36164">
        <ele>-10</ele>
        <time>2022-09-08T10:58:55.000Z</time>
      </trkpt>
      <trkpt lat="47.28821" lon="-2.36174">
        <ele>-10</ele>
        <time>2022-09-08T10:58:57.000Z</time>
      </trkpt>
      <trkpt lat="47.28807" lon="-2.36185">
        <ele>-10</ele>
        <time>2022-09-08T10:59:00.000Z</time>
      </trkpt>
      <trkpt lat="47.28792" lon="-2.36195">
        <ele>-10</ele>
        <time>2022-09-08T10:59:03.000Z</time>
      </trkpt>
      <trkpt lat="47.28774" lon="-2.36208">
        <ele>-10</ele>
        <time>2022-09-08T10:59:07.000Z</time>
      </trkpt>
      <trkpt lat="47.2876" lon="-2.36215">
        <ele>-10</ele>
        <time>2022-09-08T10:59:10.000Z</time>
      </trkpt>
      <trkpt lat="47.28752" lon="-2.36207">
        <ele>-10</ele>
        <time>2022-09-08T10:59:12.000Z</time>
      </trkpt>
      <trkpt lat="47.28747" lon="-2.36188">
        <ele>-10</ele>
        <time>2022-09-08T10:59:15.000Z</time>
      </trkpt>
      <trkpt lat="47.28737" lon="-2.36147">
        <ele>-10</ele>
        <time>2022-09-08T10:59:21.000Z</time>
      </trkpt>
      <trkpt lat="47.28731" lon="-2.36117">
        <ele>-10</ele>
        <time>2022-09-08T10:59:25.000Z</time>
      </trkpt>
      <trkpt lat="47.28725" lon="-2.36101">
        <ele>-10</ele>
        <time>2022-09-08T10:59:27.000Z</time>
      </trkpt>
      <trkpt lat="47.28712" lon="-2.36066">
        <ele>-10</ele>
        <time>2022-09-08T10:59:32.000Z</time>
      </trkpt>
      <trkpt lat="47.28701" lon="-2.36036">
        <ele>-10</ele>
        <time>2022-09-08T10:59:36.000Z</time>
      </trkpt>
      <trkpt lat="47.28682" lon="-2.35989">
        <ele>-10.39999961853</ele>
        <time>2022-09-08T10:59:42.000Z</time>
      </trkpt>
      <trkpt lat="47.28679" lon="-2.35981">
        <ele>-10.800000190735</ele>
        <time>2022-09-08T10:59:43.000Z</time>
      </trkpt>
      <trkpt lat="47.28677" lon="-2.35974">
        <ele>-11.199999809265</ele>
        <time>2022-09-08T10:59:44.000Z</time>
      </trkpt>
      <trkpt lat="47.28674" lon="-2.35966">
        <ele>-11.60000038147</ele>
        <time>2022-09-08T10:59:45.000Z</time>
      </trkpt>
      <trkpt lat="47.2867" lon="-2.35961">
        <ele>-12.199999809265</ele>
        <time>2022-09-08T10:59:46.000Z</time>
      </trkpt>
      <trkpt lat="47.28659" lon="-2.35958">
        <ele>-12.199999809265</ele>
        <time>2022-09-08T10:59:48.000Z</time>
      </trkpt>
      <trkpt lat="47.28648" lon="-2.3596">
        <ele>-12.199999809265</ele>
        <time>2022-09-08T10:59:50.000Z</time>
      </trkpt>
      <trkpt lat="47.28637" lon="-2.3596">
        <ele>-12.199999809265</ele>
        <time>2022-09-08T10:59:52.000Z</time>
      </trkpt>
      <trkpt lat="47.28625" lon="-2.35958">
        <ele>-12.199999809265</ele>
        <time>2022-09-08T10:59:54.000Z</time>
      </trkpt>
      <trkpt lat="47.28609" lon="-2.35948">
        <ele>-12.199999809265</ele>
        <time>2022-09-08T10:59:57.000Z</time>
      </trkpt>
      <trkpt lat="47.286" lon="-2.35938">
        <ele>-12.199999809265</ele>
        <time>2022-09-08T10:59:59.000Z</time>
      </trkpt>
      <trkpt lat="47.28592" lon="-2.35926">
        <ele>-12.199999809265</ele>
        <time>2022-09-08T11:00:01.000Z</time>
      </trkpt>
      <trkpt lat="47.28589" lon="-2.35919">
        <ele>-12.199999809265</ele>
        <time>2022-09-08T11:00:02.000Z</time>
      </trkpt>
      <trkpt lat="47.28573" lon="-2.35882">
        <ele>-12.199999809265</ele>
        <time>2022-09-08T11:00:07.000Z</time>
      </trkpt>
      <trkpt lat="47.28556" lon="-2.35848">
        <ele>-12.199999809265</ele>
        <time>2022-09-08T11:00:12.000Z</time>
      </trkpt>
      <trkpt lat="47.28556" lon="-2.35843">
        <ele>-12.199999809265</ele>
        <time>2022-09-08T11:00:13.000Z</time>
      </trkpt>
      <trkpt lat="47.28561" lon="-2.35827">
        <ele>-12.199999809265</ele>
        <time>2022-09-08T11:00:16.000Z</time>
      </trkpt>
      <trkpt lat="47.28563" lon="-2.35821">
        <ele>-12.60000038147</ele>
        <time>2022-09-08T11:00:17.000Z</time>
      </trkpt>
      <trkpt lat="47.28567" lon="-2.35813">
        <ele>-13</ele>
        <time>2022-09-08T11:00:18.000Z</time>
      </trkpt>
      <trkpt lat="47.28571" lon="-2.35804">
        <ele>-13.39999961853</ele>
        <time>2022-09-08T11:00:19.000Z</time>
      </trkpt>
      <trkpt lat="47.28575" lon="-2.35797">
        <ele>-14</ele>
        <time>2022-09-08T11:00:20.000Z</time>
      </trkpt>
      <trkpt lat="47.28579" lon="-2.35789">
        <ele>-14.39999961853</ele>
        <time>2022-09-08T11:00:21.000Z</time>
      </trkpt>
      <trkpt lat="47.28596" lon="-2.35749">
        <ele>-14.39999961853</ele>
        <time>2022-09-08T11:00:26.000Z</time>
      </trkpt>
      <trkpt lat="47.286" lon="-2.35719">
        <ele>-14.800000190735</ele>
        <time>2022-09-08T11:00:29.000Z</time>
      </trkpt>
      <trkpt lat="47.28599" lon="-2.3571">
        <ele>-15.199999809265</ele>
        <time>2022-09-08T11:00:30.000Z</time>
      </trkpt>
      <trkpt lat="47.28599" lon="-2.35699">
        <ele>-15.60000038147</ele>
        <time>2022-09-08T11:00:31.000Z</time>
      </trkpt>
      <trkpt lat="47.28598" lon="-2.35689">
        <ele>-16</ele>
        <time>2022-09-08T11:00:32.000Z</time>
      </trkpt>
      <trkpt lat="47.28597" lon="-2.35679">
        <ele>-16.60000038147</ele>
        <time>2022-09-08T11:00:33.000Z</time>
      </trkpt>
      <trkpt lat="47.28595" lon="-2.3566">
        <ele>-16.60000038147</ele>
        <time>2022-09-08T11:00:35.000Z</time>
      </trkpt>
      <trkpt lat="47.28589" lon="-2.35593">
        <ele>-16.60000038147</ele>
        <time>2022-09-08T11:00:42.000Z</time>
      </trkpt>
      <trkpt lat="47.28581" lon="-2.3552">
        <ele>-16.60000038147</ele>
        <time>2022-09-08T11:00:50.000Z</time>
      </trkpt>
      <trkpt lat="47.28576" lon="-2.35482">
        <ele>-16.60000038147</ele>
        <time>2022-09-08T11:00:55.000Z</time>
      </trkpt>
      <trkpt lat="47.28571" lon="-2.3545">
        <ele>-16.60000038147</ele>
        <time>2022-09-08T11:00:59.000Z</time>
      </trkpt>
      <trkpt lat="47.28571" lon="-2.35442">
        <ele>-17</ele>
        <time>2022-09-08T11:01:00.000Z</time>
      </trkpt>
      <trkpt lat="47.28569" lon="-2.35434">
        <ele>-17.39999961853</ele>
        <time>2022-09-08T11:01:01.000Z</time>
      </trkpt>
      <trkpt lat="47.28569" lon="-2.35426">
        <ele>-17.799999237061</ele>
        <time>2022-09-08T11:01:02.000Z</time>
      </trkpt>
      <trkpt lat="47.28568" lon="-2.35418">
        <ele>-18.200000762939</ele>
        <time>2022-09-08T11:01:03.000Z</time>
      </trkpt>
      <trkpt lat="47.28566" lon="-2.35409">
        <ele>-18.799999237061</ele>
        <time>2022-09-08T11:01:04.000Z</time>
      </trkpt>
      <trkpt lat="47.28559" lon="-2.35374">
        <ele>-18.799999237061</ele>
        <time>2022-09-08T11:01:08.000Z</time>
      </trkpt>
      <trkpt lat="47.28539" lon="-2.35323">
        <ele>-18.799999237061</ele>
        <time>2022-09-08T11:01:14.000Z</time>
      </trkpt>
      <trkpt lat="47.28533" lon="-2.35307">
        <ele>-19.200000762939</ele>
        <time>2022-09-08T11:01:16.000Z</time>
      </trkpt>
      <trkpt lat="47.2853" lon="-2.353">
        <ele>-19.60000038147</ele>
        <time>2022-09-08T11:01:17.000Z</time>
      </trkpt>
      <trkpt lat="47.28528" lon="-2.35293">
        <ele>-20</ele>
        <time>2022-09-08T11:01:18.000Z</time>
      </trkpt>
      <trkpt lat="47.28525" lon="-2.35285">
        <ele>-20.39999961853</ele>
        <time>2022-09-08T11:01:19.000Z</time>
      </trkpt>
      <trkpt lat="47.28523" lon="-2.35277">
        <ele>-20.799999237061</ele>
        <time>2022-09-08T11:01:20.000Z</time>
      </trkpt>
      <trkpt lat="47.28507" lon="-2.35219">
        <ele>-20.799999237061</ele>
        <time>2022-09-08T11:01:27.000Z</time>
      </trkpt>
      <trkpt lat="47.28487" lon="-2.35147">
        <ele>-20.799999237061</ele>
        <time>2022-09-08T11:01:35.000Z</time>
      </trkpt>
      <trkpt lat="47.28467" lon="-2.35084">
        <ele>-20.799999237061</ele>
        <time>2022-09-08T11:01:43.000Z</time>
      </trkpt>
      <trkpt lat="47.28458" lon="-2.35064">
        <ele>-20.799999237061</ele>
        <time>2022-09-08T11:01:46.000Z</time>
      </trkpt>
      <trkpt lat="47.2845" lon="-2.35056">
        <ele>-20.799999237061</ele>
        <time>2022-09-08T11:01:48.000Z</time>
      </trkpt>
      <trkpt lat="47.28429" lon="-2.35051">
        <ele>-20.799999237061</ele>
        <time>2022-09-08T11:01:52.000Z</time>
      </trkpt>
      <trkpt lat="47.28423" lon="-2.35052">
        <ele>-20.799999237061</ele>
        <time>2022-09-08T11:01:53.000Z</time>
      </trkpt>
      <trkpt lat="47.28403" lon="-2.35059">
        <ele>-20.799999237061</ele>
        <time>2022-09-08T11:01:57.000Z</time>
      </trkpt>
      <trkpt lat="47.28353" lon="-2.35073">
        <ele>-20.799999237061</ele>
        <time>2022-09-08T11:02:07.000Z</time>
      </trkpt>
      <trkpt lat="47.28322" lon="-2.35081">
        <ele>-20.799999237061</ele>
        <time>2022-09-08T11:02:13.000Z</time>
      </trkpt>
      <trkpt lat="47.2829" lon="-2.35075">
        <ele>-20.799999237061</ele>
        <time>2022-09-08T11:02:19.000Z</time>
      </trkpt>
      <trkpt lat="47.28285" lon="-2.35072">
        <ele>-20.799999237061</ele>
        <time>2022-09-08T11:02:20.000Z</time>
      </trkpt>
      <trkpt lat="47.28281" lon="-2.35068">
        <ele>-20.39999961853</ele>
        <time>2022-09-08T11:02:21.000Z</time>
      </trkpt>
      <trkpt lat="47.28277" lon="-2.35064">
        <ele>-20</ele>
        <time>2022-09-08T11:02:22.000Z</time>
      </trkpt>
      <trkpt lat="47.28273" lon="-2.3506">
        <ele>-19.60000038147</ele>
        <time>2022-09-08T11:02:23.000Z</time>
      </trkpt>
      <trkpt lat="47.28269" lon="-2.35056">
        <ele>-19.200000762939</ele>
        <time>2022-09-08T11:02:24.000Z</time>
      </trkpt>
      <trkpt lat="47.28265" lon="-2.35051">
        <ele>-18.799999237061</ele>
        <time>2022-09-08T11:02:25.000Z</time>
      </trkpt>
      <trkpt lat="47.2824" lon="-2.35017">
        <ele>-18.799999237061</ele>
        <time>2022-09-08T11:02:32.000Z</time>
      </trkpt>
      <trkpt lat="47.28218" lon="-2.34973">
        <ele>-18.799999237061</ele>
        <time>2022-09-08T11:02:39.000Z</time>
      </trkpt>
      <trkpt lat="47.28199" lon="-2.34916">
        <ele>-18.799999237061</ele>
        <time>2022-09-08T11:02:47.000Z</time>
      </trkpt>
      <trkpt lat="47.28184" lon="-2.34857">
        <ele>-18.799999237061</ele>
        <time>2022-09-08T11:02:55.000Z</time>
      </trkpt>
      <trkpt lat="47.28177" lon="-2.34812">
        <ele>-18.799999237061</ele>
        <time>2022-09-08T11:03:01.000Z</time>
      </trkpt>
      <trkpt lat="47.28178" lon="-2.34804">
        <ele>-19.200000762939</ele>
        <time>2022-09-08T11:03:02.000Z</time>
      </trkpt>
      <trkpt lat="47.28179" lon="-2.34797">
        <ele>-19.60000038147</ele>
        <time>2022-09-08T11:03:03.000Z</time>
      </trkpt>
      <trkpt lat="47.28179" lon="-2.34789">
        <ele>-20</ele>
        <time>2022-09-08T11:03:04.000Z</time>
      </trkpt>
      <trkpt lat="47.28176" lon="-2.34783">
        <ele>-20.39999961853</ele>
        <time>2022-09-08T11:03:05.000Z</time>
      </trkpt>
      <trkpt lat="47.28173" lon="-2.34779">
        <ele>-20.799999237061</ele>
        <time>2022-09-08T11:03:06.000Z</time>
      </trkpt>
      <trkpt lat="47.28164" lon="-2.34778">
        <ele>-20.799999237061</ele>
        <time>2022-09-08T11:03:08.000Z</time>
      </trkpt>
      <trkpt lat="47.2815" lon="-2.3479">
        <ele>-20.799999237061</ele>
        <time>2022-09-08T11:03:11.000Z</time>
      </trkpt>
      <trkpt lat="47.28116" lon="-2.34817">
        <ele>-20.799999237061</ele>
        <time>2022-09-08T11:03:18.000Z</time>
      </trkpt>
      <trkpt lat="47.28086" lon="-2.34841">
        <ele>-20.799999237061</ele>
        <time>2022-09-08T11:03:25.000Z</time>
      </trkpt>
      <trkpt lat="47.28054" lon="-2.34862">
        <ele>-20.799999237061</ele>
        <time>2022-09-08T11:03:33.000Z</time>
      </trkpt>
      <trkpt lat="47.28045" lon="-2.34856">
        <ele>-20.799999237061</ele>
        <time>2022-09-08T11:03:36.000Z</time>
      </trkpt>
      <trkpt lat="47.28035" lon="-2.34836">
        <ele>-20.799999237061</ele>
        <time>2022-09-08T11:03:41.000Z</time>
      </trkpt>
      <trkpt lat="47.28032" lon="-2.34831">
        <ele>-20.799999237061</ele>
        <time>2022-09-08T11:03:42.000Z</time>
      </trkpt>
      <trkpt lat="47.28022" lon="-2.34807">
        <ele>-20.799999237061</ele>
        <time>2022-09-08T11:03:46.000Z</time>
      </trkpt>
      <trkpt lat="47.2801" lon="-2.34775">
        <ele>-20.799999237061</ele>
        <time>2022-09-08T11:03:51.000Z</time>
      </trkpt>
      <trkpt lat="47.28004" lon="-2.34754">
        <ele>-20.799999237061</ele>
        <time>2022-09-08T11:03:54.000Z</time>
      </trkpt>
      <trkpt lat="47.28002" lon="-2.34732">
        <ele>-20.799999237061</ele>
        <time>2022-09-08T11:03:57.000Z</time>
      </trkpt>
      <trkpt lat="47.28002" lon="-2.34717">
        <ele>-20.799999237061</ele>
        <time>2022-09-08T11:03:59.000Z</time>
      </trkpt>
      <trkpt lat="47.27997" lon="-2.34648">
        <ele>-20.799999237061</ele>
        <time>2022-09-08T11:04:08.000Z</time>
      </trkpt>
      <trkpt lat="47.27985" lon="-2.34597">
        <ele>-20.799999237061</ele>
        <time>2022-09-08T11:04:15.000Z</time>
      </trkpt>
      <trkpt lat="47.27974" lon="-2.34569">
        <ele>-20.799999237061</ele>
        <time>2022-09-08T11:04:19.000Z</time>
      </trkpt>
      <trkpt lat="47.27972" lon="-2.34555">
        <ele>-20.799999237061</ele>
        <time>2022-09-08T11:04:21.000Z</time>
      </trkpt>
      <trkpt lat="47.27977" lon="-2.34525">
        <ele>-20.799999237061</ele>
        <time>2022-09-08T11:04:25.000Z</time>
      </trkpt>
      <trkpt lat="47.27986" lon="-2.34505">
        <ele>-20.799999237061</ele>
        <time>2022-09-08T11:04:28.000Z</time>
      </trkpt>
      <trkpt lat="47.27992" lon="-2.34492">
        <ele>-20.799999237061</ele>
        <time>2022-09-08T11:04:30.000Z</time>
      </trkpt>
      <trkpt lat="47.28001" lon="-2.34463">
        <ele>-20.799999237061</ele>
        <time>2022-09-08T11:04:34.000Z</time>
      </trkpt>
      <trkpt lat="47.28" lon="-2.34447">
        <ele>-20.799999237061</ele>
        <time>2022-09-08T11:04:36.000Z</time>
      </trkpt>
      <trkpt lat="47.27992" lon="-2.34428">
        <ele>-20.799999237061</ele>
        <time>2022-09-08T11:04:39.000Z</time>
      </trkpt>
      <trkpt lat="47.27988" lon="-2.34423">
        <ele>-20.39999961853</ele>
        <time>2022-09-08T11:04:40.000Z</time>
      </trkpt>
      <trkpt lat="47.27985" lon="-2.34418">
        <ele>-20</ele>
        <time>2022-09-08T11:04:41.000Z</time>
      </trkpt>
      <trkpt lat="47.27981" lon="-2.34413">
        <ele>-19.60000038147</ele>
        <time>2022-09-08T11:04:42.000Z</time>
      </trkpt>
      <trkpt lat="47.27978" lon="-2.34408">
        <ele>-19.200000762939</ele>
        <time>2022-09-08T11:04:43.000Z</time>
      </trkpt>
      <trkpt lat="47.27974" lon="-2.34402">
        <ele>-18.799999237061</ele>
        <time>2022-09-08T11:04:44.000Z</time>
      </trkpt>
      <trkpt lat="47.2794" lon="-2.34353">
        <ele>-18.799999237061</ele>
        <time>2022-09-08T11:04:53.000Z</time>
      </trkpt>
      <trkpt lat="47.27913" lon="-2.34303">
        <ele>-18.799999237061</ele>
        <time>2022-09-08T11:05:01.000Z</time>
      </trkpt>
      <trkpt lat="47.27885" lon="-2.34254">
        <ele>-18.799999237061</ele>
        <time>2022-09-08T11:05:09.000Z</time>
      </trkpt>
      <trkpt lat="47.27864" lon="-2.34209">
        <ele>-18.799999237061</ele>
        <time>2022-09-08T11:05:16.000Z</time>
      </trkpt>
      <trkpt lat="47.27858" lon="-2.34196">
        <ele>-18.39999961853</ele>
        <time>2022-09-08T11:05:18.000Z</time>
      </trkpt>
      <trkpt lat="47.27855" lon="-2.34189">
        <ele>-18</ele>
        <time>2022-09-08T11:05:19.000Z</time>
      </trkpt>
      <trkpt lat="47.27852" lon="-2.34182">
        <ele>-17.60000038147</ele>
        <time>2022-09-08T11:05:20.000Z</time>
      </trkpt>
      <trkpt lat="47.27848" lon="-2.34176">
        <ele>-17.200000762939</ele>
        <time>2022-09-08T11:05:21.000Z</time>
      </trkpt>
      <trkpt lat="47.27845" lon="-2.34169">
        <ele>-16.799999237061</ele>
        <time>2022-09-08T11:05:22.000Z</time>
      </trkpt>
      <trkpt lat="47.27838" lon="-2.34157">
        <ele>-16.799999237061</ele>
        <time>2022-09-08T11:05:24.000Z</time>
      </trkpt>
      <trkpt lat="47.27814" lon="-2.34125">
        <ele>-16.799999237061</ele>
        <time>2022-09-08T11:05:30.000Z</time>
      </trkpt>
      <trkpt lat="47.27798" lon="-2.34107">
        <ele>-16.799999237061</ele>
        <time>2022-09-08T11:05:34.000Z</time>
      </trkpt>
      <trkpt lat="47.27789" lon="-2.34096">
        <ele>-16.799999237061</ele>
        <time>2022-09-08T11:05:36.000Z</time>
      </trkpt>
      <trkpt lat="47.27767" lon="-2.34065">
        <ele>-16.799999237061</ele>
        <time>2022-09-08T11:05:42.000Z</time>
      </trkpt>
      <trkpt lat="47.27759" lon="-2.3405">
        <ele>-16.799999237061</ele>
        <time>2022-09-08T11:05:45.000Z</time>
      </trkpt>
      <trkpt lat="47.27765" lon="-2.34042">
        <ele>-16.799999237061</ele>
        <time>2022-09-08T11:05:47.000Z</time>
      </trkpt>
      <trkpt lat="47.27774" lon="-2.34027">
        <ele>-16.799999237061</ele>
        <time>2022-09-08T11:05:50.000Z</time>
      </trkpt>
      <trkpt lat="47.27779" lon="-2.34014">
        <ele>-16.799999237061</ele>
        <time>2022-09-08T11:05:52.000Z</time>
      </trkpt>
      <trkpt lat="47.2778" lon="-2.34008">
        <ele>-16.799999237061</ele>
        <time>2022-09-08T11:05:53.000Z</time>
      </trkpt>
      <trkpt lat="47.2778" lon="-2.33984">
        <ele>-16.799999237061</ele>
        <time>2022-09-08T11:05:56.000Z</time>
      </trkpt>
      <trkpt lat="47.27775" lon="-2.33959">
        <ele>-16.799999237061</ele>
        <time>2022-09-08T11:05:59.000Z</time>
      </trkpt>
      <trkpt lat="47.27772" lon="-2.33952">
        <ele>-16.799999237061</ele>
        <time>2022-09-08T11:06:00.000Z</time>
      </trkpt>
      <trkpt lat="47.27749" lon="-2.33874">
        <ele>-16.799999237061</ele>
        <time>2022-09-08T11:06:10.000Z</time>
      </trkpt>
      <trkpt lat="47.27741" lon="-2.33851">
        <ele>-16.799999237061</ele>
        <time>2022-09-08T11:06:13.000Z</time>
      </trkpt>
      <trkpt lat="47.27733" lon="-2.33829">
        <ele>-17.200000762939</ele>
        <time>2022-09-08T11:06:16.000Z</time>
      </trkpt>
      <trkpt lat="47.2773" lon="-2.33821">
        <ele>-17.60000038147</ele>
        <time>2022-09-08T11:06:17.000Z</time>
      </trkpt>
      <trkpt lat="47.27728" lon="-2.33813">
        <ele>-18</ele>
        <time>2022-09-08T11:06:18.000Z</time>
      </trkpt>
      <trkpt lat="47.27725" lon="-2.33806">
        <ele>-18.39999961853</ele>
        <time>2022-09-08T11:06:19.000Z</time>
      </trkpt>
      <trkpt lat="47.27723" lon="-2.33798">
        <ele>-18.799999237061</ele>
        <time>2022-09-08T11:06:20.000Z</time>
      </trkpt>
      <trkpt lat="47.27711" lon="-2.33762">
        <ele>-18.799999237061</ele>
        <time>2022-09-08T11:06:25.000Z</time>
      </trkpt>
      <trkpt lat="47.27704" lon="-2.33743">
        <ele>-18.799999237061</ele>
        <time>2022-09-08T11:06:28.000Z</time>
      </trkpt>
      <trkpt lat="47.27701" lon="-2.33729">
        <ele>-18.799999237061</ele>
        <time>2022-09-08T11:06:30.000Z</time>
      </trkpt>
      <trkpt lat="47.27683" lon="-2.33682">
        <ele>-18.799999237061</ele>
        <time>2022-09-08T11:06:36.000Z</time>
      </trkpt>
      <trkpt lat="47.27661" lon="-2.33627">
        <ele>-18.799999237061</ele>
        <time>2022-09-08T11:06:43.000Z</time>
      </trkpt>
      <trkpt lat="47.27635" lon="-2.33572">
        <ele>-18.799999237061</ele>
        <time>2022-09-08T11:06:51.000Z</time>
      </trkpt>
      <trkpt lat="47.2761" lon="-2.33539">
        <ele>-18.799999237061</ele>
        <time>2022-09-08T11:06:57.000Z</time>
      </trkpt>
      <trkpt lat="47.27605" lon="-2.33534">
        <ele>-18.799999237061</ele>
        <time>2022-09-08T11:06:58.000Z</time>
      </trkpt>
      <trkpt lat="47.27596" lon="-2.33526">
        <ele>-18.799999237061</ele>
        <time>2022-09-08T11:07:00.000Z</time>
      </trkpt>
      <trkpt lat="47.2758" lon="-2.33518">
        <ele>-18.799999237061</ele>
        <time>2022-09-08T11:07:03.000Z</time>
      </trkpt>
      <trkpt lat="47.27543" lon="-2.33503">
        <ele>-18.799999237061</ele>
        <time>2022-09-08T11:07:10.000Z</time>
      </trkpt>
      <trkpt lat="47.27537" lon="-2.33501">
        <ele>-18.799999237061</ele>
        <time>2022-09-08T11:07:11.000Z</time>
      </trkpt>
      <trkpt lat="47.27493" lon="-2.33484">
        <ele>-18.799999237061</ele>
        <time>2022-09-08T11:07:19.000Z</time>
      </trkpt>
      <trkpt lat="47.27458" lon="-2.33467">
        <ele>-18.799999237061</ele>
        <time>2022-09-08T11:07:26.000Z</time>
      </trkpt>
      <trkpt lat="47.27442" lon="-2.33447">
        <ele>-18.799999237061</ele>
        <time>2022-09-08T11:07:30.000Z</time>
      </trkpt>
      <trkpt lat="47.27425" lon="-2.3342">
        <ele>-18.799999237061</ele>
        <time>2022-09-08T11:07:34.000Z</time>
      </trkpt>
      <trkpt lat="47.27421" lon="-2.33413">
        <ele>-18.799999237061</ele>
        <time>2022-09-08T11:07:35.000Z</time>
      </trkpt>
      <trkpt lat="47.27413" lon="-2.33388">
        <ele>-18.799999237061</ele>
        <time>2022-09-08T11:07:38.000Z</time>
      </trkpt>
      <trkpt lat="47.2741" lon="-2.33371">
        <ele>-18.799999237061</ele>
        <time>2022-09-08T11:07:40.000Z</time>
      </trkpt>
      <trkpt lat="47.27407" lon="-2.33364">
        <ele>-18.799999237061</ele>
        <time>2022-09-08T11:07:41.000Z</time>
      </trkpt>
      <trkpt lat="47.27398" lon="-2.33354">
        <ele>-18.799999237061</ele>
        <time>2022-09-08T11:07:43.000Z</time>
      </trkpt>
      <trkpt lat="47.27387" lon="-2.33347">
        <ele>-18.799999237061</ele>
        <time>2022-09-08T11:07:46.000Z</time>
      </trkpt>
      <trkpt lat="47.27379" lon="-2.33334">
        <ele>-18.799999237061</ele>
        <time>2022-09-08T11:07:49.000Z</time>
      </trkpt>
      <trkpt lat="47.27376" lon="-2.3333">
        <ele>-18.799999237061</ele>
        <time>2022-09-08T11:07:50.000Z</time>
      </trkpt>
      <trkpt lat="47.27354" lon="-2.33304">
        <ele>-18.799999237061</ele>
        <time>2022-09-08T11:07:55.000Z</time>
      </trkpt>
      <trkpt lat="47.27329" lon="-2.33274">
        <ele>-18.799999237061</ele>
        <time>2022-09-08T11:08:00.000Z</time>
      </trkpt>
      <trkpt lat="47.27289" lon="-2.33239">
        <ele>-18.799999237061</ele>
        <time>2022-09-08T11:08:07.000Z</time>
      </trkpt>
      <trkpt lat="47.27256" lon="-2.33229">
        <ele>-18.799999237061</ele>
        <time>2022-09-08T11:08:13.000Z</time>
      </trkpt>
      <trkpt lat="47.27241" lon="-2.33228">
        <ele>-19.200000762939</ele>
        <time>2022-09-08T11:08:16.000Z</time>
      </trkpt>
      <trkpt lat="47.27236" lon="-2.33228">
        <ele>-19.60000038147</ele>
        <time>2022-09-08T11:08:17.000Z</time>
      </trkpt>
      <trkpt lat="47.27232" lon="-2.33228">
        <ele>-20.200000762939</ele>
        <time>2022-09-08T11:08:18.000Z</time>
      </trkpt>
      <trkpt lat="47.27227" lon="-2.33229">
        <ele>-20.60000038147</ele>
        <time>2022-09-08T11:08:19.000Z</time>
      </trkpt>
      <trkpt lat="47.27222" lon="-2.3323">
        <ele>-21</ele>
        <time>2022-09-08T11:08:20.000Z</time>
      </trkpt>
      <trkpt lat="47.27216" lon="-2.33231">
        <ele>-21</ele>
        <time>2022-09-08T11:08:21.000Z</time>
      </trkpt>
      <trkpt lat="47.27197" lon="-2.33243">
        <ele>-21</ele>
        <time>2022-09-08T11:08:25.000Z</time>
      </trkpt>
      <trkpt lat="47.27186" lon="-2.33249">
        <ele>-21</ele>
        <time>2022-09-08T11:08:27.000Z</time>
      </trkpt>
      <trkpt lat="47.2717" lon="-2.33256">
        <ele>-21</ele>
        <time>2022-09-08T11:08:30.000Z</time>
      </trkpt>
      <trkpt lat="47.27127" lon="-2.33277">
        <ele>-21</ele>
        <time>2022-09-08T11:08:38.000Z</time>
      </trkpt>
      <trkpt lat="47.27089" lon="-2.33302">
        <ele>-21</ele>
        <time>2022-09-08T11:08:45.000Z</time>
      </trkpt>
      <trkpt lat="47.27056" lon="-2.33322">
        <ele>-21</ele>
        <time>2022-09-08T11:08:51.000Z</time>
      </trkpt>
      <trkpt lat="47.2703" lon="-2.3334">
        <ele>-21.39999961853</ele>
        <time>2022-09-08T11:08:56.000Z</time>
      </trkpt>
      <trkpt lat="47.27025" lon="-2.33344">
        <ele>-21.799999237061</ele>
        <time>2022-09-08T11:08:57.000Z</time>
      </trkpt>
      <trkpt lat="47.27021" lon="-2.33347">
        <ele>-22.200000762939</ele>
        <time>2022-09-08T11:08:58.000Z</time>
      </trkpt>
      <trkpt lat="47.27015" lon="-2.3335">
        <ele>-22.60000038147</ele>
        <time>2022-09-08T11:08:59.000Z</time>
      </trkpt>
      <trkpt lat="47.2701" lon="-2.33354">
        <ele>-23</ele>
        <time>2022-09-08T11:09:00.000Z</time>
      </trkpt>
      <trkpt lat="47.27006" lon="-2.33358">
        <ele>-23</ele>
        <time>2022-09-08T11:09:01.000Z</time>
      </trkpt>
      <trkpt lat="47.26997" lon="-2.33367">
        <ele>-23</ele>
        <time>2022-09-08T11:09:03.000Z</time>
      </trkpt>
      <trkpt lat="47.26993" lon="-2.33371">
        <ele>-23</ele>
        <time>2022-09-08T11:09:04.000Z</time>
      </trkpt>
      <trkpt lat="47.26977" lon="-2.33375">
        <ele>-23</ele>
        <time>2022-09-08T11:09:07.000Z</time>
      </trkpt>
      <trkpt lat="47.26972" lon="-2.33375">
        <ele>-23.39999961853</ele>
        <time>2022-09-08T11:09:08.000Z</time>
      </trkpt>
      <trkpt lat="47.26966" lon="-2.33376">
        <ele>-23.799999237061</ele>
        <time>2022-09-08T11:09:09.000Z</time>
      </trkpt>
      <trkpt lat="47.26961" lon="-2.33378">
        <ele>-24.200000762939</ele>
        <time>2022-09-08T11:09:10.000Z</time>
      </trkpt>
      <trkpt lat="47.26956" lon="-2.3338">
        <ele>-24.799999237061</ele>
        <time>2022-09-08T11:09:11.000Z</time>
      </trkpt>
      <trkpt lat="47.2695" lon="-2.33383">
        <ele>-25.200000762939</ele>
        <time>2022-09-08T11:09:12.000Z</time>
      </trkpt>
      <trkpt lat="47.26939" lon="-2.3339">
        <ele>-25.200000762939</ele>
        <time>2022-09-08T11:09:14.000Z</time>
      </trkpt>
      <trkpt lat="47.26927" lon="-2.33396">
        <ele>-25.200000762939</ele>
        <time>2022-09-08T11:09:16.000Z</time>
      </trkpt>
      <trkpt lat="47.26915" lon="-2.33401">
        <ele>-25.60000038147</ele>
        <time>2022-09-08T11:09:18.000Z</time>
      </trkpt>
      <trkpt lat="47.26909" lon="-2.33404">
        <ele>-26</ele>
        <time>2022-09-08T11:09:19.000Z</time>
      </trkpt>
      <trkpt lat="47.26903" lon="-2.33407">
        <ele>-26.39999961853</ele>
        <time>2022-09-08T11:09:20.000Z</time>
      </trkpt>
      <trkpt lat="47.26897" lon="-2.33411">
        <ele>-26.799999237061</ele>
        <time>2022-09-08T11:09:21.000Z</time>
      </trkpt>
      <trkpt lat="47.26891" lon="-2.33414">
        <ele>-27.200000762939</ele>
        <time>2022-09-08T11:09:22.000Z</time>
      </trkpt>
      <trkpt lat="47.26886" lon="-2.33417">
        <ele>-27.60000038147</ele>
        <time>2022-09-08T11:09:23.000Z</time>
      </trkpt>
      <trkpt lat="47.26883" lon="-2.33419">
        <ele>-28.200000762939</ele>
        <time>2022-09-08T11:09:24.000Z</time>
      </trkpt>
      <trkpt lat="47.26881" lon="-2.33422">
        <ele>-28.60000038147</ele>
        <time>2022-09-08T11:09:25.000Z</time>
      </trkpt>
      <trkpt lat="47.26879" lon="-2.33426">
        <ele>-29.39999961853</ele>
        <time>2022-09-08T11:09:26.000Z</time>
      </trkpt>
      <trkpt lat="47.26877" lon="-2.3343">
        <ele>-29.799999237061</ele>
        <time>2022-09-08T11:09:27.000Z</time>
      </trkpt>
      <trkpt lat="47.26876" lon="-2.33434">
        <ele>-30.200000762939</ele>
        <time>2022-09-08T11:09:28.000Z</time>
      </trkpt>
      <trkpt lat="47.26876" lon="-2.3344">
        <ele>-30.799999237061</ele>
        <time>2022-09-08T11:09:29.000Z</time>
      </trkpt>
      <trkpt lat="47.26876" lon="-2.33447">
        <ele>-31.200000762939</ele>
        <time>2022-09-08T11:09:30.000Z</time>
      </trkpt>
      <trkpt lat="47.26877" lon="-2.33455">
        <ele>-31.60000038147</ele>
        <time>2022-09-08T11:09:31.000Z</time>
      </trkpt>
      <trkpt lat="47.2688" lon="-2.33474">
        <ele>-32.200000762939</ele>
        <time>2022-09-08T11:09:33.000Z</time>
      </trkpt>
      <trkpt lat="47.26882" lon="-2.33485">
        <ele>-32.599998474121</ele>
        <time>2022-09-08T11:09:34.000Z</time>
      </trkpt>
      <trkpt lat="47.26885" lon="-2.33496">
        <ele>-33.200000762939</ele>
        <time>2022-09-08T11:09:35.000Z</time>
      </trkpt>
      <trkpt lat="47.26887" lon="-2.33505">
        <ele>-33.799999237061</ele>
        <time>2022-09-08T11:09:36.000Z</time>
      </trkpt>
      <trkpt lat="47.26888" lon="-2.33513">
        <ele>-34.599998474121</ele>
        <time>2022-09-08T11:09:37.000Z</time>
      </trkpt>
      <trkpt lat="47.26889" lon="-2.33519">
        <ele>-35.200000762939</ele>
        <time>2022-09-08T11:09:38.000Z</time>
      </trkpt>
      <trkpt lat="47.26889" lon="-2.33524">
        <ele>-35.799999237061</ele>
        <time>2022-09-08T11:09:39.000Z</time>
      </trkpt>
      <trkpt lat="47.26888" lon="-2.33529">
        <ele>-36.599998474121</ele>
        <time>2022-09-08T11:09:40.000Z</time>
      </trkpt>
      <trkpt lat="47.26887" lon="-2.33533">
        <ele>-37.400001525879</ele>
        <time>2022-09-08T11:09:41.000Z</time>
      </trkpt>
      <trkpt lat="47.26883" lon="-2.33536">
        <ele>-38</ele>
        <time>2022-09-08T11:09:42.000Z</time>
      </trkpt>
      <trkpt lat="47.26878" lon="-2.33537">
        <ele>-38.799999237061</ele>
        <time>2022-09-08T11:09:43.000Z</time>
      </trkpt>
      <trkpt lat="47.26873" lon="-2.33537">
        <ele>-38.799999237061</ele>
        <time>2022-09-08T11:09:44.000Z</time>
      </trkpt>
      <trkpt lat="47.26843" lon="-2.33547">
        <ele>-39.200000762939</ele>
        <time>2022-09-08T11:09:49.000Z</time>
      </trkpt>
      <trkpt lat="47.26838" lon="-2.33551">
        <ele>-39.599998474121</ele>
        <time>2022-09-08T11:09:50.000Z</time>
      </trkpt>
      <trkpt lat="47.26832" lon="-2.33553">
        <ele>-40.400001525879</ele>
        <time>2022-09-08T11:09:51.000Z</time>
      </trkpt>
      <trkpt lat="47.26826" lon="-2.33555">
        <ele>-41</ele>
        <time>2022-09-08T11:09:52.000Z</time>
      </trkpt>
      <trkpt lat="47.2682" lon="-2.33557">
        <ele>-41</ele>
        <time>2022-09-08T11:09:53.000Z</time>
      </trkpt>
      <trkpt lat="47.26799" lon="-2.33564">
        <ele>-41</ele>
        <time>2022-09-08T11:09:57.000Z</time>
      </trkpt>
      <trkpt lat="47.26784" lon="-2.33572">
        <ele>-41</ele>
        <time>2022-09-08T11:10:01.000Z</time>
      </trkpt>
      <trkpt lat="47.26782" lon="-2.33575">
        <ele>-41</ele>
        <time>2022-09-08T11:10:02.000Z</time>
      </trkpt>
      <trkpt lat="47.26779" lon="-2.33587">
        <ele>-41</ele>
        <time>2022-09-08T11:10:05.000Z</time>
      </trkpt>
      <trkpt lat="47.26779" lon="-2.33592">
        <ele>-41</ele>
        <time>2022-09-08T11:10:06.000Z</time>
      </trkpt>
      <trkpt lat="47.26777" lon="-2.33629">
        <ele>-41</ele>
        <time>2022-09-08T11:10:12.000Z</time>
      </trkpt>
      <trkpt lat="47.26776" lon="-2.33666">
        <ele>-41</ele>
        <time>2022-09-08T11:10:18.000Z</time>
      </trkpt>
      <trkpt lat="47.26776" lon="-2.33672">
        <ele>-41</ele>
        <time>2022-09-08T11:10:19.000Z</time>
      </trkpt>
      <trkpt lat="47.26777" lon="-2.33698">
        <ele>-41</ele>
        <time>2022-09-08T11:10:24.000Z</time>
      </trkpt>
      <trkpt lat="47.26775" lon="-2.33701">
        <ele>-41</ele>
        <time>2022-09-08T11:10:25.000Z</time>
      </trkpt>
      <trkpt lat="47.26768" lon="-2.33702">
        <ele>-41</ele>
        <time>2022-09-08T11:10:27.000Z</time>
      </trkpt>
      <trkpt lat="47.26746" lon="-2.33698">
        <ele>-41</ele>
        <time>2022-09-08T11:10:32.000Z</time>
      </trkpt>
      <trkpt lat="47.26736" lon="-2.33698">
        <ele>-40.599998474121</ele>
        <time>2022-09-08T11:10:34.000Z</time>
      </trkpt>
      <trkpt lat="47.26731" lon="-2.33698">
        <ele>-40.200000762939</ele>
        <time>2022-09-08T11:10:35.000Z</time>
      </trkpt>
      <trkpt lat="47.26726" lon="-2.33699">
        <ele>-39.799999237061</ele>
        <time>2022-09-08T11:10:36.000Z</time>
      </trkpt>
      <trkpt lat="47.26721" lon="-2.33699">
        <ele>-39.400001525879</ele>
        <time>2022-09-08T11:10:37.000Z</time>
      </trkpt>
      <trkpt lat="47.26716" lon="-2.33699">
        <ele>-39</ele>
        <time>2022-09-08T11:10:38.000Z</time>
      </trkpt>
      <trkpt lat="47.26702" lon="-2.337">
        <ele>-39</ele>
        <time>2022-09-08T11:10:41.000Z</time>
      </trkpt>
      <trkpt lat="47.26672" lon="-2.337">
        <ele>-39</ele>
        <time>2022-09-08T11:10:47.000Z</time>
      </trkpt>
      <trkpt lat="47.26658" lon="-2.33699">
        <ele>-39</ele>
        <time>2022-09-08T11:10:50.000Z</time>
      </trkpt>
      <trkpt lat="47.26648" lon="-2.337">
        <ele>-39</ele>
        <time>2022-09-08T11:10:52.000Z</time>
      </trkpt>
      <trkpt lat="47.26619" lon="-2.33702">
        <ele>-39</ele>
        <time>2022-09-08T11:10:58.000Z</time>
      </trkpt>
      <trkpt lat="47.26612" lon="-2.33704">
        <ele>-39</ele>
        <time>2022-09-08T11:11:00.000Z</time>
      </trkpt>
      <trkpt lat="47.26607" lon="-2.33704">
        <ele>-39</ele>
        <time>2022-09-08T11:11:02.000Z</time>
      </trkpt>
      <trkpt lat="47.26601" lon="-2.33702">
        <ele>-39</ele>
        <time>2022-09-08T11:11:04.000Z</time>
      </trkpt>
      <trkpt lat="47.26587" lon="-2.33692">
        <ele>-39</ele>
        <time>2022-09-08T11:11:08.000Z</time>
      </trkpt>
      <trkpt lat="47.26583" lon="-2.33691">
        <ele>-39</ele>
        <time>2022-09-08T11:11:09.000Z</time>
      </trkpt>
      <trkpt lat="47.26575" lon="-2.33681">
        <ele>-39</ele>
        <time>2022-09-08T11:11:12.000Z</time>
      </trkpt>
      <trkpt lat="47.26574" lon="-2.33661">
        <ele>-39</ele>
        <time>2022-09-08T11:11:15.000Z</time>
      </trkpt>
      <trkpt lat="47.26574" lon="-2.33653">
        <ele>-39</ele>
        <time>2022-09-08T11:11:16.000Z</time>
      </trkpt>
      <trkpt lat="47.26568" lon="-2.33601">
        <ele>-39</ele>
        <time>2022-09-08T11:11:22.000Z</time>
      </trkpt>
      <trkpt lat="47.26564" lon="-2.33574">
        <ele>-39.400001525879</ele>
        <time>2022-09-08T11:11:25.000Z</time>
      </trkpt>
      <trkpt lat="47.26562" lon="-2.33566">
        <ele>-39.799999237061</ele>
        <time>2022-09-08T11:11:26.000Z</time>
      </trkpt>
      <trkpt lat="47.2656" lon="-2.33557">
        <ele>-40.200000762939</ele>
        <time>2022-09-08T11:11:27.000Z</time>
      </trkpt>
      <trkpt lat="47.26557" lon="-2.3355">
        <ele>-40.599998474121</ele>
        <time>2022-09-08T11:11:28.000Z</time>
      </trkpt>
      <trkpt lat="47.26555" lon="-2.33541">
        <ele>-41</ele>
        <time>2022-09-08T11:11:29.000Z</time>
      </trkpt>
      <trkpt lat="47.2655" lon="-2.33516">
        <ele>-41</ele>
        <time>2022-09-08T11:11:32.000Z</time>
      </trkpt>
      <trkpt lat="47.26539" lon="-2.33483">
        <ele>-41</ele>
        <time>2022-09-08T11:11:36.000Z</time>
      </trkpt>
      <trkpt lat="47.26537" lon="-2.33473">
        <ele>-41</ele>
        <time>2022-09-08T11:11:37.000Z</time>
      </trkpt>
      <trkpt lat="47.2653" lon="-2.3342">
        <ele>-41</ele>
        <time>2022-09-08T11:11:43.000Z</time>
      </trkpt>
      <trkpt lat="47.26525" lon="-2.33382">
        <ele>-41</ele>
        <time>2022-09-08T11:11:48.000Z</time>
      </trkpt>
      <trkpt lat="47.26523" lon="-2.33369">
        <ele>-41</ele>
        <time>2022-09-08T11:11:50.000Z</time>
      </trkpt>
      <trkpt lat="47.26515" lon="-2.33354">
        <ele>-41</ele>
        <time>2022-09-08T11:11:53.000Z</time>
      </trkpt>
      <trkpt lat="47.265" lon="-2.33346">
        <ele>-41</ele>
        <time>2022-09-08T11:11:57.000Z</time>
      </trkpt>
      <trkpt lat="47.26497" lon="-2.33346">
        <ele>-41</ele>
        <time>2022-09-08T11:11:58.000Z</time>
      </trkpt>
      <trkpt lat="47.2649" lon="-2.33347">
        <ele>-41</ele>
        <time>2022-09-08T11:12:01.000Z</time>
      </trkpt>
      <trkpt lat="47.2649" lon="-2.33347">
        <ele>-41</ele>
        <time>2022-09-08T11:12:02.000Z</time>
      </trkpt>
      <trkpt lat="47.26485" lon="-2.33338">
        <ele>-41</ele>
        <time>2022-09-08T11:12:06.000Z</time>
      </trkpt>
      <trkpt lat="47.26479" lon="-2.33324">
        <ele>-41</ele>
        <time>2022-09-08T11:12:09.000Z</time>
      </trkpt>
      <trkpt lat="47.26477" lon="-2.33317">
        <ele>-41</ele>
        <time>2022-09-08T11:12:10.000Z</time>
      </trkpt>
      <trkpt lat="47.26478" lon="-2.33289">
        <ele>-41</ele>
        <time>2022-09-08T11:12:14.000Z</time>
      </trkpt>
      <trkpt lat="47.2647" lon="-2.33275">
        <ele>-41</ele>
        <time>2022-09-08T11:12:17.000Z</time>
      </trkpt>
      <trkpt lat="47.26457" lon="-2.33273">
        <ele>-41</ele>
        <time>2022-09-08T11:12:20.000Z</time>
      </trkpt>
      <trkpt lat="47.26453" lon="-2.33271">
        <ele>-41</ele>
        <time>2022-09-08T11:12:21.000Z</time>
      </trkpt>
      <trkpt lat="47.26438" lon="-2.33268">
        <ele>-41</ele>
        <time>2022-09-08T11:12:24.000Z</time>
      </trkpt>
      <trkpt lat="47.26428" lon="-2.33267">
        <ele>-41</ele>
        <time>2022-09-08T11:12:26.000Z</time>
      </trkpt>
      <trkpt lat="47.26423" lon="-2.33267">
        <ele>-41</ele>
        <time>2022-09-08T11:12:27.000Z</time>
      </trkpt>
      <trkpt lat="47.26393" lon="-2.33261">
        <ele>-41</ele>
        <time>2022-09-08T11:12:33.000Z</time>
      </trkpt>
      <trkpt lat="47.26381" lon="-2.33248">
        <ele>-41</ele>
        <time>2022-09-08T11:12:36.000Z</time>
      </trkpt>
      <trkpt lat="47.26378" lon="-2.33232">
        <ele>-41.400001525879</ele>
        <time>2022-09-08T11:12:38.000Z</time>
      </trkpt>
      <trkpt lat="47.26378" lon="-2.33225">
        <ele>-41.799999237061</ele>
        <time>2022-09-08T11:12:39.000Z</time>
      </trkpt>
      <trkpt lat="47.26377" lon="-2.33217">
        <ele>-42.200000762939</ele>
        <time>2022-09-08T11:12:40.000Z</time>
      </trkpt>
      <trkpt lat="47.26377" lon="-2.33209">
        <ele>-42.599998474121</ele>
        <time>2022-09-08T11:12:41.000Z</time>
      </trkpt>
      <trkpt lat="47.26377" lon="-2.33201">
        <ele>-43.200000762939</ele>
        <time>2022-09-08T11:12:42.000Z</time>
      </trkpt>
      <trkpt lat="47.26374" lon="-2.33154">
        <ele>-43.200000762939</ele>
        <time>2022-09-08T11:12:48.000Z</time>
      </trkpt>
      <trkpt lat="47.26371" lon="-2.33099">
        <ele>-43.200000762939</ele>
        <time>2022-09-08T11:12:55.000Z</time>
      </trkpt>
      <trkpt lat="47.26367" lon="-2.33027">
        <ele>-43.200000762939</ele>
        <time>2022-09-08T11:13:04.000Z</time>
      </trkpt>
      <trkpt lat="47.26365" lon="-2.32995">
        <ele>-43.200000762939</ele>
        <time>2022-09-08T11:13:08.000Z</time>
      </trkpt>
      <trkpt lat="47.26357" lon="-2.32975">
        <ele>-43.200000762939</ele>
        <time>2022-09-08T11:13:11.000Z</time>
      </trkpt>
      <trkpt lat="47.26344" lon="-2.32951">
        <ele>-43.200000762939</ele>
        <time>2022-09-08T11:13:15.000Z</time>
      </trkpt>
      <trkpt lat="47.26341" lon="-2.32943">
        <ele>-43.200000762939</ele>
        <time>2022-09-08T11:13:16.000Z</time>
      </trkpt>
      <trkpt lat="47.26322" lon="-2.32886">
        <ele>-43.200000762939</ele>
        <time>2022-09-08T11:13:24.000Z</time>
      </trkpt>
      <trkpt lat="47.26316" lon="-2.32872">
        <ele>-43.200000762939</ele>
        <time>2022-09-08T11:13:26.000Z</time>
      </trkpt>
      <trkpt lat="47.26308" lon="-2.32862">
        <ele>-43.200000762939</ele>
        <time>2022-09-08T11:13:28.000Z</time>
      </trkpt>
      <trkpt lat="47.26289" lon="-2.3285">
        <ele>-43.200000762939</ele>
        <time>2022-09-08T11:13:32.000Z</time>
      </trkpt>
      <trkpt lat="47.26285" lon="-2.32829">
        <ele>-43.200000762939</ele>
        <time>2022-09-08T11:13:35.000Z</time>
      </trkpt>
      <trkpt lat="47.26284" lon="-2.32821">
        <ele>-43.200000762939</ele>
        <time>2022-09-08T11:13:36.000Z</time>
      </trkpt>
      <trkpt lat="47.26278" lon="-2.328">
        <ele>-43.200000762939</ele>
        <time>2022-09-08T11:13:39.000Z</time>
      </trkpt>
      <trkpt lat="47.26264" lon="-2.32768">
        <ele>-43.200000762939</ele>
        <time>2022-09-08T11:13:44.000Z</time>
      </trkpt>
      <trkpt lat="47.26257" lon="-2.32756">
        <ele>-43.200000762939</ele>
        <time>2022-09-08T11:13:46.000Z</time>
      </trkpt>
      <trkpt lat="47.26229" lon="-2.32715">
        <ele>-43.200000762939</ele>
        <time>2022-09-08T11:13:54.000Z</time>
      </trkpt>
      <trkpt lat="47.26215" lon="-2.32694">
        <ele>-42.400001525879</ele>
        <time>2022-09-08T11:13:58.000Z</time>
      </trkpt>
      <trkpt lat="47.26211" lon="-2.32689">
        <ele>-42</ele>
        <time>2022-09-08T11:13:59.000Z</time>
      </trkpt>
      <trkpt lat="47.26208" lon="-2.32685">
        <ele>-41.400001525879</ele>
        <time>2022-09-08T11:14:00.000Z</time>
      </trkpt>
      <trkpt lat="47.26203" lon="-2.3268">
        <ele>-41</ele>
        <time>2022-09-08T11:14:01.000Z</time>
      </trkpt>
      <trkpt lat="47.26199" lon="-2.32676">
        <ele>-41</ele>
        <time>2022-09-08T11:14:02.000Z</time>
      </trkpt>
      <trkpt lat="47.26167" lon="-2.32651">
        <ele>-41</ele>
        <time>2022-09-08T11:14:09.000Z</time>
      </trkpt>
      <trkpt lat="47.26152" lon="-2.32643">
        <ele>-41</ele>
        <time>2022-09-08T11:14:12.000Z</time>
      </trkpt>
      <trkpt lat="47.26136" lon="-2.32639">
        <ele>-41</ele>
        <time>2022-09-08T11:14:15.000Z</time>
      </trkpt>
      <trkpt lat="47.26104" lon="-2.32637">
        <ele>-41</ele>
        <time>2022-09-08T11:14:21.000Z</time>
      </trkpt>
      <trkpt lat="47.2606" lon="-2.32644">
        <ele>-41</ele>
        <time>2022-09-08T11:14:29.000Z</time>
      </trkpt>
      <trkpt lat="47.26022" lon="-2.3265">
        <ele>-41</ele>
        <time>2022-09-08T11:14:36.000Z</time>
      </trkpt>
      <trkpt lat="47.25979" lon="-2.32655">
        <ele>-41</ele>
        <time>2022-09-08T11:14:44.000Z</time>
      </trkpt>
      <trkpt lat="47.25968" lon="-2.32655">
        <ele>-41</ele>
        <time>2022-09-08T11:14:46.000Z</time>
      </trkpt>
      <trkpt lat="47.25961" lon="-2.32653">
        <ele>-41</ele>
        <time>2022-09-08T11:14:48.000Z</time>
      </trkpt>
      <trkpt lat="47.25959" lon="-2.32642">
        <ele>-41.599998474121</ele>
        <time>2022-09-08T11:14:50.000Z</time>
      </trkpt>
      <trkpt lat="47.2596" lon="-2.32636">
        <ele>-42</ele>
        <time>2022-09-08T11:14:51.000Z</time>
      </trkpt>
      <trkpt lat="47.2596" lon="-2.32629">
        <ele>-42.400001525879</ele>
        <time>2022-09-08T11:14:52.000Z</time>
      </trkpt>
      <trkpt lat="47.25961" lon="-2.32622">
        <ele>-42.799999237061</ele>
        <time>2022-09-08T11:14:53.000Z</time>
      </trkpt>
      <trkpt lat="47.25961" lon="-2.32615">
        <ele>-43.200000762939</ele>
        <time>2022-09-08T11:14:54.000Z</time>
      </trkpt>
      <trkpt lat="47.2596" lon="-2.32608">
        <ele>-43.200000762939</ele>
        <time>2022-09-08T11:14:55.000Z</time>
      </trkpt>
      <trkpt lat="47.25959" lon="-2.32601">
        <ele>-43.200000762939</ele>
        <time>2022-09-08T11:14:56.000Z</time>
      </trkpt>
      <trkpt lat="47.25947" lon="-2.32561">
        <ele>-43.200000762939</ele>
        <time>2022-09-08T11:15:02.000Z</time>
      </trkpt>
      <trkpt lat="47.25945" lon="-2.32554">
        <ele>-43.200000762939</ele>
        <time>2022-09-08T11:15:03.000Z</time>
      </trkpt>
      <trkpt lat="47.25937" lon="-2.32528">
        <ele>-43.200000762939</ele>
        <time>2022-09-08T11:15:07.000Z</time>
      </trkpt>
      <trkpt lat="47.25923" lon="-2.3249">
        <ele>-43.200000762939</ele>
        <time>2022-09-08T11:15:13.000Z</time>
      </trkpt>
      <trkpt lat="47.25911" lon="-2.32469">
        <ele>-43.200000762939</ele>
        <time>2022-09-08T11:15:18.000Z</time>
      </trkpt>
      <trkpt lat="47.25902" lon="-2.3246">
        <ele>-43.200000762939</ele>
        <time>2022-09-08T11:15:21.000Z</time>
      </trkpt>
      <trkpt lat="47.25902" lon="-2.32454">
        <ele>-43.200000762939</ele>
        <time>2022-09-08T11:15:22.000Z</time>
      </trkpt>
      <trkpt lat="47.25912" lon="-2.32441">
        <ele>-43.200000762939</ele>
        <time>2022-09-08T11:15:25.000Z</time>
      </trkpt>
      <trkpt lat="47.2592" lon="-2.32433">
        <ele>-43.200000762939</ele>
        <time>2022-09-08T11:15:27.000Z</time>
      </trkpt>
      <trkpt lat="47.25934" lon="-2.32414">
        <ele>-43.200000762939</ele>
        <time>2022-09-08T11:15:31.000Z</time>
      </trkpt>
      <trkpt lat="47.25961" lon="-2.32378">
        <ele>-43.200000762939</ele>
        <time>2022-09-08T11:15:38.000Z</time>
      </trkpt>
      <trkpt lat="47.25997" lon="-2.32331">
        <ele>-43.200000762939</ele>
        <time>2022-09-08T11:15:47.000Z</time>
      </trkpt>
      <trkpt lat="47.26025" lon="-2.32296">
        <ele>-43.200000762939</ele>
        <time>2022-09-08T11:15:54.000Z</time>
      </trkpt>
      <trkpt lat="47.2605" lon="-2.32269">
        <ele>-43.200000762939</ele>
        <time>2022-09-08T11:16:00.000Z</time>
      </trkpt>
      <trkpt lat="47.26073" lon="-2.3224">
        <ele>-43.200000762939</ele>
        <time>2022-09-08T11:16:06.000Z</time>
      </trkpt>
      <trkpt lat="47.26095" lon="-2.32207">
        <ele>-43.200000762939</ele>
        <time>2022-09-08T11:16:12.000Z</time>
      </trkpt>
      <trkpt lat="47.26105" lon="-2.32189">
        <ele>-43.200000762939</ele>
        <time>2022-09-08T11:16:15.000Z</time>
      </trkpt>
      <trkpt lat="47.2611" lon="-2.32175">
        <ele>-43.200000762939</ele>
        <time>2022-09-08T11:16:17.000Z</time>
      </trkpt>
      <trkpt lat="47.26122" lon="-2.32143">
        <ele>-43.200000762939</ele>
        <time>2022-09-08T11:16:22.000Z</time>
      </trkpt>
      <trkpt lat="47.26125" lon="-2.32136">
        <ele>-43.200000762939</ele>
        <time>2022-09-08T11:16:23.000Z</time>
      </trkpt>
      <trkpt lat="47.26131" lon="-2.32115">
        <ele>-43.200000762939</ele>
        <time>2022-09-08T11:16:26.000Z</time>
      </trkpt>
      <trkpt lat="47.26137" lon="-2.32093">
        <ele>-43.200000762939</ele>
        <time>2022-09-08T11:16:29.000Z</time>
      </trkpt>
      <trkpt lat="47.26155" lon="-2.3204">
        <ele>-43.200000762939</ele>
        <time>2022-09-08T11:16:37.000Z</time>
      </trkpt>
      <trkpt lat="47.26161" lon="-2.32028">
        <ele>-43.200000762939</ele>
        <time>2022-09-08T11:16:39.000Z</time>
      </trkpt>
      <trkpt lat="47.26172" lon="-2.3202">
        <ele>-43.200000762939</ele>
        <time>2022-09-08T11:16:42.000Z</time>
      </trkpt>
      <trkpt lat="47.26179" lon="-2.32021">
        <ele>-43.200000762939</ele>
        <time>2022-09-08T11:16:44.000Z</time>
      </trkpt>
      <trkpt lat="47.26185" lon="-2.32023">
        <ele>-43.200000762939</ele>
        <time>2022-09-08T11:16:46.000Z</time>
      </trkpt>
      <trkpt lat="47.26193" lon="-2.32023">
        <ele>-43.200000762939</ele>
        <time>2022-09-08T11:16:50.000Z</time>
      </trkpt>
      <trkpt lat="47.26195" lon="-2.32021">
        <ele>-43.200000762939</ele>
        <time>2022-09-08T11:16:51.000Z</time>
      </trkpt>
      <trkpt lat="47.26197" lon="-2.32015">
        <ele>-43.200000762939</ele>
        <time>2022-09-08T11:16:53.000Z</time>
      </trkpt>
      <trkpt lat="47.26201" lon="-2.32005">
        <ele>-43.200000762939</ele>
        <time>2022-09-08T11:16:56.000Z</time>
      </trkpt>
      <trkpt lat="47.26203" lon="-2.32003">
        <ele>-43.200000762939</ele>
        <time>2022-09-08T11:16:57.000Z</time>
      </trkpt>
      <trkpt lat="47.26215" lon="-2.31989">
        <ele>-43.200000762939</ele>
        <time>2022-09-08T11:17:02.000Z</time>
      </trkpt>
      <trkpt lat="47.26219" lon="-2.31982">
        <ele>-43.200000762939</ele>
        <time>2022-09-08T11:17:04.000Z</time>
      </trkpt>
      <trkpt lat="47.26225" lon="-2.31975">
        <ele>-43.200000762939</ele>
        <time>2022-09-08T11:17:06.000Z</time>
      </trkpt>
      <trkpt lat="47.26243" lon="-2.31959">
        <ele>-43.200000762939</ele>
        <time>2022-09-08T11:17:11.000Z</time>
      </trkpt>
      <trkpt lat="47.26252" lon="-2.31944">
        <ele>-43.200000762939</ele>
        <time>2022-09-08T11:17:15.000Z</time>
      </trkpt>
      <trkpt lat="47.26254" lon="-2.3194">
        <ele>-43.200000762939</ele>
        <time>2022-09-08T11:17:16.000Z</time>
      </trkpt>
      <trkpt lat="47.26266" lon="-2.31923">
        <ele>-43.200000762939</ele>
        <time>2022-09-08T11:17:21.000Z</time>
      </trkpt>
      <trkpt lat="47.26288" lon="-2.31898">
        <ele>-43.200000762939</ele>
        <time>2022-09-08T11:17:27.000Z</time>
      </trkpt>
      <trkpt lat="47.26293" lon="-2.3189">
        <ele>-43.200000762939</ele>
        <time>2022-09-08T11:17:29.000Z</time>
      </trkpt>
      <trkpt lat="47.26294" lon="-2.31885">
        <ele>-43.200000762939</ele>
        <time>2022-09-08T11:17:30.000Z</time>
      </trkpt>
      <trkpt lat="47.26299" lon="-2.31838">
        <ele>-43.200000762939</ele>
        <time>2022-09-08T11:17:37.000Z</time>
      </trkpt>
      <trkpt lat="47.26302" lon="-2.31813">
        <ele>-43.200000762939</ele>
        <time>2022-09-08T11:17:41.000Z</time>
      </trkpt>
      <trkpt lat="47.26303" lon="-2.318">
        <ele>-43.200000762939</ele>
        <time>2022-09-08T11:17:43.000Z</time>
      </trkpt>
      <trkpt lat="47.26302" lon="-2.31783">
        <ele>-43.200000762939</ele>
        <time>2022-09-08T11:17:46.000Z</time>
      </trkpt>
      <trkpt lat="47.26301" lon="-2.31753">
        <ele>-43.200000762939</ele>
        <time>2022-09-08T11:17:51.000Z</time>
      </trkpt>
      <trkpt lat="47.26299" lon="-2.31725">
        <ele>-43.200000762939</ele>
        <time>2022-09-08T11:17:55.000Z</time>
      </trkpt>
      <trkpt lat="47.2631" lon="-2.31714">
        <ele>-43.200000762939</ele>
        <time>2022-09-08T11:17:58.000Z</time>
      </trkpt>
      <trkpt lat="47.26324" lon="-2.31706">
        <ele>-42.799999237061</ele>
        <time>2022-09-08T11:18:02.000Z</time>
      </trkpt>
      <trkpt lat="47.26327" lon="-2.31704">
        <ele>-42.400001525879</ele>
        <time>2022-09-08T11:18:03.000Z</time>
      </trkpt>
      <trkpt lat="47.26329" lon="-2.31701">
        <ele>-41.400001525879</ele>
        <time>2022-09-08T11:18:04.000Z</time>
      </trkpt>
      <trkpt lat="47.2633" lon="-2.31697">
        <ele>-41</ele>
        <time>2022-09-08T11:18:05.000Z</time>
      </trkpt>
      <trkpt lat="47.26337" lon="-2.31689">
        <ele>-41</ele>
        <time>2022-09-08T11:18:08.000Z</time>
      </trkpt>
      <trkpt lat="47.26345" lon="-2.31685">
        <ele>-41</ele>
        <time>2022-09-08T11:18:11.000Z</time>
      </trkpt>
      <trkpt lat="47.26352" lon="-2.31683">
        <ele>-40.599998474121</ele>
        <time>2022-09-08T11:18:13.000Z</time>
      </trkpt>
      <trkpt lat="47.26355" lon="-2.31681">
        <ele>-40.200000762939</ele>
        <time>2022-09-08T11:18:14.000Z</time>
      </trkpt>
      <trkpt lat="47.26358" lon="-2.3168">
        <ele>-39.799999237061</ele>
        <time>2022-09-08T11:18:15.000Z</time>
      </trkpt>
      <trkpt lat="47.26361" lon="-2.31679">
        <ele>-39.400001525879</ele>
        <time>2022-09-08T11:18:16.000Z</time>
      </trkpt>
      <trkpt lat="47.26364" lon="-2.31677">
        <ele>-39</ele>
        <time>2022-09-08T11:18:17.000Z</time>
      </trkpt>
      <trkpt lat="47.26366" lon="-2.31676">
        <ele>-39</ele>
        <time>2022-09-08T11:18:18.000Z</time>
      </trkpt>
      <trkpt lat="47.26382" lon="-2.31667">
        <ele>-39</ele>
        <time>2022-09-08T11:18:23.000Z</time>
      </trkpt>
      <trkpt lat="47.26394" lon="-2.3166">
        <ele>-39</ele>
        <time>2022-09-08T11:18:27.000Z</time>
      </trkpt>
      <trkpt lat="47.26407" lon="-2.3165">
        <ele>-39</ele>
        <time>2022-09-08T11:18:32.000Z</time>
      </trkpt>
      <trkpt lat="47.26409" lon="-2.31635">
        <ele>-39</ele>
        <time>2022-09-08T11:18:35.000Z</time>
      </trkpt>
      <trkpt lat="47.26409" lon="-2.3162">
        <ele>-38.400001525879</ele>
        <time>2022-09-08T11:18:38.000Z</time>
      </trkpt>
      <trkpt lat="47.26409" lon="-2.31615">
        <ele>-38</ele>
        <time>2022-09-08T11:18:39.000Z</time>
      </trkpt>
      <trkpt lat="47.26409" lon="-2.3161">
        <ele>-37.599998474121</ele>
        <time>2022-09-08T11:18:40.000Z</time>
      </trkpt>
      <trkpt lat="47.26409" lon="-2.31605">
        <ele>-37.200000762939</ele>
        <time>2022-09-08T11:18:41.000Z</time>
      </trkpt>
      <trkpt lat="47.26408" lon="-2.31599">
        <ele>-36.799999237061</ele>
        <time>2022-09-08T11:18:42.000Z</time>
      </trkpt>
      <trkpt lat="47.26409" lon="-2.31594">
        <ele>-36.799999237061</ele>
        <time>2022-09-08T11:18:43.000Z</time>
      </trkpt>
      <trkpt lat="47.2641" lon="-2.31573">
        <ele>-36.799999237061</ele>
        <time>2022-09-08T11:18:47.000Z</time>
      </trkpt>
      <trkpt lat="47.26412" lon="-2.31552">
        <ele>-36.799999237061</ele>
        <time>2022-09-08T11:18:53.000Z</time>
      </trkpt>
      <trkpt lat="47.26415" lon="-2.31552">
        <ele>-36.799999237061</ele>
        <time>2022-09-08T11:18:57.000Z</time>
      </trkpt>
      <trkpt lat="47.26415" lon="-2.31552">
        <ele>-36.799999237061</ele>
        <time>2022-09-08T11:18:58.000Z</time>
      </trkpt>
    </trkseg>
  </trk>
</gpx>